<?xml version="1.0" encoding="UTF-8" standalone="no" ?>
<gpx xmlns="http://www.topografix.com/GPX/1/1" xmlns:xsi="http://www.w3.org/2001/XMLSchema-instance" xsi:schemaLocation="http://www.topografix.com/GPX/1/1 http://www.topografix.com/GPX/1/1/gpx.xsd" version="1.1" creator="VisuGPX - https://www.visugpx.com">
  <metadata>
    <name>Thann Freundstein</name>
  </metadata>
  <trk>
    <name><![CDATA[Thann Cyclisme]]></name>
    <trkseg>
      <trkpt lat="47.81121" lon="7.10502">
        <ele>348.60000610352</ele>
        <time>2020-03-08T07:37:25.000Z</time>
      </trkpt>
      <trkpt lat="47.81125" lon="7.10502">
        <ele>348.60000610352</ele>
        <time>2020-03-08T07:37:29.000Z</time>
      </trkpt>
      <trkpt lat="47.81126" lon="7.10502">
        <ele>346</ele>
        <time>2020-03-08T07:37:30.000Z</time>
      </trkpt>
      <trkpt lat="47.81127" lon="7.10502">
        <ele>345</ele>
        <time>2020-03-08T07:37:31.000Z</time>
      </trkpt>
      <trkpt lat="47.81128" lon="7.10502">
        <ele>344.20001220703</ele>
        <time>2020-03-08T07:37:32.000Z</time>
      </trkpt>
      <trkpt lat="47.81131" lon="7.10501">
        <ele>343.20001220703</ele>
        <time>2020-03-08T07:37:33.000Z</time>
      </trkpt>
      <trkpt lat="47.81144" lon="7.10492">
        <ele>343.20001220703</ele>
        <time>2020-03-08T07:37:39.000Z</time>
      </trkpt>
      <trkpt lat="47.81155" lon="7.10474">
        <ele>343.20001220703</ele>
        <time>2020-03-08T07:37:46.000Z</time>
      </trkpt>
      <trkpt lat="47.81162" lon="7.10471">
        <ele>343.20001220703</ele>
        <time>2020-03-08T07:37:52.000Z</time>
      </trkpt>
      <trkpt lat="47.81161" lon="7.10471">
        <ele>343.20001220703</ele>
        <time>2020-03-08T07:37:54.000Z</time>
      </trkpt>
      <trkpt lat="47.81165" lon="7.10466">
        <ele>348.79998779297</ele>
        <time>2020-03-08T07:38:07.000Z</time>
      </trkpt>
      <trkpt lat="47.81168" lon="7.10465">
        <ele>348.79998779297</ele>
        <time>2020-03-08T07:38:08.000Z</time>
      </trkpt>
      <trkpt lat="47.81178" lon="7.10467">
        <ele>348.79998779297</ele>
        <time>2020-03-08T07:38:11.000Z</time>
      </trkpt>
      <trkpt lat="47.81182" lon="7.10467">
        <ele>348.79998779297</ele>
        <time>2020-03-08T07:38:12.000Z</time>
      </trkpt>
      <trkpt lat="47.81192" lon="7.10466">
        <ele>348.79998779297</ele>
        <time>2020-03-08T07:38:17.000Z</time>
      </trkpt>
      <trkpt lat="47.81196" lon="7.10467">
        <ele>348.79998779297</ele>
        <time>2020-03-08T07:38:20.000Z</time>
      </trkpt>
      <trkpt lat="47.812" lon="7.10469">
        <ele>348.79998779297</ele>
        <time>2020-03-08T07:38:22.000Z</time>
      </trkpt>
      <trkpt lat="47.81207" lon="7.10471">
        <ele>348.79998779297</ele>
        <time>2020-03-08T07:38:25.000Z</time>
      </trkpt>
      <trkpt lat="47.8121" lon="7.10472">
        <ele>348.79998779297</ele>
        <time>2020-03-08T07:38:26.000Z</time>
      </trkpt>
      <trkpt lat="47.81213" lon="7.10473">
        <ele>348.79998779297</ele>
        <time>2020-03-08T07:38:27.000Z</time>
      </trkpt>
      <trkpt lat="47.81232" lon="7.10478">
        <ele>348.79998779297</ele>
        <time>2020-03-08T07:38:34.000Z</time>
      </trkpt>
      <trkpt lat="47.81248" lon="7.10487">
        <ele>348.79998779297</ele>
        <time>2020-03-08T07:38:40.000Z</time>
      </trkpt>
      <trkpt lat="47.81266" lon="7.10496">
        <ele>348.79998779297</ele>
        <time>2020-03-08T07:38:47.000Z</time>
      </trkpt>
      <trkpt lat="47.81283" lon="7.10495">
        <ele>348.79998779297</ele>
        <time>2020-03-08T07:38:53.000Z</time>
      </trkpt>
      <trkpt lat="47.81299" lon="7.10491">
        <ele>349.39999389648</ele>
        <time>2020-03-08T07:39:00.000Z</time>
      </trkpt>
      <trkpt lat="47.81301" lon="7.1049">
        <ele>349.79998779297</ele>
        <time>2020-03-08T07:39:01.000Z</time>
      </trkpt>
      <trkpt lat="47.81302" lon="7.10487">
        <ele>350.20001220703</ele>
        <time>2020-03-08T07:39:02.000Z</time>
      </trkpt>
      <trkpt lat="47.81304" lon="7.10486">
        <ele>350.60000610352</ele>
        <time>2020-03-08T07:39:03.000Z</time>
      </trkpt>
      <trkpt lat="47.81306" lon="7.10485">
        <ele>351</ele>
        <time>2020-03-08T07:39:04.000Z</time>
      </trkpt>
      <trkpt lat="47.81307" lon="7.10483">
        <ele>351</ele>
        <time>2020-03-08T07:39:05.000Z</time>
      </trkpt>
      <trkpt lat="47.81316" lon="7.10474">
        <ele>351</ele>
        <time>2020-03-08T07:39:10.000Z</time>
      </trkpt>
      <trkpt lat="47.81327" lon="7.10462">
        <ele>351.39999389648</ele>
        <time>2020-03-08T07:39:16.000Z</time>
      </trkpt>
      <trkpt lat="47.81328" lon="7.1046">
        <ele>351.79998779297</ele>
        <time>2020-03-08T07:39:17.000Z</time>
      </trkpt>
      <trkpt lat="47.8133" lon="7.10457">
        <ele>352.20001220703</ele>
        <time>2020-03-08T07:39:18.000Z</time>
      </trkpt>
      <trkpt lat="47.81332" lon="7.10455">
        <ele>352.60000610352</ele>
        <time>2020-03-08T07:39:19.000Z</time>
      </trkpt>
      <trkpt lat="47.81333" lon="7.10453">
        <ele>353</ele>
        <time>2020-03-08T07:39:20.000Z</time>
      </trkpt>
      <trkpt lat="47.81335" lon="7.10451">
        <ele>353</ele>
        <time>2020-03-08T07:39:21.000Z</time>
      </trkpt>
      <trkpt lat="47.8134" lon="7.10445">
        <ele>353</ele>
        <time>2020-03-08T07:39:24.000Z</time>
      </trkpt>
      <trkpt lat="47.81349" lon="7.10433">
        <ele>353.39999389648</ele>
        <time>2020-03-08T07:39:30.000Z</time>
      </trkpt>
      <trkpt lat="47.81351" lon="7.10433">
        <ele>354</ele>
        <time>2020-03-08T07:39:31.000Z</time>
      </trkpt>
      <trkpt lat="47.81353" lon="7.10435">
        <ele>354.39999389648</ele>
        <time>2020-03-08T07:39:32.000Z</time>
      </trkpt>
      <trkpt lat="47.81355" lon="7.10438">
        <ele>354.79998779297</ele>
        <time>2020-03-08T07:39:33.000Z</time>
      </trkpt>
      <trkpt lat="47.81357" lon="7.1044">
        <ele>355.20001220703</ele>
        <time>2020-03-08T07:39:34.000Z</time>
      </trkpt>
      <trkpt lat="47.8136" lon="7.10442">
        <ele>355.20001220703</ele>
        <time>2020-03-08T07:39:35.000Z</time>
      </trkpt>
      <trkpt lat="47.81369" lon="7.10454">
        <ele>355.20001220703</ele>
        <time>2020-03-08T07:39:40.000Z</time>
      </trkpt>
      <trkpt lat="47.81387" lon="7.10468">
        <ele>355.20001220703</ele>
        <time>2020-03-08T07:39:47.000Z</time>
      </trkpt>
      <trkpt lat="47.81398" lon="7.10479">
        <ele>355.60000610352</ele>
        <time>2020-03-08T07:39:52.000Z</time>
      </trkpt>
      <trkpt lat="47.81401" lon="7.10481">
        <ele>356</ele>
        <time>2020-03-08T07:39:53.000Z</time>
      </trkpt>
      <trkpt lat="47.81403" lon="7.10483">
        <ele>356.39999389648</ele>
        <time>2020-03-08T07:39:54.000Z</time>
      </trkpt>
      <trkpt lat="47.81405" lon="7.10484">
        <ele>356.79998779297</ele>
        <time>2020-03-08T07:39:55.000Z</time>
      </trkpt>
      <trkpt lat="47.81408" lon="7.10485">
        <ele>357.20001220703</ele>
        <time>2020-03-08T07:39:56.000Z</time>
      </trkpt>
      <trkpt lat="47.81415" lon="7.10491">
        <ele>357.20001220703</ele>
        <time>2020-03-08T07:39:59.000Z</time>
      </trkpt>
      <trkpt lat="47.81429" lon="7.10503">
        <ele>357.60000610352</ele>
        <time>2020-03-08T07:40:06.000Z</time>
      </trkpt>
      <trkpt lat="47.81432" lon="7.10505">
        <ele>358</ele>
        <time>2020-03-08T07:40:07.000Z</time>
      </trkpt>
      <trkpt lat="47.81435" lon="7.10506">
        <ele>358.39999389648</ele>
        <time>2020-03-08T07:40:08.000Z</time>
      </trkpt>
      <trkpt lat="47.81437" lon="7.10506">
        <ele>358.79998779297</ele>
        <time>2020-03-08T07:40:09.000Z</time>
      </trkpt>
      <trkpt lat="47.8144" lon="7.10507">
        <ele>359.20001220703</ele>
        <time>2020-03-08T07:40:10.000Z</time>
      </trkpt>
      <trkpt lat="47.81446" lon="7.10508">
        <ele>359.20001220703</ele>
        <time>2020-03-08T07:40:12.000Z</time>
      </trkpt>
      <trkpt lat="47.81463" lon="7.10509">
        <ele>359.20001220703</ele>
        <time>2020-03-08T07:40:18.000Z</time>
      </trkpt>
      <trkpt lat="47.81469" lon="7.1051">
        <ele>359.60000610352</ele>
        <time>2020-03-08T07:40:20.000Z</time>
      </trkpt>
      <trkpt lat="47.81471" lon="7.1051">
        <ele>360</ele>
        <time>2020-03-08T07:40:21.000Z</time>
      </trkpt>
      <trkpt lat="47.81474" lon="7.1051">
        <ele>360.39999389648</ele>
        <time>2020-03-08T07:40:22.000Z</time>
      </trkpt>
      <trkpt lat="47.81477" lon="7.10512">
        <ele>360.79998779297</ele>
        <time>2020-03-08T07:40:23.000Z</time>
      </trkpt>
      <trkpt lat="47.81479" lon="7.10512">
        <ele>361.20001220703</ele>
        <time>2020-03-08T07:40:24.000Z</time>
      </trkpt>
      <trkpt lat="47.81485" lon="7.10515">
        <ele>361.20001220703</ele>
        <time>2020-03-08T07:40:26.000Z</time>
      </trkpt>
      <trkpt lat="47.81487" lon="7.10516">
        <ele>361.20001220703</ele>
        <time>2020-03-08T07:40:27.000Z</time>
      </trkpt>
      <trkpt lat="47.81501" lon="7.10527">
        <ele>361.20001220703</ele>
        <time>2020-03-08T07:40:33.000Z</time>
      </trkpt>
      <trkpt lat="47.81513" lon="7.10535">
        <ele>361.60000610352</ele>
        <time>2020-03-08T07:40:38.000Z</time>
      </trkpt>
      <trkpt lat="47.81516" lon="7.10536">
        <ele>362</ele>
        <time>2020-03-08T07:40:39.000Z</time>
      </trkpt>
      <trkpt lat="47.8152" lon="7.10538">
        <ele>362.39999389648</ele>
        <time>2020-03-08T07:40:40.000Z</time>
      </trkpt>
      <trkpt lat="47.81522" lon="7.1054">
        <ele>362.79998779297</ele>
        <time>2020-03-08T07:40:41.000Z</time>
      </trkpt>
      <trkpt lat="47.81525" lon="7.10542">
        <ele>363.20001220703</ele>
        <time>2020-03-08T07:40:42.000Z</time>
      </trkpt>
      <trkpt lat="47.81533" lon="7.10551">
        <ele>363.20001220703</ele>
        <time>2020-03-08T07:40:46.000Z</time>
      </trkpt>
      <trkpt lat="47.81546" lon="7.10561">
        <ele>363.60000610352</ele>
        <time>2020-03-08T07:40:51.000Z</time>
      </trkpt>
      <trkpt lat="47.81548" lon="7.10564">
        <ele>364.20001220703</ele>
        <time>2020-03-08T07:40:52.000Z</time>
      </trkpt>
      <trkpt lat="47.8155" lon="7.10567">
        <ele>364.60000610352</ele>
        <time>2020-03-08T07:40:53.000Z</time>
      </trkpt>
      <trkpt lat="47.81552" lon="7.10569">
        <ele>365</ele>
        <time>2020-03-08T07:40:54.000Z</time>
      </trkpt>
      <trkpt lat="47.81554" lon="7.10572">
        <ele>365.39999389648</ele>
        <time>2020-03-08T07:40:55.000Z</time>
      </trkpt>
      <trkpt lat="47.8156" lon="7.10584">
        <ele>365.39999389648</ele>
        <time>2020-03-08T07:40:59.000Z</time>
      </trkpt>
      <trkpt lat="47.8157" lon="7.10602">
        <ele>365.39999389648</ele>
        <time>2020-03-08T07:41:05.000Z</time>
      </trkpt>
      <trkpt lat="47.81572" lon="7.10605">
        <ele>365.79998779297</ele>
        <time>2020-03-08T07:41:06.000Z</time>
      </trkpt>
      <trkpt lat="47.81574" lon="7.10607">
        <ele>366.20001220703</ele>
        <time>2020-03-08T07:41:07.000Z</time>
      </trkpt>
      <trkpt lat="47.81576" lon="7.1061">
        <ele>366.60000610352</ele>
        <time>2020-03-08T07:41:08.000Z</time>
      </trkpt>
      <trkpt lat="47.81577" lon="7.10612">
        <ele>367.20001220703</ele>
        <time>2020-03-08T07:41:09.000Z</time>
      </trkpt>
      <trkpt lat="47.8158" lon="7.10615">
        <ele>367.60000610352</ele>
        <time>2020-03-08T07:41:10.000Z</time>
      </trkpt>
      <trkpt lat="47.81583" lon="7.1062">
        <ele>367.60000610352</ele>
        <time>2020-03-08T07:41:12.000Z</time>
      </trkpt>
      <trkpt lat="47.81594" lon="7.10641">
        <ele>367.60000610352</ele>
        <time>2020-03-08T07:41:19.000Z</time>
      </trkpt>
      <trkpt lat="47.81597" lon="7.10647">
        <ele>368</ele>
        <time>2020-03-08T07:41:21.000Z</time>
      </trkpt>
      <trkpt lat="47.81599" lon="7.10651">
        <ele>368.39999389648</ele>
        <time>2020-03-08T07:41:22.000Z</time>
      </trkpt>
      <trkpt lat="47.81601" lon="7.10653">
        <ele>368.79998779297</ele>
        <time>2020-03-08T07:41:23.000Z</time>
      </trkpt>
      <trkpt lat="47.81604" lon="7.10656">
        <ele>369.20001220703</ele>
        <time>2020-03-08T07:41:24.000Z</time>
      </trkpt>
      <trkpt lat="47.81605" lon="7.10659">
        <ele>369.60000610352</ele>
        <time>2020-03-08T07:41:25.000Z</time>
      </trkpt>
      <trkpt lat="47.81607" lon="7.10662">
        <ele>369.60000610352</ele>
        <time>2020-03-08T07:41:26.000Z</time>
      </trkpt>
      <trkpt lat="47.81621" lon="7.10685">
        <ele>369.60000610352</ele>
        <time>2020-03-08T07:41:34.000Z</time>
      </trkpt>
      <trkpt lat="47.81626" lon="7.10695">
        <ele>370.20001220703</ele>
        <time>2020-03-08T07:41:37.000Z</time>
      </trkpt>
      <trkpt lat="47.81628" lon="7.10697">
        <ele>370.60000610352</ele>
        <time>2020-03-08T07:41:38.000Z</time>
      </trkpt>
      <trkpt lat="47.81631" lon="7.10699">
        <ele>371</ele>
        <time>2020-03-08T07:41:39.000Z</time>
      </trkpt>
      <trkpt lat="47.81634" lon="7.10701">
        <ele>371.79998779297</ele>
        <time>2020-03-08T07:41:40.000Z</time>
      </trkpt>
      <trkpt lat="47.81635" lon="7.10704">
        <ele>371.79998779297</ele>
        <time>2020-03-08T07:41:41.000Z</time>
      </trkpt>
      <trkpt lat="47.8165" lon="7.10723">
        <ele>371.79998779297</ele>
        <time>2020-03-08T07:41:48.000Z</time>
      </trkpt>
      <trkpt lat="47.81659" lon="7.10736">
        <ele>372.20001220703</ele>
        <time>2020-03-08T07:41:53.000Z</time>
      </trkpt>
      <trkpt lat="47.81661" lon="7.10739">
        <ele>372.60000610352</ele>
        <time>2020-03-08T07:41:54.000Z</time>
      </trkpt>
      <trkpt lat="47.81663" lon="7.10742">
        <ele>373</ele>
        <time>2020-03-08T07:41:55.000Z</time>
      </trkpt>
      <trkpt lat="47.81665" lon="7.10745">
        <ele>373.39999389648</ele>
        <time>2020-03-08T07:41:56.000Z</time>
      </trkpt>
      <trkpt lat="47.81667" lon="7.10747">
        <ele>373.79998779297</ele>
        <time>2020-03-08T07:41:57.000Z</time>
      </trkpt>
      <trkpt lat="47.81673" lon="7.10757">
        <ele>373.79998779297</ele>
        <time>2020-03-08T07:42:01.000Z</time>
      </trkpt>
      <trkpt lat="47.81677" lon="7.10761">
        <ele>373.79998779297</ele>
        <time>2020-03-08T07:42:03.000Z</time>
      </trkpt>
      <trkpt lat="47.81681" lon="7.10766">
        <ele>374.79998779297</ele>
        <time>2020-03-08T07:42:05.000Z</time>
      </trkpt>
      <trkpt lat="47.81682" lon="7.10768">
        <ele>375.20001220703</ele>
        <time>2020-03-08T07:42:06.000Z</time>
      </trkpt>
      <trkpt lat="47.81684" lon="7.10771">
        <ele>375.60000610352</ele>
        <time>2020-03-08T07:42:07.000Z</time>
      </trkpt>
      <trkpt lat="47.81686" lon="7.10774">
        <ele>376</ele>
        <time>2020-03-08T07:42:08.000Z</time>
      </trkpt>
      <trkpt lat="47.81689" lon="7.10777">
        <ele>376</ele>
        <time>2020-03-08T07:42:10.000Z</time>
      </trkpt>
      <trkpt lat="47.81701" lon="7.10785">
        <ele>376.39999389648</ele>
        <time>2020-03-08T07:42:17.000Z</time>
      </trkpt>
      <trkpt lat="47.81702" lon="7.10785">
        <ele>376.79998779297</ele>
        <time>2020-03-08T07:42:18.000Z</time>
      </trkpt>
      <trkpt lat="47.81703" lon="7.10785">
        <ele>377.39999389648</ele>
        <time>2020-03-08T07:42:19.000Z</time>
      </trkpt>
      <trkpt lat="47.81704" lon="7.10786">
        <ele>377.79998779297</ele>
        <time>2020-03-08T07:42:20.000Z</time>
      </trkpt>
      <trkpt lat="47.81704" lon="7.10787">
        <ele>378.20001220703</ele>
        <time>2020-03-08T07:42:21.000Z</time>
      </trkpt>
      <trkpt lat="47.81705" lon="7.10786">
        <ele>378.20001220703</ele>
        <time>2020-03-08T07:42:22.000Z</time>
      </trkpt>
      <trkpt lat="47.81706" lon="7.10785">
        <ele>378.20001220703</ele>
        <time>2020-03-08T07:42:23.000Z</time>
      </trkpt>
      <trkpt lat="47.81703" lon="7.10783">
        <ele>378.20001220703</ele>
        <time>2020-03-08T07:42:26.000Z</time>
      </trkpt>
      <trkpt lat="47.81698" lon="7.10787">
        <ele>378.20001220703</ele>
        <time>2020-03-08T07:42:31.000Z</time>
      </trkpt>
      <trkpt lat="47.81698" lon="7.10791">
        <ele>378.20001220703</ele>
        <time>2020-03-08T07:42:33.000Z</time>
      </trkpt>
      <trkpt lat="47.81704" lon="7.10804">
        <ele>378.20001220703</ele>
        <time>2020-03-08T07:42:38.000Z</time>
      </trkpt>
      <trkpt lat="47.8171" lon="7.10819">
        <ele>378.60000610352</ele>
        <time>2020-03-08T07:42:44.000Z</time>
      </trkpt>
      <trkpt lat="47.81711" lon="7.10822">
        <ele>379</ele>
        <time>2020-03-08T07:42:45.000Z</time>
      </trkpt>
      <trkpt lat="47.81712" lon="7.10824">
        <ele>379.39999389648</ele>
        <time>2020-03-08T07:42:46.000Z</time>
      </trkpt>
      <trkpt lat="47.81713" lon="7.10827">
        <ele>379.79998779297</ele>
        <time>2020-03-08T07:42:47.000Z</time>
      </trkpt>
      <trkpt lat="47.81713" lon="7.1083">
        <ele>380.20001220703</ele>
        <time>2020-03-08T07:42:48.000Z</time>
      </trkpt>
      <trkpt lat="47.81716" lon="7.10846">
        <ele>380.20001220703</ele>
        <time>2020-03-08T07:42:54.000Z</time>
      </trkpt>
      <trkpt lat="47.81718" lon="7.10854">
        <ele>380.60000610352</ele>
        <time>2020-03-08T07:42:57.000Z</time>
      </trkpt>
      <trkpt lat="47.81719" lon="7.10857">
        <ele>381</ele>
        <time>2020-03-08T07:42:58.000Z</time>
      </trkpt>
      <trkpt lat="47.81721" lon="7.10859">
        <ele>381.39999389648</ele>
        <time>2020-03-08T07:42:59.000Z</time>
      </trkpt>
      <trkpt lat="47.81722" lon="7.10862">
        <ele>381.79998779297</ele>
        <time>2020-03-08T07:43:00.000Z</time>
      </trkpt>
      <trkpt lat="47.81724" lon="7.10864">
        <ele>382.20001220703</ele>
        <time>2020-03-08T07:43:01.000Z</time>
      </trkpt>
      <trkpt lat="47.81732" lon="7.10881">
        <ele>382.20001220703</ele>
        <time>2020-03-08T07:43:08.000Z</time>
      </trkpt>
      <trkpt lat="47.81743" lon="7.1089">
        <ele>382.20001220703</ele>
        <time>2020-03-08T07:43:13.000Z</time>
      </trkpt>
      <trkpt lat="47.8175" lon="7.10896">
        <ele>382.60000610352</ele>
        <time>2020-03-08T07:43:16.000Z</time>
      </trkpt>
      <trkpt lat="47.81752" lon="7.10898">
        <ele>383</ele>
        <time>2020-03-08T07:43:17.000Z</time>
      </trkpt>
      <trkpt lat="47.81754" lon="7.10899">
        <ele>383.39999389648</ele>
        <time>2020-03-08T07:43:18.000Z</time>
      </trkpt>
      <trkpt lat="47.81756" lon="7.109">
        <ele>384.20001220703</ele>
        <time>2020-03-08T07:43:19.000Z</time>
      </trkpt>
      <trkpt lat="47.81763" lon="7.10904">
        <ele>384.20001220703</ele>
        <time>2020-03-08T07:43:23.000Z</time>
      </trkpt>
      <trkpt lat="47.81766" lon="7.10908">
        <ele>384.20001220703</ele>
        <time>2020-03-08T07:43:25.000Z</time>
      </trkpt>
      <trkpt lat="47.81777" lon="7.1092">
        <ele>384.60000610352</ele>
        <time>2020-03-08T07:43:31.000Z</time>
      </trkpt>
      <trkpt lat="47.81779" lon="7.10922">
        <ele>385.20001220703</ele>
        <time>2020-03-08T07:43:32.000Z</time>
      </trkpt>
      <trkpt lat="47.81781" lon="7.10924">
        <ele>385.60000610352</ele>
        <time>2020-03-08T07:43:33.000Z</time>
      </trkpt>
      <trkpt lat="47.81783" lon="7.10925">
        <ele>386</ele>
        <time>2020-03-08T07:43:34.000Z</time>
      </trkpt>
      <trkpt lat="47.81785" lon="7.10927">
        <ele>386.39999389648</ele>
        <time>2020-03-08T07:43:35.000Z</time>
      </trkpt>
      <trkpt lat="47.81791" lon="7.10935">
        <ele>386.39999389648</ele>
        <time>2020-03-08T07:43:39.000Z</time>
      </trkpt>
      <trkpt lat="47.81801" lon="7.10946">
        <ele>386.39999389648</ele>
        <time>2020-03-08T07:43:45.000Z</time>
      </trkpt>
      <trkpt lat="47.81802" lon="7.10948">
        <ele>386.79998779297</ele>
        <time>2020-03-08T07:43:46.000Z</time>
      </trkpt>
      <trkpt lat="47.81804" lon="7.1095">
        <ele>387.20001220703</ele>
        <time>2020-03-08T07:43:47.000Z</time>
      </trkpt>
      <trkpt lat="47.81806" lon="7.10952">
        <ele>387.60000610352</ele>
        <time>2020-03-08T07:43:48.000Z</time>
      </trkpt>
      <trkpt lat="47.81808" lon="7.10954">
        <ele>388</ele>
        <time>2020-03-08T07:43:49.000Z</time>
      </trkpt>
      <trkpt lat="47.81809" lon="7.10956">
        <ele>388.39999389648</ele>
        <time>2020-03-08T07:43:50.000Z</time>
      </trkpt>
      <trkpt lat="47.8181" lon="7.10957">
        <ele>388.39999389648</ele>
        <time>2020-03-08T07:43:51.000Z</time>
      </trkpt>
      <trkpt lat="47.81821" lon="7.10973">
        <ele>388.39999389648</ele>
        <time>2020-03-08T07:43:58.000Z</time>
      </trkpt>
      <trkpt lat="47.81826" lon="7.10976">
        <ele>388.39999389648</ele>
        <time>2020-03-08T07:44:00.000Z</time>
      </trkpt>
      <trkpt lat="47.81835" lon="7.10985">
        <ele>388.79998779297</ele>
        <time>2020-03-08T07:44:04.000Z</time>
      </trkpt>
      <trkpt lat="47.81837" lon="7.10987">
        <ele>389.20001220703</ele>
        <time>2020-03-08T07:44:05.000Z</time>
      </trkpt>
      <trkpt lat="47.81839" lon="7.10988">
        <ele>389.60000610352</ele>
        <time>2020-03-08T07:44:06.000Z</time>
      </trkpt>
      <trkpt lat="47.81841" lon="7.1099">
        <ele>390</ele>
        <time>2020-03-08T07:44:07.000Z</time>
      </trkpt>
      <trkpt lat="47.81842" lon="7.10992">
        <ele>390.39999389648</ele>
        <time>2020-03-08T07:44:08.000Z</time>
      </trkpt>
      <trkpt lat="47.81847" lon="7.10996">
        <ele>390.39999389648</ele>
        <time>2020-03-08T07:44:11.000Z</time>
      </trkpt>
      <trkpt lat="47.81856" lon="7.11006">
        <ele>390.39999389648</ele>
        <time>2020-03-08T07:44:16.000Z</time>
      </trkpt>
      <trkpt lat="47.81865" lon="7.11015">
        <ele>390.79998779297</ele>
        <time>2020-03-08T07:44:20.000Z</time>
      </trkpt>
      <trkpt lat="47.81867" lon="7.11016">
        <ele>391.20001220703</ele>
        <time>2020-03-08T07:44:21.000Z</time>
      </trkpt>
      <trkpt lat="47.81869" lon="7.11018">
        <ele>391.60000610352</ele>
        <time>2020-03-08T07:44:22.000Z</time>
      </trkpt>
      <trkpt lat="47.81871" lon="7.1102">
        <ele>392</ele>
        <time>2020-03-08T07:44:23.000Z</time>
      </trkpt>
      <trkpt lat="47.81872" lon="7.11022">
        <ele>392.60000610352</ele>
        <time>2020-03-08T07:44:24.000Z</time>
      </trkpt>
      <trkpt lat="47.81879" lon="7.1103">
        <ele>392.60000610352</ele>
        <time>2020-03-08T07:44:28.000Z</time>
      </trkpt>
      <trkpt lat="47.81891" lon="7.11042">
        <ele>392.60000610352</ele>
        <time>2020-03-08T07:44:35.000Z</time>
      </trkpt>
      <trkpt lat="47.81894" lon="7.11044">
        <ele>393</ele>
        <time>2020-03-08T07:44:37.000Z</time>
      </trkpt>
      <trkpt lat="47.81897" lon="7.11045">
        <ele>393.39999389648</ele>
        <time>2020-03-08T07:44:38.000Z</time>
      </trkpt>
      <trkpt lat="47.81899" lon="7.11046">
        <ele>393.79998779297</ele>
        <time>2020-03-08T07:44:39.000Z</time>
      </trkpt>
      <trkpt lat="47.81902" lon="7.11047">
        <ele>394.20001220703</ele>
        <time>2020-03-08T07:44:40.000Z</time>
      </trkpt>
      <trkpt lat="47.81905" lon="7.11049">
        <ele>394.60000610352</ele>
        <time>2020-03-08T07:44:41.000Z</time>
      </trkpt>
      <trkpt lat="47.81916" lon="7.11057">
        <ele>394.60000610352</ele>
        <time>2020-03-08T07:44:46.000Z</time>
      </trkpt>
      <trkpt lat="47.81918" lon="7.11058">
        <ele>394.60000610352</ele>
        <time>2020-03-08T07:44:47.000Z</time>
      </trkpt>
      <trkpt lat="47.81923" lon="7.11061">
        <ele>394.60000610352</ele>
        <time>2020-03-08T07:44:50.000Z</time>
      </trkpt>
      <trkpt lat="47.81927" lon="7.11063">
        <ele>395</ele>
        <time>2020-03-08T07:44:52.000Z</time>
      </trkpt>
      <trkpt lat="47.8193" lon="7.11064">
        <ele>395.39999389648</ele>
        <time>2020-03-08T07:44:53.000Z</time>
      </trkpt>
      <trkpt lat="47.81932" lon="7.11066">
        <ele>395.79998779297</ele>
        <time>2020-03-08T07:44:54.000Z</time>
      </trkpt>
      <trkpt lat="47.81934" lon="7.11067">
        <ele>396.20001220703</ele>
        <time>2020-03-08T07:44:55.000Z</time>
      </trkpt>
      <trkpt lat="47.81936" lon="7.11068">
        <ele>396.60000610352</ele>
        <time>2020-03-08T07:44:56.000Z</time>
      </trkpt>
      <trkpt lat="47.8194" lon="7.1107">
        <ele>396.60000610352</ele>
        <time>2020-03-08T07:44:58.000Z</time>
      </trkpt>
      <trkpt lat="47.81946" lon="7.11073">
        <ele>396.60000610352</ele>
        <time>2020-03-08T07:45:01.000Z</time>
      </trkpt>
      <trkpt lat="47.8195" lon="7.11076">
        <ele>396.60000610352</ele>
        <time>2020-03-08T07:45:03.000Z</time>
      </trkpt>
      <trkpt lat="47.81963" lon="7.11081">
        <ele>396.60000610352</ele>
        <time>2020-03-08T07:45:08.000Z</time>
      </trkpt>
      <trkpt lat="47.81973" lon="7.11084">
        <ele>397</ele>
        <time>2020-03-08T07:45:13.000Z</time>
      </trkpt>
      <trkpt lat="47.81975" lon="7.11084">
        <ele>397.39999389648</ele>
        <time>2020-03-08T07:45:14.000Z</time>
      </trkpt>
      <trkpt lat="47.81977" lon="7.11084">
        <ele>397.79998779297</ele>
        <time>2020-03-08T07:45:15.000Z</time>
      </trkpt>
      <trkpt lat="47.81979" lon="7.11083">
        <ele>398.20001220703</ele>
        <time>2020-03-08T07:45:16.000Z</time>
      </trkpt>
      <trkpt lat="47.81981" lon="7.11083">
        <ele>398</ele>
        <time>2020-03-08T07:45:17.000Z</time>
      </trkpt>
      <trkpt lat="47.81983" lon="7.11083">
        <ele>397.60000610352</ele>
        <time>2020-03-08T07:45:18.000Z</time>
      </trkpt>
      <trkpt lat="47.81985" lon="7.11084">
        <ele>397.20001220703</ele>
        <time>2020-03-08T07:45:19.000Z</time>
      </trkpt>
      <trkpt lat="47.81987" lon="7.11084">
        <ele>398</ele>
        <time>2020-03-08T07:45:20.000Z</time>
      </trkpt>
      <trkpt lat="47.81988" lon="7.11083">
        <ele>398.60000610352</ele>
        <time>2020-03-08T07:45:21.000Z</time>
      </trkpt>
      <trkpt lat="47.81989" lon="7.11084">
        <ele>398.39999389648</ele>
        <time>2020-03-08T07:45:22.000Z</time>
      </trkpt>
      <trkpt lat="47.81991" lon="7.11084">
        <ele>398.20001220703</ele>
        <time>2020-03-08T07:45:23.000Z</time>
      </trkpt>
      <trkpt lat="47.81992" lon="7.11085">
        <ele>398.79998779297</ele>
        <time>2020-03-08T07:45:24.000Z</time>
      </trkpt>
      <trkpt lat="47.81994" lon="7.11086">
        <ele>399.20001220703</ele>
        <time>2020-03-08T07:45:25.000Z</time>
      </trkpt>
      <trkpt lat="47.81996" lon="7.11086">
        <ele>399.79998779297</ele>
        <time>2020-03-08T07:45:26.000Z</time>
      </trkpt>
      <trkpt lat="47.81998" lon="7.11086">
        <ele>400.39999389648</ele>
        <time>2020-03-08T07:45:27.000Z</time>
      </trkpt>
      <trkpt lat="47.82" lon="7.11085">
        <ele>400.79998779297</ele>
        <time>2020-03-08T07:45:28.000Z</time>
      </trkpt>
      <trkpt lat="47.82005" lon="7.11084">
        <ele>400.79998779297</ele>
        <time>2020-03-08T07:45:30.000Z</time>
      </trkpt>
      <trkpt lat="47.8201" lon="7.11084">
        <ele>400.79998779297</ele>
        <time>2020-03-08T07:45:33.000Z</time>
      </trkpt>
      <trkpt lat="47.82012" lon="7.11083">
        <ele>400.79998779297</ele>
        <time>2020-03-08T07:45:35.000Z</time>
      </trkpt>
      <trkpt lat="47.82014" lon="7.11082">
        <ele>400.79998779297</ele>
        <time>2020-03-08T07:45:36.000Z</time>
      </trkpt>
      <trkpt lat="47.82018" lon="7.11082">
        <ele>400.79998779297</ele>
        <time>2020-03-08T07:45:38.000Z</time>
      </trkpt>
      <trkpt lat="47.82018" lon="7.11084">
        <ele>400.79998779297</ele>
        <time>2020-03-08T07:47:08.000Z</time>
      </trkpt>
      <trkpt lat="47.82011" lon="7.11084">
        <ele>400.79998779297</ele>
        <time>2020-03-08T07:47:12.000Z</time>
      </trkpt>
      <trkpt lat="47.82006" lon="7.11084">
        <ele>400.79998779297</ele>
        <time>2020-03-08T07:47:14.000Z</time>
      </trkpt>
      <trkpt lat="47.8199" lon="7.11079">
        <ele>400.79998779297</ele>
        <time>2020-03-08T07:47:20.000Z</time>
      </trkpt>
      <trkpt lat="47.81977" lon="7.11076">
        <ele>400.39999389648</ele>
        <time>2020-03-08T07:47:24.000Z</time>
      </trkpt>
      <trkpt lat="47.81973" lon="7.11076">
        <ele>400</ele>
        <time>2020-03-08T07:47:25.000Z</time>
      </trkpt>
      <trkpt lat="47.81969" lon="7.11074">
        <ele>399.60000610352</ele>
        <time>2020-03-08T07:47:26.000Z</time>
      </trkpt>
      <trkpt lat="47.81964" lon="7.11072">
        <ele>398.60000610352</ele>
        <time>2020-03-08T07:47:27.000Z</time>
      </trkpt>
      <trkpt lat="47.81942" lon="7.11062">
        <ele>398.60000610352</ele>
        <time>2020-03-08T07:47:32.000Z</time>
      </trkpt>
      <trkpt lat="47.81924" lon="7.11054">
        <ele>398.20001220703</ele>
        <time>2020-03-08T07:47:35.000Z</time>
      </trkpt>
      <trkpt lat="47.81918" lon="7.1105">
        <ele>397.79998779297</ele>
        <time>2020-03-08T07:47:36.000Z</time>
      </trkpt>
      <trkpt lat="47.81912" lon="7.11046">
        <ele>397.39999389648</ele>
        <time>2020-03-08T07:47:37.000Z</time>
      </trkpt>
      <trkpt lat="47.81906" lon="7.11043">
        <ele>397</ele>
        <time>2020-03-08T07:47:38.000Z</time>
      </trkpt>
      <trkpt lat="47.81899" lon="7.11039">
        <ele>396.60000610352</ele>
        <time>2020-03-08T07:47:39.000Z</time>
      </trkpt>
      <trkpt lat="47.81892" lon="7.11034">
        <ele>396.20001220703</ele>
        <time>2020-03-08T07:47:40.000Z</time>
      </trkpt>
      <trkpt lat="47.81885" lon="7.11028">
        <ele>395.79998779297</ele>
        <time>2020-03-08T07:47:41.000Z</time>
      </trkpt>
      <trkpt lat="47.81879" lon="7.11023">
        <ele>395.20001220703</ele>
        <time>2020-03-08T07:47:42.000Z</time>
      </trkpt>
      <trkpt lat="47.81873" lon="7.11017">
        <ele>394.79998779297</ele>
        <time>2020-03-08T07:47:43.000Z</time>
      </trkpt>
      <trkpt lat="47.81867" lon="7.11011">
        <ele>394.39999389648</ele>
        <time>2020-03-08T07:47:44.000Z</time>
      </trkpt>
      <trkpt lat="47.81862" lon="7.11004">
        <ele>394</ele>
        <time>2020-03-08T07:47:45.000Z</time>
      </trkpt>
      <trkpt lat="47.81856" lon="7.10997">
        <ele>393.39999389648</ele>
        <time>2020-03-08T07:47:46.000Z</time>
      </trkpt>
      <trkpt lat="47.81851" lon="7.10991">
        <ele>393</ele>
        <time>2020-03-08T07:47:47.000Z</time>
      </trkpt>
      <trkpt lat="47.81845" lon="7.10984">
        <ele>392.60000610352</ele>
        <time>2020-03-08T07:47:48.000Z</time>
      </trkpt>
      <trkpt lat="47.8184" lon="7.10977">
        <ele>392.20001220703</ele>
        <time>2020-03-08T07:47:49.000Z</time>
      </trkpt>
      <trkpt lat="47.81828" lon="7.10964">
        <ele>391.79998779297</ele>
        <time>2020-03-08T07:47:51.000Z</time>
      </trkpt>
      <trkpt lat="47.81823" lon="7.10957">
        <ele>390.79998779297</ele>
        <time>2020-03-08T07:47:52.000Z</time>
      </trkpt>
      <trkpt lat="47.81817" lon="7.1095">
        <ele>390.39999389648</ele>
        <time>2020-03-08T07:47:53.000Z</time>
      </trkpt>
      <trkpt lat="47.8181" lon="7.10943">
        <ele>389.79998779297</ele>
        <time>2020-03-08T07:47:54.000Z</time>
      </trkpt>
      <trkpt lat="47.81789" lon="7.10921">
        <ele>389.39999389648</ele>
        <time>2020-03-08T07:47:57.000Z</time>
      </trkpt>
      <trkpt lat="47.81782" lon="7.10914">
        <ele>389</ele>
        <time>2020-03-08T07:47:58.000Z</time>
      </trkpt>
      <trkpt lat="47.81775" lon="7.10908">
        <ele>388.60000610352</ele>
        <time>2020-03-08T07:47:59.000Z</time>
      </trkpt>
      <trkpt lat="47.81768" lon="7.10901">
        <ele>388</ele>
        <time>2020-03-08T07:48:00.000Z</time>
      </trkpt>
      <trkpt lat="47.81761" lon="7.10895">
        <ele>387.60000610352</ele>
        <time>2020-03-08T07:48:01.000Z</time>
      </trkpt>
      <trkpt lat="47.81755" lon="7.10889">
        <ele>387.20001220703</ele>
        <time>2020-03-08T07:48:02.000Z</time>
      </trkpt>
      <trkpt lat="47.81748" lon="7.10882">
        <ele>386.79998779297</ele>
        <time>2020-03-08T07:48:03.000Z</time>
      </trkpt>
      <trkpt lat="47.81741" lon="7.10875">
        <ele>386.39999389648</ele>
        <time>2020-03-08T07:48:04.000Z</time>
      </trkpt>
      <trkpt lat="47.81735" lon="7.10867">
        <ele>385.79998779297</ele>
        <time>2020-03-08T07:48:05.000Z</time>
      </trkpt>
      <trkpt lat="47.8173" lon="7.1086">
        <ele>385.39999389648</ele>
        <time>2020-03-08T07:48:06.000Z</time>
      </trkpt>
      <trkpt lat="47.81725" lon="7.10852">
        <ele>385</ele>
        <time>2020-03-08T07:48:07.000Z</time>
      </trkpt>
      <trkpt lat="47.81721" lon="7.10843">
        <ele>384.60000610352</ele>
        <time>2020-03-08T07:48:08.000Z</time>
      </trkpt>
      <trkpt lat="47.81717" lon="7.10832">
        <ele>384</ele>
        <time>2020-03-08T07:48:09.000Z</time>
      </trkpt>
      <trkpt lat="47.81714" lon="7.10821">
        <ele>383.60000610352</ele>
        <time>2020-03-08T07:48:10.000Z</time>
      </trkpt>
      <trkpt lat="47.8171" lon="7.1081">
        <ele>383.20001220703</ele>
        <time>2020-03-08T07:48:11.000Z</time>
      </trkpt>
      <trkpt lat="47.81706" lon="7.10799">
        <ele>382.79998779297</ele>
        <time>2020-03-08T07:48:12.000Z</time>
      </trkpt>
      <trkpt lat="47.81701" lon="7.10789">
        <ele>382.39999389648</ele>
        <time>2020-03-08T07:48:13.000Z</time>
      </trkpt>
      <trkpt lat="47.81695" lon="7.10779">
        <ele>381.79998779297</ele>
        <time>2020-03-08T07:48:14.000Z</time>
      </trkpt>
      <trkpt lat="47.81689" lon="7.10771">
        <ele>381.20001220703</ele>
        <time>2020-03-08T07:48:15.000Z</time>
      </trkpt>
      <trkpt lat="47.81681" lon="7.10763">
        <ele>380</ele>
        <time>2020-03-08T07:48:16.000Z</time>
      </trkpt>
      <trkpt lat="47.81674" lon="7.10754">
        <ele>379.20001220703</ele>
        <time>2020-03-08T07:48:17.000Z</time>
      </trkpt>
      <trkpt lat="47.81667" lon="7.10745">
        <ele>378.60000610352</ele>
        <time>2020-03-08T07:48:18.000Z</time>
      </trkpt>
      <trkpt lat="47.8166" lon="7.10736">
        <ele>377.79998779297</ele>
        <time>2020-03-08T07:48:19.000Z</time>
      </trkpt>
      <trkpt lat="47.81654" lon="7.10726">
        <ele>377.20001220703</ele>
        <time>2020-03-08T07:48:20.000Z</time>
      </trkpt>
      <trkpt lat="47.81647" lon="7.10716">
        <ele>376.39999389648</ele>
        <time>2020-03-08T07:48:21.000Z</time>
      </trkpt>
      <trkpt lat="47.8164" lon="7.10707">
        <ele>375.60000610352</ele>
        <time>2020-03-08T07:48:22.000Z</time>
      </trkpt>
      <trkpt lat="47.81633" lon="7.10698">
        <ele>375</ele>
        <time>2020-03-08T07:48:23.000Z</time>
      </trkpt>
      <trkpt lat="47.81626" lon="7.10689">
        <ele>374.20001220703</ele>
        <time>2020-03-08T07:48:24.000Z</time>
      </trkpt>
      <trkpt lat="47.8162" lon="7.1068">
        <ele>373.60000610352</ele>
        <time>2020-03-08T07:48:25.000Z</time>
      </trkpt>
      <trkpt lat="47.81613" lon="7.10671">
        <ele>373</ele>
        <time>2020-03-08T07:48:26.000Z</time>
      </trkpt>
      <trkpt lat="47.81607" lon="7.10663">
        <ele>372.20001220703</ele>
        <time>2020-03-08T07:48:27.000Z</time>
      </trkpt>
      <trkpt lat="47.81602" lon="7.10654">
        <ele>371.60000610352</ele>
        <time>2020-03-08T07:48:28.000Z</time>
      </trkpt>
      <trkpt lat="47.8159" lon="7.10638">
        <ele>371.60000610352</ele>
        <time>2020-03-08T07:48:30.000Z</time>
      </trkpt>
      <trkpt lat="47.81585" lon="7.10629">
        <ele>371</ele>
        <time>2020-03-08T07:48:31.000Z</time>
      </trkpt>
      <trkpt lat="47.8158" lon="7.10621">
        <ele>370.60000610352</ele>
        <time>2020-03-08T07:48:32.000Z</time>
      </trkpt>
      <trkpt lat="47.81575" lon="7.10612">
        <ele>370.20001220703</ele>
        <time>2020-03-08T07:48:33.000Z</time>
      </trkpt>
      <trkpt lat="47.8157" lon="7.10603">
        <ele>369.60000610352</ele>
        <time>2020-03-08T07:48:34.000Z</time>
      </trkpt>
      <trkpt lat="47.81565" lon="7.10594">
        <ele>369.20001220703</ele>
        <time>2020-03-08T07:48:35.000Z</time>
      </trkpt>
      <trkpt lat="47.8155" lon="7.10568">
        <ele>368.79998779297</ele>
        <time>2020-03-08T07:48:38.000Z</time>
      </trkpt>
      <trkpt lat="47.81545" lon="7.1056">
        <ele>368.39999389648</ele>
        <time>2020-03-08T07:48:39.000Z</time>
      </trkpt>
      <trkpt lat="47.81538" lon="7.10553">
        <ele>367.39999389648</ele>
        <time>2020-03-08T07:48:40.000Z</time>
      </trkpt>
      <trkpt lat="47.81532" lon="7.10547">
        <ele>367</ele>
        <time>2020-03-08T07:48:41.000Z</time>
      </trkpt>
      <trkpt lat="47.81526" lon="7.10541">
        <ele>366.60000610352</ele>
        <time>2020-03-08T07:48:42.000Z</time>
      </trkpt>
      <trkpt lat="47.81519" lon="7.10536">
        <ele>366.20001220703</ele>
        <time>2020-03-08T07:48:43.000Z</time>
      </trkpt>
      <trkpt lat="47.81512" lon="7.1053">
        <ele>365.79998779297</ele>
        <time>2020-03-08T07:48:44.000Z</time>
      </trkpt>
      <trkpt lat="47.81505" lon="7.10525">
        <ele>365.39999389648</ele>
        <time>2020-03-08T07:48:45.000Z</time>
      </trkpt>
      <trkpt lat="47.81498" lon="7.1052">
        <ele>365</ele>
        <time>2020-03-08T07:48:46.000Z</time>
      </trkpt>
      <trkpt lat="47.8149" lon="7.10514">
        <ele>364.60000610352</ele>
        <time>2020-03-08T07:48:47.000Z</time>
      </trkpt>
      <trkpt lat="47.81483" lon="7.10509">
        <ele>364</ele>
        <time>2020-03-08T07:48:48.000Z</time>
      </trkpt>
      <trkpt lat="47.81475" lon="7.10506">
        <ele>363.60000610352</ele>
        <time>2020-03-08T07:48:49.000Z</time>
      </trkpt>
      <trkpt lat="47.81467" lon="7.10504">
        <ele>363.20001220703</ele>
        <time>2020-03-08T07:48:50.000Z</time>
      </trkpt>
      <trkpt lat="47.8146" lon="7.10503">
        <ele>362.79998779297</ele>
        <time>2020-03-08T07:48:51.000Z</time>
      </trkpt>
      <trkpt lat="47.81435" lon="7.10499">
        <ele>362.39999389648</ele>
        <time>2020-03-08T07:48:54.000Z</time>
      </trkpt>
      <trkpt lat="47.81427" lon="7.10495">
        <ele>362</ele>
        <time>2020-03-08T07:48:55.000Z</time>
      </trkpt>
      <trkpt lat="47.81419" lon="7.10489">
        <ele>361.60000610352</ele>
        <time>2020-03-08T07:48:56.000Z</time>
      </trkpt>
      <trkpt lat="47.81411" lon="7.10483">
        <ele>361</ele>
        <time>2020-03-08T07:48:57.000Z</time>
      </trkpt>
      <trkpt lat="47.81403" lon="7.10477">
        <ele>360.60000610352</ele>
        <time>2020-03-08T07:48:58.000Z</time>
      </trkpt>
      <trkpt lat="47.81395" lon="7.10471">
        <ele>360.20001220703</ele>
        <time>2020-03-08T07:48:59.000Z</time>
      </trkpt>
      <trkpt lat="47.81388" lon="7.10465">
        <ele>359.60000610352</ele>
        <time>2020-03-08T07:49:00.000Z</time>
      </trkpt>
      <trkpt lat="47.8138" lon="7.10459">
        <ele>359</ele>
        <time>2020-03-08T07:49:01.000Z</time>
      </trkpt>
      <trkpt lat="47.81373" lon="7.10453">
        <ele>358.60000610352</ele>
        <time>2020-03-08T07:49:02.000Z</time>
      </trkpt>
      <trkpt lat="47.81366" lon="7.10446">
        <ele>358</ele>
        <time>2020-03-08T07:49:03.000Z</time>
      </trkpt>
      <trkpt lat="47.81361" lon="7.1044">
        <ele>358</ele>
        <time>2020-03-08T07:49:04.000Z</time>
      </trkpt>
      <trkpt lat="47.81357" lon="7.10434">
        <ele>358</ele>
        <time>2020-03-08T07:49:05.000Z</time>
      </trkpt>
      <trkpt lat="47.81352" lon="7.1043">
        <ele>358</ele>
        <time>2020-03-08T07:49:07.000Z</time>
      </trkpt>
      <trkpt lat="47.81344" lon="7.10437">
        <ele>358</ele>
        <time>2020-03-08T07:49:10.000Z</time>
      </trkpt>
      <trkpt lat="47.8134" lon="7.10441">
        <ele>357.60000610352</ele>
        <time>2020-03-08T07:49:11.000Z</time>
      </trkpt>
      <trkpt lat="47.81335" lon="7.10447">
        <ele>357.20001220703</ele>
        <time>2020-03-08T07:49:12.000Z</time>
      </trkpt>
      <trkpt lat="47.81329" lon="7.10453">
        <ele>356.79998779297</ele>
        <time>2020-03-08T07:49:13.000Z</time>
      </trkpt>
      <trkpt lat="47.81324" lon="7.10459">
        <ele>356.39999389648</ele>
        <time>2020-03-08T07:49:14.000Z</time>
      </trkpt>
      <trkpt lat="47.81318" lon="7.10465">
        <ele>356</ele>
        <time>2020-03-08T07:49:15.000Z</time>
      </trkpt>
      <trkpt lat="47.81307" lon="7.10476">
        <ele>355.39999389648</ele>
        <time>2020-03-08T07:49:17.000Z</time>
      </trkpt>
      <trkpt lat="47.813" lon="7.10481">
        <ele>355</ele>
        <time>2020-03-08T07:49:18.000Z</time>
      </trkpt>
      <trkpt lat="47.81293" lon="7.10485">
        <ele>354.39999389648</ele>
        <time>2020-03-08T07:49:19.000Z</time>
      </trkpt>
      <trkpt lat="47.81286" lon="7.10487">
        <ele>354</ele>
        <time>2020-03-08T07:49:20.000Z</time>
      </trkpt>
      <trkpt lat="47.81278" lon="7.10488">
        <ele>353.39999389648</ele>
        <time>2020-03-08T07:49:21.000Z</time>
      </trkpt>
      <trkpt lat="47.81263" lon="7.10486">
        <ele>353</ele>
        <time>2020-03-08T07:49:23.000Z</time>
      </trkpt>
      <trkpt lat="47.81255" lon="7.10484">
        <ele>352.60000610352</ele>
        <time>2020-03-08T07:49:24.000Z</time>
      </trkpt>
      <trkpt lat="47.81249" lon="7.10482">
        <ele>352.20001220703</ele>
        <time>2020-03-08T07:49:25.000Z</time>
      </trkpt>
      <trkpt lat="47.81243" lon="7.1048">
        <ele>351.79998779297</ele>
        <time>2020-03-08T07:49:26.000Z</time>
      </trkpt>
      <trkpt lat="47.81236" lon="7.10477">
        <ele>351.39999389648</ele>
        <time>2020-03-08T07:49:27.000Z</time>
      </trkpt>
      <trkpt lat="47.8123" lon="7.10475">
        <ele>351.39999389648</ele>
        <time>2020-03-08T07:49:28.000Z</time>
      </trkpt>
      <trkpt lat="47.81213" lon="7.10469">
        <ele>351</ele>
        <time>2020-03-08T07:49:31.000Z</time>
      </trkpt>
      <trkpt lat="47.81207" lon="7.10467">
        <ele>350.60000610352</ele>
        <time>2020-03-08T07:49:32.000Z</time>
      </trkpt>
      <trkpt lat="47.81201" lon="7.10466">
        <ele>350.20001220703</ele>
        <time>2020-03-08T07:49:33.000Z</time>
      </trkpt>
      <trkpt lat="47.81196" lon="7.10466">
        <ele>349.79998779297</ele>
        <time>2020-03-08T07:49:34.000Z</time>
      </trkpt>
      <trkpt lat="47.81191" lon="7.10464">
        <ele>349.39999389648</ele>
        <time>2020-03-08T07:49:35.000Z</time>
      </trkpt>
      <trkpt lat="47.81176" lon="7.10462">
        <ele>349.39999389648</ele>
        <time>2020-03-08T07:49:38.000Z</time>
      </trkpt>
      <trkpt lat="47.81171" lon="7.10463">
        <ele>349.39999389648</ele>
        <time>2020-03-08T07:49:39.000Z</time>
      </trkpt>
      <trkpt lat="47.81142" lon="7.10477">
        <ele>349.39999389648</ele>
        <time>2020-03-08T07:49:44.000Z</time>
      </trkpt>
      <trkpt lat="47.81131" lon="7.10485">
        <ele>349.39999389648</ele>
        <time>2020-03-08T07:49:46.000Z</time>
      </trkpt>
      <trkpt lat="47.81114" lon="7.10492">
        <ele>349.39999389648</ele>
        <time>2020-03-08T07:49:49.000Z</time>
      </trkpt>
      <trkpt lat="47.81105" lon="7.10498">
        <ele>349.39999389648</ele>
        <time>2020-03-08T07:49:52.000Z</time>
      </trkpt>
      <trkpt lat="47.81105" lon="7.10498">
        <ele>349.39999389648</ele>
        <time>2020-03-08T07:49:54.000Z</time>
      </trkpt>
      <trkpt lat="47.81112" lon="7.10503">
        <ele>349.79998779297</ele>
        <time>2020-03-08T07:51:29.000Z</time>
      </trkpt>
      <trkpt lat="47.81113" lon="7.10501">
        <ele>349.79998779297</ele>
        <time>2020-03-08T07:51:30.000Z</time>
      </trkpt>
      <trkpt lat="47.81122" lon="7.10496">
        <ele>349.79998779297</ele>
        <time>2020-03-08T07:51:35.000Z</time>
      </trkpt>
      <trkpt lat="47.81136" lon="7.10487">
        <ele>349.79998779297</ele>
        <time>2020-03-08T07:51:41.000Z</time>
      </trkpt>
      <trkpt lat="47.81149" lon="7.10476">
        <ele>349.79998779297</ele>
        <time>2020-03-08T07:51:46.000Z</time>
      </trkpt>
      <trkpt lat="47.81155" lon="7.10473">
        <ele>349.20001220703</ele>
        <time>2020-03-08T07:51:48.000Z</time>
      </trkpt>
      <trkpt lat="47.81158" lon="7.10472">
        <ele>348.79998779297</ele>
        <time>2020-03-08T07:51:49.000Z</time>
      </trkpt>
      <trkpt lat="47.8116" lon="7.10471">
        <ele>349</ele>
        <time>2020-03-08T07:51:50.000Z</time>
      </trkpt>
      <trkpt lat="47.81162" lon="7.10471">
        <ele>349.39999389648</ele>
        <time>2020-03-08T07:51:51.000Z</time>
      </trkpt>
      <trkpt lat="47.81165" lon="7.1047">
        <ele>350</ele>
        <time>2020-03-08T07:51:52.000Z</time>
      </trkpt>
      <trkpt lat="47.81168" lon="7.10469">
        <ele>350.60000610352</ele>
        <time>2020-03-08T07:51:53.000Z</time>
      </trkpt>
      <trkpt lat="47.81171" lon="7.10467">
        <ele>351.20001220703</ele>
        <time>2020-03-08T07:51:54.000Z</time>
      </trkpt>
      <trkpt lat="47.81173" lon="7.10467">
        <ele>351.60000610352</ele>
        <time>2020-03-08T07:51:55.000Z</time>
      </trkpt>
      <trkpt lat="47.81179" lon="7.10466">
        <ele>351</ele>
        <time>2020-03-08T07:51:57.000Z</time>
      </trkpt>
      <trkpt lat="47.81182" lon="7.10467">
        <ele>350</ele>
        <time>2020-03-08T07:51:58.000Z</time>
      </trkpt>
      <trkpt lat="47.81185" lon="7.10467">
        <ele>350.20001220703</ele>
        <time>2020-03-08T07:51:59.000Z</time>
      </trkpt>
      <trkpt lat="47.81188" lon="7.10467">
        <ele>350.20001220703</ele>
        <time>2020-03-08T07:52:00.000Z</time>
      </trkpt>
      <trkpt lat="47.8119" lon="7.10467">
        <ele>350.39999389648</ele>
        <time>2020-03-08T07:52:01.000Z</time>
      </trkpt>
      <trkpt lat="47.81193" lon="7.10468">
        <ele>350.60000610352</ele>
        <time>2020-03-08T07:52:02.000Z</time>
      </trkpt>
      <trkpt lat="47.81196" lon="7.10468">
        <ele>350.79998779297</ele>
        <time>2020-03-08T07:52:03.000Z</time>
      </trkpt>
      <trkpt lat="47.81201" lon="7.1047">
        <ele>350.39999389648</ele>
        <time>2020-03-08T07:52:05.000Z</time>
      </trkpt>
      <trkpt lat="47.81204" lon="7.1047">
        <ele>350</ele>
        <time>2020-03-08T07:52:06.000Z</time>
      </trkpt>
      <trkpt lat="47.81206" lon="7.10471">
        <ele>349.60000610352</ele>
        <time>2020-03-08T07:52:07.000Z</time>
      </trkpt>
      <trkpt lat="47.81208" lon="7.10472">
        <ele>350.20001220703</ele>
        <time>2020-03-08T07:52:08.000Z</time>
      </trkpt>
      <trkpt lat="47.81211" lon="7.10473">
        <ele>350.39999389648</ele>
        <time>2020-03-08T07:52:09.000Z</time>
      </trkpt>
      <trkpt lat="47.81213" lon="7.10473">
        <ele>350.60000610352</ele>
        <time>2020-03-08T07:52:10.000Z</time>
      </trkpt>
      <trkpt lat="47.81216" lon="7.10474">
        <ele>350.79998779297</ele>
        <time>2020-03-08T07:52:11.000Z</time>
      </trkpt>
      <trkpt lat="47.81219" lon="7.10475">
        <ele>351</ele>
        <time>2020-03-08T07:52:12.000Z</time>
      </trkpt>
      <trkpt lat="47.81222" lon="7.10476">
        <ele>351</ele>
        <time>2020-03-08T07:52:13.000Z</time>
      </trkpt>
      <trkpt lat="47.81224" lon="7.10478">
        <ele>351</ele>
        <time>2020-03-08T07:52:14.000Z</time>
      </trkpt>
      <trkpt lat="47.8123" lon="7.1048">
        <ele>350.20001220703</ele>
        <time>2020-03-08T07:52:17.000Z</time>
      </trkpt>
      <trkpt lat="47.81233" lon="7.10481">
        <ele>349.20001220703</ele>
        <time>2020-03-08T07:52:18.000Z</time>
      </trkpt>
      <trkpt lat="47.81236" lon="7.10482">
        <ele>349.20001220703</ele>
        <time>2020-03-08T07:52:19.000Z</time>
      </trkpt>
      <trkpt lat="47.81239" lon="7.10484">
        <ele>349.79998779297</ele>
        <time>2020-03-08T07:52:20.000Z</time>
      </trkpt>
      <trkpt lat="47.81242" lon="7.10486">
        <ele>350.39999389648</ele>
        <time>2020-03-08T07:52:21.000Z</time>
      </trkpt>
      <trkpt lat="47.81245" lon="7.10487">
        <ele>350.20001220703</ele>
        <time>2020-03-08T07:52:22.000Z</time>
      </trkpt>
      <trkpt lat="47.81249" lon="7.10488">
        <ele>350.20001220703</ele>
        <time>2020-03-08T07:52:23.000Z</time>
      </trkpt>
      <trkpt lat="47.81252" lon="7.1049">
        <ele>350.20001220703</ele>
        <time>2020-03-08T07:52:24.000Z</time>
      </trkpt>
      <trkpt lat="47.81256" lon="7.10491">
        <ele>350</ele>
        <time>2020-03-08T07:52:25.000Z</time>
      </trkpt>
      <trkpt lat="47.81277" lon="7.10496">
        <ele>350</ele>
        <time>2020-03-08T07:52:31.000Z</time>
      </trkpt>
      <trkpt lat="47.81294" lon="7.10493">
        <ele>350</ele>
        <time>2020-03-08T07:52:37.000Z</time>
      </trkpt>
      <trkpt lat="47.8131" lon="7.10484">
        <ele>350</ele>
        <time>2020-03-08T07:52:43.000Z</time>
      </trkpt>
      <trkpt lat="47.81315" lon="7.10478">
        <ele>350.39999389648</ele>
        <time>2020-03-08T07:52:45.000Z</time>
      </trkpt>
      <trkpt lat="47.81317" lon="7.10475">
        <ele>351.39999389648</ele>
        <time>2020-03-08T07:52:46.000Z</time>
      </trkpt>
      <trkpt lat="47.81319" lon="7.10472">
        <ele>351.79998779297</ele>
        <time>2020-03-08T07:52:47.000Z</time>
      </trkpt>
      <trkpt lat="47.81321" lon="7.1047">
        <ele>352.20001220703</ele>
        <time>2020-03-08T07:52:48.000Z</time>
      </trkpt>
      <trkpt lat="47.81324" lon="7.10467">
        <ele>352.20001220703</ele>
        <time>2020-03-08T07:52:49.000Z</time>
      </trkpt>
      <trkpt lat="47.81339" lon="7.10447">
        <ele>352.20001220703</ele>
        <time>2020-03-08T07:52:56.000Z</time>
      </trkpt>
      <trkpt lat="47.81344" lon="7.10442">
        <ele>352.60000610352</ele>
        <time>2020-03-08T07:52:58.000Z</time>
      </trkpt>
      <trkpt lat="47.81346" lon="7.10439">
        <ele>353</ele>
        <time>2020-03-08T07:52:59.000Z</time>
      </trkpt>
      <trkpt lat="47.81348" lon="7.10437">
        <ele>353.39999389648</ele>
        <time>2020-03-08T07:53:00.000Z</time>
      </trkpt>
      <trkpt lat="47.8135" lon="7.10434">
        <ele>353.79998779297</ele>
        <time>2020-03-08T07:53:01.000Z</time>
      </trkpt>
      <trkpt lat="47.81353" lon="7.10433">
        <ele>354.20001220703</ele>
        <time>2020-03-08T07:53:02.000Z</time>
      </trkpt>
      <trkpt lat="47.81355" lon="7.10434">
        <ele>354.20001220703</ele>
        <time>2020-03-08T07:53:03.000Z</time>
      </trkpt>
      <trkpt lat="47.81365" lon="7.10447">
        <ele>354.20001220703</ele>
        <time>2020-03-08T07:53:07.000Z</time>
      </trkpt>
      <trkpt lat="47.81368" lon="7.1045">
        <ele>354.60000610352</ele>
        <time>2020-03-08T07:53:08.000Z</time>
      </trkpt>
      <trkpt lat="47.8137" lon="7.10453">
        <ele>355</ele>
        <time>2020-03-08T07:53:09.000Z</time>
      </trkpt>
      <trkpt lat="47.81373" lon="7.10457">
        <ele>355.39999389648</ele>
        <time>2020-03-08T07:53:10.000Z</time>
      </trkpt>
      <trkpt lat="47.81377" lon="7.1046">
        <ele>356.20001220703</ele>
        <time>2020-03-08T07:53:11.000Z</time>
      </trkpt>
      <trkpt lat="47.81383" lon="7.10465">
        <ele>356.20001220703</ele>
        <time>2020-03-08T07:53:13.000Z</time>
      </trkpt>
      <trkpt lat="47.81412" lon="7.10483">
        <ele>356.20001220703</ele>
        <time>2020-03-08T07:53:21.000Z</time>
      </trkpt>
      <trkpt lat="47.8143" lon="7.10496">
        <ele>356.20001220703</ele>
        <time>2020-03-08T07:53:27.000Z</time>
      </trkpt>
      <trkpt lat="47.81433" lon="7.10498">
        <ele>356.60000610352</ele>
        <time>2020-03-08T07:53:28.000Z</time>
      </trkpt>
      <trkpt lat="47.81435" lon="7.10498">
        <ele>357</ele>
        <time>2020-03-08T07:53:29.000Z</time>
      </trkpt>
      <trkpt lat="47.81438" lon="7.10499">
        <ele>357.39999389648</ele>
        <time>2020-03-08T07:53:30.000Z</time>
      </trkpt>
      <trkpt lat="47.81441" lon="7.105">
        <ele>357.79998779297</ele>
        <time>2020-03-08T07:53:31.000Z</time>
      </trkpt>
      <trkpt lat="47.81444" lon="7.10501">
        <ele>358.20001220703</ele>
        <time>2020-03-08T07:53:32.000Z</time>
      </trkpt>
      <trkpt lat="47.81448" lon="7.10502">
        <ele>358.20001220703</ele>
        <time>2020-03-08T07:53:33.000Z</time>
      </trkpt>
      <trkpt lat="47.8146" lon="7.10505">
        <ele>358.60000610352</ele>
        <time>2020-03-08T07:53:37.000Z</time>
      </trkpt>
      <trkpt lat="47.81463" lon="7.10506">
        <ele>359</ele>
        <time>2020-03-08T07:53:38.000Z</time>
      </trkpt>
      <trkpt lat="47.81466" lon="7.10506">
        <ele>359.39999389648</ele>
        <time>2020-03-08T07:53:39.000Z</time>
      </trkpt>
      <trkpt lat="47.81469" lon="7.10507">
        <ele>359.79998779297</ele>
        <time>2020-03-08T07:53:40.000Z</time>
      </trkpt>
      <trkpt lat="47.81472" lon="7.10508">
        <ele>360.20001220703</ele>
        <time>2020-03-08T07:53:41.000Z</time>
      </trkpt>
      <trkpt lat="47.81495" lon="7.10518">
        <ele>360.20001220703</ele>
        <time>2020-03-08T07:53:48.000Z</time>
      </trkpt>
      <trkpt lat="47.81509" lon="7.10531">
        <ele>360.20001220703</ele>
        <time>2020-03-08T07:53:53.000Z</time>
      </trkpt>
      <trkpt lat="47.81512" lon="7.10534">
        <ele>360.79998779297</ele>
        <time>2020-03-08T07:53:54.000Z</time>
      </trkpt>
      <trkpt lat="47.81515" lon="7.10536">
        <ele>361.20001220703</ele>
        <time>2020-03-08T07:53:55.000Z</time>
      </trkpt>
      <trkpt lat="47.81518" lon="7.10538">
        <ele>361.60000610352</ele>
        <time>2020-03-08T07:53:56.000Z</time>
      </trkpt>
      <trkpt lat="47.81521" lon="7.10541">
        <ele>362</ele>
        <time>2020-03-08T07:53:57.000Z</time>
      </trkpt>
      <trkpt lat="47.81524" lon="7.10543">
        <ele>362.39999389648</ele>
        <time>2020-03-08T07:53:58.000Z</time>
      </trkpt>
      <trkpt lat="47.81533" lon="7.10551">
        <ele>362.39999389648</ele>
        <time>2020-03-08T07:54:01.000Z</time>
      </trkpt>
      <trkpt lat="47.81541" lon="7.10559">
        <ele>362.79998779297</ele>
        <time>2020-03-08T07:54:04.000Z</time>
      </trkpt>
      <trkpt lat="47.81544" lon="7.10561">
        <ele>363.20001220703</ele>
        <time>2020-03-08T07:54:05.000Z</time>
      </trkpt>
      <trkpt lat="47.81546" lon="7.10564">
        <ele>363.60000610352</ele>
        <time>2020-03-08T07:54:06.000Z</time>
      </trkpt>
      <trkpt lat="47.81549" lon="7.10568">
        <ele>364</ele>
        <time>2020-03-08T07:54:07.000Z</time>
      </trkpt>
      <trkpt lat="47.81551" lon="7.10571">
        <ele>364.39999389648</ele>
        <time>2020-03-08T07:54:08.000Z</time>
      </trkpt>
      <trkpt lat="47.81553" lon="7.10574">
        <ele>364.39999389648</ele>
        <time>2020-03-08T07:54:09.000Z</time>
      </trkpt>
      <trkpt lat="47.81568" lon="7.10598">
        <ele>364.79998779297</ele>
        <time>2020-03-08T07:54:16.000Z</time>
      </trkpt>
      <trkpt lat="47.8157" lon="7.10602">
        <ele>365.20001220703</ele>
        <time>2020-03-08T07:54:17.000Z</time>
      </trkpt>
      <trkpt lat="47.81573" lon="7.10606">
        <ele>365.60000610352</ele>
        <time>2020-03-08T07:54:18.000Z</time>
      </trkpt>
      <trkpt lat="47.81575" lon="7.10609">
        <ele>366.20001220703</ele>
        <time>2020-03-08T07:54:19.000Z</time>
      </trkpt>
      <trkpt lat="47.81577" lon="7.10612">
        <ele>366.60000610352</ele>
        <time>2020-03-08T07:54:20.000Z</time>
      </trkpt>
      <trkpt lat="47.81581" lon="7.1062">
        <ele>366.60000610352</ele>
        <time>2020-03-08T07:54:22.000Z</time>
      </trkpt>
      <trkpt lat="47.81599" lon="7.10649">
        <ele>367</ele>
        <time>2020-03-08T07:54:30.000Z</time>
      </trkpt>
      <trkpt lat="47.81602" lon="7.10652">
        <ele>367.39999389648</ele>
        <time>2020-03-08T07:54:31.000Z</time>
      </trkpt>
      <trkpt lat="47.81604" lon="7.10656">
        <ele>367.79998779297</ele>
        <time>2020-03-08T07:54:32.000Z</time>
      </trkpt>
      <trkpt lat="47.81606" lon="7.1066">
        <ele>368.20001220703</ele>
        <time>2020-03-08T07:54:33.000Z</time>
      </trkpt>
      <trkpt lat="47.81609" lon="7.10663">
        <ele>368.60000610352</ele>
        <time>2020-03-08T07:54:34.000Z</time>
      </trkpt>
      <trkpt lat="47.81621" lon="7.10682">
        <ele>368.60000610352</ele>
        <time>2020-03-08T07:54:39.000Z</time>
      </trkpt>
      <trkpt lat="47.81631" lon="7.10696">
        <ele>369</ele>
        <time>2020-03-08T07:54:43.000Z</time>
      </trkpt>
      <trkpt lat="47.81633" lon="7.107">
        <ele>369.39999389648</ele>
        <time>2020-03-08T07:54:44.000Z</time>
      </trkpt>
      <trkpt lat="47.81636" lon="7.10703">
        <ele>369.79998779297</ele>
        <time>2020-03-08T07:54:45.000Z</time>
      </trkpt>
      <trkpt lat="47.81638" lon="7.10707">
        <ele>370.39999389648</ele>
        <time>2020-03-08T07:54:46.000Z</time>
      </trkpt>
      <trkpt lat="47.8164" lon="7.10711">
        <ele>370.79998779297</ele>
        <time>2020-03-08T07:54:47.000Z</time>
      </trkpt>
      <trkpt lat="47.81655" lon="7.10731">
        <ele>370.79998779297</ele>
        <time>2020-03-08T07:54:53.000Z</time>
      </trkpt>
      <trkpt lat="47.81662" lon="7.10741">
        <ele>371.20001220703</ele>
        <time>2020-03-08T07:54:56.000Z</time>
      </trkpt>
      <trkpt lat="47.81664" lon="7.10744">
        <ele>371.60000610352</ele>
        <time>2020-03-08T07:54:57.000Z</time>
      </trkpt>
      <trkpt lat="47.81666" lon="7.10747">
        <ele>372</ele>
        <time>2020-03-08T07:54:58.000Z</time>
      </trkpt>
      <trkpt lat="47.81668" lon="7.1075">
        <ele>372.39999389648</ele>
        <time>2020-03-08T07:54:59.000Z</time>
      </trkpt>
      <trkpt lat="47.81671" lon="7.10754">
        <ele>372.79998779297</ele>
        <time>2020-03-08T07:55:00.000Z</time>
      </trkpt>
      <trkpt lat="47.81675" lon="7.10758">
        <ele>372.79998779297</ele>
        <time>2020-03-08T07:55:02.000Z</time>
      </trkpt>
      <trkpt lat="47.81683" lon="7.10767">
        <ele>373.20001220703</ele>
        <time>2020-03-08T07:55:05.000Z</time>
      </trkpt>
      <trkpt lat="47.81685" lon="7.1077">
        <ele>373.60000610352</ele>
        <time>2020-03-08T07:55:06.000Z</time>
      </trkpt>
      <trkpt lat="47.81688" lon="7.10773">
        <ele>374</ele>
        <time>2020-03-08T07:55:07.000Z</time>
      </trkpt>
      <trkpt lat="47.8169" lon="7.10775">
        <ele>374.60000610352</ele>
        <time>2020-03-08T07:55:08.000Z</time>
      </trkpt>
      <trkpt lat="47.81692" lon="7.10779">
        <ele>375</ele>
        <time>2020-03-08T07:55:09.000Z</time>
      </trkpt>
      <trkpt lat="47.81694" lon="7.10782">
        <ele>375</ele>
        <time>2020-03-08T07:55:10.000Z</time>
      </trkpt>
      <trkpt lat="47.81703" lon="7.10798">
        <ele>375.79998779297</ele>
        <time>2020-03-08T07:55:15.000Z</time>
      </trkpt>
      <trkpt lat="47.81704" lon="7.10801">
        <ele>376.20001220703</ele>
        <time>2020-03-08T07:55:16.000Z</time>
      </trkpt>
      <trkpt lat="47.81706" lon="7.10805">
        <ele>376.60000610352</ele>
        <time>2020-03-08T07:55:17.000Z</time>
      </trkpt>
      <trkpt lat="47.81708" lon="7.10808">
        <ele>377.20001220703</ele>
        <time>2020-03-08T07:55:18.000Z</time>
      </trkpt>
      <trkpt lat="47.81713" lon="7.10823">
        <ele>377.60000610352</ele>
        <time>2020-03-08T07:55:22.000Z</time>
      </trkpt>
      <trkpt lat="47.81713" lon="7.10827">
        <ele>378</ele>
        <time>2020-03-08T07:55:23.000Z</time>
      </trkpt>
      <trkpt lat="47.81714" lon="7.10831">
        <ele>378.39999389648</ele>
        <time>2020-03-08T07:55:24.000Z</time>
      </trkpt>
      <trkpt lat="47.81715" lon="7.10834">
        <ele>378.79998779297</ele>
        <time>2020-03-08T07:55:25.000Z</time>
      </trkpt>
      <trkpt lat="47.81716" lon="7.10838">
        <ele>379.20001220703</ele>
        <time>2020-03-08T07:55:26.000Z</time>
      </trkpt>
      <trkpt lat="47.81721" lon="7.10856">
        <ele>379.20001220703</ele>
        <time>2020-03-08T07:55:31.000Z</time>
      </trkpt>
      <trkpt lat="47.81723" lon="7.10859">
        <ele>379.60000610352</ele>
        <time>2020-03-08T07:55:32.000Z</time>
      </trkpt>
      <trkpt lat="47.81724" lon="7.10863">
        <ele>380</ele>
        <time>2020-03-08T07:55:33.000Z</time>
      </trkpt>
      <trkpt lat="47.81726" lon="7.10866">
        <ele>380.39999389648</ele>
        <time>2020-03-08T07:55:34.000Z</time>
      </trkpt>
      <trkpt lat="47.81728" lon="7.10869">
        <ele>380.79998779297</ele>
        <time>2020-03-08T07:55:35.000Z</time>
      </trkpt>
      <trkpt lat="47.8173" lon="7.10872">
        <ele>381.20001220703</ele>
        <time>2020-03-08T07:55:36.000Z</time>
      </trkpt>
      <trkpt lat="47.8174" lon="7.10885">
        <ele>381.20001220703</ele>
        <time>2020-03-08T07:55:41.000Z</time>
      </trkpt>
      <trkpt lat="47.81752" lon="7.10896">
        <ele>381.60000610352</ele>
        <time>2020-03-08T07:55:46.000Z</time>
      </trkpt>
      <trkpt lat="47.81754" lon="7.10898">
        <ele>382</ele>
        <time>2020-03-08T07:55:47.000Z</time>
      </trkpt>
      <trkpt lat="47.81756" lon="7.109">
        <ele>382.39999389648</ele>
        <time>2020-03-08T07:55:48.000Z</time>
      </trkpt>
      <trkpt lat="47.81759" lon="7.10901">
        <ele>382.79998779297</ele>
        <time>2020-03-08T07:55:49.000Z</time>
      </trkpt>
      <trkpt lat="47.81761" lon="7.10903">
        <ele>383.20001220703</ele>
        <time>2020-03-08T07:55:50.000Z</time>
      </trkpt>
      <trkpt lat="47.81763" lon="7.10905">
        <ele>383.20001220703</ele>
        <time>2020-03-08T07:55:51.000Z</time>
      </trkpt>
      <trkpt lat="47.81779" lon="7.10916">
        <ele>383.20001220703</ele>
        <time>2020-03-08T07:55:57.000Z</time>
      </trkpt>
      <trkpt lat="47.81789" lon="7.10927">
        <ele>383.79998779297</ele>
        <time>2020-03-08T07:56:01.000Z</time>
      </trkpt>
      <trkpt lat="47.81792" lon="7.1093">
        <ele>384.20001220703</ele>
        <time>2020-03-08T07:56:02.000Z</time>
      </trkpt>
      <trkpt lat="47.81794" lon="7.10932">
        <ele>384.60000610352</ele>
        <time>2020-03-08T07:56:03.000Z</time>
      </trkpt>
      <trkpt lat="47.81795" lon="7.10935">
        <ele>385.39999389648</ele>
        <time>2020-03-08T07:56:04.000Z</time>
      </trkpt>
      <trkpt lat="47.81804" lon="7.10947">
        <ele>385.39999389648</ele>
        <time>2020-03-08T07:56:09.000Z</time>
      </trkpt>
      <trkpt lat="47.81807" lon="7.10949">
        <ele>385.79998779297</ele>
        <time>2020-03-08T07:56:10.000Z</time>
      </trkpt>
      <trkpt lat="47.81808" lon="7.10951">
        <ele>386.20001220703</ele>
        <time>2020-03-08T07:56:11.000Z</time>
      </trkpt>
      <trkpt lat="47.8181" lon="7.10954">
        <ele>386.60000610352</ele>
        <time>2020-03-08T07:56:12.000Z</time>
      </trkpt>
      <trkpt lat="47.81812" lon="7.10956">
        <ele>387</ele>
        <time>2020-03-08T07:56:13.000Z</time>
      </trkpt>
      <trkpt lat="47.81813" lon="7.10958">
        <ele>387.39999389648</ele>
        <time>2020-03-08T07:56:14.000Z</time>
      </trkpt>
      <trkpt lat="47.81815" lon="7.10962">
        <ele>387.39999389648</ele>
        <time>2020-03-08T07:56:16.000Z</time>
      </trkpt>
      <trkpt lat="47.81818" lon="7.10967">
        <ele>388</ele>
        <time>2020-03-08T07:56:18.000Z</time>
      </trkpt>
      <trkpt lat="47.81819" lon="7.10969">
        <ele>388.39999389648</ele>
        <time>2020-03-08T07:56:19.000Z</time>
      </trkpt>
      <trkpt lat="47.81821" lon="7.10972">
        <ele>388.79998779297</ele>
        <time>2020-03-08T07:56:20.000Z</time>
      </trkpt>
      <trkpt lat="47.81822" lon="7.10975">
        <ele>389.20001220703</ele>
        <time>2020-03-08T07:56:21.000Z</time>
      </trkpt>
      <trkpt lat="47.81822" lon="7.10978">
        <ele>389.60000610352</ele>
        <time>2020-03-08T07:56:22.000Z</time>
      </trkpt>
      <trkpt lat="47.81826" lon="7.10989">
        <ele>390</ele>
        <time>2020-03-08T07:56:26.000Z</time>
      </trkpt>
      <trkpt lat="47.81827" lon="7.10992">
        <ele>390.39999389648</ele>
        <time>2020-03-08T07:56:27.000Z</time>
      </trkpt>
      <trkpt lat="47.81828" lon="7.10995">
        <ele>391</ele>
        <time>2020-03-08T07:56:28.000Z</time>
      </trkpt>
      <trkpt lat="47.81828" lon="7.10997">
        <ele>391.79998779297</ele>
        <time>2020-03-08T07:56:29.000Z</time>
      </trkpt>
      <trkpt lat="47.81831" lon="7.11002">
        <ele>392.20001220703</ele>
        <time>2020-03-08T07:56:31.000Z</time>
      </trkpt>
      <trkpt lat="47.81832" lon="7.11004">
        <ele>392.79998779297</ele>
        <time>2020-03-08T07:56:32.000Z</time>
      </trkpt>
      <trkpt lat="47.81833" lon="7.11007">
        <ele>393.20001220703</ele>
        <time>2020-03-08T07:56:33.000Z</time>
      </trkpt>
      <trkpt lat="47.81834" lon="7.11008">
        <ele>393.60000610352</ele>
        <time>2020-03-08T07:56:34.000Z</time>
      </trkpt>
      <trkpt lat="47.81835" lon="7.11011">
        <ele>394.20001220703</ele>
        <time>2020-03-08T07:56:35.000Z</time>
      </trkpt>
      <trkpt lat="47.81837" lon="7.11018">
        <ele>394.60000610352</ele>
        <time>2020-03-08T07:56:38.000Z</time>
      </trkpt>
      <trkpt lat="47.81837" lon="7.11019">
        <ele>395</ele>
        <time>2020-03-08T07:56:39.000Z</time>
      </trkpt>
      <trkpt lat="47.81838" lon="7.11021">
        <ele>395.39999389648</ele>
        <time>2020-03-08T07:56:40.000Z</time>
      </trkpt>
      <trkpt lat="47.81838" lon="7.11022">
        <ele>396</ele>
        <time>2020-03-08T07:56:41.000Z</time>
      </trkpt>
      <trkpt lat="47.81839" lon="7.11023">
        <ele>396.39999389648</ele>
        <time>2020-03-08T07:56:42.000Z</time>
      </trkpt>
      <trkpt lat="47.81841" lon="7.11027">
        <ele>396.79998779297</ele>
        <time>2020-03-08T07:56:44.000Z</time>
      </trkpt>
      <trkpt lat="47.81842" lon="7.11029">
        <ele>397.20001220703</ele>
        <time>2020-03-08T07:56:45.000Z</time>
      </trkpt>
      <trkpt lat="47.81843" lon="7.11032">
        <ele>397.60000610352</ele>
        <time>2020-03-08T07:56:46.000Z</time>
      </trkpt>
      <trkpt lat="47.81844" lon="7.11033">
        <ele>398</ele>
        <time>2020-03-08T07:56:47.000Z</time>
      </trkpt>
      <trkpt lat="47.81845" lon="7.11035">
        <ele>398.60000610352</ele>
        <time>2020-03-08T07:56:48.000Z</time>
      </trkpt>
      <trkpt lat="47.81847" lon="7.1104">
        <ele>399</ele>
        <time>2020-03-08T07:56:50.000Z</time>
      </trkpt>
      <trkpt lat="47.81847" lon="7.11043">
        <ele>399.39999389648</ele>
        <time>2020-03-08T07:56:51.000Z</time>
      </trkpt>
      <trkpt lat="47.81849" lon="7.11046">
        <ele>400.39999389648</ele>
        <time>2020-03-08T07:56:52.000Z</time>
      </trkpt>
      <trkpt lat="47.81849" lon="7.11047">
        <ele>401</ele>
        <time>2020-03-08T07:56:53.000Z</time>
      </trkpt>
      <trkpt lat="47.81852" lon="7.11052">
        <ele>401.39999389648</ele>
        <time>2020-03-08T07:56:55.000Z</time>
      </trkpt>
      <trkpt lat="47.81853" lon="7.11054">
        <ele>401.79998779297</ele>
        <time>2020-03-08T07:56:56.000Z</time>
      </trkpt>
      <trkpt lat="47.81853" lon="7.11055">
        <ele>402.20001220703</ele>
        <time>2020-03-08T07:56:57.000Z</time>
      </trkpt>
      <trkpt lat="47.81854" lon="7.11057">
        <ele>402.60000610352</ele>
        <time>2020-03-08T07:56:58.000Z</time>
      </trkpt>
      <trkpt lat="47.81854" lon="7.1106">
        <ele>403.20001220703</ele>
        <time>2020-03-08T07:56:59.000Z</time>
      </trkpt>
      <trkpt lat="47.81855" lon="7.11063">
        <ele>403.20001220703</ele>
        <time>2020-03-08T07:57:00.000Z</time>
      </trkpt>
      <trkpt lat="47.81856" lon="7.11065">
        <ele>403.60000610352</ele>
        <time>2020-03-08T07:57:01.000Z</time>
      </trkpt>
      <trkpt lat="47.81857" lon="7.11068">
        <ele>404</ele>
        <time>2020-03-08T07:57:02.000Z</time>
      </trkpt>
      <trkpt lat="47.81858" lon="7.1107">
        <ele>404.39999389648</ele>
        <time>2020-03-08T07:57:03.000Z</time>
      </trkpt>
      <trkpt lat="47.81859" lon="7.11071">
        <ele>405</ele>
        <time>2020-03-08T07:57:04.000Z</time>
      </trkpt>
      <trkpt lat="47.81861" lon="7.11073">
        <ele>405.39999389648</ele>
        <time>2020-03-08T07:57:05.000Z</time>
      </trkpt>
      <trkpt lat="47.81863" lon="7.11074">
        <ele>405.79998779297</ele>
        <time>2020-03-08T07:57:06.000Z</time>
      </trkpt>
      <trkpt lat="47.81864" lon="7.11076">
        <ele>406.20001220703</ele>
        <time>2020-03-08T07:57:07.000Z</time>
      </trkpt>
      <trkpt lat="47.81865" lon="7.11077">
        <ele>406.79998779297</ele>
        <time>2020-03-08T07:57:08.000Z</time>
      </trkpt>
      <trkpt lat="47.81865" lon="7.11079">
        <ele>407.20001220703</ele>
        <time>2020-03-08T07:57:09.000Z</time>
      </trkpt>
      <trkpt lat="47.81864" lon="7.1108">
        <ele>407.60000610352</ele>
        <time>2020-03-08T07:57:10.000Z</time>
      </trkpt>
      <trkpt lat="47.81864" lon="7.11082">
        <ele>408</ele>
        <time>2020-03-08T07:57:11.000Z</time>
      </trkpt>
      <trkpt lat="47.81863" lon="7.11084">
        <ele>408.60000610352</ele>
        <time>2020-03-08T07:57:12.000Z</time>
      </trkpt>
      <trkpt lat="47.81863" lon="7.11085">
        <ele>409</ele>
        <time>2020-03-08T07:57:13.000Z</time>
      </trkpt>
      <trkpt lat="47.81862" lon="7.11085">
        <ele>409.39999389648</ele>
        <time>2020-03-08T07:57:14.000Z</time>
      </trkpt>
      <trkpt lat="47.81867" lon="7.11099">
        <ele>410.79998779297</ele>
        <time>2020-03-08T07:57:43.000Z</time>
      </trkpt>
      <trkpt lat="47.81868" lon="7.11102">
        <ele>411.20001220703</ele>
        <time>2020-03-08T07:57:44.000Z</time>
      </trkpt>
      <trkpt lat="47.81868" lon="7.11104">
        <ele>411.60000610352</ele>
        <time>2020-03-08T07:57:45.000Z</time>
      </trkpt>
      <trkpt lat="47.81869" lon="7.11106">
        <ele>412.20001220703</ele>
        <time>2020-03-08T07:57:46.000Z</time>
      </trkpt>
      <trkpt lat="47.81869" lon="7.11108">
        <ele>412.60000610352</ele>
        <time>2020-03-08T07:57:47.000Z</time>
      </trkpt>
      <trkpt lat="47.81869" lon="7.11108">
        <ele>413</ele>
        <time>2020-03-08T07:57:48.000Z</time>
      </trkpt>
      <trkpt lat="47.81869" lon="7.11109">
        <ele>413.39999389648</ele>
        <time>2020-03-08T07:57:49.000Z</time>
      </trkpt>
      <trkpt lat="47.81869" lon="7.11109">
        <ele>413.79998779297</ele>
        <time>2020-03-08T07:57:50.000Z</time>
      </trkpt>
      <trkpt lat="47.81869" lon="7.11108">
        <ele>414.20001220703</ele>
        <time>2020-03-08T07:57:51.000Z</time>
      </trkpt>
      <trkpt lat="47.81867" lon="7.11108">
        <ele>414.20001220703</ele>
        <time>2020-03-08T07:57:54.000Z</time>
      </trkpt>
      <trkpt lat="47.81867" lon="7.11109">
        <ele>414.20001220703</ele>
        <time>2020-03-08T07:57:55.000Z</time>
      </trkpt>
      <trkpt lat="47.81864" lon="7.11103">
        <ele>415.79998779297</ele>
        <time>2020-03-08T07:58:05.000Z</time>
      </trkpt>
      <trkpt lat="47.81862" lon="7.11103">
        <ele>416.20001220703</ele>
        <time>2020-03-08T07:58:06.000Z</time>
      </trkpt>
      <trkpt lat="47.81861" lon="7.11102">
        <ele>416.20001220703</ele>
        <time>2020-03-08T07:58:07.000Z</time>
      </trkpt>
      <trkpt lat="47.81859" lon="7.11098">
        <ele>416.20001220703</ele>
        <time>2020-03-08T07:58:10.000Z</time>
      </trkpt>
      <trkpt lat="47.81854" lon="7.11094">
        <ele>416.20001220703</ele>
        <time>2020-03-08T07:58:13.000Z</time>
      </trkpt>
      <trkpt lat="47.81851" lon="7.11093">
        <ele>416.60000610352</ele>
        <time>2020-03-08T07:58:14.000Z</time>
      </trkpt>
      <trkpt lat="47.81849" lon="7.11091">
        <ele>417</ele>
        <time>2020-03-08T07:58:15.000Z</time>
      </trkpt>
      <trkpt lat="47.81847" lon="7.1109">
        <ele>417.39999389648</ele>
        <time>2020-03-08T07:58:16.000Z</time>
      </trkpt>
      <trkpt lat="47.81846" lon="7.11089">
        <ele>417.79998779297</ele>
        <time>2020-03-08T07:58:17.000Z</time>
      </trkpt>
      <trkpt lat="47.81845" lon="7.11088">
        <ele>418.20001220703</ele>
        <time>2020-03-08T07:58:18.000Z</time>
      </trkpt>
      <trkpt lat="47.81841" lon="7.11086">
        <ele>418.20001220703</ele>
        <time>2020-03-08T07:58:20.000Z</time>
      </trkpt>
      <trkpt lat="47.81839" lon="7.11085">
        <ele>418.60000610352</ele>
        <time>2020-03-08T07:58:21.000Z</time>
      </trkpt>
      <trkpt lat="47.81837" lon="7.11084">
        <ele>419</ele>
        <time>2020-03-08T07:58:22.000Z</time>
      </trkpt>
      <trkpt lat="47.81836" lon="7.11082">
        <ele>419.39999389648</ele>
        <time>2020-03-08T07:58:23.000Z</time>
      </trkpt>
      <trkpt lat="47.81833" lon="7.1108">
        <ele>420</ele>
        <time>2020-03-08T07:58:24.000Z</time>
      </trkpt>
      <trkpt lat="47.81831" lon="7.11078">
        <ele>420.39999389648</ele>
        <time>2020-03-08T07:58:25.000Z</time>
      </trkpt>
      <trkpt lat="47.81818" lon="7.11073">
        <ele>421.20001220703</ele>
        <time>2020-03-08T07:58:31.000Z</time>
      </trkpt>
      <trkpt lat="47.81815" lon="7.11072">
        <ele>421.60000610352</ele>
        <time>2020-03-08T07:58:32.000Z</time>
      </trkpt>
      <trkpt lat="47.81812" lon="7.1107">
        <ele>422</ele>
        <time>2020-03-08T07:58:33.000Z</time>
      </trkpt>
      <trkpt lat="47.8181" lon="7.1107">
        <ele>422.39999389648</ele>
        <time>2020-03-08T07:58:34.000Z</time>
      </trkpt>
      <trkpt lat="47.81804" lon="7.11067">
        <ele>422.39999389648</ele>
        <time>2020-03-08T07:58:37.000Z</time>
      </trkpt>
      <trkpt lat="47.818" lon="7.11064">
        <ele>422.79998779297</ele>
        <time>2020-03-08T07:58:39.000Z</time>
      </trkpt>
      <trkpt lat="47.81798" lon="7.11062">
        <ele>423.20001220703</ele>
        <time>2020-03-08T07:58:40.000Z</time>
      </trkpt>
      <trkpt lat="47.81796" lon="7.11062">
        <ele>423.60000610352</ele>
        <time>2020-03-08T07:58:41.000Z</time>
      </trkpt>
      <trkpt lat="47.81794" lon="7.11061">
        <ele>424</ele>
        <time>2020-03-08T07:58:42.000Z</time>
      </trkpt>
      <trkpt lat="47.81792" lon="7.11061">
        <ele>424.39999389648</ele>
        <time>2020-03-08T07:58:43.000Z</time>
      </trkpt>
      <trkpt lat="47.81782" lon="7.11059">
        <ele>424.39999389648</ele>
        <time>2020-03-08T07:58:48.000Z</time>
      </trkpt>
      <trkpt lat="47.81778" lon="7.11058">
        <ele>425</ele>
        <time>2020-03-08T07:58:50.000Z</time>
      </trkpt>
      <trkpt lat="47.81776" lon="7.11058">
        <ele>425.39999389648</ele>
        <time>2020-03-08T07:58:51.000Z</time>
      </trkpt>
      <trkpt lat="47.81774" lon="7.11057">
        <ele>425.79998779297</ele>
        <time>2020-03-08T07:58:52.000Z</time>
      </trkpt>
      <trkpt lat="47.81771" lon="7.11056">
        <ele>426.20001220703</ele>
        <time>2020-03-08T07:58:53.000Z</time>
      </trkpt>
      <trkpt lat="47.81769" lon="7.11055">
        <ele>426.79998779297</ele>
        <time>2020-03-08T07:58:54.000Z</time>
      </trkpt>
      <trkpt lat="47.81766" lon="7.11055">
        <ele>426.79998779297</ele>
        <time>2020-03-08T07:58:55.000Z</time>
      </trkpt>
      <trkpt lat="47.81763" lon="7.11053">
        <ele>427.20001220703</ele>
        <time>2020-03-08T07:58:57.000Z</time>
      </trkpt>
      <trkpt lat="47.81761" lon="7.11052">
        <ele>427.60000610352</ele>
        <time>2020-03-08T07:58:58.000Z</time>
      </trkpt>
      <trkpt lat="47.81759" lon="7.11051">
        <ele>428</ele>
        <time>2020-03-08T07:58:59.000Z</time>
      </trkpt>
      <trkpt lat="47.81757" lon="7.1105">
        <ele>428.39999389648</ele>
        <time>2020-03-08T07:59:00.000Z</time>
      </trkpt>
      <trkpt lat="47.81754" lon="7.11049">
        <ele>428.79998779297</ele>
        <time>2020-03-08T07:59:01.000Z</time>
      </trkpt>
      <trkpt lat="47.81751" lon="7.11047">
        <ele>429.20001220703</ele>
        <time>2020-03-08T07:59:02.000Z</time>
      </trkpt>
      <trkpt lat="47.81749" lon="7.11046">
        <ele>429.60000610352</ele>
        <time>2020-03-08T07:59:03.000Z</time>
      </trkpt>
      <trkpt lat="47.81746" lon="7.11045">
        <ele>430</ele>
        <time>2020-03-08T07:59:04.000Z</time>
      </trkpt>
      <trkpt lat="47.81744" lon="7.11044">
        <ele>430.39999389648</ele>
        <time>2020-03-08T07:59:05.000Z</time>
      </trkpt>
      <trkpt lat="47.81742" lon="7.11044">
        <ele>430.79998779297</ele>
        <time>2020-03-08T07:59:06.000Z</time>
      </trkpt>
      <trkpt lat="47.81739" lon="7.11043">
        <ele>431.20001220703</ele>
        <time>2020-03-08T07:59:07.000Z</time>
      </trkpt>
      <trkpt lat="47.81737" lon="7.11043">
        <ele>431.60000610352</ele>
        <time>2020-03-08T07:59:08.000Z</time>
      </trkpt>
      <trkpt lat="47.81735" lon="7.11042">
        <ele>432</ele>
        <time>2020-03-08T07:59:09.000Z</time>
      </trkpt>
      <trkpt lat="47.81733" lon="7.11042">
        <ele>432.39999389648</ele>
        <time>2020-03-08T07:59:10.000Z</time>
      </trkpt>
      <trkpt lat="47.81731" lon="7.11041">
        <ele>432.79998779297</ele>
        <time>2020-03-08T07:59:11.000Z</time>
      </trkpt>
      <trkpt lat="47.81729" lon="7.1104">
        <ele>433.20001220703</ele>
        <time>2020-03-08T07:59:12.000Z</time>
      </trkpt>
      <trkpt lat="47.81728" lon="7.11039">
        <ele>433.60000610352</ele>
        <time>2020-03-08T07:59:13.000Z</time>
      </trkpt>
      <trkpt lat="47.81726" lon="7.11038">
        <ele>434</ele>
        <time>2020-03-08T07:59:14.000Z</time>
      </trkpt>
      <trkpt lat="47.81724" lon="7.11038">
        <ele>434.39999389648</ele>
        <time>2020-03-08T07:59:15.000Z</time>
      </trkpt>
      <trkpt lat="47.81722" lon="7.11037">
        <ele>434.79998779297</ele>
        <time>2020-03-08T07:59:16.000Z</time>
      </trkpt>
      <trkpt lat="47.8172" lon="7.11037">
        <ele>435.39999389648</ele>
        <time>2020-03-08T07:59:17.000Z</time>
      </trkpt>
      <trkpt lat="47.81718" lon="7.11037">
        <ele>435.79998779297</ele>
        <time>2020-03-08T07:59:18.000Z</time>
      </trkpt>
      <trkpt lat="47.81716" lon="7.11036">
        <ele>436.79998779297</ele>
        <time>2020-03-08T07:59:19.000Z</time>
      </trkpt>
      <trkpt lat="47.81714" lon="7.11035">
        <ele>437.20001220703</ele>
        <time>2020-03-08T07:59:20.000Z</time>
      </trkpt>
      <trkpt lat="47.81711" lon="7.11034">
        <ele>437.20001220703</ele>
        <time>2020-03-08T07:59:21.000Z</time>
      </trkpt>
      <trkpt lat="47.81707" lon="7.11033">
        <ele>437.60000610352</ele>
        <time>2020-03-08T07:59:23.000Z</time>
      </trkpt>
      <trkpt lat="47.81705" lon="7.11032">
        <ele>438</ele>
        <time>2020-03-08T07:59:24.000Z</time>
      </trkpt>
      <trkpt lat="47.81704" lon="7.11031">
        <ele>438.39999389648</ele>
        <time>2020-03-08T07:59:25.000Z</time>
      </trkpt>
      <trkpt lat="47.81702" lon="7.11029">
        <ele>438.79998779297</ele>
        <time>2020-03-08T07:59:26.000Z</time>
      </trkpt>
      <trkpt lat="47.81701" lon="7.11028">
        <ele>439.20001220703</ele>
        <time>2020-03-08T07:59:27.000Z</time>
      </trkpt>
      <trkpt lat="47.81698" lon="7.11029">
        <ele>439.20001220703</ele>
        <time>2020-03-08T07:59:29.000Z</time>
      </trkpt>
      <trkpt lat="47.81696" lon="7.11028">
        <ele>439.20001220703</ele>
        <time>2020-03-08T07:59:30.000Z</time>
      </trkpt>
      <trkpt lat="47.81692" lon="7.11026">
        <ele>439.60000610352</ele>
        <time>2020-03-08T07:59:32.000Z</time>
      </trkpt>
      <trkpt lat="47.81691" lon="7.11025">
        <ele>440</ele>
        <time>2020-03-08T07:59:33.000Z</time>
      </trkpt>
      <trkpt lat="47.81689" lon="7.11023">
        <ele>440.60000610352</ele>
        <time>2020-03-08T07:59:34.000Z</time>
      </trkpt>
      <trkpt lat="47.81687" lon="7.11022">
        <ele>441</ele>
        <time>2020-03-08T07:59:35.000Z</time>
      </trkpt>
      <trkpt lat="47.81684" lon="7.1102">
        <ele>441.39999389648</ele>
        <time>2020-03-08T07:59:36.000Z</time>
      </trkpt>
      <trkpt lat="47.81675" lon="7.11017">
        <ele>441.79998779297</ele>
        <time>2020-03-08T07:59:41.000Z</time>
      </trkpt>
      <trkpt lat="47.81673" lon="7.11017">
        <ele>442.39999389648</ele>
        <time>2020-03-08T07:59:42.000Z</time>
      </trkpt>
      <trkpt lat="47.81672" lon="7.11018">
        <ele>442.79998779297</ele>
        <time>2020-03-08T07:59:43.000Z</time>
      </trkpt>
      <trkpt lat="47.8167" lon="7.11018">
        <ele>443.79998779297</ele>
        <time>2020-03-08T07:59:44.000Z</time>
      </trkpt>
      <trkpt lat="47.81665" lon="7.11017">
        <ele>444.20001220703</ele>
        <time>2020-03-08T07:59:47.000Z</time>
      </trkpt>
      <trkpt lat="47.81663" lon="7.11016">
        <ele>444.60000610352</ele>
        <time>2020-03-08T07:59:48.000Z</time>
      </trkpt>
      <trkpt lat="47.81661" lon="7.11015">
        <ele>445</ele>
        <time>2020-03-08T07:59:49.000Z</time>
      </trkpt>
      <trkpt lat="47.81659" lon="7.11015">
        <ele>445.39999389648</ele>
        <time>2020-03-08T07:59:50.000Z</time>
      </trkpt>
      <trkpt lat="47.81657" lon="7.11015">
        <ele>445.79998779297</ele>
        <time>2020-03-08T07:59:51.000Z</time>
      </trkpt>
      <trkpt lat="47.81654" lon="7.11018">
        <ele>445.79998779297</ele>
        <time>2020-03-08T07:59:53.000Z</time>
      </trkpt>
      <trkpt lat="47.81647" lon="7.11024">
        <ele>446.20001220703</ele>
        <time>2020-03-08T07:59:57.000Z</time>
      </trkpt>
      <trkpt lat="47.81645" lon="7.11026">
        <ele>446.79998779297</ele>
        <time>2020-03-08T07:59:58.000Z</time>
      </trkpt>
      <trkpt lat="47.81643" lon="7.11028">
        <ele>447.20001220703</ele>
        <time>2020-03-08T07:59:59.000Z</time>
      </trkpt>
      <trkpt lat="47.81641" lon="7.1103">
        <ele>447.60000610352</ele>
        <time>2020-03-08T08:00:00.000Z</time>
      </trkpt>
      <trkpt lat="47.8164" lon="7.11031">
        <ele>448</ele>
        <time>2020-03-08T08:00:01.000Z</time>
      </trkpt>
      <trkpt lat="47.81636" lon="7.11039">
        <ele>448</ele>
        <time>2020-03-08T08:00:04.000Z</time>
      </trkpt>
      <trkpt lat="47.81635" lon="7.1104">
        <ele>448.39999389648</ele>
        <time>2020-03-08T08:00:05.000Z</time>
      </trkpt>
      <trkpt lat="47.81634" lon="7.11042">
        <ele>448.79998779297</ele>
        <time>2020-03-08T08:00:06.000Z</time>
      </trkpt>
      <trkpt lat="47.81632" lon="7.11044">
        <ele>449.39999389648</ele>
        <time>2020-03-08T08:00:07.000Z</time>
      </trkpt>
      <trkpt lat="47.8163" lon="7.11045">
        <ele>450.20001220703</ele>
        <time>2020-03-08T08:00:08.000Z</time>
      </trkpt>
      <trkpt lat="47.81629" lon="7.11047">
        <ele>450.60000610352</ele>
        <time>2020-03-08T08:00:09.000Z</time>
      </trkpt>
      <trkpt lat="47.81627" lon="7.11049">
        <ele>451</ele>
        <time>2020-03-08T08:00:10.000Z</time>
      </trkpt>
      <trkpt lat="47.81625" lon="7.1105">
        <ele>451.39999389648</ele>
        <time>2020-03-08T08:00:11.000Z</time>
      </trkpt>
      <trkpt lat="47.81623" lon="7.11053">
        <ele>451.79998779297</ele>
        <time>2020-03-08T08:00:12.000Z</time>
      </trkpt>
      <trkpt lat="47.81622" lon="7.11055">
        <ele>452.20001220703</ele>
        <time>2020-03-08T08:00:13.000Z</time>
      </trkpt>
      <trkpt lat="47.81618" lon="7.11059">
        <ele>452.20001220703</ele>
        <time>2020-03-08T08:00:15.000Z</time>
      </trkpt>
      <trkpt lat="47.81613" lon="7.11064">
        <ele>452.79998779297</ele>
        <time>2020-03-08T08:00:18.000Z</time>
      </trkpt>
      <trkpt lat="47.81612" lon="7.11066">
        <ele>453.20001220703</ele>
        <time>2020-03-08T08:00:19.000Z</time>
      </trkpt>
      <trkpt lat="47.8161" lon="7.11068">
        <ele>453.60000610352</ele>
        <time>2020-03-08T08:00:20.000Z</time>
      </trkpt>
      <trkpt lat="47.81609" lon="7.11069">
        <ele>454</ele>
        <time>2020-03-08T08:00:21.000Z</time>
      </trkpt>
      <trkpt lat="47.81608" lon="7.11071">
        <ele>454.60000610352</ele>
        <time>2020-03-08T08:00:22.000Z</time>
      </trkpt>
      <trkpt lat="47.81607" lon="7.11073">
        <ele>455</ele>
        <time>2020-03-08T08:00:23.000Z</time>
      </trkpt>
      <trkpt lat="47.81606" lon="7.11074">
        <ele>455.39999389648</ele>
        <time>2020-03-08T08:00:24.000Z</time>
      </trkpt>
      <trkpt lat="47.81605" lon="7.11076">
        <ele>456</ele>
        <time>2020-03-08T08:00:25.000Z</time>
      </trkpt>
      <trkpt lat="47.81605" lon="7.11077">
        <ele>456.39999389648</ele>
        <time>2020-03-08T08:00:26.000Z</time>
      </trkpt>
      <trkpt lat="47.81603" lon="7.11079">
        <ele>456.79998779297</ele>
        <time>2020-03-08T08:00:27.000Z</time>
      </trkpt>
      <trkpt lat="47.81601" lon="7.11081">
        <ele>456.79998779297</ele>
        <time>2020-03-08T08:00:28.000Z</time>
      </trkpt>
      <trkpt lat="47.816" lon="7.11082">
        <ele>456.79998779297</ele>
        <time>2020-03-08T08:00:29.000Z</time>
      </trkpt>
      <trkpt lat="47.81596" lon="7.11083">
        <ele>456.79998779297</ele>
        <time>2020-03-08T08:00:32.000Z</time>
      </trkpt>
      <trkpt lat="47.81594" lon="7.11083">
        <ele>456.79998779297</ele>
        <time>2020-03-08T08:00:33.000Z</time>
      </trkpt>
      <trkpt lat="47.81587" lon="7.11083">
        <ele>457.20001220703</ele>
        <time>2020-03-08T08:00:36.000Z</time>
      </trkpt>
      <trkpt lat="47.81585" lon="7.11084">
        <ele>457.79998779297</ele>
        <time>2020-03-08T08:00:37.000Z</time>
      </trkpt>
      <trkpt lat="47.81582" lon="7.11083">
        <ele>458.20001220703</ele>
        <time>2020-03-08T08:00:38.000Z</time>
      </trkpt>
      <trkpt lat="47.8158" lon="7.11083">
        <ele>458.60000610352</ele>
        <time>2020-03-08T08:00:39.000Z</time>
      </trkpt>
      <trkpt lat="47.81577" lon="7.11082">
        <ele>459</ele>
        <time>2020-03-08T08:00:40.000Z</time>
      </trkpt>
      <trkpt lat="47.81575" lon="7.11082">
        <ele>459.39999389648</ele>
        <time>2020-03-08T08:00:41.000Z</time>
      </trkpt>
      <trkpt lat="47.81573" lon="7.11081">
        <ele>460</ele>
        <time>2020-03-08T08:00:42.000Z</time>
      </trkpt>
      <trkpt lat="47.81572" lon="7.11079">
        <ele>460.39999389648</ele>
        <time>2020-03-08T08:00:43.000Z</time>
      </trkpt>
      <trkpt lat="47.8157" lon="7.11077">
        <ele>460.79998779297</ele>
        <time>2020-03-08T08:00:44.000Z</time>
      </trkpt>
      <trkpt lat="47.81569" lon="7.11075">
        <ele>461.20001220703</ele>
        <time>2020-03-08T08:00:45.000Z</time>
      </trkpt>
      <trkpt lat="47.81568" lon="7.11074">
        <ele>461.60000610352</ele>
        <time>2020-03-08T08:00:46.000Z</time>
      </trkpt>
      <trkpt lat="47.81567" lon="7.11072">
        <ele>462</ele>
        <time>2020-03-08T08:00:47.000Z</time>
      </trkpt>
      <trkpt lat="47.81565" lon="7.11069">
        <ele>462.39999389648</ele>
        <time>2020-03-08T08:00:48.000Z</time>
      </trkpt>
      <trkpt lat="47.81563" lon="7.11067">
        <ele>462.79998779297</ele>
        <time>2020-03-08T08:00:49.000Z</time>
      </trkpt>
      <trkpt lat="47.81561" lon="7.11065">
        <ele>463.20001220703</ele>
        <time>2020-03-08T08:00:50.000Z</time>
      </trkpt>
      <trkpt lat="47.81556" lon="7.11059">
        <ele>463.60000610352</ele>
        <time>2020-03-08T08:00:53.000Z</time>
      </trkpt>
      <trkpt lat="47.81554" lon="7.11057">
        <ele>464</ele>
        <time>2020-03-08T08:00:54.000Z</time>
      </trkpt>
      <trkpt lat="47.81553" lon="7.11055">
        <ele>464.60000610352</ele>
        <time>2020-03-08T08:00:55.000Z</time>
      </trkpt>
      <trkpt lat="47.81552" lon="7.11053">
        <ele>465</ele>
        <time>2020-03-08T08:00:56.000Z</time>
      </trkpt>
      <trkpt lat="47.81551" lon="7.11052">
        <ele>465.39999389648</ele>
        <time>2020-03-08T08:00:57.000Z</time>
      </trkpt>
      <trkpt lat="47.81551" lon="7.1105">
        <ele>465.39999389648</ele>
        <time>2020-03-08T08:00:59.000Z</time>
      </trkpt>
      <trkpt lat="47.81547" lon="7.1104">
        <ele>467.39999389648</ele>
        <time>2020-03-08T08:01:17.000Z</time>
      </trkpt>
      <trkpt lat="47.81545" lon="7.11033">
        <ele>467.39999389648</ele>
        <time>2020-03-08T08:01:21.000Z</time>
      </trkpt>
      <trkpt lat="47.81541" lon="7.11027">
        <ele>467.39999389648</ele>
        <time>2020-03-08T08:01:28.000Z</time>
      </trkpt>
      <trkpt lat="47.81541" lon="7.11025">
        <ele>467.79998779297</ele>
        <time>2020-03-08T08:01:29.000Z</time>
      </trkpt>
      <trkpt lat="47.8154" lon="7.11023">
        <ele>468.20001220703</ele>
        <time>2020-03-08T08:01:30.000Z</time>
      </trkpt>
      <trkpt lat="47.81539" lon="7.1102">
        <ele>468.60000610352</ele>
        <time>2020-03-08T08:01:31.000Z</time>
      </trkpt>
      <trkpt lat="47.81538" lon="7.11018">
        <ele>469</ele>
        <time>2020-03-08T08:01:32.000Z</time>
      </trkpt>
      <trkpt lat="47.81536" lon="7.11017">
        <ele>469.39999389648</ele>
        <time>2020-03-08T08:01:33.000Z</time>
      </trkpt>
      <trkpt lat="47.81533" lon="7.11011">
        <ele>469.39999389648</ele>
        <time>2020-03-08T08:01:36.000Z</time>
      </trkpt>
      <trkpt lat="47.81532" lon="7.11008">
        <ele>470</ele>
        <time>2020-03-08T08:01:37.000Z</time>
      </trkpt>
      <trkpt lat="47.81531" lon="7.11006">
        <ele>470.39999389648</ele>
        <time>2020-03-08T08:01:38.000Z</time>
      </trkpt>
      <trkpt lat="47.8153" lon="7.11004">
        <ele>470.79998779297</ele>
        <time>2020-03-08T08:01:39.000Z</time>
      </trkpt>
      <trkpt lat="47.81529" lon="7.11003">
        <ele>471.20001220703</ele>
        <time>2020-03-08T08:01:40.000Z</time>
      </trkpt>
      <trkpt lat="47.81528" lon="7.11">
        <ele>471.60000610352</ele>
        <time>2020-03-08T08:01:41.000Z</time>
      </trkpt>
      <trkpt lat="47.81526" lon="7.10993">
        <ele>471.60000610352</ele>
        <time>2020-03-08T08:01:43.000Z</time>
      </trkpt>
      <trkpt lat="47.81523" lon="7.10988">
        <ele>472</ele>
        <time>2020-03-08T08:01:45.000Z</time>
      </trkpt>
      <trkpt lat="47.81521" lon="7.10983">
        <ele>472.39999389648</ele>
        <time>2020-03-08T08:01:46.000Z</time>
      </trkpt>
      <trkpt lat="47.8152" lon="7.1098">
        <ele>473</ele>
        <time>2020-03-08T08:01:47.000Z</time>
      </trkpt>
      <trkpt lat="47.81519" lon="7.10976">
        <ele>473.79998779297</ele>
        <time>2020-03-08T08:01:48.000Z</time>
      </trkpt>
      <trkpt lat="47.81517" lon="7.1097">
        <ele>473.79998779297</ele>
        <time>2020-03-08T08:01:50.000Z</time>
      </trkpt>
      <trkpt lat="47.81514" lon="7.10964">
        <ele>474.20001220703</ele>
        <time>2020-03-08T08:01:52.000Z</time>
      </trkpt>
      <trkpt lat="47.81513" lon="7.1096">
        <ele>474.79998779297</ele>
        <time>2020-03-08T08:01:53.000Z</time>
      </trkpt>
      <trkpt lat="47.81512" lon="7.10957">
        <ele>475.20001220703</ele>
        <time>2020-03-08T08:01:54.000Z</time>
      </trkpt>
      <trkpt lat="47.81511" lon="7.10955">
        <ele>475.60000610352</ele>
        <time>2020-03-08T08:01:55.000Z</time>
      </trkpt>
      <trkpt lat="47.8151" lon="7.10953">
        <ele>476</ele>
        <time>2020-03-08T08:01:56.000Z</time>
      </trkpt>
      <trkpt lat="47.81508" lon="7.1095">
        <ele>476</ele>
        <time>2020-03-08T08:01:57.000Z</time>
      </trkpt>
      <trkpt lat="47.81503" lon="7.1094">
        <ele>476.39999389648</ele>
        <time>2020-03-08T08:02:01.000Z</time>
      </trkpt>
      <trkpt lat="47.81502" lon="7.10938">
        <ele>476.79998779297</ele>
        <time>2020-03-08T08:02:02.000Z</time>
      </trkpt>
      <trkpt lat="47.81501" lon="7.10937">
        <ele>477.20001220703</ele>
        <time>2020-03-08T08:02:03.000Z</time>
      </trkpt>
      <trkpt lat="47.81499" lon="7.10935">
        <ele>477.79998779297</ele>
        <time>2020-03-08T08:02:04.000Z</time>
      </trkpt>
      <trkpt lat="47.81498" lon="7.10933">
        <ele>478.20001220703</ele>
        <time>2020-03-08T08:02:05.000Z</time>
      </trkpt>
      <trkpt lat="47.81495" lon="7.10926">
        <ele>478.60000610352</ele>
        <time>2020-03-08T08:02:08.000Z</time>
      </trkpt>
      <trkpt lat="47.81492" lon="7.10924">
        <ele>479</ele>
        <time>2020-03-08T08:02:09.000Z</time>
      </trkpt>
      <trkpt lat="47.81491" lon="7.10922">
        <ele>479.39999389648</ele>
        <time>2020-03-08T08:02:10.000Z</time>
      </trkpt>
      <trkpt lat="47.81489" lon="7.1092">
        <ele>479.79998779297</ele>
        <time>2020-03-08T08:02:11.000Z</time>
      </trkpt>
      <trkpt lat="47.81488" lon="7.10918">
        <ele>480.20001220703</ele>
        <time>2020-03-08T08:02:12.000Z</time>
      </trkpt>
      <trkpt lat="47.81482" lon="7.10911">
        <ele>480.60000610352</ele>
        <time>2020-03-08T08:02:15.000Z</time>
      </trkpt>
      <trkpt lat="47.81479" lon="7.10909">
        <ele>481.20001220703</ele>
        <time>2020-03-08T08:02:16.000Z</time>
      </trkpt>
      <trkpt lat="47.81477" lon="7.10908">
        <ele>481.60000610352</ele>
        <time>2020-03-08T08:02:17.000Z</time>
      </trkpt>
      <trkpt lat="47.81474" lon="7.10905">
        <ele>482</ele>
        <time>2020-03-08T08:02:18.000Z</time>
      </trkpt>
      <trkpt lat="47.81472" lon="7.10903">
        <ele>482.39999389648</ele>
        <time>2020-03-08T08:02:19.000Z</time>
      </trkpt>
      <trkpt lat="47.8147" lon="7.10902">
        <ele>482.39999389648</ele>
        <time>2020-03-08T08:02:20.000Z</time>
      </trkpt>
      <trkpt lat="47.81466" lon="7.10899">
        <ele>482.79998779297</ele>
        <time>2020-03-08T08:02:22.000Z</time>
      </trkpt>
      <trkpt lat="47.81465" lon="7.10897">
        <ele>483.20001220703</ele>
        <time>2020-03-08T08:02:23.000Z</time>
      </trkpt>
      <trkpt lat="47.81463" lon="7.10896">
        <ele>483.79998779297</ele>
        <time>2020-03-08T08:02:24.000Z</time>
      </trkpt>
      <trkpt lat="47.81461" lon="7.10894">
        <ele>484.20001220703</ele>
        <time>2020-03-08T08:02:25.000Z</time>
      </trkpt>
      <trkpt lat="47.81459" lon="7.10892">
        <ele>484.60000610352</ele>
        <time>2020-03-08T08:02:26.000Z</time>
      </trkpt>
      <trkpt lat="47.81454" lon="7.10889">
        <ele>485</ele>
        <time>2020-03-08T08:02:29.000Z</time>
      </trkpt>
      <trkpt lat="47.81452" lon="7.10888">
        <ele>485.39999389648</ele>
        <time>2020-03-08T08:02:30.000Z</time>
      </trkpt>
      <trkpt lat="47.81449" lon="7.10887">
        <ele>486</ele>
        <time>2020-03-08T08:02:31.000Z</time>
      </trkpt>
      <trkpt lat="47.81448" lon="7.10885">
        <ele>486.39999389648</ele>
        <time>2020-03-08T08:02:32.000Z</time>
      </trkpt>
      <trkpt lat="47.81446" lon="7.10884">
        <ele>486.79998779297</ele>
        <time>2020-03-08T08:02:33.000Z</time>
      </trkpt>
      <trkpt lat="47.81437" lon="7.10879">
        <ele>487.60000610352</ele>
        <time>2020-03-08T08:02:37.000Z</time>
      </trkpt>
      <trkpt lat="47.81435" lon="7.10879">
        <ele>488</ele>
        <time>2020-03-08T08:02:38.000Z</time>
      </trkpt>
      <trkpt lat="47.81434" lon="7.10878">
        <ele>488.39999389648</ele>
        <time>2020-03-08T08:02:39.000Z</time>
      </trkpt>
      <trkpt lat="47.81431" lon="7.10877">
        <ele>488.79998779297</ele>
        <time>2020-03-08T08:02:40.000Z</time>
      </trkpt>
      <trkpt lat="47.81428" lon="7.10876">
        <ele>489.39999389648</ele>
        <time>2020-03-08T08:02:42.000Z</time>
      </trkpt>
      <trkpt lat="47.81425" lon="7.10877">
        <ele>489.79998779297</ele>
        <time>2020-03-08T08:02:43.000Z</time>
      </trkpt>
      <trkpt lat="47.81423" lon="7.10877">
        <ele>490.20001220703</ele>
        <time>2020-03-08T08:02:44.000Z</time>
      </trkpt>
      <trkpt lat="47.81421" lon="7.10878">
        <ele>490.79998779297</ele>
        <time>2020-03-08T08:02:45.000Z</time>
      </trkpt>
      <trkpt lat="47.81418" lon="7.10878">
        <ele>491.20001220703</ele>
        <time>2020-03-08T08:02:46.000Z</time>
      </trkpt>
      <trkpt lat="47.81416" lon="7.10879">
        <ele>491.20001220703</ele>
        <time>2020-03-08T08:02:47.000Z</time>
      </trkpt>
      <trkpt lat="47.81412" lon="7.10881">
        <ele>491.60000610352</ele>
        <time>2020-03-08T08:02:49.000Z</time>
      </trkpt>
      <trkpt lat="47.8141" lon="7.10882">
        <ele>492.20001220703</ele>
        <time>2020-03-08T08:02:50.000Z</time>
      </trkpt>
      <trkpt lat="47.81408" lon="7.10884">
        <ele>492.60000610352</ele>
        <time>2020-03-08T08:02:51.000Z</time>
      </trkpt>
      <trkpt lat="47.81407" lon="7.10886">
        <ele>493</ele>
        <time>2020-03-08T08:02:52.000Z</time>
      </trkpt>
      <trkpt lat="47.81405" lon="7.10887">
        <ele>493.60000610352</ele>
        <time>2020-03-08T08:02:53.000Z</time>
      </trkpt>
      <trkpt lat="47.81398" lon="7.10892">
        <ele>494</ele>
        <time>2020-03-08T08:02:56.000Z</time>
      </trkpt>
      <trkpt lat="47.81396" lon="7.10893">
        <ele>494.39999389648</ele>
        <time>2020-03-08T08:02:57.000Z</time>
      </trkpt>
      <trkpt lat="47.81394" lon="7.10896">
        <ele>495</ele>
        <time>2020-03-08T08:02:58.000Z</time>
      </trkpt>
      <trkpt lat="47.81393" lon="7.10897">
        <ele>495.39999389648</ele>
        <time>2020-03-08T08:02:59.000Z</time>
      </trkpt>
      <trkpt lat="47.81391" lon="7.10899">
        <ele>495.79998779297</ele>
        <time>2020-03-08T08:03:00.000Z</time>
      </trkpt>
      <trkpt lat="47.81389" lon="7.10904">
        <ele>496.20001220703</ele>
        <time>2020-03-08T08:03:02.000Z</time>
      </trkpt>
      <trkpt lat="47.81387" lon="7.10907">
        <ele>496.79998779297</ele>
        <time>2020-03-08T08:03:03.000Z</time>
      </trkpt>
      <trkpt lat="47.81387" lon="7.10909">
        <ele>497.20001220703</ele>
        <time>2020-03-08T08:03:04.000Z</time>
      </trkpt>
      <trkpt lat="47.81386" lon="7.10913">
        <ele>497.60000610352</ele>
        <time>2020-03-08T08:03:05.000Z</time>
      </trkpt>
      <trkpt lat="47.81386" lon="7.10916">
        <ele>498.20001220703</ele>
        <time>2020-03-08T08:03:06.000Z</time>
      </trkpt>
      <trkpt lat="47.81386" lon="7.10922">
        <ele>498.20001220703</ele>
        <time>2020-03-08T08:03:08.000Z</time>
      </trkpt>
      <trkpt lat="47.81385" lon="7.10924">
        <ele>498.60000610352</ele>
        <time>2020-03-08T08:03:09.000Z</time>
      </trkpt>
      <trkpt lat="47.81384" lon="7.10927">
        <ele>499</ele>
        <time>2020-03-08T08:03:10.000Z</time>
      </trkpt>
      <trkpt lat="47.81383" lon="7.1093">
        <ele>499.60000610352</ele>
        <time>2020-03-08T08:03:11.000Z</time>
      </trkpt>
      <trkpt lat="47.81382" lon="7.10934">
        <ele>500</ele>
        <time>2020-03-08T08:03:12.000Z</time>
      </trkpt>
      <trkpt lat="47.81382" lon="7.10937">
        <ele>500.39999389648</ele>
        <time>2020-03-08T08:03:13.000Z</time>
      </trkpt>
      <trkpt lat="47.81381" lon="7.1094">
        <ele>500.39999389648</ele>
        <time>2020-03-08T08:03:14.000Z</time>
      </trkpt>
      <trkpt lat="47.81377" lon="7.10951">
        <ele>500.79998779297</ele>
        <time>2020-03-08T08:03:18.000Z</time>
      </trkpt>
      <trkpt lat="47.81376" lon="7.10954">
        <ele>501.39999389648</ele>
        <time>2020-03-08T08:03:19.000Z</time>
      </trkpt>
      <trkpt lat="47.81376" lon="7.10958">
        <ele>501.79998779297</ele>
        <time>2020-03-08T08:03:20.000Z</time>
      </trkpt>
      <trkpt lat="47.81374" lon="7.1096">
        <ele>502.20001220703</ele>
        <time>2020-03-08T08:03:21.000Z</time>
      </trkpt>
      <trkpt lat="47.81373" lon="7.10963">
        <ele>502.60000610352</ele>
        <time>2020-03-08T08:03:22.000Z</time>
      </trkpt>
      <trkpt lat="47.81372" lon="7.10967">
        <ele>503.20001220703</ele>
        <time>2020-03-08T08:03:24.000Z</time>
      </trkpt>
      <trkpt lat="47.81371" lon="7.1097">
        <ele>503.60000610352</ele>
        <time>2020-03-08T08:03:25.000Z</time>
      </trkpt>
      <trkpt lat="47.8137" lon="7.10972">
        <ele>504</ele>
        <time>2020-03-08T08:03:26.000Z</time>
      </trkpt>
      <trkpt lat="47.8137" lon="7.10975">
        <ele>504.79998779297</ele>
        <time>2020-03-08T08:03:27.000Z</time>
      </trkpt>
      <trkpt lat="47.81368" lon="7.10977">
        <ele>504.79998779297</ele>
        <time>2020-03-08T08:03:30.000Z</time>
      </trkpt>
      <trkpt lat="47.81366" lon="7.1098">
        <ele>506.20001220703</ele>
        <time>2020-03-08T08:04:53.000Z</time>
      </trkpt>
      <trkpt lat="47.81362" lon="7.10991">
        <ele>506.20001220703</ele>
        <time>2020-03-08T08:04:57.000Z</time>
      </trkpt>
      <trkpt lat="47.81362" lon="7.11007">
        <ele>506.20001220703</ele>
        <time>2020-03-08T08:05:02.000Z</time>
      </trkpt>
      <trkpt lat="47.81362" lon="7.11015">
        <ele>506.60000610352</ele>
        <time>2020-03-08T08:05:04.000Z</time>
      </trkpt>
      <trkpt lat="47.81361" lon="7.11019">
        <ele>507</ele>
        <time>2020-03-08T08:05:05.000Z</time>
      </trkpt>
      <trkpt lat="47.8136" lon="7.11023">
        <ele>507.79998779297</ele>
        <time>2020-03-08T08:05:06.000Z</time>
      </trkpt>
      <trkpt lat="47.81359" lon="7.11026">
        <ele>508.20001220703</ele>
        <time>2020-03-08T08:05:07.000Z</time>
      </trkpt>
      <trkpt lat="47.81358" lon="7.11034">
        <ele>508.20001220703</ele>
        <time>2020-03-08T08:05:09.000Z</time>
      </trkpt>
      <trkpt lat="47.81359" lon="7.11039">
        <ele>508.60000610352</ele>
        <time>2020-03-08T08:05:10.000Z</time>
      </trkpt>
      <trkpt lat="47.81359" lon="7.11043">
        <ele>509.20001220703</ele>
        <time>2020-03-08T08:05:11.000Z</time>
      </trkpt>
      <trkpt lat="47.81359" lon="7.11048">
        <ele>509.60000610352</ele>
        <time>2020-03-08T08:05:12.000Z</time>
      </trkpt>
      <trkpt lat="47.8136" lon="7.11052">
        <ele>510</ele>
        <time>2020-03-08T08:05:13.000Z</time>
      </trkpt>
      <trkpt lat="47.81361" lon="7.11057">
        <ele>510.60000610352</ele>
        <time>2020-03-08T08:05:14.000Z</time>
      </trkpt>
      <trkpt lat="47.81361" lon="7.1106">
        <ele>511</ele>
        <time>2020-03-08T08:05:15.000Z</time>
      </trkpt>
      <trkpt lat="47.81361" lon="7.11063">
        <ele>511.39999389648</ele>
        <time>2020-03-08T08:05:16.000Z</time>
      </trkpt>
      <trkpt lat="47.81362" lon="7.11066">
        <ele>511.79998779297</ele>
        <time>2020-03-08T08:05:17.000Z</time>
      </trkpt>
      <trkpt lat="47.81362" lon="7.11069">
        <ele>512.40002441406</ele>
        <time>2020-03-08T08:05:18.000Z</time>
      </trkpt>
      <trkpt lat="47.81363" lon="7.11072">
        <ele>512.79998779297</ele>
        <time>2020-03-08T08:05:19.000Z</time>
      </trkpt>
      <trkpt lat="47.81365" lon="7.11081">
        <ele>513.20001220703</ele>
        <time>2020-03-08T08:05:21.000Z</time>
      </trkpt>
      <trkpt lat="47.81366" lon="7.11085">
        <ele>513.59997558594</ele>
        <time>2020-03-08T08:05:22.000Z</time>
      </trkpt>
      <trkpt lat="47.81367" lon="7.11088">
        <ele>514</ele>
        <time>2020-03-08T08:05:23.000Z</time>
      </trkpt>
      <trkpt lat="47.81368" lon="7.11091">
        <ele>514.40002441406</ele>
        <time>2020-03-08T08:05:24.000Z</time>
      </trkpt>
      <trkpt lat="47.81368" lon="7.11093">
        <ele>514.79998779297</ele>
        <time>2020-03-08T08:05:25.000Z</time>
      </trkpt>
      <trkpt lat="47.81368" lon="7.111">
        <ele>514.79998779297</ele>
        <time>2020-03-08T08:05:29.000Z</time>
      </trkpt>
      <trkpt lat="47.81369" lon="7.11103">
        <ele>514.79998779297</ele>
        <time>2020-03-08T08:05:30.000Z</time>
      </trkpt>
      <trkpt lat="47.81363" lon="7.11126">
        <ele>514.79998779297</ele>
        <time>2020-03-08T08:05:34.000Z</time>
      </trkpt>
      <trkpt lat="47.81361" lon="7.11133">
        <ele>514.40002441406</ele>
        <time>2020-03-08T08:05:35.000Z</time>
      </trkpt>
      <trkpt lat="47.8136" lon="7.11141">
        <ele>514</ele>
        <time>2020-03-08T08:05:36.000Z</time>
      </trkpt>
      <trkpt lat="47.81358" lon="7.11148">
        <ele>513.59997558594</ele>
        <time>2020-03-08T08:05:37.000Z</time>
      </trkpt>
      <trkpt lat="47.81356" lon="7.11157">
        <ele>513.20001220703</ele>
        <time>2020-03-08T08:05:38.000Z</time>
      </trkpt>
      <trkpt lat="47.81355" lon="7.11166">
        <ele>512.59997558594</ele>
        <time>2020-03-08T08:05:39.000Z</time>
      </trkpt>
      <trkpt lat="47.81354" lon="7.11173">
        <ele>512.20001220703</ele>
        <time>2020-03-08T08:05:40.000Z</time>
      </trkpt>
      <trkpt lat="47.81353" lon="7.1118">
        <ele>511.60000610352</ele>
        <time>2020-03-08T08:05:41.000Z</time>
      </trkpt>
      <trkpt lat="47.81351" lon="7.11189">
        <ele>511</ele>
        <time>2020-03-08T08:05:42.000Z</time>
      </trkpt>
      <trkpt lat="47.81349" lon="7.11197">
        <ele>510.39999389648</ele>
        <time>2020-03-08T08:05:43.000Z</time>
      </trkpt>
      <trkpt lat="47.81348" lon="7.11203">
        <ele>510</ele>
        <time>2020-03-08T08:05:44.000Z</time>
      </trkpt>
      <trkpt lat="47.81347" lon="7.11209">
        <ele>509.39999389648</ele>
        <time>2020-03-08T08:05:45.000Z</time>
      </trkpt>
      <trkpt lat="47.81346" lon="7.11214">
        <ele>508.79998779297</ele>
        <time>2020-03-08T08:05:46.000Z</time>
      </trkpt>
      <trkpt lat="47.81346" lon="7.11218">
        <ele>508.20001220703</ele>
        <time>2020-03-08T08:05:47.000Z</time>
      </trkpt>
      <trkpt lat="47.81346" lon="7.11222">
        <ele>507.79998779297</ele>
        <time>2020-03-08T08:05:48.000Z</time>
      </trkpt>
      <trkpt lat="47.81345" lon="7.11227">
        <ele>507.20001220703</ele>
        <time>2020-03-08T08:05:49.000Z</time>
      </trkpt>
      <trkpt lat="47.81345" lon="7.11231">
        <ele>506.60000610352</ele>
        <time>2020-03-08T08:05:50.000Z</time>
      </trkpt>
      <trkpt lat="47.81345" lon="7.11237">
        <ele>506.20001220703</ele>
        <time>2020-03-08T08:05:51.000Z</time>
      </trkpt>
      <trkpt lat="47.81343" lon="7.11242">
        <ele>505.60000610352</ele>
        <time>2020-03-08T08:05:52.000Z</time>
      </trkpt>
      <trkpt lat="47.8134" lon="7.11249">
        <ele>505</ele>
        <time>2020-03-08T08:05:53.000Z</time>
      </trkpt>
      <trkpt lat="47.81337" lon="7.11257">
        <ele>504.39999389648</ele>
        <time>2020-03-08T08:05:54.000Z</time>
      </trkpt>
      <trkpt lat="47.81334" lon="7.11264">
        <ele>503.60000610352</ele>
        <time>2020-03-08T08:05:55.000Z</time>
      </trkpt>
      <trkpt lat="47.8133" lon="7.11269">
        <ele>502.20001220703</ele>
        <time>2020-03-08T08:05:56.000Z</time>
      </trkpt>
      <trkpt lat="47.81326" lon="7.11273">
        <ele>501.60000610352</ele>
        <time>2020-03-08T08:05:57.000Z</time>
      </trkpt>
      <trkpt lat="47.81322" lon="7.11278">
        <ele>500.79998779297</ele>
        <time>2020-03-08T08:05:58.000Z</time>
      </trkpt>
      <trkpt lat="47.81311" lon="7.11287">
        <ele>500.39999389648</ele>
        <time>2020-03-08T08:06:01.000Z</time>
      </trkpt>
      <trkpt lat="47.81308" lon="7.11291">
        <ele>500</ele>
        <time>2020-03-08T08:06:02.000Z</time>
      </trkpt>
      <trkpt lat="47.81305" lon="7.11295">
        <ele>499.60000610352</ele>
        <time>2020-03-08T08:06:03.000Z</time>
      </trkpt>
      <trkpt lat="47.81304" lon="7.11296">
        <ele>499.20001220703</ele>
        <time>2020-03-08T08:06:04.000Z</time>
      </trkpt>
      <trkpt lat="47.81302" lon="7.11298">
        <ele>498.79998779297</ele>
        <time>2020-03-08T08:06:05.000Z</time>
      </trkpt>
      <trkpt lat="47.81298" lon="7.11303">
        <ele>498.39999389648</ele>
        <time>2020-03-08T08:06:07.000Z</time>
      </trkpt>
      <trkpt lat="47.81296" lon="7.11305">
        <ele>498</ele>
        <time>2020-03-08T08:06:08.000Z</time>
      </trkpt>
      <trkpt lat="47.81293" lon="7.11307">
        <ele>497.60000610352</ele>
        <time>2020-03-08T08:06:09.000Z</time>
      </trkpt>
      <trkpt lat="47.81289" lon="7.1131">
        <ele>497.20001220703</ele>
        <time>2020-03-08T08:06:10.000Z</time>
      </trkpt>
      <trkpt lat="47.81285" lon="7.11312">
        <ele>496.79998779297</ele>
        <time>2020-03-08T08:06:11.000Z</time>
      </trkpt>
      <trkpt lat="47.8128" lon="7.11315">
        <ele>496.20001220703</ele>
        <time>2020-03-08T08:06:12.000Z</time>
      </trkpt>
      <trkpt lat="47.81276" lon="7.11319">
        <ele>495.79998779297</ele>
        <time>2020-03-08T08:06:13.000Z</time>
      </trkpt>
      <trkpt lat="47.81272" lon="7.11323">
        <ele>495.20001220703</ele>
        <time>2020-03-08T08:06:14.000Z</time>
      </trkpt>
      <trkpt lat="47.81267" lon="7.11328">
        <ele>494.79998779297</ele>
        <time>2020-03-08T08:06:15.000Z</time>
      </trkpt>
      <trkpt lat="47.81263" lon="7.11333">
        <ele>494.20001220703</ele>
        <time>2020-03-08T08:06:16.000Z</time>
      </trkpt>
      <trkpt lat="47.81261" lon="7.11338">
        <ele>493.79998779297</ele>
        <time>2020-03-08T08:06:17.000Z</time>
      </trkpt>
      <trkpt lat="47.81259" lon="7.11342">
        <ele>493.39999389648</ele>
        <time>2020-03-08T08:06:18.000Z</time>
      </trkpt>
      <trkpt lat="47.81256" lon="7.11345">
        <ele>493</ele>
        <time>2020-03-08T08:06:19.000Z</time>
      </trkpt>
      <trkpt lat="47.81254" lon="7.11348">
        <ele>492.60000610352</ele>
        <time>2020-03-08T08:06:20.000Z</time>
      </trkpt>
      <trkpt lat="47.81251" lon="7.11351">
        <ele>492.20001220703</ele>
        <time>2020-03-08T08:06:21.000Z</time>
      </trkpt>
      <trkpt lat="47.81248" lon="7.11356">
        <ele>492.20001220703</ele>
        <time>2020-03-08T08:06:22.000Z</time>
      </trkpt>
      <trkpt lat="47.81247" lon="7.11361">
        <ele>491.60000610352</ele>
        <time>2020-03-08T08:06:23.000Z</time>
      </trkpt>
      <trkpt lat="47.81245" lon="7.11367">
        <ele>491.20001220703</ele>
        <time>2020-03-08T08:06:24.000Z</time>
      </trkpt>
      <trkpt lat="47.81244" lon="7.11375">
        <ele>490.60000610352</ele>
        <time>2020-03-08T08:06:25.000Z</time>
      </trkpt>
      <trkpt lat="47.81244" lon="7.11382">
        <ele>490.20001220703</ele>
        <time>2020-03-08T08:06:26.000Z</time>
      </trkpt>
      <trkpt lat="47.81242" lon="7.11388">
        <ele>489.79998779297</ele>
        <time>2020-03-08T08:06:27.000Z</time>
      </trkpt>
      <trkpt lat="47.81241" lon="7.11393">
        <ele>489.20001220703</ele>
        <time>2020-03-08T08:06:28.000Z</time>
      </trkpt>
      <trkpt lat="47.81239" lon="7.11399">
        <ele>488.79998779297</ele>
        <time>2020-03-08T08:06:29.000Z</time>
      </trkpt>
      <trkpt lat="47.81237" lon="7.11406">
        <ele>488.20001220703</ele>
        <time>2020-03-08T08:06:30.000Z</time>
      </trkpt>
      <trkpt lat="47.81236" lon="7.11415">
        <ele>487.79998779297</ele>
        <time>2020-03-08T08:06:31.000Z</time>
      </trkpt>
      <trkpt lat="47.81235" lon="7.1142">
        <ele>487.20001220703</ele>
        <time>2020-03-08T08:06:32.000Z</time>
      </trkpt>
      <trkpt lat="47.81235" lon="7.11425">
        <ele>486.79998779297</ele>
        <time>2020-03-08T08:06:33.000Z</time>
      </trkpt>
      <trkpt lat="47.81234" lon="7.11429">
        <ele>486.20001220703</ele>
        <time>2020-03-08T08:06:34.000Z</time>
      </trkpt>
      <trkpt lat="47.81233" lon="7.11432">
        <ele>485.79998779297</ele>
        <time>2020-03-08T08:06:35.000Z</time>
      </trkpt>
      <trkpt lat="47.81232" lon="7.11436">
        <ele>485.20001220703</ele>
        <time>2020-03-08T08:06:36.000Z</time>
      </trkpt>
      <trkpt lat="47.81232" lon="7.11438">
        <ele>485.20001220703</ele>
        <time>2020-03-08T08:06:37.000Z</time>
      </trkpt>
      <trkpt lat="47.81231" lon="7.11449">
        <ele>485.20001220703</ele>
        <time>2020-03-08T08:06:40.000Z</time>
      </trkpt>
      <trkpt lat="47.81232" lon="7.11453">
        <ele>485.20001220703</ele>
        <time>2020-03-08T08:06:41.000Z</time>
      </trkpt>
      <trkpt lat="47.81232" lon="7.11458">
        <ele>484.79998779297</ele>
        <time>2020-03-08T08:06:42.000Z</time>
      </trkpt>
      <trkpt lat="47.81234" lon="7.11462">
        <ele>484.39999389648</ele>
        <time>2020-03-08T08:06:43.000Z</time>
      </trkpt>
      <trkpt lat="47.81234" lon="7.11463">
        <ele>483.79998779297</ele>
        <time>2020-03-08T08:06:44.000Z</time>
      </trkpt>
      <trkpt lat="47.81234" lon="7.11465">
        <ele>483</ele>
        <time>2020-03-08T08:06:45.000Z</time>
      </trkpt>
      <trkpt lat="47.81234" lon="7.11469">
        <ele>483</ele>
        <time>2020-03-08T08:06:46.000Z</time>
      </trkpt>
      <trkpt lat="47.81235" lon="7.11479">
        <ele>483.39999389648</ele>
        <time>2020-03-08T08:06:49.000Z</time>
      </trkpt>
      <trkpt lat="47.81235" lon="7.11483">
        <ele>483.79998779297</ele>
        <time>2020-03-08T08:06:50.000Z</time>
      </trkpt>
      <trkpt lat="47.81234" lon="7.11485">
        <ele>484.20001220703</ele>
        <time>2020-03-08T08:06:51.000Z</time>
      </trkpt>
      <trkpt lat="47.81234" lon="7.11489">
        <ele>484.60000610352</ele>
        <time>2020-03-08T08:06:52.000Z</time>
      </trkpt>
      <trkpt lat="47.81233" lon="7.11493">
        <ele>485.20001220703</ele>
        <time>2020-03-08T08:06:53.000Z</time>
      </trkpt>
      <trkpt lat="47.81233" lon="7.11497">
        <ele>485.20001220703</ele>
        <time>2020-03-08T08:06:54.000Z</time>
      </trkpt>
      <trkpt lat="47.81234" lon="7.11503">
        <ele>485.20001220703</ele>
        <time>2020-03-08T08:06:56.000Z</time>
      </trkpt>
      <trkpt lat="47.81235" lon="7.11505">
        <ele>485.20001220703</ele>
        <time>2020-03-08T08:06:57.000Z</time>
      </trkpt>
      <trkpt lat="47.81235" lon="7.11508">
        <ele>485.20001220703</ele>
        <time>2020-03-08T08:06:58.000Z</time>
      </trkpt>
      <trkpt lat="47.81235" lon="7.11526">
        <ele>485.20001220703</ele>
        <time>2020-03-08T08:07:03.000Z</time>
      </trkpt>
      <trkpt lat="47.81236" lon="7.11544">
        <ele>485.20001220703</ele>
        <time>2020-03-08T08:07:08.000Z</time>
      </trkpt>
      <trkpt lat="47.81235" lon="7.11555">
        <ele>485.20001220703</ele>
        <time>2020-03-08T08:07:11.000Z</time>
      </trkpt>
      <trkpt lat="47.81234" lon="7.11566">
        <ele>485.20001220703</ele>
        <time>2020-03-08T08:07:15.000Z</time>
      </trkpt>
      <trkpt lat="47.81234" lon="7.11569">
        <ele>485.20001220703</ele>
        <time>2020-03-08T08:07:16.000Z</time>
      </trkpt>
      <trkpt lat="47.81233" lon="7.11588">
        <ele>485.20001220703</ele>
        <time>2020-03-08T08:07:21.000Z</time>
      </trkpt>
      <trkpt lat="47.81232" lon="7.116">
        <ele>485.20001220703</ele>
        <time>2020-03-08T08:07:24.000Z</time>
      </trkpt>
      <trkpt lat="47.81232" lon="7.11608">
        <ele>485.20001220703</ele>
        <time>2020-03-08T08:07:26.000Z</time>
      </trkpt>
      <trkpt lat="47.81227" lon="7.11634">
        <ele>485.20001220703</ele>
        <time>2020-03-08T08:07:32.000Z</time>
      </trkpt>
      <trkpt lat="47.81227" lon="7.11664">
        <ele>485.20001220703</ele>
        <time>2020-03-08T08:07:37.000Z</time>
      </trkpt>
      <trkpt lat="47.81228" lon="7.11669">
        <ele>485.20001220703</ele>
        <time>2020-03-08T08:07:38.000Z</time>
      </trkpt>
      <trkpt lat="47.81229" lon="7.11679">
        <ele>484.60000610352</ele>
        <time>2020-03-08T08:07:40.000Z</time>
      </trkpt>
      <trkpt lat="47.8123" lon="7.11684">
        <ele>484.20001220703</ele>
        <time>2020-03-08T08:07:41.000Z</time>
      </trkpt>
      <trkpt lat="47.8123" lon="7.11689">
        <ele>483.60000610352</ele>
        <time>2020-03-08T08:07:42.000Z</time>
      </trkpt>
      <trkpt lat="47.81229" lon="7.11695">
        <ele>483.20001220703</ele>
        <time>2020-03-08T08:07:43.000Z</time>
      </trkpt>
      <trkpt lat="47.81229" lon="7.11702">
        <ele>482.79998779297</ele>
        <time>2020-03-08T08:07:44.000Z</time>
      </trkpt>
      <trkpt lat="47.81229" lon="7.11714">
        <ele>482.39999389648</ele>
        <time>2020-03-08T08:07:46.000Z</time>
      </trkpt>
      <trkpt lat="47.81229" lon="7.11721">
        <ele>481.79998779297</ele>
        <time>2020-03-08T08:07:47.000Z</time>
      </trkpt>
      <trkpt lat="47.8123" lon="7.11726">
        <ele>481.39999389648</ele>
        <time>2020-03-08T08:07:48.000Z</time>
      </trkpt>
      <trkpt lat="47.8123" lon="7.11733">
        <ele>481</ele>
        <time>2020-03-08T08:07:49.000Z</time>
      </trkpt>
      <trkpt lat="47.81231" lon="7.1174">
        <ele>480.60000610352</ele>
        <time>2020-03-08T08:07:50.000Z</time>
      </trkpt>
      <trkpt lat="47.81232" lon="7.11754">
        <ele>480</ele>
        <time>2020-03-08T08:07:52.000Z</time>
      </trkpt>
      <trkpt lat="47.81232" lon="7.1176">
        <ele>479.60000610352</ele>
        <time>2020-03-08T08:07:53.000Z</time>
      </trkpt>
      <trkpt lat="47.81233" lon="7.11769">
        <ele>479.20001220703</ele>
        <time>2020-03-08T08:07:54.000Z</time>
      </trkpt>
      <trkpt lat="47.81234" lon="7.11777">
        <ele>478.60000610352</ele>
        <time>2020-03-08T08:07:55.000Z</time>
      </trkpt>
      <trkpt lat="47.81234" lon="7.11784">
        <ele>478</ele>
        <time>2020-03-08T08:07:56.000Z</time>
      </trkpt>
      <trkpt lat="47.81234" lon="7.1179">
        <ele>477.39999389648</ele>
        <time>2020-03-08T08:07:57.000Z</time>
      </trkpt>
      <trkpt lat="47.81235" lon="7.11797">
        <ele>476.79998779297</ele>
        <time>2020-03-08T08:07:58.000Z</time>
      </trkpt>
      <trkpt lat="47.81236" lon="7.11804">
        <ele>475.60000610352</ele>
        <time>2020-03-08T08:07:59.000Z</time>
      </trkpt>
      <trkpt lat="47.81237" lon="7.11814">
        <ele>474.79998779297</ele>
        <time>2020-03-08T08:08:00.000Z</time>
      </trkpt>
      <trkpt lat="47.81238" lon="7.11823">
        <ele>473.79998779297</ele>
        <time>2020-03-08T08:08:01.000Z</time>
      </trkpt>
      <trkpt lat="47.81239" lon="7.11828">
        <ele>473</ele>
        <time>2020-03-08T08:08:02.000Z</time>
      </trkpt>
      <trkpt lat="47.81239" lon="7.11831">
        <ele>472.20001220703</ele>
        <time>2020-03-08T08:08:03.000Z</time>
      </trkpt>
      <trkpt lat="47.81242" lon="7.11835">
        <ele>471.60000610352</ele>
        <time>2020-03-08T08:08:04.000Z</time>
      </trkpt>
      <trkpt lat="47.81244" lon="7.1184">
        <ele>471</ele>
        <time>2020-03-08T08:08:05.000Z</time>
      </trkpt>
      <trkpt lat="47.81248" lon="7.11844">
        <ele>470.39999389648</ele>
        <time>2020-03-08T08:08:06.000Z</time>
      </trkpt>
      <trkpt lat="47.8125" lon="7.11848">
        <ele>469.79998779297</ele>
        <time>2020-03-08T08:08:07.000Z</time>
      </trkpt>
      <trkpt lat="47.81252" lon="7.11851">
        <ele>469.20001220703</ele>
        <time>2020-03-08T08:08:08.000Z</time>
      </trkpt>
      <trkpt lat="47.81254" lon="7.11855">
        <ele>468.60000610352</ele>
        <time>2020-03-08T08:08:09.000Z</time>
      </trkpt>
      <trkpt lat="47.81257" lon="7.11859">
        <ele>468</ele>
        <time>2020-03-08T08:08:10.000Z</time>
      </trkpt>
      <trkpt lat="47.81261" lon="7.11864">
        <ele>467.60000610352</ele>
        <time>2020-03-08T08:08:11.000Z</time>
      </trkpt>
      <trkpt lat="47.81265" lon="7.11868">
        <ele>467</ele>
        <time>2020-03-08T08:08:12.000Z</time>
      </trkpt>
      <trkpt lat="47.81269" lon="7.11871">
        <ele>466.39999389648</ele>
        <time>2020-03-08T08:08:13.000Z</time>
      </trkpt>
      <trkpt lat="47.81271" lon="7.11871">
        <ele>465.79998779297</ele>
        <time>2020-03-08T08:08:14.000Z</time>
      </trkpt>
      <trkpt lat="47.81274" lon="7.11873">
        <ele>465.20001220703</ele>
        <time>2020-03-08T08:08:15.000Z</time>
      </trkpt>
      <trkpt lat="47.81276" lon="7.11875">
        <ele>464.39999389648</ele>
        <time>2020-03-08T08:08:16.000Z</time>
      </trkpt>
      <trkpt lat="47.81278" lon="7.11877">
        <ele>463.79998779297</ele>
        <time>2020-03-08T08:08:17.000Z</time>
      </trkpt>
      <trkpt lat="47.81281" lon="7.1188">
        <ele>463</ele>
        <time>2020-03-08T08:08:18.000Z</time>
      </trkpt>
      <trkpt lat="47.81282" lon="7.11882">
        <ele>462.60000610352</ele>
        <time>2020-03-08T08:08:19.000Z</time>
      </trkpt>
      <trkpt lat="47.81284" lon="7.11885">
        <ele>462</ele>
        <time>2020-03-08T08:08:20.000Z</time>
      </trkpt>
      <trkpt lat="47.81286" lon="7.11888">
        <ele>461.39999389648</ele>
        <time>2020-03-08T08:08:21.000Z</time>
      </trkpt>
      <trkpt lat="47.81288" lon="7.1189">
        <ele>460.79998779297</ele>
        <time>2020-03-08T08:08:22.000Z</time>
      </trkpt>
      <trkpt lat="47.81291" lon="7.11894">
        <ele>460.20001220703</ele>
        <time>2020-03-08T08:08:23.000Z</time>
      </trkpt>
      <trkpt lat="47.81293" lon="7.11897">
        <ele>459.39999389648</ele>
        <time>2020-03-08T08:08:24.000Z</time>
      </trkpt>
      <trkpt lat="47.81296" lon="7.119">
        <ele>459</ele>
        <time>2020-03-08T08:08:25.000Z</time>
      </trkpt>
      <trkpt lat="47.81299" lon="7.11903">
        <ele>458.60000610352</ele>
        <time>2020-03-08T08:08:26.000Z</time>
      </trkpt>
      <trkpt lat="47.81302" lon="7.11907">
        <ele>458.20001220703</ele>
        <time>2020-03-08T08:08:27.000Z</time>
      </trkpt>
      <trkpt lat="47.81306" lon="7.11909">
        <ele>457.79998779297</ele>
        <time>2020-03-08T08:08:28.000Z</time>
      </trkpt>
      <trkpt lat="47.8131" lon="7.1191">
        <ele>457.39999389648</ele>
        <time>2020-03-08T08:08:29.000Z</time>
      </trkpt>
      <trkpt lat="47.81315" lon="7.11912">
        <ele>457</ele>
        <time>2020-03-08T08:08:30.000Z</time>
      </trkpt>
      <trkpt lat="47.8132" lon="7.11913">
        <ele>456.60000610352</ele>
        <time>2020-03-08T08:08:31.000Z</time>
      </trkpt>
      <trkpt lat="47.81324" lon="7.11914">
        <ele>456</ele>
        <time>2020-03-08T08:08:32.000Z</time>
      </trkpt>
      <trkpt lat="47.81328" lon="7.11918">
        <ele>456</ele>
        <time>2020-03-08T08:08:33.000Z</time>
      </trkpt>
      <trkpt lat="47.81333" lon="7.11924">
        <ele>456</ele>
        <time>2020-03-08T08:08:34.000Z</time>
      </trkpt>
      <trkpt lat="47.81337" lon="7.11932">
        <ele>455.60000610352</ele>
        <time>2020-03-08T08:08:35.000Z</time>
      </trkpt>
      <trkpt lat="47.8134" lon="7.11941">
        <ele>455.20001220703</ele>
        <time>2020-03-08T08:08:36.000Z</time>
      </trkpt>
      <trkpt lat="47.81343" lon="7.11951">
        <ele>454.79998779297</ele>
        <time>2020-03-08T08:08:37.000Z</time>
      </trkpt>
      <trkpt lat="47.81345" lon="7.11961">
        <ele>454</ele>
        <time>2020-03-08T08:08:38.000Z</time>
      </trkpt>
      <trkpt lat="47.81347" lon="7.11972">
        <ele>453.39999389648</ele>
        <time>2020-03-08T08:08:39.000Z</time>
      </trkpt>
      <trkpt lat="47.81349" lon="7.11982">
        <ele>452.39999389648</ele>
        <time>2020-03-08T08:08:40.000Z</time>
      </trkpt>
      <trkpt lat="47.81351" lon="7.11994">
        <ele>451.60000610352</ele>
        <time>2020-03-08T08:08:41.000Z</time>
      </trkpt>
      <trkpt lat="47.81354" lon="7.12004">
        <ele>450.79998779297</ele>
        <time>2020-03-08T08:08:42.000Z</time>
      </trkpt>
      <trkpt lat="47.81358" lon="7.12016">
        <ele>449.79998779297</ele>
        <time>2020-03-08T08:08:43.000Z</time>
      </trkpt>
      <trkpt lat="47.81362" lon="7.12026">
        <ele>448.79998779297</ele>
        <time>2020-03-08T08:08:44.000Z</time>
      </trkpt>
      <trkpt lat="47.81367" lon="7.12037">
        <ele>447.79998779297</ele>
        <time>2020-03-08T08:08:45.000Z</time>
      </trkpt>
      <trkpt lat="47.81372" lon="7.12047">
        <ele>446.79998779297</ele>
        <time>2020-03-08T08:08:46.000Z</time>
      </trkpt>
      <trkpt lat="47.81377" lon="7.12056">
        <ele>445.60000610352</ele>
        <time>2020-03-08T08:08:47.000Z</time>
      </trkpt>
      <trkpt lat="47.81382" lon="7.12066">
        <ele>444</ele>
        <time>2020-03-08T08:08:48.000Z</time>
      </trkpt>
      <trkpt lat="47.81387" lon="7.12077">
        <ele>443.20001220703</ele>
        <time>2020-03-08T08:08:49.000Z</time>
      </trkpt>
      <trkpt lat="47.81392" lon="7.12087">
        <ele>442.20001220703</ele>
        <time>2020-03-08T08:08:50.000Z</time>
      </trkpt>
      <trkpt lat="47.81397" lon="7.12097">
        <ele>441.20001220703</ele>
        <time>2020-03-08T08:08:51.000Z</time>
      </trkpt>
      <trkpt lat="47.81401" lon="7.12109">
        <ele>440.20001220703</ele>
        <time>2020-03-08T08:08:52.000Z</time>
      </trkpt>
      <trkpt lat="47.81406" lon="7.12122">
        <ele>439</ele>
        <time>2020-03-08T08:08:53.000Z</time>
      </trkpt>
      <trkpt lat="47.81409" lon="7.12134">
        <ele>438</ele>
        <time>2020-03-08T08:08:54.000Z</time>
      </trkpt>
      <trkpt lat="47.81413" lon="7.12144">
        <ele>436.79998779297</ele>
        <time>2020-03-08T08:08:55.000Z</time>
      </trkpt>
      <trkpt lat="47.81416" lon="7.12151">
        <ele>435.60000610352</ele>
        <time>2020-03-08T08:08:56.000Z</time>
      </trkpt>
      <trkpt lat="47.8142" lon="7.12158">
        <ele>434.39999389648</ele>
        <time>2020-03-08T08:08:57.000Z</time>
      </trkpt>
      <trkpt lat="47.81424" lon="7.12165">
        <ele>433.39999389648</ele>
        <time>2020-03-08T08:08:58.000Z</time>
      </trkpt>
      <trkpt lat="47.81429" lon="7.12171">
        <ele>432.39999389648</ele>
        <time>2020-03-08T08:08:59.000Z</time>
      </trkpt>
      <trkpt lat="47.81433" lon="7.12177">
        <ele>431.39999389648</ele>
        <time>2020-03-08T08:09:00.000Z</time>
      </trkpt>
      <trkpt lat="47.81437" lon="7.12182">
        <ele>430.60000610352</ele>
        <time>2020-03-08T08:09:01.000Z</time>
      </trkpt>
      <trkpt lat="47.81438" lon="7.1219">
        <ele>429.79998779297</ele>
        <time>2020-03-08T08:09:02.000Z</time>
      </trkpt>
      <trkpt lat="47.81436" lon="7.12196">
        <ele>429</ele>
        <time>2020-03-08T08:09:03.000Z</time>
      </trkpt>
      <trkpt lat="47.81432" lon="7.12201">
        <ele>428</ele>
        <time>2020-03-08T08:09:04.000Z</time>
      </trkpt>
      <trkpt lat="47.81428" lon="7.12207">
        <ele>427.20001220703</ele>
        <time>2020-03-08T08:09:05.000Z</time>
      </trkpt>
      <trkpt lat="47.81424" lon="7.12212">
        <ele>426.60000610352</ele>
        <time>2020-03-08T08:09:06.000Z</time>
      </trkpt>
      <trkpt lat="47.81418" lon="7.12216">
        <ele>426.20001220703</ele>
        <time>2020-03-08T08:09:07.000Z</time>
      </trkpt>
      <trkpt lat="47.81411" lon="7.1222">
        <ele>425.60000610352</ele>
        <time>2020-03-08T08:09:08.000Z</time>
      </trkpt>
      <trkpt lat="47.81404" lon="7.12223">
        <ele>424.79998779297</ele>
        <time>2020-03-08T08:09:09.000Z</time>
      </trkpt>
      <trkpt lat="47.81397" lon="7.12223">
        <ele>424</ele>
        <time>2020-03-08T08:09:10.000Z</time>
      </trkpt>
      <trkpt lat="47.81389" lon="7.12222">
        <ele>423.20001220703</ele>
        <time>2020-03-08T08:09:11.000Z</time>
      </trkpt>
      <trkpt lat="47.81381" lon="7.12219">
        <ele>421.60000610352</ele>
        <time>2020-03-08T08:09:12.000Z</time>
      </trkpt>
      <trkpt lat="47.81374" lon="7.12215">
        <ele>420.60000610352</ele>
        <time>2020-03-08T08:09:13.000Z</time>
      </trkpt>
      <trkpt lat="47.81367" lon="7.1221">
        <ele>419.60000610352</ele>
        <time>2020-03-08T08:09:14.000Z</time>
      </trkpt>
      <trkpt lat="47.8136" lon="7.12204">
        <ele>418.60000610352</ele>
        <time>2020-03-08T08:09:15.000Z</time>
      </trkpt>
      <trkpt lat="47.81352" lon="7.12196">
        <ele>417.60000610352</ele>
        <time>2020-03-08T08:09:16.000Z</time>
      </trkpt>
      <trkpt lat="47.81345" lon="7.12187">
        <ele>416.60000610352</ele>
        <time>2020-03-08T08:09:17.000Z</time>
      </trkpt>
      <trkpt lat="47.81338" lon="7.12178">
        <ele>415.79998779297</ele>
        <time>2020-03-08T08:09:18.000Z</time>
      </trkpt>
      <trkpt lat="47.81331" lon="7.1217">
        <ele>415</ele>
        <time>2020-03-08T08:09:19.000Z</time>
      </trkpt>
      <trkpt lat="47.81325" lon="7.12165">
        <ele>414.20001220703</ele>
        <time>2020-03-08T08:09:20.000Z</time>
      </trkpt>
      <trkpt lat="47.8132" lon="7.12161">
        <ele>413.39999389648</ele>
        <time>2020-03-08T08:09:21.000Z</time>
      </trkpt>
      <trkpt lat="47.81316" lon="7.12158">
        <ele>412.60000610352</ele>
        <time>2020-03-08T08:09:22.000Z</time>
      </trkpt>
      <trkpt lat="47.81309" lon="7.12158">
        <ele>412.60000610352</ele>
        <time>2020-03-08T08:09:24.000Z</time>
      </trkpt>
      <trkpt lat="47.81302" lon="7.12166">
        <ele>412.60000610352</ele>
        <time>2020-03-08T08:09:27.000Z</time>
      </trkpt>
      <trkpt lat="47.81299" lon="7.1217">
        <ele>412.60000610352</ele>
        <time>2020-03-08T08:09:28.000Z</time>
      </trkpt>
      <trkpt lat="47.81291" lon="7.12181">
        <ele>412.60000610352</ele>
        <time>2020-03-08T08:09:32.000Z</time>
      </trkpt>
      <trkpt lat="47.81282" lon="7.1219">
        <ele>413</ele>
        <time>2020-03-08T08:09:37.000Z</time>
      </trkpt>
      <trkpt lat="47.8128" lon="7.12191">
        <ele>413.39999389648</ele>
        <time>2020-03-08T08:09:38.000Z</time>
      </trkpt>
      <trkpt lat="47.81278" lon="7.12194">
        <ele>414</ele>
        <time>2020-03-08T08:09:39.000Z</time>
      </trkpt>
      <trkpt lat="47.81277" lon="7.12196">
        <ele>414.39999389648</ele>
        <time>2020-03-08T08:09:40.000Z</time>
      </trkpt>
      <trkpt lat="47.81275" lon="7.12198">
        <ele>414.79998779297</ele>
        <time>2020-03-08T08:09:41.000Z</time>
      </trkpt>
      <trkpt lat="47.81268" lon="7.12207">
        <ele>415.39999389648</ele>
        <time>2020-03-08T08:09:45.000Z</time>
      </trkpt>
      <trkpt lat="47.81266" lon="7.12209">
        <ele>415.79998779297</ele>
        <time>2020-03-08T08:09:46.000Z</time>
      </trkpt>
      <trkpt lat="47.81265" lon="7.1221">
        <ele>416.20001220703</ele>
        <time>2020-03-08T08:09:47.000Z</time>
      </trkpt>
      <trkpt lat="47.81263" lon="7.12212">
        <ele>416.79998779297</ele>
        <time>2020-03-08T08:09:48.000Z</time>
      </trkpt>
      <trkpt lat="47.81262" lon="7.12213">
        <ele>417.20001220703</ele>
        <time>2020-03-08T08:09:49.000Z</time>
      </trkpt>
      <trkpt lat="47.8126" lon="7.12215">
        <ele>417.20001220703</ele>
        <time>2020-03-08T08:09:50.000Z</time>
      </trkpt>
      <trkpt lat="47.81257" lon="7.1222">
        <ele>417.60000610352</ele>
        <time>2020-03-08T08:09:52.000Z</time>
      </trkpt>
      <trkpt lat="47.81257" lon="7.12223">
        <ele>418.20001220703</ele>
        <time>2020-03-08T08:09:53.000Z</time>
      </trkpt>
      <trkpt lat="47.81257" lon="7.12224">
        <ele>418.60000610352</ele>
        <time>2020-03-08T08:09:54.000Z</time>
      </trkpt>
      <trkpt lat="47.81258" lon="7.12224">
        <ele>419</ele>
        <time>2020-03-08T08:09:55.000Z</time>
      </trkpt>
      <trkpt lat="47.81259" lon="7.12225">
        <ele>419.39999389648</ele>
        <time>2020-03-08T08:09:56.000Z</time>
      </trkpt>
      <trkpt lat="47.81261" lon="7.12226">
        <ele>420</ele>
        <time>2020-03-08T08:09:57.000Z</time>
      </trkpt>
      <trkpt lat="47.81263" lon="7.12226">
        <ele>420.60000610352</ele>
        <time>2020-03-08T08:09:58.000Z</time>
      </trkpt>
      <trkpt lat="47.81265" lon="7.12227">
        <ele>421</ele>
        <time>2020-03-08T08:09:59.000Z</time>
      </trkpt>
      <trkpt lat="47.81266" lon="7.12228">
        <ele>421.60000610352</ele>
        <time>2020-03-08T08:10:00.000Z</time>
      </trkpt>
      <trkpt lat="47.81267" lon="7.1223">
        <ele>422.39999389648</ele>
        <time>2020-03-08T08:10:01.000Z</time>
      </trkpt>
      <trkpt lat="47.81268" lon="7.12231">
        <ele>422.79998779297</ele>
        <time>2020-03-08T08:10:02.000Z</time>
      </trkpt>
      <trkpt lat="47.81269" lon="7.12233">
        <ele>423.20001220703</ele>
        <time>2020-03-08T08:10:03.000Z</time>
      </trkpt>
      <trkpt lat="47.81271" lon="7.12234">
        <ele>423.60000610352</ele>
        <time>2020-03-08T08:10:04.000Z</time>
      </trkpt>
      <trkpt lat="47.81273" lon="7.12235">
        <ele>423.60000610352</ele>
        <time>2020-03-08T08:10:05.000Z</time>
      </trkpt>
      <trkpt lat="47.81276" lon="7.12238">
        <ele>424</ele>
        <time>2020-03-08T08:10:07.000Z</time>
      </trkpt>
      <trkpt lat="47.81278" lon="7.12239">
        <ele>424.39999389648</ele>
        <time>2020-03-08T08:10:08.000Z</time>
      </trkpt>
      <trkpt lat="47.81279" lon="7.1224">
        <ele>424.79998779297</ele>
        <time>2020-03-08T08:10:09.000Z</time>
      </trkpt>
      <trkpt lat="47.81281" lon="7.1224">
        <ele>425.20001220703</ele>
        <time>2020-03-08T08:10:10.000Z</time>
      </trkpt>
      <trkpt lat="47.81282" lon="7.1224">
        <ele>425.60000610352</ele>
        <time>2020-03-08T08:10:11.000Z</time>
      </trkpt>
      <trkpt lat="47.81285" lon="7.1224">
        <ele>426.20001220703</ele>
        <time>2020-03-08T08:10:13.000Z</time>
      </trkpt>
      <trkpt lat="47.81286" lon="7.12241">
        <ele>426.60000610352</ele>
        <time>2020-03-08T08:10:14.000Z</time>
      </trkpt>
      <trkpt lat="47.81288" lon="7.12241">
        <ele>427.20001220703</ele>
        <time>2020-03-08T08:10:15.000Z</time>
      </trkpt>
      <trkpt lat="47.8129" lon="7.12243">
        <ele>427.60000610352</ele>
        <time>2020-03-08T08:10:16.000Z</time>
      </trkpt>
      <trkpt lat="47.81292" lon="7.12243">
        <ele>428.20001220703</ele>
        <time>2020-03-08T08:10:17.000Z</time>
      </trkpt>
      <trkpt lat="47.81293" lon="7.12244">
        <ele>428.20001220703</ele>
        <time>2020-03-08T08:10:18.000Z</time>
      </trkpt>
      <trkpt lat="47.81297" lon="7.12244">
        <ele>428.60000610352</ele>
        <time>2020-03-08T08:10:21.000Z</time>
      </trkpt>
      <trkpt lat="47.81299" lon="7.12246">
        <ele>429</ele>
        <time>2020-03-08T08:10:22.000Z</time>
      </trkpt>
      <trkpt lat="47.81302" lon="7.12247">
        <ele>429.39999389648</ele>
        <time>2020-03-08T08:10:23.000Z</time>
      </trkpt>
      <trkpt lat="47.81305" lon="7.12248">
        <ele>429.79998779297</ele>
        <time>2020-03-08T08:10:24.000Z</time>
      </trkpt>
      <trkpt lat="47.81307" lon="7.1225">
        <ele>430.39999389648</ele>
        <time>2020-03-08T08:10:25.000Z</time>
      </trkpt>
      <trkpt lat="47.81309" lon="7.12251">
        <ele>430.79998779297</ele>
        <time>2020-03-08T08:10:26.000Z</time>
      </trkpt>
      <trkpt lat="47.81312" lon="7.12253">
        <ele>431.20001220703</ele>
        <time>2020-03-08T08:10:27.000Z</time>
      </trkpt>
      <trkpt lat="47.81314" lon="7.12254">
        <ele>431.60000610352</ele>
        <time>2020-03-08T08:10:28.000Z</time>
      </trkpt>
      <trkpt lat="47.81316" lon="7.12255">
        <ele>432</ele>
        <time>2020-03-08T08:10:29.000Z</time>
      </trkpt>
      <trkpt lat="47.81319" lon="7.12256">
        <ele>432.39999389648</ele>
        <time>2020-03-08T08:10:30.000Z</time>
      </trkpt>
      <trkpt lat="47.81324" lon="7.12257">
        <ele>432.79998779297</ele>
        <time>2020-03-08T08:10:32.000Z</time>
      </trkpt>
      <trkpt lat="47.81326" lon="7.12257">
        <ele>433.20001220703</ele>
        <time>2020-03-08T08:10:33.000Z</time>
      </trkpt>
      <trkpt lat="47.81329" lon="7.12258">
        <ele>433.60000610352</ele>
        <time>2020-03-08T08:10:34.000Z</time>
      </trkpt>
      <trkpt lat="47.81331" lon="7.12259">
        <ele>434</ele>
        <time>2020-03-08T08:10:35.000Z</time>
      </trkpt>
      <trkpt lat="47.81332" lon="7.1226">
        <ele>434.39999389648</ele>
        <time>2020-03-08T08:10:36.000Z</time>
      </trkpt>
      <trkpt lat="47.81336" lon="7.12262">
        <ele>434.79998779297</ele>
        <time>2020-03-08T08:10:38.000Z</time>
      </trkpt>
      <trkpt lat="47.81338" lon="7.12263">
        <ele>435.20001220703</ele>
        <time>2020-03-08T08:10:39.000Z</time>
      </trkpt>
      <trkpt lat="47.8134" lon="7.12264">
        <ele>435.60000610352</ele>
        <time>2020-03-08T08:10:40.000Z</time>
      </trkpt>
      <trkpt lat="47.81341" lon="7.12266">
        <ele>436.20001220703</ele>
        <time>2020-03-08T08:10:41.000Z</time>
      </trkpt>
      <trkpt lat="47.81342" lon="7.12267">
        <ele>436.60000610352</ele>
        <time>2020-03-08T08:10:42.000Z</time>
      </trkpt>
      <trkpt lat="47.81346" lon="7.12267">
        <ele>437</ele>
        <time>2020-03-08T08:10:44.000Z</time>
      </trkpt>
      <trkpt lat="47.81348" lon="7.12266">
        <ele>437.39999389648</ele>
        <time>2020-03-08T08:10:45.000Z</time>
      </trkpt>
      <trkpt lat="47.81351" lon="7.12266">
        <ele>438</ele>
        <time>2020-03-08T08:10:46.000Z</time>
      </trkpt>
      <trkpt lat="47.81353" lon="7.12266">
        <ele>438.39999389648</ele>
        <time>2020-03-08T08:10:47.000Z</time>
      </trkpt>
      <trkpt lat="47.81355" lon="7.12267">
        <ele>438.79998779297</ele>
        <time>2020-03-08T08:10:48.000Z</time>
      </trkpt>
      <trkpt lat="47.81359" lon="7.12268">
        <ele>439.20001220703</ele>
        <time>2020-03-08T08:10:50.000Z</time>
      </trkpt>
      <trkpt lat="47.8136" lon="7.12268">
        <ele>440</ele>
        <time>2020-03-08T08:10:51.000Z</time>
      </trkpt>
      <trkpt lat="47.81362" lon="7.12267">
        <ele>440.39999389648</ele>
        <time>2020-03-08T08:10:52.000Z</time>
      </trkpt>
      <trkpt lat="47.81363" lon="7.12266">
        <ele>440.79998779297</ele>
        <time>2020-03-08T08:10:53.000Z</time>
      </trkpt>
      <trkpt lat="47.81366" lon="7.12265">
        <ele>440.79998779297</ele>
        <time>2020-03-08T08:10:54.000Z</time>
      </trkpt>
      <trkpt lat="47.81369" lon="7.12263">
        <ele>440.79998779297</ele>
        <time>2020-03-08T08:10:56.000Z</time>
      </trkpt>
      <trkpt lat="47.81371" lon="7.12262">
        <ele>441.39999389648</ele>
        <time>2020-03-08T08:10:57.000Z</time>
      </trkpt>
      <trkpt lat="47.81373" lon="7.12262">
        <ele>441.79998779297</ele>
        <time>2020-03-08T08:10:58.000Z</time>
      </trkpt>
      <trkpt lat="47.81375" lon="7.12262">
        <ele>442.20001220703</ele>
        <time>2020-03-08T08:10:59.000Z</time>
      </trkpt>
      <trkpt lat="47.81377" lon="7.12262">
        <ele>442.60000610352</ele>
        <time>2020-03-08T08:11:00.000Z</time>
      </trkpt>
      <trkpt lat="47.81378" lon="7.12262">
        <ele>443.20001220703</ele>
        <time>2020-03-08T08:11:01.000Z</time>
      </trkpt>
      <trkpt lat="47.81379" lon="7.12263">
        <ele>443.20001220703</ele>
        <time>2020-03-08T08:11:02.000Z</time>
      </trkpt>
      <trkpt lat="47.8138" lon="7.12263">
        <ele>443.20001220703</ele>
        <time>2020-03-08T08:11:03.000Z</time>
      </trkpt>
      <trkpt lat="47.8139" lon="7.12262">
        <ele>444.79998779297</ele>
        <time>2020-03-08T08:11:08.000Z</time>
      </trkpt>
      <trkpt lat="47.81392" lon="7.12263">
        <ele>445.20001220703</ele>
        <time>2020-03-08T08:11:09.000Z</time>
      </trkpt>
      <trkpt lat="47.81395" lon="7.12263">
        <ele>445.20001220703</ele>
        <time>2020-03-08T08:11:11.000Z</time>
      </trkpt>
      <trkpt lat="47.81396" lon="7.12263">
        <ele>445.60000610352</ele>
        <time>2020-03-08T08:11:12.000Z</time>
      </trkpt>
      <trkpt lat="47.81399" lon="7.12264">
        <ele>446</ele>
        <time>2020-03-08T08:11:13.000Z</time>
      </trkpt>
      <trkpt lat="47.81401" lon="7.12264">
        <ele>446.39999389648</ele>
        <time>2020-03-08T08:11:14.000Z</time>
      </trkpt>
      <trkpt lat="47.81402" lon="7.12264">
        <ele>446.79998779297</ele>
        <time>2020-03-08T08:11:15.000Z</time>
      </trkpt>
      <trkpt lat="47.81405" lon="7.12265">
        <ele>447.20001220703</ele>
        <time>2020-03-08T08:11:16.000Z</time>
      </trkpt>
      <trkpt lat="47.81411" lon="7.12264">
        <ele>447.60000610352</ele>
        <time>2020-03-08T08:11:19.000Z</time>
      </trkpt>
      <trkpt lat="47.81412" lon="7.12264">
        <ele>448.20001220703</ele>
        <time>2020-03-08T08:11:20.000Z</time>
      </trkpt>
      <trkpt lat="47.81414" lon="7.12263">
        <ele>448.60000610352</ele>
        <time>2020-03-08T08:11:21.000Z</time>
      </trkpt>
      <trkpt lat="47.81417" lon="7.12262">
        <ele>449</ele>
        <time>2020-03-08T08:11:22.000Z</time>
      </trkpt>
      <trkpt lat="47.81418" lon="7.12262">
        <ele>449.39999389648</ele>
        <time>2020-03-08T08:11:23.000Z</time>
      </trkpt>
      <trkpt lat="47.81422" lon="7.12261">
        <ele>449.79998779297</ele>
        <time>2020-03-08T08:11:26.000Z</time>
      </trkpt>
      <trkpt lat="47.81424" lon="7.12261">
        <ele>450.20001220703</ele>
        <time>2020-03-08T08:11:27.000Z</time>
      </trkpt>
      <trkpt lat="47.81426" lon="7.12261">
        <ele>450.60000610352</ele>
        <time>2020-03-08T08:11:28.000Z</time>
      </trkpt>
      <trkpt lat="47.81428" lon="7.12261">
        <ele>451</ele>
        <time>2020-03-08T08:11:29.000Z</time>
      </trkpt>
      <trkpt lat="47.8143" lon="7.12261">
        <ele>451.39999389648</ele>
        <time>2020-03-08T08:11:30.000Z</time>
      </trkpt>
      <trkpt lat="47.81432" lon="7.1226">
        <ele>452</ele>
        <time>2020-03-08T08:11:31.000Z</time>
      </trkpt>
      <trkpt lat="47.81433" lon="7.1226">
        <ele>452.39999389648</ele>
        <time>2020-03-08T08:11:32.000Z</time>
      </trkpt>
      <trkpt lat="47.81435" lon="7.12259">
        <ele>452.79998779297</ele>
        <time>2020-03-08T08:11:33.000Z</time>
      </trkpt>
      <trkpt lat="47.81437" lon="7.12258">
        <ele>453.20001220703</ele>
        <time>2020-03-08T08:11:34.000Z</time>
      </trkpt>
      <trkpt lat="47.81439" lon="7.12259">
        <ele>453.60000610352</ele>
        <time>2020-03-08T08:11:35.000Z</time>
      </trkpt>
      <trkpt lat="47.81443" lon="7.1226">
        <ele>454</ele>
        <time>2020-03-08T08:11:38.000Z</time>
      </trkpt>
      <trkpt lat="47.81445" lon="7.12258">
        <ele>454.39999389648</ele>
        <time>2020-03-08T08:11:39.000Z</time>
      </trkpt>
      <trkpt lat="47.81446" lon="7.12257">
        <ele>455</ele>
        <time>2020-03-08T08:11:40.000Z</time>
      </trkpt>
      <trkpt lat="47.81448" lon="7.12257">
        <ele>455.79998779297</ele>
        <time>2020-03-08T08:11:41.000Z</time>
      </trkpt>
      <trkpt lat="47.81452" lon="7.12256">
        <ele>455.79998779297</ele>
        <time>2020-03-08T08:11:43.000Z</time>
      </trkpt>
      <trkpt lat="47.81454" lon="7.12256">
        <ele>456.20001220703</ele>
        <time>2020-03-08T08:11:44.000Z</time>
      </trkpt>
      <trkpt lat="47.81455" lon="7.12255">
        <ele>456.60000610352</ele>
        <time>2020-03-08T08:11:45.000Z</time>
      </trkpt>
      <trkpt lat="47.81457" lon="7.12254">
        <ele>457.20001220703</ele>
        <time>2020-03-08T08:11:46.000Z</time>
      </trkpt>
      <trkpt lat="47.81459" lon="7.12253">
        <ele>457.60000610352</ele>
        <time>2020-03-08T08:11:47.000Z</time>
      </trkpt>
      <trkpt lat="47.81461" lon="7.12251">
        <ele>458</ele>
        <time>2020-03-08T08:11:48.000Z</time>
      </trkpt>
      <trkpt lat="47.81462" lon="7.1225">
        <ele>458</ele>
        <time>2020-03-08T08:11:49.000Z</time>
      </trkpt>
      <trkpt lat="47.81464" lon="7.12249">
        <ele>458</ele>
        <time>2020-03-08T08:11:50.000Z</time>
      </trkpt>
      <trkpt lat="47.81469" lon="7.12245">
        <ele>458.39999389648</ele>
        <time>2020-03-08T08:11:53.000Z</time>
      </trkpt>
      <trkpt lat="47.81469" lon="7.12245">
        <ele>458.79998779297</ele>
        <time>2020-03-08T08:11:54.000Z</time>
      </trkpt>
      <trkpt lat="47.81469" lon="7.12244">
        <ele>459.20001220703</ele>
        <time>2020-03-08T08:11:55.000Z</time>
      </trkpt>
      <trkpt lat="47.8147" lon="7.12244">
        <ele>459.60000610352</ele>
        <time>2020-03-08T08:11:56.000Z</time>
      </trkpt>
      <trkpt lat="47.81471" lon="7.12243">
        <ele>460</ele>
        <time>2020-03-08T08:11:57.000Z</time>
      </trkpt>
      <trkpt lat="47.81476" lon="7.12237">
        <ele>460.39999389648</ele>
        <time>2020-03-08T08:12:00.000Z</time>
      </trkpt>
      <trkpt lat="47.81477" lon="7.12235">
        <ele>460.79998779297</ele>
        <time>2020-03-08T08:12:01.000Z</time>
      </trkpt>
      <trkpt lat="47.81478" lon="7.12232">
        <ele>461.39999389648</ele>
        <time>2020-03-08T08:12:02.000Z</time>
      </trkpt>
      <trkpt lat="47.81479" lon="7.12229">
        <ele>461.79998779297</ele>
        <time>2020-03-08T08:12:03.000Z</time>
      </trkpt>
      <trkpt lat="47.81481" lon="7.12227">
        <ele>462.20001220703</ele>
        <time>2020-03-08T08:12:04.000Z</time>
      </trkpt>
      <trkpt lat="47.81483" lon="7.12222">
        <ele>462.60000610352</ele>
        <time>2020-03-08T08:12:06.000Z</time>
      </trkpt>
      <trkpt lat="47.81484" lon="7.1222">
        <ele>463</ele>
        <time>2020-03-08T08:12:07.000Z</time>
      </trkpt>
      <trkpt lat="47.81485" lon="7.12219">
        <ele>463.39999389648</ele>
        <time>2020-03-08T08:12:08.000Z</time>
      </trkpt>
      <trkpt lat="47.81485" lon="7.12219">
        <ele>464</ele>
        <time>2020-03-08T08:12:09.000Z</time>
      </trkpt>
      <trkpt lat="47.81485" lon="7.12215">
        <ele>464.39999389648</ele>
        <time>2020-03-08T08:12:10.000Z</time>
      </trkpt>
      <trkpt lat="47.81489" lon="7.12209">
        <ele>464.79998779297</ele>
        <time>2020-03-08T08:12:12.000Z</time>
      </trkpt>
      <trkpt lat="47.8149" lon="7.12207">
        <ele>465.20001220703</ele>
        <time>2020-03-08T08:12:13.000Z</time>
      </trkpt>
      <trkpt lat="47.8149" lon="7.12207">
        <ele>465.60000610352</ele>
        <time>2020-03-08T08:12:14.000Z</time>
      </trkpt>
      <trkpt lat="47.81495" lon="7.12197">
        <ele>467.20001220703</ele>
        <time>2020-03-08T08:12:20.000Z</time>
      </trkpt>
      <trkpt lat="47.81495" lon="7.12196">
        <ele>467.79998779297</ele>
        <time>2020-03-08T08:12:21.000Z</time>
      </trkpt>
      <trkpt lat="47.81496" lon="7.12194">
        <ele>468.20001220703</ele>
        <time>2020-03-08T08:12:22.000Z</time>
      </trkpt>
      <trkpt lat="47.81497" lon="7.12193">
        <ele>468.60000610352</ele>
        <time>2020-03-08T08:12:23.000Z</time>
      </trkpt>
      <trkpt lat="47.81501" lon="7.12184">
        <ele>469</ele>
        <time>2020-03-08T08:12:26.000Z</time>
      </trkpt>
      <trkpt lat="47.81503" lon="7.12184">
        <ele>469.60000610352</ele>
        <time>2020-03-08T08:12:27.000Z</time>
      </trkpt>
      <trkpt lat="47.81504" lon="7.12183">
        <ele>470</ele>
        <time>2020-03-08T08:12:28.000Z</time>
      </trkpt>
      <trkpt lat="47.81508" lon="7.12196">
        <ele>473</ele>
        <time>2020-03-08T08:13:05.000Z</time>
      </trkpt>
      <trkpt lat="47.81509" lon="7.12203">
        <ele>473</ele>
        <time>2020-03-08T08:13:08.000Z</time>
      </trkpt>
      <trkpt lat="47.81509" lon="7.12212">
        <ele>473</ele>
        <time>2020-03-08T08:13:11.000Z</time>
      </trkpt>
      <trkpt lat="47.81509" lon="7.12214">
        <ele>473</ele>
        <time>2020-03-08T08:13:12.000Z</time>
      </trkpt>
      <trkpt lat="47.81508" lon="7.12216">
        <ele>473.39999389648</ele>
        <time>2020-03-08T08:13:13.000Z</time>
      </trkpt>
      <trkpt lat="47.81507" lon="7.12218">
        <ele>473.79998779297</ele>
        <time>2020-03-08T08:13:14.000Z</time>
      </trkpt>
      <trkpt lat="47.81508" lon="7.12221">
        <ele>474.39999389648</ele>
        <time>2020-03-08T08:13:15.000Z</time>
      </trkpt>
      <trkpt lat="47.81508" lon="7.12223">
        <ele>474.79998779297</ele>
        <time>2020-03-08T08:13:16.000Z</time>
      </trkpt>
      <trkpt lat="47.81508" lon="7.12226">
        <ele>475.20001220703</ele>
        <time>2020-03-08T08:13:17.000Z</time>
      </trkpt>
      <trkpt lat="47.81508" lon="7.12231">
        <ele>475.79998779297</ele>
        <time>2020-03-08T08:13:19.000Z</time>
      </trkpt>
      <trkpt lat="47.81508" lon="7.12234">
        <ele>476.20001220703</ele>
        <time>2020-03-08T08:13:20.000Z</time>
      </trkpt>
      <trkpt lat="47.81508" lon="7.12237">
        <ele>476.60000610352</ele>
        <time>2020-03-08T08:13:21.000Z</time>
      </trkpt>
      <trkpt lat="47.81508" lon="7.12241">
        <ele>477</ele>
        <time>2020-03-08T08:13:22.000Z</time>
      </trkpt>
      <trkpt lat="47.81508" lon="7.12243">
        <ele>477.39999389648</ele>
        <time>2020-03-08T08:13:23.000Z</time>
      </trkpt>
      <trkpt lat="47.81508" lon="7.12254">
        <ele>477.79998779297</ele>
        <time>2020-03-08T08:13:26.000Z</time>
      </trkpt>
      <trkpt lat="47.81508" lon="7.12256">
        <ele>478.39999389648</ele>
        <time>2020-03-08T08:13:27.000Z</time>
      </trkpt>
      <trkpt lat="47.81508" lon="7.12259">
        <ele>478.79998779297</ele>
        <time>2020-03-08T08:13:28.000Z</time>
      </trkpt>
      <trkpt lat="47.81508" lon="7.12261">
        <ele>479.20001220703</ele>
        <time>2020-03-08T08:13:29.000Z</time>
      </trkpt>
      <trkpt lat="47.81508" lon="7.12264">
        <ele>479.79998779297</ele>
        <time>2020-03-08T08:13:30.000Z</time>
      </trkpt>
      <trkpt lat="47.81509" lon="7.12269">
        <ele>480.20001220703</ele>
        <time>2020-03-08T08:13:32.000Z</time>
      </trkpt>
      <trkpt lat="47.81508" lon="7.12273">
        <ele>480.60000610352</ele>
        <time>2020-03-08T08:13:33.000Z</time>
      </trkpt>
      <trkpt lat="47.81508" lon="7.12276">
        <ele>481</ele>
        <time>2020-03-08T08:13:34.000Z</time>
      </trkpt>
      <trkpt lat="47.81507" lon="7.12278">
        <ele>481.39999389648</ele>
        <time>2020-03-08T08:13:35.000Z</time>
      </trkpt>
      <trkpt lat="47.81507" lon="7.12281">
        <ele>481.79998779297</ele>
        <time>2020-03-08T08:13:36.000Z</time>
      </trkpt>
      <trkpt lat="47.81506" lon="7.12288">
        <ele>481.79998779297</ele>
        <time>2020-03-08T08:13:39.000Z</time>
      </trkpt>
      <trkpt lat="47.81505" lon="7.12292">
        <ele>482.20001220703</ele>
        <time>2020-03-08T08:13:40.000Z</time>
      </trkpt>
      <trkpt lat="47.81505" lon="7.12295">
        <ele>482.60000610352</ele>
        <time>2020-03-08T08:13:41.000Z</time>
      </trkpt>
      <trkpt lat="47.81504" lon="7.12299">
        <ele>483</ele>
        <time>2020-03-08T08:13:42.000Z</time>
      </trkpt>
      <trkpt lat="47.81503" lon="7.12302">
        <ele>484</ele>
        <time>2020-03-08T08:13:43.000Z</time>
      </trkpt>
      <trkpt lat="47.81502" lon="7.12307">
        <ele>484</ele>
        <time>2020-03-08T08:13:45.000Z</time>
      </trkpt>
      <trkpt lat="47.81502" lon="7.1231">
        <ele>484.39999389648</ele>
        <time>2020-03-08T08:13:46.000Z</time>
      </trkpt>
      <trkpt lat="47.81501" lon="7.12313">
        <ele>484.79998779297</ele>
        <time>2020-03-08T08:13:47.000Z</time>
      </trkpt>
      <trkpt lat="47.81499" lon="7.12315">
        <ele>485.20001220703</ele>
        <time>2020-03-08T08:13:48.000Z</time>
      </trkpt>
      <trkpt lat="47.81499" lon="7.12317">
        <ele>485.79998779297</ele>
        <time>2020-03-08T08:13:49.000Z</time>
      </trkpt>
      <trkpt lat="47.81499" lon="7.12321">
        <ele>486.20001220703</ele>
        <time>2020-03-08T08:13:50.000Z</time>
      </trkpt>
      <trkpt lat="47.815" lon="7.12325">
        <ele>486.20001220703</ele>
        <time>2020-03-08T08:13:51.000Z</time>
      </trkpt>
      <trkpt lat="47.81497" lon="7.12337">
        <ele>486.60000610352</ele>
        <time>2020-03-08T08:13:55.000Z</time>
      </trkpt>
      <trkpt lat="47.81497" lon="7.12339">
        <ele>487</ele>
        <time>2020-03-08T08:13:56.000Z</time>
      </trkpt>
      <trkpt lat="47.81496" lon="7.12342">
        <ele>487.39999389648</ele>
        <time>2020-03-08T08:13:57.000Z</time>
      </trkpt>
      <trkpt lat="47.81495" lon="7.12344">
        <ele>488</ele>
        <time>2020-03-08T08:13:58.000Z</time>
      </trkpt>
      <trkpt lat="47.81495" lon="7.12347">
        <ele>488.39999389648</ele>
        <time>2020-03-08T08:13:59.000Z</time>
      </trkpt>
      <trkpt lat="47.81496" lon="7.12353">
        <ele>488.39999389648</ele>
        <time>2020-03-08T08:14:01.000Z</time>
      </trkpt>
      <trkpt lat="47.815" lon="7.12356">
        <ele>488.79998779297</ele>
        <time>2020-03-08T08:14:03.000Z</time>
      </trkpt>
      <trkpt lat="47.81501" lon="7.12357">
        <ele>489.20001220703</ele>
        <time>2020-03-08T08:14:04.000Z</time>
      </trkpt>
      <trkpt lat="47.81503" lon="7.12359">
        <ele>489.60000610352</ele>
        <time>2020-03-08T08:14:05.000Z</time>
      </trkpt>
      <trkpt lat="47.81505" lon="7.1236">
        <ele>490</ele>
        <time>2020-03-08T08:14:06.000Z</time>
      </trkpt>
      <trkpt lat="47.81507" lon="7.12362">
        <ele>490.39999389648</ele>
        <time>2020-03-08T08:14:07.000Z</time>
      </trkpt>
      <trkpt lat="47.81516" lon="7.12372">
        <ele>490.39999389648</ele>
        <time>2020-03-08T08:14:12.000Z</time>
      </trkpt>
      <trkpt lat="47.81529" lon="7.12383">
        <ele>490.39999389648</ele>
        <time>2020-03-08T08:14:19.000Z</time>
      </trkpt>
      <trkpt lat="47.81532" lon="7.12387">
        <ele>490.39999389648</ele>
        <time>2020-03-08T08:14:23.000Z</time>
      </trkpt>
      <trkpt lat="47.81536" lon="7.12382">
        <ele>490.39999389648</ele>
        <time>2020-03-08T08:16:42.000Z</time>
      </trkpt>
      <trkpt lat="47.81538" lon="7.12381">
        <ele>490.79998779297</ele>
        <time>2020-03-08T08:16:43.000Z</time>
      </trkpt>
      <trkpt lat="47.8154" lon="7.1238">
        <ele>491.20001220703</ele>
        <time>2020-03-08T08:16:44.000Z</time>
      </trkpt>
      <trkpt lat="47.81543" lon="7.1238">
        <ele>491.60000610352</ele>
        <time>2020-03-08T08:16:45.000Z</time>
      </trkpt>
      <trkpt lat="47.81545" lon="7.12379">
        <ele>492</ele>
        <time>2020-03-08T08:16:46.000Z</time>
      </trkpt>
      <trkpt lat="47.81547" lon="7.12379">
        <ele>492.39999389648</ele>
        <time>2020-03-08T08:16:47.000Z</time>
      </trkpt>
      <trkpt lat="47.81549" lon="7.12379">
        <ele>492.39999389648</ele>
        <time>2020-03-08T08:16:48.000Z</time>
      </trkpt>
      <trkpt lat="47.81555" lon="7.1238">
        <ele>492.79998779297</ele>
        <time>2020-03-08T08:16:51.000Z</time>
      </trkpt>
      <trkpt lat="47.81557" lon="7.12381">
        <ele>493.20001220703</ele>
        <time>2020-03-08T08:16:52.000Z</time>
      </trkpt>
      <trkpt lat="47.81558" lon="7.12382">
        <ele>493.79998779297</ele>
        <time>2020-03-08T08:16:53.000Z</time>
      </trkpt>
      <trkpt lat="47.81562" lon="7.12382">
        <ele>494.20001220703</ele>
        <time>2020-03-08T08:16:54.000Z</time>
      </trkpt>
      <trkpt lat="47.81567" lon="7.12383">
        <ele>494.60000610352</ele>
        <time>2020-03-08T08:16:55.000Z</time>
      </trkpt>
      <trkpt lat="47.81571" lon="7.12383">
        <ele>495</ele>
        <time>2020-03-08T08:16:57.000Z</time>
      </trkpt>
      <trkpt lat="47.81573" lon="7.12383">
        <ele>495.60000610352</ele>
        <time>2020-03-08T08:16:58.000Z</time>
      </trkpt>
      <trkpt lat="47.81576" lon="7.12383">
        <ele>496</ele>
        <time>2020-03-08T08:16:59.000Z</time>
      </trkpt>
      <trkpt lat="47.8158" lon="7.12382">
        <ele>497</ele>
        <time>2020-03-08T08:17:00.000Z</time>
      </trkpt>
      <trkpt lat="47.81583" lon="7.12382">
        <ele>497</ele>
        <time>2020-03-08T08:17:01.000Z</time>
      </trkpt>
      <trkpt lat="47.81585" lon="7.12382">
        <ele>497.39999389648</ele>
        <time>2020-03-08T08:17:02.000Z</time>
      </trkpt>
      <trkpt lat="47.81586" lon="7.12382">
        <ele>498</ele>
        <time>2020-03-08T08:17:03.000Z</time>
      </trkpt>
      <trkpt lat="47.81588" lon="7.12381">
        <ele>498.39999389648</ele>
        <time>2020-03-08T08:17:04.000Z</time>
      </trkpt>
      <trkpt lat="47.8159" lon="7.1238">
        <ele>498.79998779297</ele>
        <time>2020-03-08T08:17:05.000Z</time>
      </trkpt>
      <trkpt lat="47.81592" lon="7.12379">
        <ele>499.39999389648</ele>
        <time>2020-03-08T08:17:06.000Z</time>
      </trkpt>
      <trkpt lat="47.81598" lon="7.12377">
        <ele>499.79998779297</ele>
        <time>2020-03-08T08:17:08.000Z</time>
      </trkpt>
      <trkpt lat="47.81601" lon="7.12376">
        <ele>500.20001220703</ele>
        <time>2020-03-08T08:17:09.000Z</time>
      </trkpt>
      <trkpt lat="47.81602" lon="7.12374">
        <ele>500.60000610352</ele>
        <time>2020-03-08T08:17:10.000Z</time>
      </trkpt>
      <trkpt lat="47.81605" lon="7.12373">
        <ele>501.20001220703</ele>
        <time>2020-03-08T08:17:11.000Z</time>
      </trkpt>
      <trkpt lat="47.81606" lon="7.12371">
        <ele>501.60000610352</ele>
        <time>2020-03-08T08:17:12.000Z</time>
      </trkpt>
      <trkpt lat="47.81609" lon="7.12368">
        <ele>501.60000610352</ele>
        <time>2020-03-08T08:17:13.000Z</time>
      </trkpt>
      <trkpt lat="47.81614" lon="7.12365">
        <ele>502</ele>
        <time>2020-03-08T08:17:15.000Z</time>
      </trkpt>
      <trkpt lat="47.81617" lon="7.12363">
        <ele>502.39999389648</ele>
        <time>2020-03-08T08:17:16.000Z</time>
      </trkpt>
      <trkpt lat="47.81619" lon="7.12362">
        <ele>503</ele>
        <time>2020-03-08T08:17:17.000Z</time>
      </trkpt>
      <trkpt lat="47.8162" lon="7.12361">
        <ele>503.39999389648</ele>
        <time>2020-03-08T08:17:18.000Z</time>
      </trkpt>
      <trkpt lat="47.81622" lon="7.12359">
        <ele>503.79998779297</ele>
        <time>2020-03-08T08:17:19.000Z</time>
      </trkpt>
      <trkpt lat="47.81623" lon="7.12358">
        <ele>503.79998779297</ele>
        <time>2020-03-08T08:17:20.000Z</time>
      </trkpt>
      <trkpt lat="47.81629" lon="7.12356">
        <ele>504.20001220703</ele>
        <time>2020-03-08T08:17:23.000Z</time>
      </trkpt>
      <trkpt lat="47.81631" lon="7.12355">
        <ele>504.79998779297</ele>
        <time>2020-03-08T08:17:24.000Z</time>
      </trkpt>
      <trkpt lat="47.81633" lon="7.12355">
        <ele>505.60000610352</ele>
        <time>2020-03-08T08:17:25.000Z</time>
      </trkpt>
      <trkpt lat="47.81635" lon="7.12355">
        <ele>506</ele>
        <time>2020-03-08T08:17:26.000Z</time>
      </trkpt>
      <trkpt lat="47.81643" lon="7.12356">
        <ele>506.39999389648</ele>
        <time>2020-03-08T08:17:30.000Z</time>
      </trkpt>
      <trkpt lat="47.81645" lon="7.12356">
        <ele>507</ele>
        <time>2020-03-08T08:17:31.000Z</time>
      </trkpt>
      <trkpt lat="47.81646" lon="7.12356">
        <ele>507.39999389648</ele>
        <time>2020-03-08T08:17:32.000Z</time>
      </trkpt>
      <trkpt lat="47.81648" lon="7.12356">
        <ele>507.79998779297</ele>
        <time>2020-03-08T08:17:33.000Z</time>
      </trkpt>
      <trkpt lat="47.8165" lon="7.12357">
        <ele>508.20001220703</ele>
        <time>2020-03-08T08:17:34.000Z</time>
      </trkpt>
      <trkpt lat="47.81653" lon="7.12358">
        <ele>508.60000610352</ele>
        <time>2020-03-08T08:17:36.000Z</time>
      </trkpt>
      <trkpt lat="47.81656" lon="7.12358">
        <ele>509</ele>
        <time>2020-03-08T08:17:37.000Z</time>
      </trkpt>
      <trkpt lat="47.81658" lon="7.12359">
        <ele>509.39999389648</ele>
        <time>2020-03-08T08:17:38.000Z</time>
      </trkpt>
      <trkpt lat="47.8166" lon="7.1236">
        <ele>509.79998779297</ele>
        <time>2020-03-08T08:17:39.000Z</time>
      </trkpt>
      <trkpt lat="47.81662" lon="7.1236">
        <ele>510.20001220703</ele>
        <time>2020-03-08T08:17:40.000Z</time>
      </trkpt>
      <trkpt lat="47.81667" lon="7.12362">
        <ele>510.60000610352</ele>
        <time>2020-03-08T08:17:43.000Z</time>
      </trkpt>
      <trkpt lat="47.81669" lon="7.12364">
        <ele>511</ele>
        <time>2020-03-08T08:17:44.000Z</time>
      </trkpt>
      <trkpt lat="47.81672" lon="7.12366">
        <ele>511.39999389648</ele>
        <time>2020-03-08T08:17:45.000Z</time>
      </trkpt>
      <trkpt lat="47.81673" lon="7.12368">
        <ele>511.79998779297</ele>
        <time>2020-03-08T08:17:46.000Z</time>
      </trkpt>
      <trkpt lat="47.81675" lon="7.1237">
        <ele>512.40002441406</ele>
        <time>2020-03-08T08:17:47.000Z</time>
      </trkpt>
      <trkpt lat="47.8168" lon="7.12376">
        <ele>512.79998779297</ele>
        <time>2020-03-08T08:17:50.000Z</time>
      </trkpt>
      <trkpt lat="47.81681" lon="7.12378">
        <ele>513.20001220703</ele>
        <time>2020-03-08T08:17:51.000Z</time>
      </trkpt>
      <trkpt lat="47.81683" lon="7.12379">
        <ele>513.59997558594</ele>
        <time>2020-03-08T08:17:52.000Z</time>
      </trkpt>
      <trkpt lat="47.81684" lon="7.12382">
        <ele>514</ele>
        <time>2020-03-08T08:17:53.000Z</time>
      </trkpt>
      <trkpt lat="47.81686" lon="7.12383">
        <ele>514.40002441406</ele>
        <time>2020-03-08T08:17:54.000Z</time>
      </trkpt>
      <trkpt lat="47.81688" lon="7.12385">
        <ele>514.40002441406</ele>
        <time>2020-03-08T08:17:56.000Z</time>
      </trkpt>
      <trkpt lat="47.81691" lon="7.12389">
        <ele>514.79998779297</ele>
        <time>2020-03-08T08:17:59.000Z</time>
      </trkpt>
      <trkpt lat="47.81693" lon="7.12391">
        <ele>515.20001220703</ele>
        <time>2020-03-08T08:18:00.000Z</time>
      </trkpt>
      <trkpt lat="47.81694" lon="7.12392">
        <ele>515.59997558594</ele>
        <time>2020-03-08T08:18:01.000Z</time>
      </trkpt>
      <trkpt lat="47.81696" lon="7.12393">
        <ele>516</ele>
        <time>2020-03-08T08:18:02.000Z</time>
      </trkpt>
      <trkpt lat="47.81697" lon="7.12394">
        <ele>516.40002441406</ele>
        <time>2020-03-08T08:18:03.000Z</time>
      </trkpt>
      <trkpt lat="47.81698" lon="7.12396">
        <ele>516.40002441406</ele>
        <time>2020-03-08T08:18:04.000Z</time>
      </trkpt>
      <trkpt lat="47.81706" lon="7.12404">
        <ele>516.40002441406</ele>
        <time>2020-03-08T08:18:08.000Z</time>
      </trkpt>
      <trkpt lat="47.81708" lon="7.12405">
        <ele>517</ele>
        <time>2020-03-08T08:18:09.000Z</time>
      </trkpt>
      <trkpt lat="47.8171" lon="7.12406">
        <ele>517.40002441406</ele>
        <time>2020-03-08T08:18:10.000Z</time>
      </trkpt>
      <trkpt lat="47.81711" lon="7.12407">
        <ele>517.79998779297</ele>
        <time>2020-03-08T08:18:11.000Z</time>
      </trkpt>
      <trkpt lat="47.81713" lon="7.12409">
        <ele>518.20001220703</ele>
        <time>2020-03-08T08:18:12.000Z</time>
      </trkpt>
      <trkpt lat="47.81715" lon="7.1241">
        <ele>518.59997558594</ele>
        <time>2020-03-08T08:18:13.000Z</time>
      </trkpt>
      <trkpt lat="47.81722" lon="7.12415">
        <ele>518.59997558594</ele>
        <time>2020-03-08T08:18:17.000Z</time>
      </trkpt>
      <trkpt lat="47.81724" lon="7.12416">
        <ele>519</ele>
        <time>2020-03-08T08:18:18.000Z</time>
      </trkpt>
      <trkpt lat="47.81726" lon="7.12416">
        <ele>519.40002441406</ele>
        <time>2020-03-08T08:18:19.000Z</time>
      </trkpt>
      <trkpt lat="47.81728" lon="7.12417">
        <ele>519.79998779297</ele>
        <time>2020-03-08T08:18:20.000Z</time>
      </trkpt>
      <trkpt lat="47.8173" lon="7.12418">
        <ele>520.40002441406</ele>
        <time>2020-03-08T08:18:21.000Z</time>
      </trkpt>
      <trkpt lat="47.81732" lon="7.12419">
        <ele>520.79998779297</ele>
        <time>2020-03-08T08:18:22.000Z</time>
      </trkpt>
      <trkpt lat="47.81735" lon="7.12421">
        <ele>520.79998779297</ele>
        <time>2020-03-08T08:18:24.000Z</time>
      </trkpt>
      <trkpt lat="47.81742" lon="7.12421">
        <ele>521.20001220703</ele>
        <time>2020-03-08T08:18:28.000Z</time>
      </trkpt>
      <trkpt lat="47.81744" lon="7.12421">
        <ele>521.59997558594</ele>
        <time>2020-03-08T08:18:29.000Z</time>
      </trkpt>
      <trkpt lat="47.81746" lon="7.12422">
        <ele>522</ele>
        <time>2020-03-08T08:18:30.000Z</time>
      </trkpt>
      <trkpt lat="47.81748" lon="7.12422">
        <ele>522.40002441406</ele>
        <time>2020-03-08T08:18:31.000Z</time>
      </trkpt>
      <trkpt lat="47.81749" lon="7.12422">
        <ele>522.79998779297</ele>
        <time>2020-03-08T08:18:32.000Z</time>
      </trkpt>
      <trkpt lat="47.81758" lon="7.12424">
        <ele>522.79998779297</ele>
        <time>2020-03-08T08:18:37.000Z</time>
      </trkpt>
      <trkpt lat="47.81764" lon="7.12425">
        <ele>523.59997558594</ele>
        <time>2020-03-08T08:18:40.000Z</time>
      </trkpt>
      <trkpt lat="47.81766" lon="7.12426">
        <ele>524</ele>
        <time>2020-03-08T08:18:41.000Z</time>
      </trkpt>
      <trkpt lat="47.81768" lon="7.12426">
        <ele>524.40002441406</ele>
        <time>2020-03-08T08:18:42.000Z</time>
      </trkpt>
      <trkpt lat="47.81769" lon="7.12427">
        <ele>525</ele>
        <time>2020-03-08T08:18:43.000Z</time>
      </trkpt>
      <trkpt lat="47.81775" lon="7.12426">
        <ele>525</ele>
        <time>2020-03-08T08:18:47.000Z</time>
      </trkpt>
      <trkpt lat="47.81778" lon="7.12425">
        <ele>525.40002441406</ele>
        <time>2020-03-08T08:18:49.000Z</time>
      </trkpt>
      <trkpt lat="47.8178" lon="7.12424">
        <ele>525.79998779297</ele>
        <time>2020-03-08T08:18:50.000Z</time>
      </trkpt>
      <trkpt lat="47.81781" lon="7.12423">
        <ele>526.20001220703</ele>
        <time>2020-03-08T08:18:51.000Z</time>
      </trkpt>
      <trkpt lat="47.81783" lon="7.12421">
        <ele>526.79998779297</ele>
        <time>2020-03-08T08:18:52.000Z</time>
      </trkpt>
      <trkpt lat="47.81785" lon="7.1242">
        <ele>527.20001220703</ele>
        <time>2020-03-08T08:18:53.000Z</time>
      </trkpt>
      <trkpt lat="47.81788" lon="7.12416">
        <ele>527.20001220703</ele>
        <time>2020-03-08T08:18:55.000Z</time>
      </trkpt>
      <trkpt lat="47.8179" lon="7.12412">
        <ele>527.59997558594</ele>
        <time>2020-03-08T08:18:57.000Z</time>
      </trkpt>
      <trkpt lat="47.81791" lon="7.12409">
        <ele>528</ele>
        <time>2020-03-08T08:18:58.000Z</time>
      </trkpt>
      <trkpt lat="47.81793" lon="7.12407">
        <ele>528.40002441406</ele>
        <time>2020-03-08T08:18:59.000Z</time>
      </trkpt>
      <trkpt lat="47.81793" lon="7.12405">
        <ele>528.79998779297</ele>
        <time>2020-03-08T08:19:00.000Z</time>
      </trkpt>
      <trkpt lat="47.81794" lon="7.12402">
        <ele>529.20001220703</ele>
        <time>2020-03-08T08:19:01.000Z</time>
      </trkpt>
      <trkpt lat="47.81796" lon="7.12396">
        <ele>530.20001220703</ele>
        <time>2020-03-08T08:19:04.000Z</time>
      </trkpt>
      <trkpt lat="47.81797" lon="7.12394">
        <ele>530.59997558594</ele>
        <time>2020-03-08T08:19:05.000Z</time>
      </trkpt>
      <trkpt lat="47.81798" lon="7.12393">
        <ele>531</ele>
        <time>2020-03-08T08:19:06.000Z</time>
      </trkpt>
      <trkpt lat="47.81799" lon="7.12391">
        <ele>531.59997558594</ele>
        <time>2020-03-08T08:19:07.000Z</time>
      </trkpt>
      <trkpt lat="47.81803" lon="7.12384">
        <ele>532</ele>
        <time>2020-03-08T08:19:10.000Z</time>
      </trkpt>
      <trkpt lat="47.81804" lon="7.12382">
        <ele>532.40002441406</ele>
        <time>2020-03-08T08:19:11.000Z</time>
      </trkpt>
      <trkpt lat="47.81804" lon="7.12379">
        <ele>532.79998779297</ele>
        <time>2020-03-08T08:19:12.000Z</time>
      </trkpt>
      <trkpt lat="47.81805" lon="7.12377">
        <ele>533.40002441406</ele>
        <time>2020-03-08T08:19:13.000Z</time>
      </trkpt>
      <trkpt lat="47.81806" lon="7.12375">
        <ele>533.79998779297</ele>
        <time>2020-03-08T08:19:14.000Z</time>
      </trkpt>
      <trkpt lat="47.81808" lon="7.12372">
        <ele>534.20001220703</ele>
        <time>2020-03-08T08:19:16.000Z</time>
      </trkpt>
      <trkpt lat="47.81809" lon="7.1237">
        <ele>534.59997558594</ele>
        <time>2020-03-08T08:19:17.000Z</time>
      </trkpt>
      <trkpt lat="47.81809" lon="7.12368">
        <ele>535.20001220703</ele>
        <time>2020-03-08T08:19:18.000Z</time>
      </trkpt>
      <trkpt lat="47.8181" lon="7.12367">
        <ele>535.59997558594</ele>
        <time>2020-03-08T08:19:19.000Z</time>
      </trkpt>
      <trkpt lat="47.81811" lon="7.12365">
        <ele>536</ele>
        <time>2020-03-08T08:19:20.000Z</time>
      </trkpt>
      <trkpt lat="47.81815" lon="7.12358">
        <ele>536.40002441406</ele>
        <time>2020-03-08T08:19:23.000Z</time>
      </trkpt>
      <trkpt lat="47.81816" lon="7.12356">
        <ele>536.79998779297</ele>
        <time>2020-03-08T08:19:24.000Z</time>
      </trkpt>
      <trkpt lat="47.81817" lon="7.12353">
        <ele>537.40002441406</ele>
        <time>2020-03-08T08:19:25.000Z</time>
      </trkpt>
      <trkpt lat="47.81819" lon="7.12351">
        <ele>537.79998779297</ele>
        <time>2020-03-08T08:19:26.000Z</time>
      </trkpt>
      <trkpt lat="47.8182" lon="7.12348">
        <ele>538.20001220703</ele>
        <time>2020-03-08T08:19:27.000Z</time>
      </trkpt>
      <trkpt lat="47.81824" lon="7.12344">
        <ele>538.20001220703</ele>
        <time>2020-03-08T08:19:30.000Z</time>
      </trkpt>
      <trkpt lat="47.81831" lon="7.12337">
        <ele>538.59997558594</ele>
        <time>2020-03-08T08:19:36.000Z</time>
      </trkpt>
      <trkpt lat="47.81832" lon="7.12336">
        <ele>539</ele>
        <time>2020-03-08T08:19:37.000Z</time>
      </trkpt>
      <trkpt lat="47.81834" lon="7.12336">
        <ele>539.40002441406</ele>
        <time>2020-03-08T08:19:38.000Z</time>
      </trkpt>
      <trkpt lat="47.81835" lon="7.12336">
        <ele>539.79998779297</ele>
        <time>2020-03-08T08:19:39.000Z</time>
      </trkpt>
      <trkpt lat="47.81836" lon="7.12336">
        <ele>540.20001220703</ele>
        <time>2020-03-08T08:19:40.000Z</time>
      </trkpt>
      <trkpt lat="47.81844" lon="7.12338">
        <ele>540.20001220703</ele>
        <time>2020-03-08T08:19:45.000Z</time>
      </trkpt>
      <trkpt lat="47.81848" lon="7.12339">
        <ele>540.59997558594</ele>
        <time>2020-03-08T08:19:47.000Z</time>
      </trkpt>
      <trkpt lat="47.81851" lon="7.12339">
        <ele>541</ele>
        <time>2020-03-08T08:19:48.000Z</time>
      </trkpt>
      <trkpt lat="47.81853" lon="7.1234">
        <ele>541.40002441406</ele>
        <time>2020-03-08T08:19:49.000Z</time>
      </trkpt>
      <trkpt lat="47.81856" lon="7.12341">
        <ele>541.79998779297</ele>
        <time>2020-03-08T08:19:50.000Z</time>
      </trkpt>
      <trkpt lat="47.81858" lon="7.12341">
        <ele>542.20001220703</ele>
        <time>2020-03-08T08:19:51.000Z</time>
      </trkpt>
      <trkpt lat="47.81872" lon="7.12343">
        <ele>542.79998779297</ele>
        <time>2020-03-08T08:19:56.000Z</time>
      </trkpt>
      <trkpt lat="47.81875" lon="7.12343">
        <ele>543.20001220703</ele>
        <time>2020-03-08T08:19:57.000Z</time>
      </trkpt>
      <trkpt lat="47.81877" lon="7.12343">
        <ele>543.59997558594</ele>
        <time>2020-03-08T08:19:58.000Z</time>
      </trkpt>
      <trkpt lat="47.81879" lon="7.12344">
        <ele>544</ele>
        <time>2020-03-08T08:19:59.000Z</time>
      </trkpt>
      <trkpt lat="47.81881" lon="7.12344">
        <ele>544.59997558594</ele>
        <time>2020-03-08T08:20:00.000Z</time>
      </trkpt>
      <trkpt lat="47.81888" lon="7.12343">
        <ele>544.59997558594</ele>
        <time>2020-03-08T08:20:03.000Z</time>
      </trkpt>
      <trkpt lat="47.81892" lon="7.12341">
        <ele>545</ele>
        <time>2020-03-08T08:20:05.000Z</time>
      </trkpt>
      <trkpt lat="47.81894" lon="7.12341">
        <ele>545.40002441406</ele>
        <time>2020-03-08T08:20:06.000Z</time>
      </trkpt>
      <trkpt lat="47.81896" lon="7.1234">
        <ele>545.79998779297</ele>
        <time>2020-03-08T08:20:07.000Z</time>
      </trkpt>
      <trkpt lat="47.81898" lon="7.1234">
        <ele>546.20001220703</ele>
        <time>2020-03-08T08:20:08.000Z</time>
      </trkpt>
      <trkpt lat="47.819" lon="7.12339">
        <ele>546.59997558594</ele>
        <time>2020-03-08T08:20:09.000Z</time>
      </trkpt>
      <trkpt lat="47.81902" lon="7.12339">
        <ele>546.59997558594</ele>
        <time>2020-03-08T08:20:10.000Z</time>
      </trkpt>
      <trkpt lat="47.81906" lon="7.12337">
        <ele>547</ele>
        <time>2020-03-08T08:20:12.000Z</time>
      </trkpt>
      <trkpt lat="47.81908" lon="7.12337">
        <ele>547.40002441406</ele>
        <time>2020-03-08T08:20:13.000Z</time>
      </trkpt>
      <trkpt lat="47.8191" lon="7.12336">
        <ele>547.79998779297</ele>
        <time>2020-03-08T08:20:14.000Z</time>
      </trkpt>
      <trkpt lat="47.81912" lon="7.12335">
        <ele>548.40002441406</ele>
        <time>2020-03-08T08:20:15.000Z</time>
      </trkpt>
      <trkpt lat="47.81913" lon="7.12333">
        <ele>548.79998779297</ele>
        <time>2020-03-08T08:20:16.000Z</time>
      </trkpt>
      <trkpt lat="47.81915" lon="7.12332">
        <ele>548.79998779297</ele>
        <time>2020-03-08T08:20:17.000Z</time>
      </trkpt>
      <trkpt lat="47.81917" lon="7.12331">
        <ele>549.20001220703</ele>
        <time>2020-03-08T08:20:18.000Z</time>
      </trkpt>
      <trkpt lat="47.8192" lon="7.1233">
        <ele>550</ele>
        <time>2020-03-08T08:20:19.000Z</time>
      </trkpt>
      <trkpt lat="47.81922" lon="7.12328">
        <ele>550.40002441406</ele>
        <time>2020-03-08T08:20:20.000Z</time>
      </trkpt>
      <trkpt lat="47.81923" lon="7.12327">
        <ele>551</ele>
        <time>2020-03-08T08:20:21.000Z</time>
      </trkpt>
      <trkpt lat="47.81925" lon="7.12325">
        <ele>551</ele>
        <time>2020-03-08T08:20:22.000Z</time>
      </trkpt>
      <trkpt lat="47.81927" lon="7.12324">
        <ele>551.40002441406</ele>
        <time>2020-03-08T08:20:23.000Z</time>
      </trkpt>
      <trkpt lat="47.81929" lon="7.12322">
        <ele>551.79998779297</ele>
        <time>2020-03-08T08:20:24.000Z</time>
      </trkpt>
      <trkpt lat="47.81931" lon="7.1232">
        <ele>552.20001220703</ele>
        <time>2020-03-08T08:20:25.000Z</time>
      </trkpt>
      <trkpt lat="47.81933" lon="7.12319">
        <ele>552.59997558594</ele>
        <time>2020-03-08T08:20:26.000Z</time>
      </trkpt>
      <trkpt lat="47.81934" lon="7.12318">
        <ele>553.20001220703</ele>
        <time>2020-03-08T08:20:27.000Z</time>
      </trkpt>
      <trkpt lat="47.81936" lon="7.12317">
        <ele>553.20001220703</ele>
        <time>2020-03-08T08:20:28.000Z</time>
      </trkpt>
      <trkpt lat="47.81938" lon="7.12315">
        <ele>553.59997558594</ele>
        <time>2020-03-08T08:20:29.000Z</time>
      </trkpt>
      <trkpt lat="47.8194" lon="7.12312">
        <ele>554</ele>
        <time>2020-03-08T08:20:30.000Z</time>
      </trkpt>
      <trkpt lat="47.81942" lon="7.1231">
        <ele>554.40002441406</ele>
        <time>2020-03-08T08:20:31.000Z</time>
      </trkpt>
      <trkpt lat="47.81945" lon="7.12307">
        <ele>554.79998779297</ele>
        <time>2020-03-08T08:20:32.000Z</time>
      </trkpt>
      <trkpt lat="47.81947" lon="7.12304">
        <ele>555.20001220703</ele>
        <time>2020-03-08T08:20:33.000Z</time>
      </trkpt>
      <trkpt lat="47.81948" lon="7.12302">
        <ele>555.20001220703</ele>
        <time>2020-03-08T08:20:34.000Z</time>
      </trkpt>
      <trkpt lat="47.81953" lon="7.12296">
        <ele>555.59997558594</ele>
        <time>2020-03-08T08:20:37.000Z</time>
      </trkpt>
      <trkpt lat="47.81955" lon="7.12293">
        <ele>556</ele>
        <time>2020-03-08T08:20:38.000Z</time>
      </trkpt>
      <trkpt lat="47.81956" lon="7.12291">
        <ele>556.40002441406</ele>
        <time>2020-03-08T08:20:39.000Z</time>
      </trkpt>
      <trkpt lat="47.81958" lon="7.12289">
        <ele>556.79998779297</ele>
        <time>2020-03-08T08:20:40.000Z</time>
      </trkpt>
      <trkpt lat="47.8196" lon="7.12287">
        <ele>557.20001220703</ele>
        <time>2020-03-08T08:20:41.000Z</time>
      </trkpt>
      <trkpt lat="47.81966" lon="7.12279">
        <ele>557.59997558594</ele>
        <time>2020-03-08T08:20:45.000Z</time>
      </trkpt>
      <trkpt lat="47.81967" lon="7.12277">
        <ele>558</ele>
        <time>2020-03-08T08:20:46.000Z</time>
      </trkpt>
      <trkpt lat="47.81968" lon="7.12275">
        <ele>558.40002441406</ele>
        <time>2020-03-08T08:20:47.000Z</time>
      </trkpt>
      <trkpt lat="47.81969" lon="7.12273">
        <ele>558.79998779297</ele>
        <time>2020-03-08T08:20:48.000Z</time>
      </trkpt>
      <trkpt lat="47.8197" lon="7.12271">
        <ele>559.20001220703</ele>
        <time>2020-03-08T08:20:49.000Z</time>
      </trkpt>
      <trkpt lat="47.81978" lon="7.12261">
        <ele>559.59997558594</ele>
        <time>2020-03-08T08:20:53.000Z</time>
      </trkpt>
      <trkpt lat="47.8198" lon="7.1226">
        <ele>560</ele>
        <time>2020-03-08T08:20:54.000Z</time>
      </trkpt>
      <trkpt lat="47.81981" lon="7.12257">
        <ele>560.40002441406</ele>
        <time>2020-03-08T08:20:55.000Z</time>
      </trkpt>
      <trkpt lat="47.81983" lon="7.12256">
        <ele>560.79998779297</ele>
        <time>2020-03-08T08:20:56.000Z</time>
      </trkpt>
      <trkpt lat="47.81983" lon="7.12254">
        <ele>561.20001220703</ele>
        <time>2020-03-08T08:20:57.000Z</time>
      </trkpt>
      <trkpt lat="47.81989" lon="7.12247">
        <ele>561.59997558594</ele>
        <time>2020-03-08T08:21:01.000Z</time>
      </trkpt>
      <trkpt lat="47.8199" lon="7.12244">
        <ele>562</ele>
        <time>2020-03-08T08:21:02.000Z</time>
      </trkpt>
      <trkpt lat="47.81991" lon="7.12242">
        <ele>562.40002441406</ele>
        <time>2020-03-08T08:21:03.000Z</time>
      </trkpt>
      <trkpt lat="47.81992" lon="7.1224">
        <ele>563</ele>
        <time>2020-03-08T08:21:04.000Z</time>
      </trkpt>
      <trkpt lat="47.81994" lon="7.12238">
        <ele>563.40002441406</ele>
        <time>2020-03-08T08:21:05.000Z</time>
      </trkpt>
      <trkpt lat="47.82" lon="7.1223">
        <ele>563.79998779297</ele>
        <time>2020-03-08T08:21:09.000Z</time>
      </trkpt>
      <trkpt lat="47.82002" lon="7.12229">
        <ele>564.20001220703</ele>
        <time>2020-03-08T08:21:10.000Z</time>
      </trkpt>
      <trkpt lat="47.82003" lon="7.12226">
        <ele>564.59997558594</ele>
        <time>2020-03-08T08:21:11.000Z</time>
      </trkpt>
      <trkpt lat="47.82005" lon="7.12223">
        <ele>565</ele>
        <time>2020-03-08T08:21:12.000Z</time>
      </trkpt>
      <trkpt lat="47.82006" lon="7.1222">
        <ele>565.40002441406</ele>
        <time>2020-03-08T08:21:13.000Z</time>
      </trkpt>
      <trkpt lat="47.82007" lon="7.12218">
        <ele>565.40002441406</ele>
        <time>2020-03-08T08:21:14.000Z</time>
      </trkpt>
      <trkpt lat="47.82016" lon="7.12203">
        <ele>566</ele>
        <time>2020-03-08T08:21:20.000Z</time>
      </trkpt>
      <trkpt lat="47.82017" lon="7.122">
        <ele>566.40002441406</ele>
        <time>2020-03-08T08:21:21.000Z</time>
      </trkpt>
      <trkpt lat="47.82019" lon="7.12198">
        <ele>566.79998779297</ele>
        <time>2020-03-08T08:21:22.000Z</time>
      </trkpt>
      <trkpt lat="47.82021" lon="7.12196">
        <ele>567.20001220703</ele>
        <time>2020-03-08T08:21:23.000Z</time>
      </trkpt>
      <trkpt lat="47.82023" lon="7.12194">
        <ele>567.79998779297</ele>
        <time>2020-03-08T08:21:24.000Z</time>
      </trkpt>
      <trkpt lat="47.82029" lon="7.12188">
        <ele>567.79998779297</ele>
        <time>2020-03-08T08:21:27.000Z</time>
      </trkpt>
      <trkpt lat="47.82031" lon="7.12186">
        <ele>568.20001220703</ele>
        <time>2020-03-08T08:21:28.000Z</time>
      </trkpt>
      <trkpt lat="47.82032" lon="7.12184">
        <ele>568.59997558594</ele>
        <time>2020-03-08T08:21:29.000Z</time>
      </trkpt>
      <trkpt lat="47.82034" lon="7.12182">
        <ele>569</ele>
        <time>2020-03-08T08:21:30.000Z</time>
      </trkpt>
      <trkpt lat="47.82035" lon="7.1218">
        <ele>569.40002441406</ele>
        <time>2020-03-08T08:21:31.000Z</time>
      </trkpt>
      <trkpt lat="47.82036" lon="7.12179">
        <ele>569.79998779297</ele>
        <time>2020-03-08T08:21:32.000Z</time>
      </trkpt>
      <trkpt lat="47.82038" lon="7.12177">
        <ele>569.79998779297</ele>
        <time>2020-03-08T08:21:33.000Z</time>
      </trkpt>
      <trkpt lat="47.82039" lon="7.12176">
        <ele>570.20001220703</ele>
        <time>2020-03-08T08:21:34.000Z</time>
      </trkpt>
      <trkpt lat="47.82041" lon="7.12175">
        <ele>570.59997558594</ele>
        <time>2020-03-08T08:21:35.000Z</time>
      </trkpt>
      <trkpt lat="47.82043" lon="7.12174">
        <ele>571</ele>
        <time>2020-03-08T08:21:36.000Z</time>
      </trkpt>
      <trkpt lat="47.82045" lon="7.12172">
        <ele>571.40002441406</ele>
        <time>2020-03-08T08:21:37.000Z</time>
      </trkpt>
      <trkpt lat="47.82046" lon="7.12171">
        <ele>571.79998779297</ele>
        <time>2020-03-08T08:21:38.000Z</time>
      </trkpt>
      <trkpt lat="47.82049" lon="7.12169">
        <ele>571.79998779297</ele>
        <time>2020-03-08T08:21:40.000Z</time>
      </trkpt>
      <trkpt lat="47.82051" lon="7.12167">
        <ele>572.20001220703</ele>
        <time>2020-03-08T08:21:41.000Z</time>
      </trkpt>
      <trkpt lat="47.82053" lon="7.12166">
        <ele>572.59997558594</ele>
        <time>2020-03-08T08:21:42.000Z</time>
      </trkpt>
      <trkpt lat="47.82054" lon="7.12165">
        <ele>573</ele>
        <time>2020-03-08T08:21:43.000Z</time>
      </trkpt>
      <trkpt lat="47.82055" lon="7.12163">
        <ele>573.40002441406</ele>
        <time>2020-03-08T08:21:44.000Z</time>
      </trkpt>
      <trkpt lat="47.82056" lon="7.12162">
        <ele>573.79998779297</ele>
        <time>2020-03-08T08:21:45.000Z</time>
      </trkpt>
      <trkpt lat="47.82059" lon="7.12159">
        <ele>573.79998779297</ele>
        <time>2020-03-08T08:21:47.000Z</time>
      </trkpt>
      <trkpt lat="47.82062" lon="7.12156">
        <ele>574.20001220703</ele>
        <time>2020-03-08T08:21:49.000Z</time>
      </trkpt>
      <trkpt lat="47.82063" lon="7.12155">
        <ele>574.59997558594</ele>
        <time>2020-03-08T08:21:50.000Z</time>
      </trkpt>
      <trkpt lat="47.82065" lon="7.12153">
        <ele>575</ele>
        <time>2020-03-08T08:21:51.000Z</time>
      </trkpt>
      <trkpt lat="47.82066" lon="7.12151">
        <ele>575.40002441406</ele>
        <time>2020-03-08T08:21:52.000Z</time>
      </trkpt>
      <trkpt lat="47.82067" lon="7.1215">
        <ele>575.79998779297</ele>
        <time>2020-03-08T08:21:53.000Z</time>
      </trkpt>
      <trkpt lat="47.82069" lon="7.12148">
        <ele>575.79998779297</ele>
        <time>2020-03-08T08:21:54.000Z</time>
      </trkpt>
      <trkpt lat="47.82074" lon="7.12141">
        <ele>576.20001220703</ele>
        <time>2020-03-08T08:21:58.000Z</time>
      </trkpt>
      <trkpt lat="47.82076" lon="7.1214">
        <ele>576.59997558594</ele>
        <time>2020-03-08T08:21:59.000Z</time>
      </trkpt>
      <trkpt lat="47.82078" lon="7.12138">
        <ele>577</ele>
        <time>2020-03-08T08:22:00.000Z</time>
      </trkpt>
      <trkpt lat="47.82079" lon="7.12136">
        <ele>577.40002441406</ele>
        <time>2020-03-08T08:22:01.000Z</time>
      </trkpt>
      <trkpt lat="47.8208" lon="7.12134">
        <ele>577.79998779297</ele>
        <time>2020-03-08T08:22:02.000Z</time>
      </trkpt>
      <trkpt lat="47.82086" lon="7.12125">
        <ele>577.79998779297</ele>
        <time>2020-03-08T08:22:07.000Z</time>
      </trkpt>
      <trkpt lat="47.82088" lon="7.12123">
        <ele>578.40002441406</ele>
        <time>2020-03-08T08:22:08.000Z</time>
      </trkpt>
      <trkpt lat="47.82089" lon="7.12122">
        <ele>578.79998779297</ele>
        <time>2020-03-08T08:22:09.000Z</time>
      </trkpt>
      <trkpt lat="47.8209" lon="7.1212">
        <ele>579.20001220703</ele>
        <time>2020-03-08T08:22:10.000Z</time>
      </trkpt>
      <trkpt lat="47.82091" lon="7.12118">
        <ele>579.59997558594</ele>
        <time>2020-03-08T08:22:11.000Z</time>
      </trkpt>
      <trkpt lat="47.82093" lon="7.12117">
        <ele>580</ele>
        <time>2020-03-08T08:22:12.000Z</time>
      </trkpt>
      <trkpt lat="47.82095" lon="7.12114">
        <ele>580</ele>
        <time>2020-03-08T08:22:14.000Z</time>
      </trkpt>
      <trkpt lat="47.821" lon="7.12108">
        <ele>580.40002441406</ele>
        <time>2020-03-08T08:22:18.000Z</time>
      </trkpt>
      <trkpt lat="47.82102" lon="7.12107">
        <ele>580.79998779297</ele>
        <time>2020-03-08T08:22:19.000Z</time>
      </trkpt>
      <trkpt lat="47.82103" lon="7.12106">
        <ele>581.20001220703</ele>
        <time>2020-03-08T08:22:20.000Z</time>
      </trkpt>
      <trkpt lat="47.82104" lon="7.12105">
        <ele>581.59997558594</ele>
        <time>2020-03-08T08:22:21.000Z</time>
      </trkpt>
      <trkpt lat="47.82105" lon="7.12103">
        <ele>582</ele>
        <time>2020-03-08T08:22:22.000Z</time>
      </trkpt>
      <trkpt lat="47.8211" lon="7.12096">
        <ele>582.59997558594</ele>
        <time>2020-03-08T08:22:25.000Z</time>
      </trkpt>
      <trkpt lat="47.82112" lon="7.12095">
        <ele>583</ele>
        <time>2020-03-08T08:22:26.000Z</time>
      </trkpt>
      <trkpt lat="47.82113" lon="7.12094">
        <ele>583.40002441406</ele>
        <time>2020-03-08T08:22:27.000Z</time>
      </trkpt>
      <trkpt lat="47.82115" lon="7.12093">
        <ele>583.79998779297</ele>
        <time>2020-03-08T08:22:28.000Z</time>
      </trkpt>
      <trkpt lat="47.82117" lon="7.12092">
        <ele>584.20001220703</ele>
        <time>2020-03-08T08:22:29.000Z</time>
      </trkpt>
      <trkpt lat="47.82124" lon="7.12089">
        <ele>584.59997558594</ele>
        <time>2020-03-08T08:22:32.000Z</time>
      </trkpt>
      <trkpt lat="47.82126" lon="7.12088">
        <ele>585</ele>
        <time>2020-03-08T08:22:33.000Z</time>
      </trkpt>
      <trkpt lat="47.82127" lon="7.12088">
        <ele>585.40002441406</ele>
        <time>2020-03-08T08:22:34.000Z</time>
      </trkpt>
      <trkpt lat="47.82129" lon="7.12088">
        <ele>585.79998779297</ele>
        <time>2020-03-08T08:22:35.000Z</time>
      </trkpt>
      <trkpt lat="47.82131" lon="7.12087">
        <ele>586.40002441406</ele>
        <time>2020-03-08T08:22:36.000Z</time>
      </trkpt>
      <trkpt lat="47.82138" lon="7.12083">
        <ele>586.40002441406</ele>
        <time>2020-03-08T08:22:40.000Z</time>
      </trkpt>
      <trkpt lat="47.82142" lon="7.12081">
        <ele>586.79998779297</ele>
        <time>2020-03-08T08:22:42.000Z</time>
      </trkpt>
      <trkpt lat="47.82144" lon="7.1208">
        <ele>587.20001220703</ele>
        <time>2020-03-08T08:22:43.000Z</time>
      </trkpt>
      <trkpt lat="47.82146" lon="7.12079">
        <ele>587.59997558594</ele>
        <time>2020-03-08T08:22:44.000Z</time>
      </trkpt>
      <trkpt lat="47.82148" lon="7.12079">
        <ele>588</ele>
        <time>2020-03-08T08:22:45.000Z</time>
      </trkpt>
      <trkpt lat="47.8215" lon="7.1208">
        <ele>588.40002441406</ele>
        <time>2020-03-08T08:22:46.000Z</time>
      </trkpt>
      <trkpt lat="47.82151" lon="7.1208">
        <ele>588.40002441406</ele>
        <time>2020-03-08T08:22:47.000Z</time>
      </trkpt>
      <trkpt lat="47.82156" lon="7.12079">
        <ele>588.79998779297</ele>
        <time>2020-03-08T08:22:49.000Z</time>
      </trkpt>
      <trkpt lat="47.82159" lon="7.12079">
        <ele>589.40002441406</ele>
        <time>2020-03-08T08:22:50.000Z</time>
      </trkpt>
      <trkpt lat="47.82161" lon="7.12079">
        <ele>589.79998779297</ele>
        <time>2020-03-08T08:22:51.000Z</time>
      </trkpt>
      <trkpt lat="47.82163" lon="7.12079">
        <ele>590.20001220703</ele>
        <time>2020-03-08T08:22:52.000Z</time>
      </trkpt>
      <trkpt lat="47.82165" lon="7.1208">
        <ele>590.59997558594</ele>
        <time>2020-03-08T08:22:53.000Z</time>
      </trkpt>
      <trkpt lat="47.82177" lon="7.12087">
        <ele>590.59997558594</ele>
        <time>2020-03-08T08:22:59.000Z</time>
      </trkpt>
      <trkpt lat="47.82189" lon="7.12099">
        <ele>590.59997558594</ele>
        <time>2020-03-08T08:23:06.000Z</time>
      </trkpt>
      <trkpt lat="47.82194" lon="7.12104">
        <ele>591</ele>
        <time>2020-03-08T08:23:09.000Z</time>
      </trkpt>
      <trkpt lat="47.82195" lon="7.12105">
        <ele>591.40002441406</ele>
        <time>2020-03-08T08:23:10.000Z</time>
      </trkpt>
      <trkpt lat="47.82196" lon="7.12106">
        <ele>592.20001220703</ele>
        <time>2020-03-08T08:23:11.000Z</time>
      </trkpt>
      <trkpt lat="47.82196" lon="7.12108">
        <ele>592.59997558594</ele>
        <time>2020-03-08T08:23:12.000Z</time>
      </trkpt>
      <trkpt lat="47.82205" lon="7.12117">
        <ele>592.59997558594</ele>
        <time>2020-03-08T08:23:19.000Z</time>
      </trkpt>
      <trkpt lat="47.8221" lon="7.12125">
        <ele>592.59997558594</ele>
        <time>2020-03-08T08:23:24.000Z</time>
      </trkpt>
      <trkpt lat="47.82215" lon="7.12133">
        <ele>592.59997558594</ele>
        <time>2020-03-08T08:23:29.000Z</time>
      </trkpt>
      <trkpt lat="47.82219" lon="7.12137">
        <ele>592.59997558594</ele>
        <time>2020-03-08T08:24:14.000Z</time>
      </trkpt>
      <trkpt lat="47.82221" lon="7.12137">
        <ele>592.59997558594</ele>
        <time>2020-03-08T08:24:16.000Z</time>
      </trkpt>
      <trkpt lat="47.82222" lon="7.12137">
        <ele>593.20001220703</ele>
        <time>2020-03-08T08:24:18.000Z</time>
      </trkpt>
      <trkpt lat="47.82222" lon="7.12139">
        <ele>593.59997558594</ele>
        <time>2020-03-08T08:24:19.000Z</time>
      </trkpt>
      <trkpt lat="47.82222" lon="7.12141">
        <ele>594</ele>
        <time>2020-03-08T08:24:20.000Z</time>
      </trkpt>
      <trkpt lat="47.82222" lon="7.12144">
        <ele>594.40002441406</ele>
        <time>2020-03-08T08:24:21.000Z</time>
      </trkpt>
      <trkpt lat="47.82222" lon="7.12147">
        <ele>595</ele>
        <time>2020-03-08T08:24:22.000Z</time>
      </trkpt>
      <trkpt lat="47.82224" lon="7.12156">
        <ele>595</ele>
        <time>2020-03-08T08:24:25.000Z</time>
      </trkpt>
      <trkpt lat="47.82224" lon="7.12157">
        <ele>595</ele>
        <time>2020-03-08T08:24:26.000Z</time>
      </trkpt>
      <trkpt lat="47.8223" lon="7.12169">
        <ele>595.40002441406</ele>
        <time>2020-03-08T08:24:31.000Z</time>
      </trkpt>
      <trkpt lat="47.82231" lon="7.12171">
        <ele>595.79998779297</ele>
        <time>2020-03-08T08:24:32.000Z</time>
      </trkpt>
      <trkpt lat="47.82231" lon="7.12173">
        <ele>596.20001220703</ele>
        <time>2020-03-08T08:24:33.000Z</time>
      </trkpt>
      <trkpt lat="47.82232" lon="7.12176">
        <ele>596.79998779297</ele>
        <time>2020-03-08T08:24:34.000Z</time>
      </trkpt>
      <trkpt lat="47.82233" lon="7.12179">
        <ele>597.20001220703</ele>
        <time>2020-03-08T08:24:35.000Z</time>
      </trkpt>
      <trkpt lat="47.82236" lon="7.12188">
        <ele>597.20001220703</ele>
        <time>2020-03-08T08:24:39.000Z</time>
      </trkpt>
      <trkpt lat="47.82238" lon="7.12196">
        <ele>597.59997558594</ele>
        <time>2020-03-08T08:24:42.000Z</time>
      </trkpt>
      <trkpt lat="47.82239" lon="7.12198">
        <ele>598</ele>
        <time>2020-03-08T08:24:43.000Z</time>
      </trkpt>
      <trkpt lat="47.82241" lon="7.12201">
        <ele>598.59997558594</ele>
        <time>2020-03-08T08:24:44.000Z</time>
      </trkpt>
      <trkpt lat="47.82242" lon="7.12204">
        <ele>599</ele>
        <time>2020-03-08T08:24:45.000Z</time>
      </trkpt>
      <trkpt lat="47.82242" lon="7.12207">
        <ele>599.40002441406</ele>
        <time>2020-03-08T08:24:46.000Z</time>
      </trkpt>
      <trkpt lat="47.82246" lon="7.12218">
        <ele>599.79998779297</ele>
        <time>2020-03-08T08:24:50.000Z</time>
      </trkpt>
      <trkpt lat="47.82248" lon="7.12221">
        <ele>600.20001220703</ele>
        <time>2020-03-08T08:24:51.000Z</time>
      </trkpt>
      <trkpt lat="47.82249" lon="7.12223">
        <ele>600.59997558594</ele>
        <time>2020-03-08T08:24:52.000Z</time>
      </trkpt>
      <trkpt lat="47.8225" lon="7.12225">
        <ele>601.20001220703</ele>
        <time>2020-03-08T08:24:53.000Z</time>
      </trkpt>
      <trkpt lat="47.8225" lon="7.12228">
        <ele>601.59997558594</ele>
        <time>2020-03-08T08:24:54.000Z</time>
      </trkpt>
      <trkpt lat="47.82254" lon="7.12238">
        <ele>602</ele>
        <time>2020-03-08T08:24:58.000Z</time>
      </trkpt>
      <trkpt lat="47.82255" lon="7.12242">
        <ele>602.40002441406</ele>
        <time>2020-03-08T08:24:59.000Z</time>
      </trkpt>
      <trkpt lat="47.82256" lon="7.12246">
        <ele>602.79998779297</ele>
        <time>2020-03-08T08:25:00.000Z</time>
      </trkpt>
      <trkpt lat="47.82257" lon="7.12249">
        <ele>603.20001220703</ele>
        <time>2020-03-08T08:25:01.000Z</time>
      </trkpt>
      <trkpt lat="47.82257" lon="7.12253">
        <ele>603.59997558594</ele>
        <time>2020-03-08T08:25:02.000Z</time>
      </trkpt>
      <trkpt lat="47.82259" lon="7.12259">
        <ele>603.59997558594</ele>
        <time>2020-03-08T08:25:04.000Z</time>
      </trkpt>
      <trkpt lat="47.82263" lon="7.12274">
        <ele>604</ele>
        <time>2020-03-08T08:25:08.000Z</time>
      </trkpt>
      <trkpt lat="47.82265" lon="7.12277">
        <ele>604.40002441406</ele>
        <time>2020-03-08T08:25:09.000Z</time>
      </trkpt>
      <trkpt lat="47.82266" lon="7.12281">
        <ele>605</ele>
        <time>2020-03-08T08:25:10.000Z</time>
      </trkpt>
      <trkpt lat="47.82268" lon="7.12284">
        <ele>605.40002441406</ele>
        <time>2020-03-08T08:25:11.000Z</time>
      </trkpt>
      <trkpt lat="47.82269" lon="7.12287">
        <ele>605.79998779297</ele>
        <time>2020-03-08T08:25:12.000Z</time>
      </trkpt>
      <trkpt lat="47.82277" lon="7.12297">
        <ele>605.79998779297</ele>
        <time>2020-03-08T08:25:16.000Z</time>
      </trkpt>
      <trkpt lat="47.82282" lon="7.12301">
        <ele>606.20001220703</ele>
        <time>2020-03-08T08:25:18.000Z</time>
      </trkpt>
      <trkpt lat="47.82285" lon="7.12303">
        <ele>606.59997558594</ele>
        <time>2020-03-08T08:25:19.000Z</time>
      </trkpt>
      <trkpt lat="47.82287" lon="7.12304">
        <ele>607</ele>
        <time>2020-03-08T08:25:20.000Z</time>
      </trkpt>
      <trkpt lat="47.82289" lon="7.12306">
        <ele>607.40002441406</ele>
        <time>2020-03-08T08:25:21.000Z</time>
      </trkpt>
      <trkpt lat="47.82291" lon="7.12307">
        <ele>607.79998779297</ele>
        <time>2020-03-08T08:25:22.000Z</time>
      </trkpt>
      <trkpt lat="47.823" lon="7.12311">
        <ele>608.40002441406</ele>
        <time>2020-03-08T08:25:26.000Z</time>
      </trkpt>
      <trkpt lat="47.82302" lon="7.12312">
        <ele>608.79998779297</ele>
        <time>2020-03-08T08:25:27.000Z</time>
      </trkpt>
      <trkpt lat="47.82304" lon="7.12313">
        <ele>609.40002441406</ele>
        <time>2020-03-08T08:25:28.000Z</time>
      </trkpt>
      <trkpt lat="47.82306" lon="7.12314">
        <ele>609.79998779297</ele>
        <time>2020-03-08T08:25:29.000Z</time>
      </trkpt>
      <trkpt lat="47.82309" lon="7.12316">
        <ele>610.20001220703</ele>
        <time>2020-03-08T08:25:30.000Z</time>
      </trkpt>
      <trkpt lat="47.82314" lon="7.1232">
        <ele>610.59997558594</ele>
        <time>2020-03-08T08:25:32.000Z</time>
      </trkpt>
      <trkpt lat="47.82316" lon="7.12323">
        <ele>611</ele>
        <time>2020-03-08T08:25:33.000Z</time>
      </trkpt>
      <trkpt lat="47.82318" lon="7.12326">
        <ele>611.40002441406</ele>
        <time>2020-03-08T08:25:34.000Z</time>
      </trkpt>
      <trkpt lat="47.8232" lon="7.12329">
        <ele>611.79998779297</ele>
        <time>2020-03-08T08:25:35.000Z</time>
      </trkpt>
      <trkpt lat="47.82322" lon="7.12332">
        <ele>612.20001220703</ele>
        <time>2020-03-08T08:25:36.000Z</time>
      </trkpt>
      <trkpt lat="47.82326" lon="7.12339">
        <ele>612.20001220703</ele>
        <time>2020-03-08T08:25:38.000Z</time>
      </trkpt>
      <trkpt lat="47.8233" lon="7.12346">
        <ele>612.20001220703</ele>
        <time>2020-03-08T08:25:40.000Z</time>
      </trkpt>
      <trkpt lat="47.82331" lon="7.12348">
        <ele>612.59997558594</ele>
        <time>2020-03-08T08:25:41.000Z</time>
      </trkpt>
      <trkpt lat="47.82332" lon="7.1235">
        <ele>613.20001220703</ele>
        <time>2020-03-08T08:25:42.000Z</time>
      </trkpt>
      <trkpt lat="47.82334" lon="7.12352">
        <ele>613.59997558594</ele>
        <time>2020-03-08T08:25:43.000Z</time>
      </trkpt>
      <trkpt lat="47.82336" lon="7.12355">
        <ele>614</ele>
        <time>2020-03-08T08:25:44.000Z</time>
      </trkpt>
      <trkpt lat="47.82338" lon="7.12358">
        <ele>614.40002441406</ele>
        <time>2020-03-08T08:25:45.000Z</time>
      </trkpt>
      <trkpt lat="47.82345" lon="7.12371">
        <ele>614.79998779297</ele>
        <time>2020-03-08T08:25:49.000Z</time>
      </trkpt>
      <trkpt lat="47.82345" lon="7.12373">
        <ele>615.20001220703</ele>
        <time>2020-03-08T08:25:50.000Z</time>
      </trkpt>
      <trkpt lat="47.82346" lon="7.12376">
        <ele>615.59997558594</ele>
        <time>2020-03-08T08:25:51.000Z</time>
      </trkpt>
      <trkpt lat="47.82347" lon="7.12379">
        <ele>616</ele>
        <time>2020-03-08T08:25:52.000Z</time>
      </trkpt>
      <trkpt lat="47.82348" lon="7.12381">
        <ele>616.40002441406</ele>
        <time>2020-03-08T08:25:53.000Z</time>
      </trkpt>
      <trkpt lat="47.82349" lon="7.12382">
        <ele>616.40002441406</ele>
        <time>2020-03-08T08:25:54.000Z</time>
      </trkpt>
      <trkpt lat="47.8235" lon="7.12383">
        <ele>616.40002441406</ele>
        <time>2020-03-08T08:25:55.000Z</time>
      </trkpt>
      <trkpt lat="47.82355" lon="7.12394">
        <ele>618.40002441406</ele>
        <time>2020-03-08T08:26:08.000Z</time>
      </trkpt>
      <trkpt lat="47.82357" lon="7.12398">
        <ele>618.40002441406</ele>
        <time>2020-03-08T08:26:10.000Z</time>
      </trkpt>
      <trkpt lat="47.8236" lon="7.1241">
        <ele>618.40002441406</ele>
        <time>2020-03-08T08:26:15.000Z</time>
      </trkpt>
      <trkpt lat="47.8236" lon="7.12412">
        <ele>618.79998779297</ele>
        <time>2020-03-08T08:26:16.000Z</time>
      </trkpt>
      <trkpt lat="47.82369" lon="7.12423">
        <ele>620.59997558594</ele>
        <time>2020-03-08T08:26:21.000Z</time>
      </trkpt>
      <trkpt lat="47.82375" lon="7.1243">
        <ele>620.59997558594</ele>
        <time>2020-03-08T08:26:23.000Z</time>
      </trkpt>
      <trkpt lat="47.82377" lon="7.12433">
        <ele>621</ele>
        <time>2020-03-08T08:26:24.000Z</time>
      </trkpt>
      <trkpt lat="47.82379" lon="7.12436">
        <ele>621.40002441406</ele>
        <time>2020-03-08T08:26:25.000Z</time>
      </trkpt>
      <trkpt lat="47.82381" lon="7.12439">
        <ele>621.79998779297</ele>
        <time>2020-03-08T08:26:26.000Z</time>
      </trkpt>
      <trkpt lat="47.82383" lon="7.1244">
        <ele>622.20001220703</ele>
        <time>2020-03-08T08:26:27.000Z</time>
      </trkpt>
      <trkpt lat="47.82384" lon="7.12442">
        <ele>622.59997558594</ele>
        <time>2020-03-08T08:26:28.000Z</time>
      </trkpt>
      <trkpt lat="47.82389" lon="7.12444">
        <ele>622.59997558594</ele>
        <time>2020-03-08T08:26:30.000Z</time>
      </trkpt>
      <trkpt lat="47.82395" lon="7.12448">
        <ele>623.20001220703</ele>
        <time>2020-03-08T08:26:33.000Z</time>
      </trkpt>
      <trkpt lat="47.82396" lon="7.12449">
        <ele>623.59997558594</ele>
        <time>2020-03-08T08:26:34.000Z</time>
      </trkpt>
      <trkpt lat="47.82398" lon="7.12449">
        <ele>624</ele>
        <time>2020-03-08T08:26:35.000Z</time>
      </trkpt>
      <trkpt lat="47.824" lon="7.1245">
        <ele>624.40002441406</ele>
        <time>2020-03-08T08:26:36.000Z</time>
      </trkpt>
      <trkpt lat="47.82401" lon="7.1245">
        <ele>624.79998779297</ele>
        <time>2020-03-08T08:26:37.000Z</time>
      </trkpt>
      <trkpt lat="47.82415" lon="7.12455">
        <ele>624.79998779297</ele>
        <time>2020-03-08T08:26:44.000Z</time>
      </trkpt>
      <trkpt lat="47.82417" lon="7.12456">
        <ele>624.79998779297</ele>
        <time>2020-03-08T08:26:45.000Z</time>
      </trkpt>
      <trkpt lat="47.82439" lon="7.12455">
        <ele>629</ele>
        <time>2020-03-08T08:27:41.000Z</time>
      </trkpt>
      <trkpt lat="47.82443" lon="7.12453">
        <ele>629</ele>
        <time>2020-03-08T08:27:43.000Z</time>
      </trkpt>
      <trkpt lat="47.82449" lon="7.1245">
        <ele>629</ele>
        <time>2020-03-08T08:27:46.000Z</time>
      </trkpt>
      <trkpt lat="47.82452" lon="7.12447">
        <ele>629.40002441406</ele>
        <time>2020-03-08T08:27:48.000Z</time>
      </trkpt>
      <trkpt lat="47.82453" lon="7.12445">
        <ele>629.79998779297</ele>
        <time>2020-03-08T08:27:49.000Z</time>
      </trkpt>
      <trkpt lat="47.82455" lon="7.12443">
        <ele>630.20001220703</ele>
        <time>2020-03-08T08:27:50.000Z</time>
      </trkpt>
      <trkpt lat="47.82457" lon="7.12441">
        <ele>630.79998779297</ele>
        <time>2020-03-08T08:27:51.000Z</time>
      </trkpt>
      <trkpt lat="47.82458" lon="7.12438">
        <ele>631.20001220703</ele>
        <time>2020-03-08T08:27:52.000Z</time>
      </trkpt>
      <trkpt lat="47.82465" lon="7.1243">
        <ele>631.20001220703</ele>
        <time>2020-03-08T08:27:56.000Z</time>
      </trkpt>
      <trkpt lat="47.82466" lon="7.12428">
        <ele>631.59997558594</ele>
        <time>2020-03-08T08:27:57.000Z</time>
      </trkpt>
      <trkpt lat="47.82467" lon="7.12425">
        <ele>632</ele>
        <time>2020-03-08T08:27:58.000Z</time>
      </trkpt>
      <trkpt lat="47.82467" lon="7.12423">
        <ele>632.40002441406</ele>
        <time>2020-03-08T08:27:59.000Z</time>
      </trkpt>
      <trkpt lat="47.82469" lon="7.12419">
        <ele>632.79998779297</ele>
        <time>2020-03-08T08:28:00.000Z</time>
      </trkpt>
      <trkpt lat="47.8247" lon="7.12415">
        <ele>633.20001220703</ele>
        <time>2020-03-08T08:28:01.000Z</time>
      </trkpt>
      <trkpt lat="47.82477" lon="7.124">
        <ele>633.59997558594</ele>
        <time>2020-03-08T08:28:06.000Z</time>
      </trkpt>
      <trkpt lat="47.82478" lon="7.12398">
        <ele>634</ele>
        <time>2020-03-08T08:28:07.000Z</time>
      </trkpt>
      <trkpt lat="47.82479" lon="7.12395">
        <ele>634.40002441406</ele>
        <time>2020-03-08T08:28:08.000Z</time>
      </trkpt>
      <trkpt lat="47.8248" lon="7.12392">
        <ele>634.79998779297</ele>
        <time>2020-03-08T08:28:09.000Z</time>
      </trkpt>
      <trkpt lat="47.82481" lon="7.1239">
        <ele>635.20001220703</ele>
        <time>2020-03-08T08:28:10.000Z</time>
      </trkpt>
      <trkpt lat="47.82487" lon="7.12384">
        <ele>635.20001220703</ele>
        <time>2020-03-08T08:28:14.000Z</time>
      </trkpt>
      <trkpt lat="47.82489" lon="7.12383">
        <ele>635.20001220703</ele>
        <time>2020-03-08T08:28:15.000Z</time>
      </trkpt>
      <trkpt lat="47.82505" lon="7.12368">
        <ele>638.59997558594</ele>
        <time>2020-03-08T08:28:39.000Z</time>
      </trkpt>
      <trkpt lat="47.82506" lon="7.12369">
        <ele>639</ele>
        <time>2020-03-08T08:28:40.000Z</time>
      </trkpt>
      <trkpt lat="47.82508" lon="7.12369">
        <ele>639.40002441406</ele>
        <time>2020-03-08T08:28:41.000Z</time>
      </trkpt>
      <trkpt lat="47.82513" lon="7.12368">
        <ele>639.40002441406</ele>
        <time>2020-03-08T08:28:44.000Z</time>
      </trkpt>
      <trkpt lat="47.82519" lon="7.12365">
        <ele>639.79998779297</ele>
        <time>2020-03-08T08:28:47.000Z</time>
      </trkpt>
      <trkpt lat="47.82521" lon="7.12365">
        <ele>640.20001220703</ele>
        <time>2020-03-08T08:28:48.000Z</time>
      </trkpt>
      <trkpt lat="47.82522" lon="7.12366">
        <ele>640.59997558594</ele>
        <time>2020-03-08T08:28:49.000Z</time>
      </trkpt>
      <trkpt lat="47.82524" lon="7.12365">
        <ele>641</ele>
        <time>2020-03-08T08:28:50.000Z</time>
      </trkpt>
      <trkpt lat="47.82525" lon="7.12365">
        <ele>641.40002441406</ele>
        <time>2020-03-08T08:28:51.000Z</time>
      </trkpt>
      <trkpt lat="47.82526" lon="7.12365">
        <ele>641.40002441406</ele>
        <time>2020-03-08T08:28:52.000Z</time>
      </trkpt>
      <trkpt lat="47.82543" lon="7.1237">
        <ele>643.40002441406</ele>
        <time>2020-03-08T08:31:07.000Z</time>
      </trkpt>
      <trkpt lat="47.82547" lon="7.12371">
        <ele>643.40002441406</ele>
        <time>2020-03-08T08:31:09.000Z</time>
      </trkpt>
      <trkpt lat="47.82562" lon="7.12378">
        <ele>643.40002441406</ele>
        <time>2020-03-08T08:31:17.000Z</time>
      </trkpt>
      <trkpt lat="47.82565" lon="7.12378">
        <ele>643.79998779297</ele>
        <time>2020-03-08T08:31:19.000Z</time>
      </trkpt>
      <trkpt lat="47.82567" lon="7.12378">
        <ele>644.40002441406</ele>
        <time>2020-03-08T08:31:20.000Z</time>
      </trkpt>
      <trkpt lat="47.8257" lon="7.12378">
        <ele>644.79998779297</ele>
        <time>2020-03-08T08:31:21.000Z</time>
      </trkpt>
      <trkpt lat="47.82571" lon="7.12378">
        <ele>645.20001220703</ele>
        <time>2020-03-08T08:31:22.000Z</time>
      </trkpt>
      <trkpt lat="47.82574" lon="7.12379">
        <ele>645.59997558594</ele>
        <time>2020-03-08T08:31:23.000Z</time>
      </trkpt>
      <trkpt lat="47.82583" lon="7.12378">
        <ele>646</ele>
        <time>2020-03-08T08:31:27.000Z</time>
      </trkpt>
      <trkpt lat="47.82585" lon="7.12378">
        <ele>646.40002441406</ele>
        <time>2020-03-08T08:31:28.000Z</time>
      </trkpt>
      <trkpt lat="47.82587" lon="7.12379">
        <ele>647</ele>
        <time>2020-03-08T08:31:29.000Z</time>
      </trkpt>
      <trkpt lat="47.82589" lon="7.1238">
        <ele>647.40002441406</ele>
        <time>2020-03-08T08:31:30.000Z</time>
      </trkpt>
      <trkpt lat="47.82591" lon="7.12381">
        <ele>647.79998779297</ele>
        <time>2020-03-08T08:31:31.000Z</time>
      </trkpt>
      <trkpt lat="47.82595" lon="7.12384">
        <ele>648.20001220703</ele>
        <time>2020-03-08T08:31:34.000Z</time>
      </trkpt>
      <trkpt lat="47.82598" lon="7.12385">
        <ele>648.59997558594</ele>
        <time>2020-03-08T08:31:35.000Z</time>
      </trkpt>
      <trkpt lat="47.82601" lon="7.12387">
        <ele>649.20001220703</ele>
        <time>2020-03-08T08:31:36.000Z</time>
      </trkpt>
      <trkpt lat="47.82603" lon="7.12387">
        <ele>649.59997558594</ele>
        <time>2020-03-08T08:31:37.000Z</time>
      </trkpt>
      <trkpt lat="47.82606" lon="7.12388">
        <ele>650</ele>
        <time>2020-03-08T08:31:38.000Z</time>
      </trkpt>
      <trkpt lat="47.82614" lon="7.12391">
        <ele>650</ele>
        <time>2020-03-08T08:31:42.000Z</time>
      </trkpt>
      <trkpt lat="47.82623" lon="7.12396">
        <ele>650.40002441406</ele>
        <time>2020-03-08T08:31:46.000Z</time>
      </trkpt>
      <trkpt lat="47.82624" lon="7.12398">
        <ele>650.79998779297</ele>
        <time>2020-03-08T08:31:47.000Z</time>
      </trkpt>
      <trkpt lat="47.82626" lon="7.12399">
        <ele>651.20001220703</ele>
        <time>2020-03-08T08:31:48.000Z</time>
      </trkpt>
      <trkpt lat="47.82628" lon="7.124">
        <ele>651.79998779297</ele>
        <time>2020-03-08T08:31:49.000Z</time>
      </trkpt>
      <trkpt lat="47.8263" lon="7.12402">
        <ele>652.20001220703</ele>
        <time>2020-03-08T08:31:50.000Z</time>
      </trkpt>
      <trkpt lat="47.82637" lon="7.12411">
        <ele>652.20001220703</ele>
        <time>2020-03-08T08:31:54.000Z</time>
      </trkpt>
      <trkpt lat="47.82644" lon="7.12421">
        <ele>652.59997558594</ele>
        <time>2020-03-08T08:31:58.000Z</time>
      </trkpt>
      <trkpt lat="47.82647" lon="7.12424">
        <ele>653</ele>
        <time>2020-03-08T08:31:59.000Z</time>
      </trkpt>
      <trkpt lat="47.82648" lon="7.12427">
        <ele>653.40002441406</ele>
        <time>2020-03-08T08:32:00.000Z</time>
      </trkpt>
      <trkpt lat="47.8265" lon="7.1243">
        <ele>653.79998779297</ele>
        <time>2020-03-08T08:32:01.000Z</time>
      </trkpt>
      <trkpt lat="47.82651" lon="7.12433">
        <ele>654.20001220703</ele>
        <time>2020-03-08T08:32:02.000Z</time>
      </trkpt>
      <trkpt lat="47.82655" lon="7.12441">
        <ele>654.20001220703</ele>
        <time>2020-03-08T08:32:06.000Z</time>
      </trkpt>
      <trkpt lat="47.82658" lon="7.12448">
        <ele>654.59997558594</ele>
        <time>2020-03-08T08:32:09.000Z</time>
      </trkpt>
      <trkpt lat="47.82658" lon="7.12451">
        <ele>655.20001220703</ele>
        <time>2020-03-08T08:32:10.000Z</time>
      </trkpt>
      <trkpt lat="47.82659" lon="7.12453">
        <ele>655.59997558594</ele>
        <time>2020-03-08T08:32:11.000Z</time>
      </trkpt>
      <trkpt lat="47.8266" lon="7.12456">
        <ele>656</ele>
        <time>2020-03-08T08:32:12.000Z</time>
      </trkpt>
      <trkpt lat="47.8266" lon="7.12458">
        <ele>656.40002441406</ele>
        <time>2020-03-08T08:32:13.000Z</time>
      </trkpt>
      <trkpt lat="47.82662" lon="7.12467">
        <ele>656.40002441406</ele>
        <time>2020-03-08T08:32:18.000Z</time>
      </trkpt>
      <trkpt lat="47.82663" lon="7.12481">
        <ele>658</ele>
        <time>2020-03-08T08:32:28.000Z</time>
      </trkpt>
      <trkpt lat="47.82664" lon="7.12483">
        <ele>658.40002441406</ele>
        <time>2020-03-08T08:32:29.000Z</time>
      </trkpt>
      <trkpt lat="47.82667" lon="7.12495">
        <ele>658.40002441406</ele>
        <time>2020-03-08T08:32:34.000Z</time>
      </trkpt>
      <trkpt lat="47.82669" lon="7.12504">
        <ele>659</ele>
        <time>2020-03-08T08:32:37.000Z</time>
      </trkpt>
      <trkpt lat="47.8267" lon="7.12507">
        <ele>659.40002441406</ele>
        <time>2020-03-08T08:32:38.000Z</time>
      </trkpt>
      <trkpt lat="47.82671" lon="7.12511">
        <ele>659.79998779297</ele>
        <time>2020-03-08T08:32:39.000Z</time>
      </trkpt>
      <trkpt lat="47.82672" lon="7.12513">
        <ele>660.20001220703</ele>
        <time>2020-03-08T08:32:40.000Z</time>
      </trkpt>
      <trkpt lat="47.82673" lon="7.12516">
        <ele>660.59997558594</ele>
        <time>2020-03-08T08:32:41.000Z</time>
      </trkpt>
      <trkpt lat="47.82675" lon="7.12526">
        <ele>661</ele>
        <time>2020-03-08T08:32:45.000Z</time>
      </trkpt>
      <trkpt lat="47.82677" lon="7.12528">
        <ele>661.40002441406</ele>
        <time>2020-03-08T08:32:46.000Z</time>
      </trkpt>
      <trkpt lat="47.82678" lon="7.12531">
        <ele>662</ele>
        <time>2020-03-08T08:32:47.000Z</time>
      </trkpt>
      <trkpt lat="47.82679" lon="7.12534">
        <ele>662.40002441406</ele>
        <time>2020-03-08T08:32:48.000Z</time>
      </trkpt>
      <trkpt lat="47.8268" lon="7.12538">
        <ele>662.79998779297</ele>
        <time>2020-03-08T08:32:49.000Z</time>
      </trkpt>
      <trkpt lat="47.82684" lon="7.12547">
        <ele>662.79998779297</ele>
        <time>2020-03-08T08:32:52.000Z</time>
      </trkpt>
      <trkpt lat="47.82685" lon="7.12549">
        <ele>663.20001220703</ele>
        <time>2020-03-08T08:32:53.000Z</time>
      </trkpt>
      <trkpt lat="47.82686" lon="7.12552">
        <ele>663.59997558594</ele>
        <time>2020-03-08T08:32:54.000Z</time>
      </trkpt>
      <trkpt lat="47.82687" lon="7.12556">
        <ele>664</ele>
        <time>2020-03-08T08:32:55.000Z</time>
      </trkpt>
      <trkpt lat="47.82688" lon="7.12558">
        <ele>664.40002441406</ele>
        <time>2020-03-08T08:32:56.000Z</time>
      </trkpt>
      <trkpt lat="47.8269" lon="7.12562">
        <ele>665</ele>
        <time>2020-03-08T08:32:57.000Z</time>
      </trkpt>
      <trkpt lat="47.82692" lon="7.12566">
        <ele>665</ele>
        <time>2020-03-08T08:32:58.000Z</time>
      </trkpt>
      <trkpt lat="47.82694" lon="7.12575">
        <ele>665.40002441406</ele>
        <time>2020-03-08T08:33:01.000Z</time>
      </trkpt>
      <trkpt lat="47.82695" lon="7.12576">
        <ele>665.79998779297</ele>
        <time>2020-03-08T08:33:02.000Z</time>
      </trkpt>
      <trkpt lat="47.82696" lon="7.12579">
        <ele>666.20001220703</ele>
        <time>2020-03-08T08:33:03.000Z</time>
      </trkpt>
      <trkpt lat="47.82698" lon="7.12582">
        <ele>666.79998779297</ele>
        <time>2020-03-08T08:33:04.000Z</time>
      </trkpt>
      <trkpt lat="47.827" lon="7.12585">
        <ele>667.20001220703</ele>
        <time>2020-03-08T08:33:05.000Z</time>
      </trkpt>
      <trkpt lat="47.82706" lon="7.12594">
        <ele>667.59997558594</ele>
        <time>2020-03-08T08:33:08.000Z</time>
      </trkpt>
      <trkpt lat="47.82708" lon="7.12597">
        <ele>668</ele>
        <time>2020-03-08T08:33:09.000Z</time>
      </trkpt>
      <trkpt lat="47.82709" lon="7.126">
        <ele>668.40002441406</ele>
        <time>2020-03-08T08:33:10.000Z</time>
      </trkpt>
      <trkpt lat="47.82711" lon="7.12603">
        <ele>669</ele>
        <time>2020-03-08T08:33:11.000Z</time>
      </trkpt>
      <trkpt lat="47.82713" lon="7.12605">
        <ele>669.40002441406</ele>
        <time>2020-03-08T08:33:12.000Z</time>
      </trkpt>
      <trkpt lat="47.82721" lon="7.12613">
        <ele>669.40002441406</ele>
        <time>2020-03-08T08:33:16.000Z</time>
      </trkpt>
      <trkpt lat="47.82725" lon="7.12616">
        <ele>669.79998779297</ele>
        <time>2020-03-08T08:33:19.000Z</time>
      </trkpt>
      <trkpt lat="47.82727" lon="7.12618">
        <ele>670.20001220703</ele>
        <time>2020-03-08T08:33:20.000Z</time>
      </trkpt>
      <trkpt lat="47.82729" lon="7.12619">
        <ele>670.59997558594</ele>
        <time>2020-03-08T08:33:21.000Z</time>
      </trkpt>
      <trkpt lat="47.82731" lon="7.12621">
        <ele>671</ele>
        <time>2020-03-08T08:33:22.000Z</time>
      </trkpt>
      <trkpt lat="47.82734" lon="7.12623">
        <ele>671.40002441406</ele>
        <time>2020-03-08T08:33:23.000Z</time>
      </trkpt>
      <trkpt lat="47.8274" lon="7.12628">
        <ele>671.40002441406</ele>
        <time>2020-03-08T08:33:27.000Z</time>
      </trkpt>
      <trkpt lat="47.82741" lon="7.12632">
        <ele>671.40002441406</ele>
        <time>2020-03-08T08:33:29.000Z</time>
      </trkpt>
      <trkpt lat="47.82747" lon="7.12637">
        <ele>671.40002441406</ele>
        <time>2020-03-08T08:33:34.000Z</time>
      </trkpt>
      <trkpt lat="47.8275" lon="7.12637">
        <ele>671.40002441406</ele>
        <time>2020-03-08T08:33:35.000Z</time>
      </trkpt>
      <trkpt lat="47.82753" lon="7.12636">
        <ele>671.79998779297</ele>
        <time>2020-03-08T08:33:36.000Z</time>
      </trkpt>
      <trkpt lat="47.82755" lon="7.12636">
        <ele>672.20001220703</ele>
        <time>2020-03-08T08:33:37.000Z</time>
      </trkpt>
      <trkpt lat="47.82757" lon="7.12636">
        <ele>672.59997558594</ele>
        <time>2020-03-08T08:33:38.000Z</time>
      </trkpt>
      <trkpt lat="47.82759" lon="7.12636">
        <ele>673</ele>
        <time>2020-03-08T08:33:39.000Z</time>
      </trkpt>
      <trkpt lat="47.8276" lon="7.12635">
        <ele>673.59997558594</ele>
        <time>2020-03-08T08:33:40.000Z</time>
      </trkpt>
      <trkpt lat="47.82762" lon="7.12634">
        <ele>673.59997558594</ele>
        <time>2020-03-08T08:33:41.000Z</time>
      </trkpt>
      <trkpt lat="47.82764" lon="7.12633">
        <ele>674</ele>
        <time>2020-03-08T08:33:42.000Z</time>
      </trkpt>
      <trkpt lat="47.82765" lon="7.12632">
        <ele>674.40002441406</ele>
        <time>2020-03-08T08:33:43.000Z</time>
      </trkpt>
      <trkpt lat="47.82767" lon="7.12631">
        <ele>674.79998779297</ele>
        <time>2020-03-08T08:33:44.000Z</time>
      </trkpt>
      <trkpt lat="47.82769" lon="7.1263">
        <ele>675.20001220703</ele>
        <time>2020-03-08T08:33:45.000Z</time>
      </trkpt>
      <trkpt lat="47.8277" lon="7.12628">
        <ele>675.59997558594</ele>
        <time>2020-03-08T08:33:46.000Z</time>
      </trkpt>
      <trkpt lat="47.82777" lon="7.12618">
        <ele>675.59997558594</ele>
        <time>2020-03-08T08:33:51.000Z</time>
      </trkpt>
      <trkpt lat="47.82778" lon="7.12615">
        <ele>676</ele>
        <time>2020-03-08T08:33:52.000Z</time>
      </trkpt>
      <trkpt lat="47.8278" lon="7.12613">
        <ele>676.40002441406</ele>
        <time>2020-03-08T08:33:53.000Z</time>
      </trkpt>
      <trkpt lat="47.82781" lon="7.1261">
        <ele>676.79998779297</ele>
        <time>2020-03-08T08:33:54.000Z</time>
      </trkpt>
      <trkpt lat="47.82782" lon="7.12607">
        <ele>677.59997558594</ele>
        <time>2020-03-08T08:33:55.000Z</time>
      </trkpt>
      <trkpt lat="47.82783" lon="7.12601">
        <ele>677.59997558594</ele>
        <time>2020-03-08T08:33:57.000Z</time>
      </trkpt>
      <trkpt lat="47.82786" lon="7.12582">
        <ele>677.59997558594</ele>
        <time>2020-03-08T08:34:02.000Z</time>
      </trkpt>
      <trkpt lat="47.8279" lon="7.12557">
        <ele>677.59997558594</ele>
        <time>2020-03-08T08:34:08.000Z</time>
      </trkpt>
      <trkpt lat="47.82793" lon="7.12523">
        <ele>677.59997558594</ele>
        <time>2020-03-08T08:34:16.000Z</time>
      </trkpt>
      <trkpt lat="47.82793" lon="7.12494">
        <ele>677.59997558594</ele>
        <time>2020-03-08T08:34:23.000Z</time>
      </trkpt>
      <trkpt lat="47.82795" lon="7.12476">
        <ele>678</ele>
        <time>2020-03-08T08:34:28.000Z</time>
      </trkpt>
      <trkpt lat="47.82796" lon="7.12472">
        <ele>678.40002441406</ele>
        <time>2020-03-08T08:34:29.000Z</time>
      </trkpt>
      <trkpt lat="47.82797" lon="7.12468">
        <ele>678.79998779297</ele>
        <time>2020-03-08T08:34:30.000Z</time>
      </trkpt>
      <trkpt lat="47.82798" lon="7.12464">
        <ele>679.20001220703</ele>
        <time>2020-03-08T08:34:31.000Z</time>
      </trkpt>
      <trkpt lat="47.82799" lon="7.12461">
        <ele>679.59997558594</ele>
        <time>2020-03-08T08:34:32.000Z</time>
      </trkpt>
      <trkpt lat="47.82802" lon="7.12441">
        <ele>679.59997558594</ele>
        <time>2020-03-08T08:34:37.000Z</time>
      </trkpt>
      <trkpt lat="47.82803" lon="7.12427">
        <ele>680</ele>
        <time>2020-03-08T08:34:41.000Z</time>
      </trkpt>
      <trkpt lat="47.82803" lon="7.12423">
        <ele>680.59997558594</ele>
        <time>2020-03-08T08:34:42.000Z</time>
      </trkpt>
      <trkpt lat="47.82804" lon="7.12419">
        <ele>681</ele>
        <time>2020-03-08T08:34:43.000Z</time>
      </trkpt>
      <trkpt lat="47.82805" lon="7.12416">
        <ele>682</ele>
        <time>2020-03-08T08:34:44.000Z</time>
      </trkpt>
      <trkpt lat="47.82806" lon="7.12401">
        <ele>682.40002441406</ele>
        <time>2020-03-08T08:34:48.000Z</time>
      </trkpt>
      <trkpt lat="47.82806" lon="7.12397">
        <ele>682.79998779297</ele>
        <time>2020-03-08T08:34:49.000Z</time>
      </trkpt>
      <trkpt lat="47.82807" lon="7.12394">
        <ele>683.40002441406</ele>
        <time>2020-03-08T08:34:50.000Z</time>
      </trkpt>
      <trkpt lat="47.82807" lon="7.12391">
        <ele>683.79998779297</ele>
        <time>2020-03-08T08:34:51.000Z</time>
      </trkpt>
      <trkpt lat="47.82807" lon="7.12387">
        <ele>684.20001220703</ele>
        <time>2020-03-08T08:34:52.000Z</time>
      </trkpt>
      <trkpt lat="47.82811" lon="7.12373">
        <ele>684.59997558594</ele>
        <time>2020-03-08T08:34:56.000Z</time>
      </trkpt>
      <trkpt lat="47.82813" lon="7.1237">
        <ele>685</ele>
        <time>2020-03-08T08:34:57.000Z</time>
      </trkpt>
      <trkpt lat="47.82814" lon="7.12367">
        <ele>685.40002441406</ele>
        <time>2020-03-08T08:34:58.000Z</time>
      </trkpt>
      <trkpt lat="47.82815" lon="7.12364">
        <ele>685.79998779297</ele>
        <time>2020-03-08T08:34:59.000Z</time>
      </trkpt>
      <trkpt lat="47.82815" lon="7.12361">
        <ele>686.40002441406</ele>
        <time>2020-03-08T08:35:00.000Z</time>
      </trkpt>
      <trkpt lat="47.82816" lon="7.12358">
        <ele>686.40002441406</ele>
        <time>2020-03-08T08:35:01.000Z</time>
      </trkpt>
      <trkpt lat="47.82818" lon="7.12345">
        <ele>686.79998779297</ele>
        <time>2020-03-08T08:35:05.000Z</time>
      </trkpt>
      <trkpt lat="47.82819" lon="7.12342">
        <ele>687.20001220703</ele>
        <time>2020-03-08T08:35:06.000Z</time>
      </trkpt>
      <trkpt lat="47.8282" lon="7.12338">
        <ele>687.59997558594</ele>
        <time>2020-03-08T08:35:07.000Z</time>
      </trkpt>
      <trkpt lat="47.82821" lon="7.12335">
        <ele>688</ele>
        <time>2020-03-08T08:35:08.000Z</time>
      </trkpt>
      <trkpt lat="47.82822" lon="7.12332">
        <ele>688.40002441406</ele>
        <time>2020-03-08T08:35:09.000Z</time>
      </trkpt>
      <trkpt lat="47.82825" lon="7.12319">
        <ele>688.40002441406</ele>
        <time>2020-03-08T08:35:13.000Z</time>
      </trkpt>
      <trkpt lat="47.82826" lon="7.12316">
        <ele>688.79998779297</ele>
        <time>2020-03-08T08:35:14.000Z</time>
      </trkpt>
      <trkpt lat="47.82828" lon="7.12313">
        <ele>689.40002441406</ele>
        <time>2020-03-08T08:35:15.000Z</time>
      </trkpt>
      <trkpt lat="47.82829" lon="7.1231">
        <ele>689.79998779297</ele>
        <time>2020-03-08T08:35:16.000Z</time>
      </trkpt>
      <trkpt lat="47.8283" lon="7.12307">
        <ele>690.20001220703</ele>
        <time>2020-03-08T08:35:17.000Z</time>
      </trkpt>
      <trkpt lat="47.82832" lon="7.12306">
        <ele>690.59997558594</ele>
        <time>2020-03-08T08:35:18.000Z</time>
      </trkpt>
      <trkpt lat="47.82834" lon="7.12301">
        <ele>691</ele>
        <time>2020-03-08T08:35:20.000Z</time>
      </trkpt>
      <trkpt lat="47.82836" lon="7.12299">
        <ele>691.40002441406</ele>
        <time>2020-03-08T08:35:21.000Z</time>
      </trkpt>
      <trkpt lat="47.82838" lon="7.12296">
        <ele>691.79998779297</ele>
        <time>2020-03-08T08:35:22.000Z</time>
      </trkpt>
      <trkpt lat="47.8284" lon="7.12294">
        <ele>692.20001220703</ele>
        <time>2020-03-08T08:35:23.000Z</time>
      </trkpt>
      <trkpt lat="47.82841" lon="7.12291">
        <ele>692.59997558594</ele>
        <time>2020-03-08T08:35:24.000Z</time>
      </trkpt>
      <trkpt lat="47.82846" lon="7.12285">
        <ele>693</ele>
        <time>2020-03-08T08:35:27.000Z</time>
      </trkpt>
      <trkpt lat="47.82848" lon="7.12283">
        <ele>693.40002441406</ele>
        <time>2020-03-08T08:35:28.000Z</time>
      </trkpt>
      <trkpt lat="47.82849" lon="7.12282">
        <ele>693.79998779297</ele>
        <time>2020-03-08T08:35:29.000Z</time>
      </trkpt>
      <trkpt lat="47.82851" lon="7.1228">
        <ele>694.20001220703</ele>
        <time>2020-03-08T08:35:30.000Z</time>
      </trkpt>
      <trkpt lat="47.82852" lon="7.12279">
        <ele>694.59997558594</ele>
        <time>2020-03-08T08:35:31.000Z</time>
      </trkpt>
      <trkpt lat="47.82858" lon="7.12275">
        <ele>695.20001220703</ele>
        <time>2020-03-08T08:35:34.000Z</time>
      </trkpt>
      <trkpt lat="47.82858" lon="7.12275">
        <ele>695.59997558594</ele>
        <time>2020-03-08T08:35:35.000Z</time>
      </trkpt>
      <trkpt lat="47.8286" lon="7.12274">
        <ele>696</ele>
        <time>2020-03-08T08:35:36.000Z</time>
      </trkpt>
      <trkpt lat="47.82862" lon="7.12274">
        <ele>696.40002441406</ele>
        <time>2020-03-08T08:35:37.000Z</time>
      </trkpt>
      <trkpt lat="47.82863" lon="7.12274">
        <ele>696.79998779297</ele>
        <time>2020-03-08T08:35:38.000Z</time>
      </trkpt>
      <trkpt lat="47.82871" lon="7.12273">
        <ele>697.40002441406</ele>
        <time>2020-03-08T08:35:42.000Z</time>
      </trkpt>
      <trkpt lat="47.82873" lon="7.12272">
        <ele>697.79998779297</ele>
        <time>2020-03-08T08:35:43.000Z</time>
      </trkpt>
      <trkpt lat="47.82875" lon="7.12271">
        <ele>698.20001220703</ele>
        <time>2020-03-08T08:35:44.000Z</time>
      </trkpt>
      <trkpt lat="47.82877" lon="7.12271">
        <ele>698.79998779297</ele>
        <time>2020-03-08T08:35:45.000Z</time>
      </trkpt>
      <trkpt lat="47.82879" lon="7.1227">
        <ele>699.20001220703</ele>
        <time>2020-03-08T08:35:46.000Z</time>
      </trkpt>
      <trkpt lat="47.82881" lon="7.12267">
        <ele>699.59997558594</ele>
        <time>2020-03-08T08:35:48.000Z</time>
      </trkpt>
      <trkpt lat="47.82882" lon="7.12265">
        <ele>700</ele>
        <time>2020-03-08T08:35:49.000Z</time>
      </trkpt>
      <trkpt lat="47.82883" lon="7.12264">
        <ele>700.40002441406</ele>
        <time>2020-03-08T08:35:50.000Z</time>
      </trkpt>
      <trkpt lat="47.82885" lon="7.12262">
        <ele>700.79998779297</ele>
        <time>2020-03-08T08:35:51.000Z</time>
      </trkpt>
      <trkpt lat="47.82887" lon="7.12261">
        <ele>701.20001220703</ele>
        <time>2020-03-08T08:35:52.000Z</time>
      </trkpt>
      <trkpt lat="47.8289" lon="7.1226">
        <ele>701.20001220703</ele>
        <time>2020-03-08T08:35:53.000Z</time>
      </trkpt>
      <trkpt lat="47.82899" lon="7.12257">
        <ele>701.20001220703</ele>
        <time>2020-03-08T08:35:57.000Z</time>
      </trkpt>
      <trkpt lat="47.82915" lon="7.12245">
        <ele>701.20001220703</ele>
        <time>2020-03-08T08:36:04.000Z</time>
      </trkpt>
      <trkpt lat="47.82933" lon="7.12221">
        <ele>701.20001220703</ele>
        <time>2020-03-08T08:36:10.000Z</time>
      </trkpt>
      <trkpt lat="47.82947" lon="7.122">
        <ele>701.20001220703</ele>
        <time>2020-03-08T08:36:17.000Z</time>
      </trkpt>
      <trkpt lat="47.82949" lon="7.12197">
        <ele>701.79998779297</ele>
        <time>2020-03-08T08:36:18.000Z</time>
      </trkpt>
      <trkpt lat="47.82951" lon="7.12194">
        <ele>702.20001220703</ele>
        <time>2020-03-08T08:36:19.000Z</time>
      </trkpt>
      <trkpt lat="47.82954" lon="7.12192">
        <ele>702.59997558594</ele>
        <time>2020-03-08T08:36:20.000Z</time>
      </trkpt>
      <trkpt lat="47.82955" lon="7.12189">
        <ele>703</ele>
        <time>2020-03-08T08:36:21.000Z</time>
      </trkpt>
      <trkpt lat="47.82958" lon="7.12187">
        <ele>703.40002441406</ele>
        <time>2020-03-08T08:36:22.000Z</time>
      </trkpt>
      <trkpt lat="47.8296" lon="7.12185">
        <ele>703.40002441406</ele>
        <time>2020-03-08T08:36:23.000Z</time>
      </trkpt>
      <trkpt lat="47.82971" lon="7.12169">
        <ele>703.40002441406</ele>
        <time>2020-03-08T08:36:29.000Z</time>
      </trkpt>
      <trkpt lat="47.82979" lon="7.12163">
        <ele>703.79998779297</ele>
        <time>2020-03-08T08:36:33.000Z</time>
      </trkpt>
      <trkpt lat="47.82981" lon="7.12162">
        <ele>704.20001220703</ele>
        <time>2020-03-08T08:36:34.000Z</time>
      </trkpt>
      <trkpt lat="47.82984" lon="7.12162">
        <ele>704.59997558594</ele>
        <time>2020-03-08T08:36:35.000Z</time>
      </trkpt>
      <trkpt lat="47.82987" lon="7.12162">
        <ele>705</ele>
        <time>2020-03-08T08:36:36.000Z</time>
      </trkpt>
      <trkpt lat="47.82988" lon="7.12161">
        <ele>705.40002441406</ele>
        <time>2020-03-08T08:36:37.000Z</time>
      </trkpt>
      <trkpt lat="47.82995" lon="7.12161">
        <ele>705.79998779297</ele>
        <time>2020-03-08T08:36:41.000Z</time>
      </trkpt>
      <trkpt lat="47.82997" lon="7.12161">
        <ele>706.40002441406</ele>
        <time>2020-03-08T08:36:42.000Z</time>
      </trkpt>
      <trkpt lat="47.82998" lon="7.12161">
        <ele>706.79998779297</ele>
        <time>2020-03-08T08:36:43.000Z</time>
      </trkpt>
      <trkpt lat="47.83" lon="7.12161">
        <ele>707.20001220703</ele>
        <time>2020-03-08T08:36:44.000Z</time>
      </trkpt>
      <trkpt lat="47.83002" lon="7.1216">
        <ele>707.59997558594</ele>
        <time>2020-03-08T08:36:45.000Z</time>
      </trkpt>
      <trkpt lat="47.83006" lon="7.12157">
        <ele>708</ele>
        <time>2020-03-08T08:36:48.000Z</time>
      </trkpt>
      <trkpt lat="47.83008" lon="7.12156">
        <ele>708.59997558594</ele>
        <time>2020-03-08T08:36:49.000Z</time>
      </trkpt>
      <trkpt lat="47.8301" lon="7.12155">
        <ele>709</ele>
        <time>2020-03-08T08:36:50.000Z</time>
      </trkpt>
      <trkpt lat="47.83011" lon="7.12154">
        <ele>709.40002441406</ele>
        <time>2020-03-08T08:36:51.000Z</time>
      </trkpt>
      <trkpt lat="47.83012" lon="7.12153">
        <ele>709.79998779297</ele>
        <time>2020-03-08T08:36:52.000Z</time>
      </trkpt>
      <trkpt lat="47.83016" lon="7.12151">
        <ele>710.20001220703</ele>
        <time>2020-03-08T08:36:54.000Z</time>
      </trkpt>
      <trkpt lat="47.83017" lon="7.1215">
        <ele>710.59997558594</ele>
        <time>2020-03-08T08:36:55.000Z</time>
      </trkpt>
      <trkpt lat="47.83019" lon="7.12149">
        <ele>711</ele>
        <time>2020-03-08T08:36:56.000Z</time>
      </trkpt>
      <trkpt lat="47.83021" lon="7.12148">
        <ele>711.40002441406</ele>
        <time>2020-03-08T08:36:57.000Z</time>
      </trkpt>
      <trkpt lat="47.83022" lon="7.12147">
        <ele>711.79998779297</ele>
        <time>2020-03-08T08:36:58.000Z</time>
      </trkpt>
      <trkpt lat="47.83024" lon="7.12145">
        <ele>711.79998779297</ele>
        <time>2020-03-08T08:36:59.000Z</time>
      </trkpt>
      <trkpt lat="47.83028" lon="7.12142">
        <ele>711.79998779297</ele>
        <time>2020-03-08T08:37:01.000Z</time>
      </trkpt>
      <trkpt lat="47.83032" lon="7.12136">
        <ele>712.40002441406</ele>
        <time>2020-03-08T08:37:03.000Z</time>
      </trkpt>
      <trkpt lat="47.83034" lon="7.12133">
        <ele>712.79998779297</ele>
        <time>2020-03-08T08:37:04.000Z</time>
      </trkpt>
      <trkpt lat="47.83035" lon="7.12131">
        <ele>713.20001220703</ele>
        <time>2020-03-08T08:37:05.000Z</time>
      </trkpt>
      <trkpt lat="47.83037" lon="7.12129">
        <ele>713.59997558594</ele>
        <time>2020-03-08T08:37:06.000Z</time>
      </trkpt>
      <trkpt lat="47.83038" lon="7.12126">
        <ele>714</ele>
        <time>2020-03-08T08:37:07.000Z</time>
      </trkpt>
      <trkpt lat="47.83047" lon="7.12114">
        <ele>714</ele>
        <time>2020-03-08T08:37:13.000Z</time>
      </trkpt>
      <trkpt lat="47.83048" lon="7.12111">
        <ele>714</ele>
        <time>2020-03-08T08:37:14.000Z</time>
      </trkpt>
      <trkpt lat="47.83051" lon="7.12106">
        <ele>714.40002441406</ele>
        <time>2020-03-08T08:37:16.000Z</time>
      </trkpt>
      <trkpt lat="47.83053" lon="7.12104">
        <ele>714.79998779297</ele>
        <time>2020-03-08T08:37:17.000Z</time>
      </trkpt>
      <trkpt lat="47.83053" lon="7.12101">
        <ele>715.40002441406</ele>
        <time>2020-03-08T08:37:18.000Z</time>
      </trkpt>
      <trkpt lat="47.83054" lon="7.121">
        <ele>715.79998779297</ele>
        <time>2020-03-08T08:37:19.000Z</time>
      </trkpt>
      <trkpt lat="47.83054" lon="7.12098">
        <ele>716.20001220703</ele>
        <time>2020-03-08T08:37:20.000Z</time>
      </trkpt>
      <trkpt lat="47.83057" lon="7.12095">
        <ele>716.59997558594</ele>
        <time>2020-03-08T08:37:23.000Z</time>
      </trkpt>
      <trkpt lat="47.83058" lon="7.12094">
        <ele>717</ele>
        <time>2020-03-08T08:37:24.000Z</time>
      </trkpt>
      <trkpt lat="47.83059" lon="7.12092">
        <ele>717.40002441406</ele>
        <time>2020-03-08T08:37:25.000Z</time>
      </trkpt>
      <trkpt lat="47.8306" lon="7.12091">
        <ele>717.79998779297</ele>
        <time>2020-03-08T08:37:26.000Z</time>
      </trkpt>
      <trkpt lat="47.83061" lon="7.1209">
        <ele>718.20001220703</ele>
        <time>2020-03-08T08:37:27.000Z</time>
      </trkpt>
      <trkpt lat="47.83066" lon="7.12084">
        <ele>718.59997558594</ele>
        <time>2020-03-08T08:37:31.000Z</time>
      </trkpt>
      <trkpt lat="47.83068" lon="7.12083">
        <ele>719</ele>
        <time>2020-03-08T08:37:32.000Z</time>
      </trkpt>
      <trkpt lat="47.8307" lon="7.12082">
        <ele>719.59997558594</ele>
        <time>2020-03-08T08:37:33.000Z</time>
      </trkpt>
      <trkpt lat="47.83072" lon="7.12081">
        <ele>720</ele>
        <time>2020-03-08T08:37:34.000Z</time>
      </trkpt>
      <trkpt lat="47.83073" lon="7.12081">
        <ele>720.40002441406</ele>
        <time>2020-03-08T08:37:35.000Z</time>
      </trkpt>
      <trkpt lat="47.83076" lon="7.12081">
        <ele>720.79998779297</ele>
        <time>2020-03-08T08:37:38.000Z</time>
      </trkpt>
      <trkpt lat="47.83096" lon="7.12075">
        <ele>724.79998779297</ele>
        <time>2020-03-08T08:37:50.000Z</time>
      </trkpt>
      <trkpt lat="47.83114" lon="7.12076">
        <ele>724.79998779297</ele>
        <time>2020-03-08T08:37:58.000Z</time>
      </trkpt>
      <trkpt lat="47.83118" lon="7.12074">
        <ele>725.20001220703</ele>
        <time>2020-03-08T08:38:00.000Z</time>
      </trkpt>
      <trkpt lat="47.8312" lon="7.12073">
        <ele>725.59997558594</ele>
        <time>2020-03-08T08:38:01.000Z</time>
      </trkpt>
      <trkpt lat="47.83122" lon="7.12072">
        <ele>726.40002441406</ele>
        <time>2020-03-08T08:38:02.000Z</time>
      </trkpt>
      <trkpt lat="47.83124" lon="7.12071">
        <ele>726.79998779297</ele>
        <time>2020-03-08T08:38:03.000Z</time>
      </trkpt>
      <trkpt lat="47.83126" lon="7.1207">
        <ele>726.79998779297</ele>
        <time>2020-03-08T08:38:04.000Z</time>
      </trkpt>
      <trkpt lat="47.83141" lon="7.12058">
        <ele>726.79998779297</ele>
        <time>2020-03-08T08:38:10.000Z</time>
      </trkpt>
      <trkpt lat="47.8315" lon="7.12045">
        <ele>727.20001220703</ele>
        <time>2020-03-08T08:38:15.000Z</time>
      </trkpt>
      <trkpt lat="47.83151" lon="7.12043">
        <ele>727.79998779297</ele>
        <time>2020-03-08T08:38:16.000Z</time>
      </trkpt>
      <trkpt lat="47.83152" lon="7.12041">
        <ele>728.20001220703</ele>
        <time>2020-03-08T08:38:17.000Z</time>
      </trkpt>
      <trkpt lat="47.83154" lon="7.12039">
        <ele>728.59997558594</ele>
        <time>2020-03-08T08:38:18.000Z</time>
      </trkpt>
      <trkpt lat="47.83156" lon="7.12037">
        <ele>729</ele>
        <time>2020-03-08T08:38:19.000Z</time>
      </trkpt>
      <trkpt lat="47.83161" lon="7.12032">
        <ele>729.40002441406</ele>
        <time>2020-03-08T08:38:23.000Z</time>
      </trkpt>
      <trkpt lat="47.83163" lon="7.1203">
        <ele>730</ele>
        <time>2020-03-08T08:38:24.000Z</time>
      </trkpt>
      <trkpt lat="47.83165" lon="7.12029">
        <ele>730.40002441406</ele>
        <time>2020-03-08T08:38:25.000Z</time>
      </trkpt>
      <trkpt lat="47.83166" lon="7.12027">
        <ele>730.79998779297</ele>
        <time>2020-03-08T08:38:26.000Z</time>
      </trkpt>
      <trkpt lat="47.83168" lon="7.12026">
        <ele>731.20001220703</ele>
        <time>2020-03-08T08:38:27.000Z</time>
      </trkpt>
      <trkpt lat="47.83173" lon="7.12022">
        <ele>731.20001220703</ele>
        <time>2020-03-08T08:38:30.000Z</time>
      </trkpt>
      <trkpt lat="47.83175" lon="7.12021">
        <ele>731.59997558594</ele>
        <time>2020-03-08T08:38:31.000Z</time>
      </trkpt>
      <trkpt lat="47.83176" lon="7.12019">
        <ele>732</ele>
        <time>2020-03-08T08:38:32.000Z</time>
      </trkpt>
      <trkpt lat="47.83178" lon="7.12017">
        <ele>732.40002441406</ele>
        <time>2020-03-08T08:38:33.000Z</time>
      </trkpt>
      <trkpt lat="47.83181" lon="7.12016">
        <ele>732.79998779297</ele>
        <time>2020-03-08T08:38:34.000Z</time>
      </trkpt>
      <trkpt lat="47.83183" lon="7.12015">
        <ele>733.20001220703</ele>
        <time>2020-03-08T08:38:35.000Z</time>
      </trkpt>
      <trkpt lat="47.83185" lon="7.12014">
        <ele>733.20001220703</ele>
        <time>2020-03-08T08:38:36.000Z</time>
      </trkpt>
      <trkpt lat="47.83194" lon="7.12009">
        <ele>733.59997558594</ele>
        <time>2020-03-08T08:38:41.000Z</time>
      </trkpt>
      <trkpt lat="47.83197" lon="7.12008">
        <ele>734</ele>
        <time>2020-03-08T08:38:42.000Z</time>
      </trkpt>
      <trkpt lat="47.83199" lon="7.12007">
        <ele>734.59997558594</ele>
        <time>2020-03-08T08:38:43.000Z</time>
      </trkpt>
      <trkpt lat="47.83201" lon="7.12006">
        <ele>735</ele>
        <time>2020-03-08T08:38:44.000Z</time>
      </trkpt>
      <trkpt lat="47.83203" lon="7.12005">
        <ele>735.40002441406</ele>
        <time>2020-03-08T08:38:45.000Z</time>
      </trkpt>
      <trkpt lat="47.83212" lon="7.12003">
        <ele>735.40002441406</ele>
        <time>2020-03-08T08:38:50.000Z</time>
      </trkpt>
      <trkpt lat="47.83224" lon="7.12">
        <ele>735.79998779297</ele>
        <time>2020-03-08T08:38:57.000Z</time>
      </trkpt>
      <trkpt lat="47.83226" lon="7.11999">
        <ele>736.20001220703</ele>
        <time>2020-03-08T08:38:58.000Z</time>
      </trkpt>
      <trkpt lat="47.83228" lon="7.11999">
        <ele>736.59997558594</ele>
        <time>2020-03-08T08:38:59.000Z</time>
      </trkpt>
      <trkpt lat="47.83231" lon="7.12">
        <ele>737</ele>
        <time>2020-03-08T08:39:00.000Z</time>
      </trkpt>
      <trkpt lat="47.83233" lon="7.12001">
        <ele>737.40002441406</ele>
        <time>2020-03-08T08:39:01.000Z</time>
      </trkpt>
      <trkpt lat="47.83236" lon="7.12002">
        <ele>737.40002441406</ele>
        <time>2020-03-08T08:39:02.000Z</time>
      </trkpt>
      <trkpt lat="47.83238" lon="7.12003">
        <ele>737.40002441406</ele>
        <time>2020-03-08T08:39:03.000Z</time>
      </trkpt>
      <trkpt lat="47.83248" lon="7.12008">
        <ele>737.40002441406</ele>
        <time>2020-03-08T08:39:08.000Z</time>
      </trkpt>
      <trkpt lat="47.83259" lon="7.12014">
        <ele>737.40002441406</ele>
        <time>2020-03-08T08:39:14.000Z</time>
      </trkpt>
      <trkpt lat="47.83266" lon="7.12022">
        <ele>737.40002441406</ele>
        <time>2020-03-08T08:39:19.000Z</time>
      </trkpt>
      <trkpt lat="47.83268" lon="7.12022">
        <ele>737.40002441406</ele>
        <time>2020-03-08T08:39:21.000Z</time>
      </trkpt>
      <trkpt lat="47.83274" lon="7.12015">
        <ele>737.40002441406</ele>
        <time>2020-03-08T08:42:12.000Z</time>
      </trkpt>
      <trkpt lat="47.83276" lon="7.12015">
        <ele>737.40002441406</ele>
        <time>2020-03-08T08:42:13.000Z</time>
      </trkpt>
      <trkpt lat="47.83284" lon="7.12014">
        <ele>737.40002441406</ele>
        <time>2020-03-08T08:42:17.000Z</time>
      </trkpt>
      <trkpt lat="47.83294" lon="7.12008">
        <ele>737.40002441406</ele>
        <time>2020-03-08T08:42:23.000Z</time>
      </trkpt>
      <trkpt lat="47.83303" lon="7.11998">
        <ele>737.40002441406</ele>
        <time>2020-03-08T08:42:28.000Z</time>
      </trkpt>
      <trkpt lat="47.83308" lon="7.11995">
        <ele>737.40002441406</ele>
        <time>2020-03-08T08:42:31.000Z</time>
      </trkpt>
      <trkpt lat="47.83311" lon="7.12">
        <ele>737.40002441406</ele>
        <time>2020-03-08T08:42:33.000Z</time>
      </trkpt>
      <trkpt lat="47.83316" lon="7.12007">
        <ele>737.79998779297</ele>
        <time>2020-03-08T08:42:36.000Z</time>
      </trkpt>
      <trkpt lat="47.83317" lon="7.12009">
        <ele>738.20001220703</ele>
        <time>2020-03-08T08:42:37.000Z</time>
      </trkpt>
      <trkpt lat="47.83319" lon="7.12011">
        <ele>738.59997558594</ele>
        <time>2020-03-08T08:42:38.000Z</time>
      </trkpt>
      <trkpt lat="47.83322" lon="7.12013">
        <ele>739.20001220703</ele>
        <time>2020-03-08T08:42:39.000Z</time>
      </trkpt>
      <trkpt lat="47.83325" lon="7.12016">
        <ele>739.59997558594</ele>
        <time>2020-03-08T08:42:40.000Z</time>
      </trkpt>
      <trkpt lat="47.8333" lon="7.12021">
        <ele>740</ele>
        <time>2020-03-08T08:42:43.000Z</time>
      </trkpt>
      <trkpt lat="47.83331" lon="7.12021">
        <ele>740.40002441406</ele>
        <time>2020-03-08T08:42:44.000Z</time>
      </trkpt>
      <trkpt lat="47.83333" lon="7.1202">
        <ele>740.79998779297</ele>
        <time>2020-03-08T08:42:45.000Z</time>
      </trkpt>
      <trkpt lat="47.83334" lon="7.12018">
        <ele>741.20001220703</ele>
        <time>2020-03-08T08:42:46.000Z</time>
      </trkpt>
      <trkpt lat="47.83336" lon="7.12017">
        <ele>741.79998779297</ele>
        <time>2020-03-08T08:42:47.000Z</time>
      </trkpt>
      <trkpt lat="47.83337" lon="7.12015">
        <ele>742.40002441406</ele>
        <time>2020-03-08T08:42:48.000Z</time>
      </trkpt>
      <trkpt lat="47.83338" lon="7.12014">
        <ele>743</ele>
        <time>2020-03-08T08:42:49.000Z</time>
      </trkpt>
      <trkpt lat="47.8334" lon="7.12013">
        <ele>743.40002441406</ele>
        <time>2020-03-08T08:42:50.000Z</time>
      </trkpt>
      <trkpt lat="47.83341" lon="7.12011">
        <ele>744</ele>
        <time>2020-03-08T08:42:51.000Z</time>
      </trkpt>
      <trkpt lat="47.83343" lon="7.12009">
        <ele>744.59997558594</ele>
        <time>2020-03-08T08:42:52.000Z</time>
      </trkpt>
      <trkpt lat="47.83344" lon="7.12007">
        <ele>745</ele>
        <time>2020-03-08T08:42:53.000Z</time>
      </trkpt>
      <trkpt lat="47.83346" lon="7.12006">
        <ele>745.59997558594</ele>
        <time>2020-03-08T08:42:54.000Z</time>
      </trkpt>
      <trkpt lat="47.83347" lon="7.12005">
        <ele>746.20001220703</ele>
        <time>2020-03-08T08:42:55.000Z</time>
      </trkpt>
      <trkpt lat="47.83349" lon="7.12005">
        <ele>746.59997558594</ele>
        <time>2020-03-08T08:42:56.000Z</time>
      </trkpt>
      <trkpt lat="47.83351" lon="7.12004">
        <ele>747.20001220703</ele>
        <time>2020-03-08T08:42:57.000Z</time>
      </trkpt>
      <trkpt lat="47.83352" lon="7.12003">
        <ele>748.40002441406</ele>
        <time>2020-03-08T08:42:58.000Z</time>
      </trkpt>
      <trkpt lat="47.83353" lon="7.12001">
        <ele>749</ele>
        <time>2020-03-08T08:42:59.000Z</time>
      </trkpt>
      <trkpt lat="47.83355" lon="7.11999">
        <ele>749.59997558594</ele>
        <time>2020-03-08T08:43:00.000Z</time>
      </trkpt>
      <trkpt lat="47.83356" lon="7.11996">
        <ele>750.20001220703</ele>
        <time>2020-03-08T08:43:01.000Z</time>
      </trkpt>
      <trkpt lat="47.83358" lon="7.11993">
        <ele>750.79998779297</ele>
        <time>2020-03-08T08:43:02.000Z</time>
      </trkpt>
      <trkpt lat="47.83361" lon="7.11988">
        <ele>751.20001220703</ele>
        <time>2020-03-08T08:43:04.000Z</time>
      </trkpt>
      <trkpt lat="47.83362" lon="7.11986">
        <ele>751.59997558594</ele>
        <time>2020-03-08T08:43:05.000Z</time>
      </trkpt>
      <trkpt lat="47.83364" lon="7.11984">
        <ele>752.20001220703</ele>
        <time>2020-03-08T08:43:06.000Z</time>
      </trkpt>
      <trkpt lat="47.83366" lon="7.11983">
        <ele>752.59997558594</ele>
        <time>2020-03-08T08:43:07.000Z</time>
      </trkpt>
      <trkpt lat="47.83367" lon="7.11981">
        <ele>753</ele>
        <time>2020-03-08T08:43:08.000Z</time>
      </trkpt>
      <trkpt lat="47.8337" lon="7.11979">
        <ele>753.59997558594</ele>
        <time>2020-03-08T08:43:10.000Z</time>
      </trkpt>
      <trkpt lat="47.83371" lon="7.11978">
        <ele>754</ele>
        <time>2020-03-08T08:43:11.000Z</time>
      </trkpt>
      <trkpt lat="47.83371" lon="7.11978">
        <ele>754.40002441406</ele>
        <time>2020-03-08T08:43:12.000Z</time>
      </trkpt>
      <trkpt lat="47.83373" lon="7.11977">
        <ele>754.79998779297</ele>
        <time>2020-03-08T08:43:13.000Z</time>
      </trkpt>
      <trkpt lat="47.83374" lon="7.11976">
        <ele>755.20001220703</ele>
        <time>2020-03-08T08:43:14.000Z</time>
      </trkpt>
      <trkpt lat="47.83377" lon="7.11974">
        <ele>755.79998779297</ele>
        <time>2020-03-08T08:43:16.000Z</time>
      </trkpt>
      <trkpt lat="47.83378" lon="7.11973">
        <ele>756.20001220703</ele>
        <time>2020-03-08T08:43:17.000Z</time>
      </trkpt>
      <trkpt lat="47.8338" lon="7.11971">
        <ele>756.59997558594</ele>
        <time>2020-03-08T08:43:18.000Z</time>
      </trkpt>
      <trkpt lat="47.83381" lon="7.11968">
        <ele>757.20001220703</ele>
        <time>2020-03-08T08:43:19.000Z</time>
      </trkpt>
      <trkpt lat="47.83383" lon="7.11967">
        <ele>757.59997558594</ele>
        <time>2020-03-08T08:43:20.000Z</time>
      </trkpt>
      <trkpt lat="47.83386" lon="7.11962">
        <ele>757.59997558594</ele>
        <time>2020-03-08T08:43:22.000Z</time>
      </trkpt>
      <trkpt lat="47.83391" lon="7.11953">
        <ele>758</ele>
        <time>2020-03-08T08:43:26.000Z</time>
      </trkpt>
      <trkpt lat="47.83393" lon="7.1195">
        <ele>758.40002441406</ele>
        <time>2020-03-08T08:43:27.000Z</time>
      </trkpt>
      <trkpt lat="47.83394" lon="7.11948">
        <ele>758.79998779297</ele>
        <time>2020-03-08T08:43:28.000Z</time>
      </trkpt>
      <trkpt lat="47.83395" lon="7.11946">
        <ele>759.20001220703</ele>
        <time>2020-03-08T08:43:29.000Z</time>
      </trkpt>
      <trkpt lat="47.83396" lon="7.11943">
        <ele>759.59997558594</ele>
        <time>2020-03-08T08:43:30.000Z</time>
      </trkpt>
      <trkpt lat="47.83402" lon="7.11933">
        <ele>759.59997558594</ele>
        <time>2020-03-08T08:43:36.000Z</time>
      </trkpt>
      <trkpt lat="47.83408" lon="7.11923">
        <ele>760</ele>
        <time>2020-03-08T08:43:40.000Z</time>
      </trkpt>
      <trkpt lat="47.83409" lon="7.11919">
        <ele>760.40002441406</ele>
        <time>2020-03-08T08:43:41.000Z</time>
      </trkpt>
      <trkpt lat="47.8341" lon="7.11917">
        <ele>760.79998779297</ele>
        <time>2020-03-08T08:43:42.000Z</time>
      </trkpt>
      <trkpt lat="47.83411" lon="7.11915">
        <ele>761.20001220703</ele>
        <time>2020-03-08T08:43:43.000Z</time>
      </trkpt>
      <trkpt lat="47.83412" lon="7.11913">
        <ele>761.59997558594</ele>
        <time>2020-03-08T08:43:44.000Z</time>
      </trkpt>
      <trkpt lat="47.83416" lon="7.11906">
        <ele>762.20001220703</ele>
        <time>2020-03-08T08:43:47.000Z</time>
      </trkpt>
      <trkpt lat="47.83417" lon="7.11903">
        <ele>763</ele>
        <time>2020-03-08T08:43:48.000Z</time>
      </trkpt>
      <trkpt lat="47.83417" lon="7.11901">
        <ele>763.40002441406</ele>
        <time>2020-03-08T08:43:49.000Z</time>
      </trkpt>
      <trkpt lat="47.83418" lon="7.119">
        <ele>764</ele>
        <time>2020-03-08T08:43:50.000Z</time>
      </trkpt>
      <trkpt lat="47.83419" lon="7.11899">
        <ele>764</ele>
        <time>2020-03-08T08:43:51.000Z</time>
      </trkpt>
      <trkpt lat="47.8342" lon="7.11895">
        <ele>764.40002441406</ele>
        <time>2020-03-08T08:43:53.000Z</time>
      </trkpt>
      <trkpt lat="47.83421" lon="7.11893">
        <ele>764.79998779297</ele>
        <time>2020-03-08T08:43:54.000Z</time>
      </trkpt>
      <trkpt lat="47.83422" lon="7.1189">
        <ele>765.20001220703</ele>
        <time>2020-03-08T08:43:55.000Z</time>
      </trkpt>
      <trkpt lat="47.83422" lon="7.11886">
        <ele>765.59997558594</ele>
        <time>2020-03-08T08:43:56.000Z</time>
      </trkpt>
      <trkpt lat="47.83423" lon="7.11883">
        <ele>766</ele>
        <time>2020-03-08T08:43:57.000Z</time>
      </trkpt>
      <trkpt lat="47.83426" lon="7.11875">
        <ele>766.40002441406</ele>
        <time>2020-03-08T08:44:00.000Z</time>
      </trkpt>
      <trkpt lat="47.83428" lon="7.11873">
        <ele>766.79998779297</ele>
        <time>2020-03-08T08:44:01.000Z</time>
      </trkpt>
      <trkpt lat="47.83429" lon="7.11871">
        <ele>767.20001220703</ele>
        <time>2020-03-08T08:44:02.000Z</time>
      </trkpt>
      <trkpt lat="47.83431" lon="7.11869">
        <ele>767.59997558594</ele>
        <time>2020-03-08T08:44:03.000Z</time>
      </trkpt>
      <trkpt lat="47.83432" lon="7.11868">
        <ele>768</ele>
        <time>2020-03-08T08:44:04.000Z</time>
      </trkpt>
      <trkpt lat="47.83436" lon="7.11865">
        <ele>768.59997558594</ele>
        <time>2020-03-08T08:44:07.000Z</time>
      </trkpt>
      <trkpt lat="47.83438" lon="7.11863">
        <ele>769</ele>
        <time>2020-03-08T08:44:08.000Z</time>
      </trkpt>
      <trkpt lat="47.83439" lon="7.11862">
        <ele>769.40002441406</ele>
        <time>2020-03-08T08:44:09.000Z</time>
      </trkpt>
      <trkpt lat="47.8344" lon="7.11861">
        <ele>769.79998779297</ele>
        <time>2020-03-08T08:44:10.000Z</time>
      </trkpt>
      <trkpt lat="47.83442" lon="7.11859">
        <ele>770.40002441406</ele>
        <time>2020-03-08T08:44:11.000Z</time>
      </trkpt>
      <trkpt lat="47.83443" lon="7.11857">
        <ele>771</ele>
        <time>2020-03-08T08:44:12.000Z</time>
      </trkpt>
      <trkpt lat="47.83445" lon="7.11855">
        <ele>772</ele>
        <time>2020-03-08T08:44:13.000Z</time>
      </trkpt>
      <trkpt lat="47.83446" lon="7.11853">
        <ele>772.40002441406</ele>
        <time>2020-03-08T08:44:14.000Z</time>
      </trkpt>
      <trkpt lat="47.83451" lon="7.11848">
        <ele>772.79998779297</ele>
        <time>2020-03-08T08:44:17.000Z</time>
      </trkpt>
      <trkpt lat="47.83452" lon="7.11847">
        <ele>773.20001220703</ele>
        <time>2020-03-08T08:44:18.000Z</time>
      </trkpt>
      <trkpt lat="47.83452" lon="7.11845">
        <ele>773.59997558594</ele>
        <time>2020-03-08T08:44:19.000Z</time>
      </trkpt>
      <trkpt lat="47.83453" lon="7.11843">
        <ele>774.20001220703</ele>
        <time>2020-03-08T08:44:20.000Z</time>
      </trkpt>
      <trkpt lat="47.83454" lon="7.11841">
        <ele>774.59997558594</ele>
        <time>2020-03-08T08:44:21.000Z</time>
      </trkpt>
      <trkpt lat="47.8346" lon="7.11832">
        <ele>774.59997558594</ele>
        <time>2020-03-08T08:44:26.000Z</time>
      </trkpt>
      <trkpt lat="47.83461" lon="7.1183">
        <ele>775</ele>
        <time>2020-03-08T08:44:27.000Z</time>
      </trkpt>
      <trkpt lat="47.83462" lon="7.11829">
        <ele>775.40002441406</ele>
        <time>2020-03-08T08:44:28.000Z</time>
      </trkpt>
      <trkpt lat="47.83464" lon="7.11828">
        <ele>775.79998779297</ele>
        <time>2020-03-08T08:44:29.000Z</time>
      </trkpt>
      <trkpt lat="47.83466" lon="7.11827">
        <ele>776.20001220703</ele>
        <time>2020-03-08T08:44:30.000Z</time>
      </trkpt>
      <trkpt lat="47.83467" lon="7.11825">
        <ele>776.59997558594</ele>
        <time>2020-03-08T08:44:31.000Z</time>
      </trkpt>
      <trkpt lat="47.83469" lon="7.11824">
        <ele>777.20001220703</ele>
        <time>2020-03-08T08:44:32.000Z</time>
      </trkpt>
      <trkpt lat="47.83471" lon="7.11822">
        <ele>777.59997558594</ele>
        <time>2020-03-08T08:44:33.000Z</time>
      </trkpt>
      <trkpt lat="47.83473" lon="7.11821">
        <ele>778</ele>
        <time>2020-03-08T08:44:34.000Z</time>
      </trkpt>
      <trkpt lat="47.83474" lon="7.11821">
        <ele>778.59997558594</ele>
        <time>2020-03-08T08:44:35.000Z</time>
      </trkpt>
      <trkpt lat="47.83475" lon="7.1182">
        <ele>779</ele>
        <time>2020-03-08T08:44:36.000Z</time>
      </trkpt>
      <trkpt lat="47.83479" lon="7.11819">
        <ele>779</ele>
        <time>2020-03-08T08:44:38.000Z</time>
      </trkpt>
      <trkpt lat="47.83488" lon="7.11812">
        <ele>779.40002441406</ele>
        <time>2020-03-08T08:44:43.000Z</time>
      </trkpt>
      <trkpt lat="47.8349" lon="7.11811">
        <ele>779.79998779297</ele>
        <time>2020-03-08T08:44:44.000Z</time>
      </trkpt>
      <trkpt lat="47.83492" lon="7.1181">
        <ele>780.20001220703</ele>
        <time>2020-03-08T08:44:45.000Z</time>
      </trkpt>
      <trkpt lat="47.83494" lon="7.11808">
        <ele>780.59997558594</ele>
        <time>2020-03-08T08:44:46.000Z</time>
      </trkpt>
      <trkpt lat="47.83496" lon="7.11807">
        <ele>781</ele>
        <time>2020-03-08T08:44:47.000Z</time>
      </trkpt>
      <trkpt lat="47.83505" lon="7.11793">
        <ele>781</ele>
        <time>2020-03-08T08:44:52.000Z</time>
      </trkpt>
      <trkpt lat="47.83511" lon="7.11781">
        <ele>781</ele>
        <time>2020-03-08T08:44:57.000Z</time>
      </trkpt>
      <trkpt lat="47.83517" lon="7.11772">
        <ele>781.40002441406</ele>
        <time>2020-03-08T08:45:00.000Z</time>
      </trkpt>
      <trkpt lat="47.83518" lon="7.11768">
        <ele>781.79998779297</ele>
        <time>2020-03-08T08:45:01.000Z</time>
      </trkpt>
      <trkpt lat="47.83519" lon="7.11765">
        <ele>782.59997558594</ele>
        <time>2020-03-08T08:45:02.000Z</time>
      </trkpt>
      <trkpt lat="47.8352" lon="7.11763">
        <ele>783</ele>
        <time>2020-03-08T08:45:03.000Z</time>
      </trkpt>
      <trkpt lat="47.83521" lon="7.11761">
        <ele>783</ele>
        <time>2020-03-08T08:45:04.000Z</time>
      </trkpt>
      <trkpt lat="47.83531" lon="7.11746">
        <ele>783</ele>
        <time>2020-03-08T08:45:11.000Z</time>
      </trkpt>
      <trkpt lat="47.83536" lon="7.11737">
        <ele>783.40002441406</ele>
        <time>2020-03-08T08:45:15.000Z</time>
      </trkpt>
      <trkpt lat="47.83538" lon="7.11735">
        <ele>783.79998779297</ele>
        <time>2020-03-08T08:45:16.000Z</time>
      </trkpt>
      <trkpt lat="47.83539" lon="7.11733">
        <ele>784.20001220703</ele>
        <time>2020-03-08T08:45:17.000Z</time>
      </trkpt>
      <trkpt lat="47.83541" lon="7.11732">
        <ele>784.59997558594</ele>
        <time>2020-03-08T08:45:18.000Z</time>
      </trkpt>
      <trkpt lat="47.83543" lon="7.1173">
        <ele>785</ele>
        <time>2020-03-08T08:45:19.000Z</time>
      </trkpt>
      <trkpt lat="47.8355" lon="7.11722">
        <ele>785</ele>
        <time>2020-03-08T08:45:24.000Z</time>
      </trkpt>
      <trkpt lat="47.83554" lon="7.11718">
        <ele>785.40002441406</ele>
        <time>2020-03-08T08:45:27.000Z</time>
      </trkpt>
      <trkpt lat="47.83556" lon="7.11717">
        <ele>786</ele>
        <time>2020-03-08T08:45:28.000Z</time>
      </trkpt>
      <trkpt lat="47.83557" lon="7.11717">
        <ele>786.40002441406</ele>
        <time>2020-03-08T08:45:29.000Z</time>
      </trkpt>
      <trkpt lat="47.8356" lon="7.11716">
        <ele>786.79998779297</ele>
        <time>2020-03-08T08:45:30.000Z</time>
      </trkpt>
      <trkpt lat="47.83562" lon="7.11716">
        <ele>787.20001220703</ele>
        <time>2020-03-08T08:45:31.000Z</time>
      </trkpt>
      <trkpt lat="47.83567" lon="7.11715">
        <ele>787.20001220703</ele>
        <time>2020-03-08T08:45:35.000Z</time>
      </trkpt>
      <trkpt lat="47.83568" lon="7.11713">
        <ele>787.59997558594</ele>
        <time>2020-03-08T08:45:36.000Z</time>
      </trkpt>
      <trkpt lat="47.83569" lon="7.11711">
        <ele>788</ele>
        <time>2020-03-08T08:45:37.000Z</time>
      </trkpt>
      <trkpt lat="47.83571" lon="7.11709">
        <ele>788.40002441406</ele>
        <time>2020-03-08T08:45:38.000Z</time>
      </trkpt>
      <trkpt lat="47.83573" lon="7.11708">
        <ele>788.79998779297</ele>
        <time>2020-03-08T08:45:39.000Z</time>
      </trkpt>
      <trkpt lat="47.83574" lon="7.11707">
        <ele>789.20001220703</ele>
        <time>2020-03-08T08:45:40.000Z</time>
      </trkpt>
      <trkpt lat="47.83578" lon="7.11704">
        <ele>789.20001220703</ele>
        <time>2020-03-08T08:45:42.000Z</time>
      </trkpt>
      <trkpt lat="47.83587" lon="7.117">
        <ele>789.59997558594</ele>
        <time>2020-03-08T08:45:47.000Z</time>
      </trkpt>
      <trkpt lat="47.83589" lon="7.117">
        <ele>790</ele>
        <time>2020-03-08T08:45:48.000Z</time>
      </trkpt>
      <trkpt lat="47.8359" lon="7.11699">
        <ele>790.59997558594</ele>
        <time>2020-03-08T08:45:49.000Z</time>
      </trkpt>
      <trkpt lat="47.83592" lon="7.11698">
        <ele>791</ele>
        <time>2020-03-08T08:45:50.000Z</time>
      </trkpt>
      <trkpt lat="47.83594" lon="7.11698">
        <ele>791.40002441406</ele>
        <time>2020-03-08T08:45:51.000Z</time>
      </trkpt>
      <trkpt lat="47.83602" lon="7.11693">
        <ele>791.40002441406</ele>
        <time>2020-03-08T08:45:57.000Z</time>
      </trkpt>
      <trkpt lat="47.83607" lon="7.11692">
        <ele>791.79998779297</ele>
        <time>2020-03-08T08:46:01.000Z</time>
      </trkpt>
      <trkpt lat="47.83609" lon="7.11693">
        <ele>792.20001220703</ele>
        <time>2020-03-08T08:46:02.000Z</time>
      </trkpt>
      <trkpt lat="47.8361" lon="7.11692">
        <ele>792.59997558594</ele>
        <time>2020-03-08T08:46:03.000Z</time>
      </trkpt>
      <trkpt lat="47.83612" lon="7.11692">
        <ele>793</ele>
        <time>2020-03-08T08:46:04.000Z</time>
      </trkpt>
      <trkpt lat="47.83613" lon="7.11691">
        <ele>793.40002441406</ele>
        <time>2020-03-08T08:46:05.000Z</time>
      </trkpt>
      <trkpt lat="47.83618" lon="7.11688">
        <ele>793.40002441406</ele>
        <time>2020-03-08T08:46:08.000Z</time>
      </trkpt>
      <trkpt lat="47.83632" lon="7.11682">
        <ele>793.40002441406</ele>
        <time>2020-03-08T08:46:15.000Z</time>
      </trkpt>
      <trkpt lat="47.83635" lon="7.11679">
        <ele>793.79998779297</ele>
        <time>2020-03-08T08:46:17.000Z</time>
      </trkpt>
      <trkpt lat="47.83637" lon="7.11677">
        <ele>794.20001220703</ele>
        <time>2020-03-08T08:46:18.000Z</time>
      </trkpt>
      <trkpt lat="47.83639" lon="7.11676">
        <ele>794.59997558594</ele>
        <time>2020-03-08T08:46:19.000Z</time>
      </trkpt>
      <trkpt lat="47.83641" lon="7.11676">
        <ele>795</ele>
        <time>2020-03-08T08:46:20.000Z</time>
      </trkpt>
      <trkpt lat="47.83643" lon="7.11675">
        <ele>795.40002441406</ele>
        <time>2020-03-08T08:46:21.000Z</time>
      </trkpt>
      <trkpt lat="47.83646" lon="7.11674">
        <ele>795.40002441406</ele>
        <time>2020-03-08T08:46:23.000Z</time>
      </trkpt>
      <trkpt lat="47.83655" lon="7.11668">
        <ele>795.40002441406</ele>
        <time>2020-03-08T08:46:29.000Z</time>
      </trkpt>
      <trkpt lat="47.83659" lon="7.11664">
        <ele>795.79998779297</ele>
        <time>2020-03-08T08:46:31.000Z</time>
      </trkpt>
      <trkpt lat="47.83661" lon="7.11664">
        <ele>796.20001220703</ele>
        <time>2020-03-08T08:46:32.000Z</time>
      </trkpt>
      <trkpt lat="47.83664" lon="7.11663">
        <ele>796.79998779297</ele>
        <time>2020-03-08T08:46:33.000Z</time>
      </trkpt>
      <trkpt lat="47.83666" lon="7.11662">
        <ele>797.20001220703</ele>
        <time>2020-03-08T08:46:34.000Z</time>
      </trkpt>
      <trkpt lat="47.83669" lon="7.11662">
        <ele>797.59997558594</ele>
        <time>2020-03-08T08:46:35.000Z</time>
      </trkpt>
      <trkpt lat="47.83671" lon="7.11661">
        <ele>797.59997558594</ele>
        <time>2020-03-08T08:46:36.000Z</time>
      </trkpt>
      <trkpt lat="47.83684" lon="7.11663">
        <ele>797.59997558594</ele>
        <time>2020-03-08T08:46:42.000Z</time>
      </trkpt>
      <trkpt lat="47.83686" lon="7.11663">
        <ele>798</ele>
        <time>2020-03-08T08:46:43.000Z</time>
      </trkpt>
      <trkpt lat="47.83688" lon="7.11665">
        <ele>798.40002441406</ele>
        <time>2020-03-08T08:46:44.000Z</time>
      </trkpt>
      <trkpt lat="47.83689" lon="7.11667">
        <ele>798.79998779297</ele>
        <time>2020-03-08T08:46:45.000Z</time>
      </trkpt>
      <trkpt lat="47.8369" lon="7.11669">
        <ele>799.20001220703</ele>
        <time>2020-03-08T08:46:46.000Z</time>
      </trkpt>
      <trkpt lat="47.83692" lon="7.11672">
        <ele>799.59997558594</ele>
        <time>2020-03-08T08:46:47.000Z</time>
      </trkpt>
      <trkpt lat="47.83694" lon="7.11675">
        <ele>799.59997558594</ele>
        <time>2020-03-08T08:46:49.000Z</time>
      </trkpt>
      <trkpt lat="47.83699" lon="7.11684">
        <ele>800</ele>
        <time>2020-03-08T08:46:53.000Z</time>
      </trkpt>
      <trkpt lat="47.837" lon="7.11686">
        <ele>800.40002441406</ele>
        <time>2020-03-08T08:46:54.000Z</time>
      </trkpt>
      <trkpt lat="47.83701" lon="7.11688">
        <ele>801</ele>
        <time>2020-03-08T08:46:55.000Z</time>
      </trkpt>
      <trkpt lat="47.83702" lon="7.11691">
        <ele>801.40002441406</ele>
        <time>2020-03-08T08:46:56.000Z</time>
      </trkpt>
      <trkpt lat="47.83704" lon="7.11693">
        <ele>801.79998779297</ele>
        <time>2020-03-08T08:46:57.000Z</time>
      </trkpt>
      <trkpt lat="47.83707" lon="7.11699">
        <ele>801.79998779297</ele>
        <time>2020-03-08T08:47:00.000Z</time>
      </trkpt>
      <trkpt lat="47.83711" lon="7.11704">
        <ele>801.79998779297</ele>
        <time>2020-03-08T08:47:03.000Z</time>
      </trkpt>
      <trkpt lat="47.83712" lon="7.11706">
        <ele>802.20001220703</ele>
        <time>2020-03-08T08:47:04.000Z</time>
      </trkpt>
      <trkpt lat="47.83713" lon="7.11708">
        <ele>802.59997558594</ele>
        <time>2020-03-08T08:47:05.000Z</time>
      </trkpt>
      <trkpt lat="47.83714" lon="7.11711">
        <ele>803.40002441406</ele>
        <time>2020-03-08T08:47:06.000Z</time>
      </trkpt>
      <trkpt lat="47.83715" lon="7.11713">
        <ele>803.79998779297</ele>
        <time>2020-03-08T08:47:07.000Z</time>
      </trkpt>
      <trkpt lat="47.83717" lon="7.11722">
        <ele>803.79998779297</ele>
        <time>2020-03-08T08:47:11.000Z</time>
      </trkpt>
      <trkpt lat="47.83718" lon="7.11745">
        <ele>804.20001220703</ele>
        <time>2020-03-08T08:47:17.000Z</time>
      </trkpt>
      <trkpt lat="47.83718" lon="7.11748">
        <ele>804.59997558594</ele>
        <time>2020-03-08T08:47:18.000Z</time>
      </trkpt>
      <trkpt lat="47.83718" lon="7.11751">
        <ele>805</ele>
        <time>2020-03-08T08:47:19.000Z</time>
      </trkpt>
      <trkpt lat="47.83718" lon="7.11754">
        <ele>805.40002441406</ele>
        <time>2020-03-08T08:47:20.000Z</time>
      </trkpt>
      <trkpt lat="47.83718" lon="7.1176">
        <ele>805.79998779297</ele>
        <time>2020-03-08T08:47:21.000Z</time>
      </trkpt>
      <trkpt lat="47.83722" lon="7.11778">
        <ele>805.79998779297</ele>
        <time>2020-03-08T08:47:25.000Z</time>
      </trkpt>
      <trkpt lat="47.83723" lon="7.11784">
        <ele>806.20001220703</ele>
        <time>2020-03-08T08:47:27.000Z</time>
      </trkpt>
      <trkpt lat="47.83723" lon="7.11787">
        <ele>806.59997558594</ele>
        <time>2020-03-08T08:47:28.000Z</time>
      </trkpt>
      <trkpt lat="47.83723" lon="7.11791">
        <ele>807</ele>
        <time>2020-03-08T08:47:29.000Z</time>
      </trkpt>
      <trkpt lat="47.83722" lon="7.11795">
        <ele>807.40002441406</ele>
        <time>2020-03-08T08:47:30.000Z</time>
      </trkpt>
      <trkpt lat="47.83723" lon="7.11798">
        <ele>807.79998779297</ele>
        <time>2020-03-08T08:47:31.000Z</time>
      </trkpt>
      <trkpt lat="47.83724" lon="7.11813">
        <ele>807.79998779297</ele>
        <time>2020-03-08T08:47:35.000Z</time>
      </trkpt>
      <trkpt lat="47.83724" lon="7.11826">
        <ele>808.20001220703</ele>
        <time>2020-03-08T08:47:39.000Z</time>
      </trkpt>
      <trkpt lat="47.83724" lon="7.1183">
        <ele>808.79998779297</ele>
        <time>2020-03-08T08:47:40.000Z</time>
      </trkpt>
      <trkpt lat="47.83725" lon="7.11833">
        <ele>809.20001220703</ele>
        <time>2020-03-08T08:47:41.000Z</time>
      </trkpt>
      <trkpt lat="47.83726" lon="7.11836">
        <ele>809.59997558594</ele>
        <time>2020-03-08T08:47:42.000Z</time>
      </trkpt>
      <trkpt lat="47.83727" lon="7.11839">
        <ele>810</ele>
        <time>2020-03-08T08:47:43.000Z</time>
      </trkpt>
      <trkpt lat="47.83733" lon="7.11852">
        <ele>810</ele>
        <time>2020-03-08T08:47:47.000Z</time>
      </trkpt>
      <trkpt lat="47.83742" lon="7.11873">
        <ele>810</ele>
        <time>2020-03-08T08:47:54.000Z</time>
      </trkpt>
      <trkpt lat="47.83743" lon="7.11876">
        <ele>810.40002441406</ele>
        <time>2020-03-08T08:47:55.000Z</time>
      </trkpt>
      <trkpt lat="47.83743" lon="7.11881">
        <ele>810.79998779297</ele>
        <time>2020-03-08T08:47:56.000Z</time>
      </trkpt>
      <trkpt lat="47.83745" lon="7.11884">
        <ele>811.20001220703</ele>
        <time>2020-03-08T08:47:57.000Z</time>
      </trkpt>
      <trkpt lat="47.83745" lon="7.11888">
        <ele>811.79998779297</ele>
        <time>2020-03-08T08:47:58.000Z</time>
      </trkpt>
      <trkpt lat="47.83747" lon="7.11892">
        <ele>812.20001220703</ele>
        <time>2020-03-08T08:47:59.000Z</time>
      </trkpt>
      <trkpt lat="47.83748" lon="7.11896">
        <ele>812.20001220703</ele>
        <time>2020-03-08T08:48:00.000Z</time>
      </trkpt>
      <trkpt lat="47.83757" lon="7.11918">
        <ele>812.20001220703</ele>
        <time>2020-03-08T08:48:06.000Z</time>
      </trkpt>
      <trkpt lat="47.83767" lon="7.11937">
        <ele>812.20001220703</ele>
        <time>2020-03-08T08:48:13.000Z</time>
      </trkpt>
      <trkpt lat="47.83778" lon="7.11941">
        <ele>812.59997558594</ele>
        <time>2020-03-08T08:48:18.000Z</time>
      </trkpt>
      <trkpt lat="47.8378" lon="7.11942">
        <ele>813</ele>
        <time>2020-03-08T08:48:19.000Z</time>
      </trkpt>
      <trkpt lat="47.83783" lon="7.11942">
        <ele>813.79998779297</ele>
        <time>2020-03-08T08:48:20.000Z</time>
      </trkpt>
      <trkpt lat="47.83786" lon="7.11942">
        <ele>814.40002441406</ele>
        <time>2020-03-08T08:48:21.000Z</time>
      </trkpt>
      <trkpt lat="47.83792" lon="7.11943">
        <ele>814.40002441406</ele>
        <time>2020-03-08T08:48:24.000Z</time>
      </trkpt>
      <trkpt lat="47.83807" lon="7.11939">
        <ele>814.40002441406</ele>
        <time>2020-03-08T08:48:30.000Z</time>
      </trkpt>
      <trkpt lat="47.83809" lon="7.11939">
        <ele>814.79998779297</ele>
        <time>2020-03-08T08:48:31.000Z</time>
      </trkpt>
      <trkpt lat="47.83813" lon="7.11938">
        <ele>815.20001220703</ele>
        <time>2020-03-08T08:48:32.000Z</time>
      </trkpt>
      <trkpt lat="47.83815" lon="7.11938">
        <ele>815.59997558594</ele>
        <time>2020-03-08T08:48:33.000Z</time>
      </trkpt>
      <trkpt lat="47.83817" lon="7.11938">
        <ele>816</ele>
        <time>2020-03-08T08:48:34.000Z</time>
      </trkpt>
      <trkpt lat="47.8382" lon="7.11939">
        <ele>816.40002441406</ele>
        <time>2020-03-08T08:48:35.000Z</time>
      </trkpt>
      <trkpt lat="47.8383" lon="7.11941">
        <ele>816.40002441406</ele>
        <time>2020-03-08T08:48:39.000Z</time>
      </trkpt>
      <trkpt lat="47.83841" lon="7.11941">
        <ele>816.79998779297</ele>
        <time>2020-03-08T08:48:44.000Z</time>
      </trkpt>
      <trkpt lat="47.83843" lon="7.11941">
        <ele>817.59997558594</ele>
        <time>2020-03-08T08:48:45.000Z</time>
      </trkpt>
      <trkpt lat="47.83847" lon="7.11939">
        <ele>818.20001220703</ele>
        <time>2020-03-08T08:48:46.000Z</time>
      </trkpt>
      <trkpt lat="47.8385" lon="7.11938">
        <ele>818.59997558594</ele>
        <time>2020-03-08T08:48:47.000Z</time>
      </trkpt>
      <trkpt lat="47.83857" lon="7.11933">
        <ele>818.59997558594</ele>
        <time>2020-03-08T08:48:50.000Z</time>
      </trkpt>
      <trkpt lat="47.8386" lon="7.11931">
        <ele>819</ele>
        <time>2020-03-08T08:48:51.000Z</time>
      </trkpt>
      <trkpt lat="47.83861" lon="7.11928">
        <ele>819.40002441406</ele>
        <time>2020-03-08T08:48:52.000Z</time>
      </trkpt>
      <trkpt lat="47.83863" lon="7.11926">
        <ele>819.79998779297</ele>
        <time>2020-03-08T08:48:53.000Z</time>
      </trkpt>
      <trkpt lat="47.83866" lon="7.11923">
        <ele>820.20001220703</ele>
        <time>2020-03-08T08:48:54.000Z</time>
      </trkpt>
      <trkpt lat="47.83868" lon="7.1192">
        <ele>820.79998779297</ele>
        <time>2020-03-08T08:48:55.000Z</time>
      </trkpt>
      <trkpt lat="47.83869" lon="7.11917">
        <ele>820.79998779297</ele>
        <time>2020-03-08T08:48:56.000Z</time>
      </trkpt>
      <trkpt lat="47.8387" lon="7.11915">
        <ele>821.20001220703</ele>
        <time>2020-03-08T08:48:57.000Z</time>
      </trkpt>
      <trkpt lat="47.83871" lon="7.11913">
        <ele>821.59997558594</ele>
        <time>2020-03-08T08:48:58.000Z</time>
      </trkpt>
      <trkpt lat="47.83873" lon="7.11911">
        <ele>822</ele>
        <time>2020-03-08T08:48:59.000Z</time>
      </trkpt>
      <trkpt lat="47.83874" lon="7.11908">
        <ele>822.40002441406</ele>
        <time>2020-03-08T08:49:00.000Z</time>
      </trkpt>
      <trkpt lat="47.83875" lon="7.11905">
        <ele>822.79998779297</ele>
        <time>2020-03-08T08:49:01.000Z</time>
      </trkpt>
      <trkpt lat="47.83877" lon="7.11897">
        <ele>822.79998779297</ele>
        <time>2020-03-08T08:49:04.000Z</time>
      </trkpt>
      <trkpt lat="47.83878" lon="7.11895">
        <ele>823.40002441406</ele>
        <time>2020-03-08T08:49:05.000Z</time>
      </trkpt>
      <trkpt lat="47.83879" lon="7.11893">
        <ele>823.79998779297</ele>
        <time>2020-03-08T08:49:06.000Z</time>
      </trkpt>
      <trkpt lat="47.8388" lon="7.11891">
        <ele>824.40002441406</ele>
        <time>2020-03-08T08:49:07.000Z</time>
      </trkpt>
      <trkpt lat="47.83882" lon="7.1189">
        <ele>824.79998779297</ele>
        <time>2020-03-08T08:49:08.000Z</time>
      </trkpt>
      <trkpt lat="47.83883" lon="7.11887">
        <ele>825.20001220703</ele>
        <time>2020-03-08T08:49:09.000Z</time>
      </trkpt>
      <trkpt lat="47.83884" lon="7.11883">
        <ele>825.59997558594</ele>
        <time>2020-03-08T08:49:11.000Z</time>
      </trkpt>
      <trkpt lat="47.83885" lon="7.11881">
        <ele>826.20001220703</ele>
        <time>2020-03-08T08:49:12.000Z</time>
      </trkpt>
      <trkpt lat="47.83886" lon="7.11878">
        <ele>826.59997558594</ele>
        <time>2020-03-08T08:49:13.000Z</time>
      </trkpt>
      <trkpt lat="47.83886" lon="7.11875">
        <ele>827</ele>
        <time>2020-03-08T08:49:14.000Z</time>
      </trkpt>
      <trkpt lat="47.83886" lon="7.11872">
        <ele>827.59997558594</ele>
        <time>2020-03-08T08:49:15.000Z</time>
      </trkpt>
      <trkpt lat="47.83887" lon="7.11866">
        <ele>828</ele>
        <time>2020-03-08T08:49:18.000Z</time>
      </trkpt>
      <trkpt lat="47.83888" lon="7.11862">
        <ele>828.59997558594</ele>
        <time>2020-03-08T08:49:19.000Z</time>
      </trkpt>
      <trkpt lat="47.83889" lon="7.11859">
        <ele>829</ele>
        <time>2020-03-08T08:49:20.000Z</time>
      </trkpt>
      <trkpt lat="47.83889" lon="7.11856">
        <ele>829.40002441406</ele>
        <time>2020-03-08T08:49:21.000Z</time>
      </trkpt>
      <trkpt lat="47.8389" lon="7.11853">
        <ele>830</ele>
        <time>2020-03-08T08:49:22.000Z</time>
      </trkpt>
      <trkpt lat="47.83891" lon="7.11847">
        <ele>830.40002441406</ele>
        <time>2020-03-08T08:49:24.000Z</time>
      </trkpt>
      <trkpt lat="47.83892" lon="7.11845">
        <ele>830.79998779297</ele>
        <time>2020-03-08T08:49:25.000Z</time>
      </trkpt>
      <trkpt lat="47.83892" lon="7.11843">
        <ele>831.20001220703</ele>
        <time>2020-03-08T08:49:26.000Z</time>
      </trkpt>
      <trkpt lat="47.83893" lon="7.11841">
        <ele>831.59997558594</ele>
        <time>2020-03-08T08:49:27.000Z</time>
      </trkpt>
      <trkpt lat="47.83893" lon="7.11839">
        <ele>832.20001220703</ele>
        <time>2020-03-08T08:49:28.000Z</time>
      </trkpt>
      <trkpt lat="47.83895" lon="7.11833">
        <ele>832.59997558594</ele>
        <time>2020-03-08T08:49:30.000Z</time>
      </trkpt>
      <trkpt lat="47.83895" lon="7.11831">
        <ele>833</ele>
        <time>2020-03-08T08:49:31.000Z</time>
      </trkpt>
      <trkpt lat="47.83896" lon="7.11828">
        <ele>833.40002441406</ele>
        <time>2020-03-08T08:49:32.000Z</time>
      </trkpt>
      <trkpt lat="47.83897" lon="7.11826">
        <ele>833.79998779297</ele>
        <time>2020-03-08T08:49:33.000Z</time>
      </trkpt>
      <trkpt lat="47.83897" lon="7.11822">
        <ele>834.40002441406</ele>
        <time>2020-03-08T08:49:34.000Z</time>
      </trkpt>
      <trkpt lat="47.839" lon="7.11814">
        <ele>834.79998779297</ele>
        <time>2020-03-08T08:49:37.000Z</time>
      </trkpt>
      <trkpt lat="47.839" lon="7.11811">
        <ele>835.20001220703</ele>
        <time>2020-03-08T08:49:38.000Z</time>
      </trkpt>
      <trkpt lat="47.83901" lon="7.11807">
        <ele>835.59997558594</ele>
        <time>2020-03-08T08:49:39.000Z</time>
      </trkpt>
      <trkpt lat="47.83901" lon="7.11805">
        <ele>836</ele>
        <time>2020-03-08T08:49:40.000Z</time>
      </trkpt>
      <trkpt lat="47.83901" lon="7.11801">
        <ele>836.40002441406</ele>
        <time>2020-03-08T08:49:41.000Z</time>
      </trkpt>
      <trkpt lat="47.83899" lon="7.11793">
        <ele>836.79998779297</ele>
        <time>2020-03-08T08:49:44.000Z</time>
      </trkpt>
      <trkpt lat="47.83899" lon="7.1179">
        <ele>837.40002441406</ele>
        <time>2020-03-08T08:49:45.000Z</time>
      </trkpt>
      <trkpt lat="47.83898" lon="7.11787">
        <ele>837.79998779297</ele>
        <time>2020-03-08T08:49:46.000Z</time>
      </trkpt>
      <trkpt lat="47.83898" lon="7.11785">
        <ele>838.20001220703</ele>
        <time>2020-03-08T08:49:47.000Z</time>
      </trkpt>
      <trkpt lat="47.83898" lon="7.11782">
        <ele>838.59997558594</ele>
        <time>2020-03-08T08:49:48.000Z</time>
      </trkpt>
      <trkpt lat="47.83897" lon="7.11773">
        <ele>839</ele>
        <time>2020-03-08T08:49:51.000Z</time>
      </trkpt>
      <trkpt lat="47.83896" lon="7.1177">
        <ele>839.40002441406</ele>
        <time>2020-03-08T08:49:52.000Z</time>
      </trkpt>
      <trkpt lat="47.83896" lon="7.11768">
        <ele>839.79998779297</ele>
        <time>2020-03-08T08:49:53.000Z</time>
      </trkpt>
      <trkpt lat="47.83895" lon="7.11765">
        <ele>840.20001220703</ele>
        <time>2020-03-08T08:49:54.000Z</time>
      </trkpt>
      <trkpt lat="47.83895" lon="7.11761">
        <ele>840.59997558594</ele>
        <time>2020-03-08T08:49:55.000Z</time>
      </trkpt>
      <trkpt lat="47.83897" lon="7.1175">
        <ele>841.20001220703</ele>
        <time>2020-03-08T08:49:59.000Z</time>
      </trkpt>
      <trkpt lat="47.83898" lon="7.11747">
        <ele>841.59997558594</ele>
        <time>2020-03-08T08:50:00.000Z</time>
      </trkpt>
      <trkpt lat="47.83898" lon="7.11744">
        <ele>842</ele>
        <time>2020-03-08T08:50:01.000Z</time>
      </trkpt>
      <trkpt lat="47.83899" lon="7.11741">
        <ele>842.40002441406</ele>
        <time>2020-03-08T08:50:02.000Z</time>
      </trkpt>
      <trkpt lat="47.83899" lon="7.11738">
        <ele>843</ele>
        <time>2020-03-08T08:50:03.000Z</time>
      </trkpt>
      <trkpt lat="47.83902" lon="7.11731">
        <ele>843.40002441406</ele>
        <time>2020-03-08T08:50:06.000Z</time>
      </trkpt>
      <trkpt lat="47.83903" lon="7.11728">
        <ele>843.79998779297</ele>
        <time>2020-03-08T08:50:07.000Z</time>
      </trkpt>
      <trkpt lat="47.83904" lon="7.11726">
        <ele>844.20001220703</ele>
        <time>2020-03-08T08:50:08.000Z</time>
      </trkpt>
      <trkpt lat="47.83905" lon="7.11723">
        <ele>844.59997558594</ele>
        <time>2020-03-08T08:50:09.000Z</time>
      </trkpt>
      <trkpt lat="47.83906" lon="7.1172">
        <ele>845.20001220703</ele>
        <time>2020-03-08T08:50:10.000Z</time>
      </trkpt>
      <trkpt lat="47.83907" lon="7.11717">
        <ele>845.59997558594</ele>
        <time>2020-03-08T08:50:11.000Z</time>
      </trkpt>
      <trkpt lat="47.83908" lon="7.11715">
        <ele>846</ele>
        <time>2020-03-08T08:50:12.000Z</time>
      </trkpt>
      <trkpt lat="47.83909" lon="7.11712">
        <ele>846.40002441406</ele>
        <time>2020-03-08T08:50:13.000Z</time>
      </trkpt>
      <trkpt lat="47.83911" lon="7.11709">
        <ele>847</ele>
        <time>2020-03-08T08:50:14.000Z</time>
      </trkpt>
      <trkpt lat="47.83912" lon="7.11706">
        <ele>847.40002441406</ele>
        <time>2020-03-08T08:50:15.000Z</time>
      </trkpt>
      <trkpt lat="47.83915" lon="7.11699">
        <ele>847.79998779297</ele>
        <time>2020-03-08T08:50:17.000Z</time>
      </trkpt>
      <trkpt lat="47.83917" lon="7.11696">
        <ele>848.40002441406</ele>
        <time>2020-03-08T08:50:18.000Z</time>
      </trkpt>
      <trkpt lat="47.83918" lon="7.11693">
        <ele>848.79998779297</ele>
        <time>2020-03-08T08:50:19.000Z</time>
      </trkpt>
      <trkpt lat="47.83919" lon="7.1169">
        <ele>849.20001220703</ele>
        <time>2020-03-08T08:50:20.000Z</time>
      </trkpt>
      <trkpt lat="47.83919" lon="7.11687">
        <ele>849.59997558594</ele>
        <time>2020-03-08T08:50:21.000Z</time>
      </trkpt>
      <trkpt lat="47.83921" lon="7.11681">
        <ele>850.59997558594</ele>
        <time>2020-03-08T08:50:24.000Z</time>
      </trkpt>
      <trkpt lat="47.83921" lon="7.11678">
        <ele>851</ele>
        <time>2020-03-08T08:50:25.000Z</time>
      </trkpt>
      <trkpt lat="47.83922" lon="7.11675">
        <ele>851.40002441406</ele>
        <time>2020-03-08T08:50:26.000Z</time>
      </trkpt>
      <trkpt lat="47.83923" lon="7.11672">
        <ele>851.79998779297</ele>
        <time>2020-03-08T08:50:27.000Z</time>
      </trkpt>
      <trkpt lat="47.83927" lon="7.11664">
        <ele>852.20001220703</ele>
        <time>2020-03-08T08:50:30.000Z</time>
      </trkpt>
      <trkpt lat="47.83928" lon="7.11662">
        <ele>852.79998779297</ele>
        <time>2020-03-08T08:50:31.000Z</time>
      </trkpt>
      <trkpt lat="47.83929" lon="7.11659">
        <ele>853.20001220703</ele>
        <time>2020-03-08T08:50:32.000Z</time>
      </trkpt>
      <trkpt lat="47.83931" lon="7.11657">
        <ele>853.59997558594</ele>
        <time>2020-03-08T08:50:33.000Z</time>
      </trkpt>
      <trkpt lat="47.83932" lon="7.11654">
        <ele>854</ele>
        <time>2020-03-08T08:50:34.000Z</time>
      </trkpt>
      <trkpt lat="47.83937" lon="7.11642">
        <ele>854</ele>
        <time>2020-03-08T08:50:38.000Z</time>
      </trkpt>
      <trkpt lat="47.83938" lon="7.11639">
        <ele>854.59997558594</ele>
        <time>2020-03-08T08:50:39.000Z</time>
      </trkpt>
      <trkpt lat="47.8394" lon="7.11636">
        <ele>855</ele>
        <time>2020-03-08T08:50:40.000Z</time>
      </trkpt>
      <trkpt lat="47.83942" lon="7.11633">
        <ele>855.40002441406</ele>
        <time>2020-03-08T08:50:41.000Z</time>
      </trkpt>
      <trkpt lat="47.83943" lon="7.11631">
        <ele>855.79998779297</ele>
        <time>2020-03-08T08:50:42.000Z</time>
      </trkpt>
      <trkpt lat="47.83945" lon="7.11628">
        <ele>856.20001220703</ele>
        <time>2020-03-08T08:50:43.000Z</time>
      </trkpt>
      <trkpt lat="47.83951" lon="7.11614">
        <ele>856.79998779297</ele>
        <time>2020-03-08T08:50:48.000Z</time>
      </trkpt>
      <trkpt lat="47.83952" lon="7.11611">
        <ele>857.20001220703</ele>
        <time>2020-03-08T08:50:49.000Z</time>
      </trkpt>
      <trkpt lat="47.83953" lon="7.11609">
        <ele>857.59997558594</ele>
        <time>2020-03-08T08:50:50.000Z</time>
      </trkpt>
      <trkpt lat="47.83954" lon="7.11607">
        <ele>858</ele>
        <time>2020-03-08T08:50:51.000Z</time>
      </trkpt>
      <trkpt lat="47.83954" lon="7.11606">
        <ele>858.40002441406</ele>
        <time>2020-03-08T08:50:52.000Z</time>
      </trkpt>
      <trkpt lat="47.83958" lon="7.11597">
        <ele>858.40002441406</ele>
        <time>2020-03-08T08:50:55.000Z</time>
      </trkpt>
      <trkpt lat="47.83963" lon="7.11589">
        <ele>859</ele>
        <time>2020-03-08T08:50:58.000Z</time>
      </trkpt>
      <trkpt lat="47.83964" lon="7.11586">
        <ele>859.40002441406</ele>
        <time>2020-03-08T08:50:59.000Z</time>
      </trkpt>
      <trkpt lat="47.83965" lon="7.11583">
        <ele>859.79998779297</ele>
        <time>2020-03-08T08:51:00.000Z</time>
      </trkpt>
      <trkpt lat="47.83967" lon="7.1158">
        <ele>860.20001220703</ele>
        <time>2020-03-08T08:51:01.000Z</time>
      </trkpt>
      <trkpt lat="47.83967" lon="7.11578">
        <ele>860.59997558594</ele>
        <time>2020-03-08T08:51:02.000Z</time>
      </trkpt>
      <trkpt lat="47.8398" lon="7.11559">
        <ele>860.59997558594</ele>
        <time>2020-03-08T08:51:08.000Z</time>
      </trkpt>
      <trkpt lat="47.83993" lon="7.11533">
        <ele>860.59997558594</ele>
        <time>2020-03-08T08:51:15.000Z</time>
      </trkpt>
      <trkpt lat="47.84" lon="7.11517">
        <ele>860.59997558594</ele>
        <time>2020-03-08T08:51:20.000Z</time>
      </trkpt>
      <trkpt lat="47.84007" lon="7.11508">
        <ele>861</ele>
        <time>2020-03-08T08:51:24.000Z</time>
      </trkpt>
      <trkpt lat="47.84009" lon="7.11505">
        <ele>861.40002441406</ele>
        <time>2020-03-08T08:51:25.000Z</time>
      </trkpt>
      <trkpt lat="47.84011" lon="7.11501">
        <ele>861.79998779297</ele>
        <time>2020-03-08T08:51:26.000Z</time>
      </trkpt>
      <trkpt lat="47.84013" lon="7.11498">
        <ele>862.20001220703</ele>
        <time>2020-03-08T08:51:27.000Z</time>
      </trkpt>
      <trkpt lat="47.84018" lon="7.11491">
        <ele>862.59997558594</ele>
        <time>2020-03-08T08:51:28.000Z</time>
      </trkpt>
      <trkpt lat="47.84023" lon="7.11486">
        <ele>862.59997558594</ele>
        <time>2020-03-08T08:51:30.000Z</time>
      </trkpt>
      <trkpt lat="47.84034" lon="7.1148">
        <ele>862.59997558594</ele>
        <time>2020-03-08T08:51:33.000Z</time>
      </trkpt>
      <trkpt lat="47.84051" lon="7.11469">
        <ele>863.20001220703</ele>
        <time>2020-03-08T08:51:39.000Z</time>
      </trkpt>
      <trkpt lat="47.84053" lon="7.11468">
        <ele>863.59997558594</ele>
        <time>2020-03-08T08:51:40.000Z</time>
      </trkpt>
      <trkpt lat="47.84056" lon="7.11466">
        <ele>864</ele>
        <time>2020-03-08T08:51:41.000Z</time>
      </trkpt>
      <trkpt lat="47.84057" lon="7.11464">
        <ele>864.59997558594</ele>
        <time>2020-03-08T08:51:42.000Z</time>
      </trkpt>
      <trkpt lat="47.84063" lon="7.11461">
        <ele>865</ele>
        <time>2020-03-08T08:51:43.000Z</time>
      </trkpt>
      <trkpt lat="47.84069" lon="7.11458">
        <ele>865</ele>
        <time>2020-03-08T08:51:45.000Z</time>
      </trkpt>
      <trkpt lat="47.84079" lon="7.11449">
        <ele>865.40002441406</ele>
        <time>2020-03-08T08:51:50.000Z</time>
      </trkpt>
      <trkpt lat="47.84087" lon="7.11446">
        <ele>865.79998779297</ele>
        <time>2020-03-08T08:51:51.000Z</time>
      </trkpt>
      <trkpt lat="47.8409" lon="7.11444">
        <ele>866.20001220703</ele>
        <time>2020-03-08T08:51:52.000Z</time>
      </trkpt>
      <trkpt lat="47.84093" lon="7.11442">
        <ele>866.59997558594</ele>
        <time>2020-03-08T08:51:53.000Z</time>
      </trkpt>
      <trkpt lat="47.84095" lon="7.11441">
        <ele>867</ele>
        <time>2020-03-08T08:51:54.000Z</time>
      </trkpt>
      <trkpt lat="47.84101" lon="7.11439">
        <ele>867.40002441406</ele>
        <time>2020-03-08T08:51:56.000Z</time>
      </trkpt>
      <trkpt lat="47.84102" lon="7.11439">
        <ele>867.79998779297</ele>
        <time>2020-03-08T08:51:57.000Z</time>
      </trkpt>
      <trkpt lat="47.84105" lon="7.11436">
        <ele>868.20001220703</ele>
        <time>2020-03-08T08:51:58.000Z</time>
      </trkpt>
      <trkpt lat="47.84108" lon="7.11435">
        <ele>868.59997558594</ele>
        <time>2020-03-08T08:51:59.000Z</time>
      </trkpt>
      <trkpt lat="47.8411" lon="7.11434">
        <ele>869</ele>
        <time>2020-03-08T08:52:00.000Z</time>
      </trkpt>
      <trkpt lat="47.84114" lon="7.11433">
        <ele>869</ele>
        <time>2020-03-08T08:52:02.000Z</time>
      </trkpt>
      <trkpt lat="47.84129" lon="7.11437">
        <ele>869</ele>
        <time>2020-03-08T08:52:08.000Z</time>
      </trkpt>
      <trkpt lat="47.8414" lon="7.11445">
        <ele>869</ele>
        <time>2020-03-08T08:52:13.000Z</time>
      </trkpt>
      <trkpt lat="47.84147" lon="7.1145">
        <ele>869</ele>
        <time>2020-03-08T08:52:19.000Z</time>
      </trkpt>
      <trkpt lat="47.8415" lon="7.11456">
        <ele>869</ele>
        <time>2020-03-08T08:52:21.000Z</time>
      </trkpt>
      <trkpt lat="47.84153" lon="7.1146">
        <ele>869</ele>
        <time>2020-03-08T08:52:24.000Z</time>
      </trkpt>
      <trkpt lat="47.84154" lon="7.11462">
        <ele>869.40002441406</ele>
        <time>2020-03-08T08:52:26.000Z</time>
      </trkpt>
      <trkpt lat="47.84155" lon="7.11463">
        <ele>870.20001220703</ele>
        <time>2020-03-08T08:52:27.000Z</time>
      </trkpt>
      <trkpt lat="47.84157" lon="7.11466">
        <ele>870.79998779297</ele>
        <time>2020-03-08T08:52:28.000Z</time>
      </trkpt>
      <trkpt lat="47.84159" lon="7.11467">
        <ele>871.20001220703</ele>
        <time>2020-03-08T08:52:29.000Z</time>
      </trkpt>
      <trkpt lat="47.84161" lon="7.1147">
        <ele>871.20001220703</ele>
        <time>2020-03-08T08:52:30.000Z</time>
      </trkpt>
      <trkpt lat="47.84173" lon="7.11482">
        <ele>871.20001220703</ele>
        <time>2020-03-08T08:52:35.000Z</time>
      </trkpt>
      <trkpt lat="47.84187" lon="7.11492">
        <ele>871.20001220703</ele>
        <time>2020-03-08T08:52:41.000Z</time>
      </trkpt>
      <trkpt lat="47.8419" lon="7.11494">
        <ele>871.59997558594</ele>
        <time>2020-03-08T08:52:42.000Z</time>
      </trkpt>
      <trkpt lat="47.84192" lon="7.11496">
        <ele>872</ele>
        <time>2020-03-08T08:52:43.000Z</time>
      </trkpt>
      <trkpt lat="47.84193" lon="7.11498">
        <ele>872.40002441406</ele>
        <time>2020-03-08T08:52:44.000Z</time>
      </trkpt>
      <trkpt lat="47.84195" lon="7.11501">
        <ele>872.79998779297</ele>
        <time>2020-03-08T08:52:45.000Z</time>
      </trkpt>
      <trkpt lat="47.84197" lon="7.11504">
        <ele>873.20001220703</ele>
        <time>2020-03-08T08:52:46.000Z</time>
      </trkpt>
      <trkpt lat="47.84199" lon="7.11508">
        <ele>873.20001220703</ele>
        <time>2020-03-08T08:52:47.000Z</time>
      </trkpt>
      <trkpt lat="47.84209" lon="7.11522">
        <ele>873.20001220703</ele>
        <time>2020-03-08T08:52:52.000Z</time>
      </trkpt>
      <trkpt lat="47.84214" lon="7.11527">
        <ele>873.59997558594</ele>
        <time>2020-03-08T08:52:54.000Z</time>
      </trkpt>
      <trkpt lat="47.84215" lon="7.11529">
        <ele>874</ele>
        <time>2020-03-08T08:52:55.000Z</time>
      </trkpt>
      <trkpt lat="47.84218" lon="7.11532">
        <ele>874.40002441406</ele>
        <time>2020-03-08T08:52:56.000Z</time>
      </trkpt>
      <trkpt lat="47.8422" lon="7.11534">
        <ele>874.79998779297</ele>
        <time>2020-03-08T08:52:57.000Z</time>
      </trkpt>
      <trkpt lat="47.84223" lon="7.11537">
        <ele>875.20001220703</ele>
        <time>2020-03-08T08:52:58.000Z</time>
      </trkpt>
      <trkpt lat="47.84225" lon="7.11538">
        <ele>875.20001220703</ele>
        <time>2020-03-08T08:52:59.000Z</time>
      </trkpt>
      <trkpt lat="47.84231" lon="7.11543">
        <ele>875.59997558594</ele>
        <time>2020-03-08T08:53:03.000Z</time>
      </trkpt>
      <trkpt lat="47.84233" lon="7.11545">
        <ele>876</ele>
        <time>2020-03-08T08:53:04.000Z</time>
      </trkpt>
      <trkpt lat="47.84234" lon="7.11548">
        <ele>876.40002441406</ele>
        <time>2020-03-08T08:53:05.000Z</time>
      </trkpt>
      <trkpt lat="47.84237" lon="7.11551">
        <ele>876.79998779297</ele>
        <time>2020-03-08T08:53:06.000Z</time>
      </trkpt>
      <trkpt lat="47.84239" lon="7.11553">
        <ele>877.40002441406</ele>
        <time>2020-03-08T08:53:07.000Z</time>
      </trkpt>
      <trkpt lat="47.84245" lon="7.11558">
        <ele>877.40002441406</ele>
        <time>2020-03-08T08:53:11.000Z</time>
      </trkpt>
      <trkpt lat="47.84248" lon="7.11561">
        <ele>877.79998779297</ele>
        <time>2020-03-08T08:53:13.000Z</time>
      </trkpt>
      <trkpt lat="47.84249" lon="7.11562">
        <ele>878.20001220703</ele>
        <time>2020-03-08T08:53:14.000Z</time>
      </trkpt>
      <trkpt lat="47.84251" lon="7.11563">
        <ele>878.59997558594</ele>
        <time>2020-03-08T08:53:15.000Z</time>
      </trkpt>
      <trkpt lat="47.84253" lon="7.11566">
        <ele>879</ele>
        <time>2020-03-08T08:53:16.000Z</time>
      </trkpt>
      <trkpt lat="47.84257" lon="7.11568">
        <ele>879.40002441406</ele>
        <time>2020-03-08T08:53:17.000Z</time>
      </trkpt>
      <trkpt lat="47.8426" lon="7.1157">
        <ele>879.40002441406</ele>
        <time>2020-03-08T08:53:18.000Z</time>
      </trkpt>
      <trkpt lat="47.84276" lon="7.11576">
        <ele>879.79998779297</ele>
        <time>2020-03-08T08:53:22.000Z</time>
      </trkpt>
      <trkpt lat="47.84279" lon="7.11578">
        <ele>880.40002441406</ele>
        <time>2020-03-08T08:53:23.000Z</time>
      </trkpt>
      <trkpt lat="47.84282" lon="7.1158">
        <ele>880.79998779297</ele>
        <time>2020-03-08T08:53:24.000Z</time>
      </trkpt>
      <trkpt lat="47.84284" lon="7.11582">
        <ele>881.20001220703</ele>
        <time>2020-03-08T08:53:25.000Z</time>
      </trkpt>
      <trkpt lat="47.84286" lon="7.11584">
        <ele>881.59997558594</ele>
        <time>2020-03-08T08:53:26.000Z</time>
      </trkpt>
      <trkpt lat="47.84292" lon="7.11595">
        <ele>882</ele>
        <time>2020-03-08T08:53:30.000Z</time>
      </trkpt>
      <trkpt lat="47.84293" lon="7.11596">
        <ele>882.59997558594</ele>
        <time>2020-03-08T08:53:31.000Z</time>
      </trkpt>
      <trkpt lat="47.84295" lon="7.11598">
        <ele>883</ele>
        <time>2020-03-08T08:53:32.000Z</time>
      </trkpt>
      <trkpt lat="47.84296" lon="7.11599">
        <ele>883.40002441406</ele>
        <time>2020-03-08T08:53:33.000Z</time>
      </trkpt>
      <trkpt lat="47.84298" lon="7.11601">
        <ele>883.79998779297</ele>
        <time>2020-03-08T08:53:34.000Z</time>
      </trkpt>
      <trkpt lat="47.84304" lon="7.11609">
        <ele>883.79998779297</ele>
        <time>2020-03-08T08:53:37.000Z</time>
      </trkpt>
      <trkpt lat="47.8431" lon="7.11616">
        <ele>884.20001220703</ele>
        <time>2020-03-08T08:53:40.000Z</time>
      </trkpt>
      <trkpt lat="47.84313" lon="7.11617">
        <ele>884.59997558594</ele>
        <time>2020-03-08T08:53:41.000Z</time>
      </trkpt>
      <trkpt lat="47.84315" lon="7.11618">
        <ele>885.40002441406</ele>
        <time>2020-03-08T08:53:42.000Z</time>
      </trkpt>
      <trkpt lat="47.84317" lon="7.11619">
        <ele>885.79998779297</ele>
        <time>2020-03-08T08:53:43.000Z</time>
      </trkpt>
      <trkpt lat="47.84319" lon="7.1162">
        <ele>885.79998779297</ele>
        <time>2020-03-08T08:53:44.000Z</time>
      </trkpt>
      <trkpt lat="47.84325" lon="7.11626">
        <ele>886.20001220703</ele>
        <time>2020-03-08T08:53:47.000Z</time>
      </trkpt>
      <trkpt lat="47.84328" lon="7.11627">
        <ele>886.59997558594</ele>
        <time>2020-03-08T08:53:48.000Z</time>
      </trkpt>
      <trkpt lat="47.8433" lon="7.11629">
        <ele>887.20001220703</ele>
        <time>2020-03-08T08:53:49.000Z</time>
      </trkpt>
      <trkpt lat="47.84332" lon="7.11631">
        <ele>887.59997558594</ele>
        <time>2020-03-08T08:53:50.000Z</time>
      </trkpt>
      <trkpt lat="47.84334" lon="7.11634">
        <ele>888</ele>
        <time>2020-03-08T08:53:51.000Z</time>
      </trkpt>
      <trkpt lat="47.84349" lon="7.11652">
        <ele>888</ele>
        <time>2020-03-08T08:53:58.000Z</time>
      </trkpt>
      <trkpt lat="47.84359" lon="7.11669">
        <ele>888</ele>
        <time>2020-03-08T08:54:03.000Z</time>
      </trkpt>
      <trkpt lat="47.84373" lon="7.11682">
        <ele>888.40002441406</ele>
        <time>2020-03-08T08:54:08.000Z</time>
      </trkpt>
      <trkpt lat="47.84375" lon="7.11684">
        <ele>888.79998779297</ele>
        <time>2020-03-08T08:54:09.000Z</time>
      </trkpt>
      <trkpt lat="47.84378" lon="7.11684">
        <ele>889.20001220703</ele>
        <time>2020-03-08T08:54:10.000Z</time>
      </trkpt>
      <trkpt lat="47.84381" lon="7.11685">
        <ele>889.59997558594</ele>
        <time>2020-03-08T08:54:11.000Z</time>
      </trkpt>
      <trkpt lat="47.84382" lon="7.11684">
        <ele>890</ele>
        <time>2020-03-08T08:54:12.000Z</time>
      </trkpt>
      <trkpt lat="47.84388" lon="7.11684">
        <ele>890</ele>
        <time>2020-03-08T08:54:15.000Z</time>
      </trkpt>
      <trkpt lat="47.84406" lon="7.11682">
        <ele>890</ele>
        <time>2020-03-08T08:54:22.000Z</time>
      </trkpt>
      <trkpt lat="47.84426" lon="7.11681">
        <ele>890</ele>
        <time>2020-03-08T08:54:28.000Z</time>
      </trkpt>
      <trkpt lat="47.84435" lon="7.1168">
        <ele>890.40002441406</ele>
        <time>2020-03-08T08:54:31.000Z</time>
      </trkpt>
      <trkpt lat="47.84438" lon="7.1168">
        <ele>890.79998779297</ele>
        <time>2020-03-08T08:54:32.000Z</time>
      </trkpt>
      <trkpt lat="47.84442" lon="7.1168">
        <ele>891.20001220703</ele>
        <time>2020-03-08T08:54:33.000Z</time>
      </trkpt>
      <trkpt lat="47.84445" lon="7.1168">
        <ele>891.59997558594</ele>
        <time>2020-03-08T08:54:34.000Z</time>
      </trkpt>
      <trkpt lat="47.84452" lon="7.11681">
        <ele>892</ele>
        <time>2020-03-08T08:54:35.000Z</time>
      </trkpt>
      <trkpt lat="47.84471" lon="7.11683">
        <ele>892</ele>
        <time>2020-03-08T08:54:40.000Z</time>
      </trkpt>
      <trkpt lat="47.84481" lon="7.11683">
        <ele>892.59997558594</ele>
        <time>2020-03-08T08:54:44.000Z</time>
      </trkpt>
      <trkpt lat="47.84484" lon="7.11683">
        <ele>893</ele>
        <time>2020-03-08T08:54:45.000Z</time>
      </trkpt>
      <trkpt lat="47.84486" lon="7.11684">
        <ele>893.40002441406</ele>
        <time>2020-03-08T08:54:46.000Z</time>
      </trkpt>
      <trkpt lat="47.84489" lon="7.11685">
        <ele>893.79998779297</ele>
        <time>2020-03-08T08:54:47.000Z</time>
      </trkpt>
      <trkpt lat="47.84492" lon="7.11685">
        <ele>894.20001220703</ele>
        <time>2020-03-08T08:54:48.000Z</time>
      </trkpt>
      <trkpt lat="47.84509" lon="7.11686">
        <ele>894.20001220703</ele>
        <time>2020-03-08T08:54:55.000Z</time>
      </trkpt>
      <trkpt lat="47.84523" lon="7.11687">
        <ele>894.20001220703</ele>
        <time>2020-03-08T08:55:01.000Z</time>
      </trkpt>
      <trkpt lat="47.84545" lon="7.11692">
        <ele>894.20001220703</ele>
        <time>2020-03-08T08:55:08.000Z</time>
      </trkpt>
      <trkpt lat="47.84559" lon="7.1169">
        <ele>894.59997558594</ele>
        <time>2020-03-08T08:55:13.000Z</time>
      </trkpt>
      <trkpt lat="47.84561" lon="7.11689">
        <ele>895</ele>
        <time>2020-03-08T08:55:14.000Z</time>
      </trkpt>
      <trkpt lat="47.84563" lon="7.11688">
        <ele>895.40002441406</ele>
        <time>2020-03-08T08:55:15.000Z</time>
      </trkpt>
      <trkpt lat="47.84564" lon="7.11688">
        <ele>895.79998779297</ele>
        <time>2020-03-08T08:55:16.000Z</time>
      </trkpt>
      <trkpt lat="47.84567" lon="7.11687">
        <ele>896.40002441406</ele>
        <time>2020-03-08T08:55:17.000Z</time>
      </trkpt>
      <trkpt lat="47.8457" lon="7.11686">
        <ele>896.40002441406</ele>
        <time>2020-03-08T08:55:18.000Z</time>
      </trkpt>
      <trkpt lat="47.84585" lon="7.11681">
        <ele>896.40002441406</ele>
        <time>2020-03-08T08:55:23.000Z</time>
      </trkpt>
      <trkpt lat="47.84587" lon="7.11681">
        <ele>896.40002441406</ele>
        <time>2020-03-08T08:55:24.000Z</time>
      </trkpt>
      <trkpt lat="47.84605" lon="7.11678">
        <ele>896.79998779297</ele>
        <time>2020-03-08T08:55:31.000Z</time>
      </trkpt>
      <trkpt lat="47.84608" lon="7.11678">
        <ele>897.20001220703</ele>
        <time>2020-03-08T08:55:32.000Z</time>
      </trkpt>
      <trkpt lat="47.84611" lon="7.11679">
        <ele>897.79998779297</ele>
        <time>2020-03-08T08:55:33.000Z</time>
      </trkpt>
      <trkpt lat="47.84614" lon="7.11679">
        <ele>898.20001220703</ele>
        <time>2020-03-08T08:55:34.000Z</time>
      </trkpt>
      <trkpt lat="47.84617" lon="7.11679">
        <ele>898.59997558594</ele>
        <time>2020-03-08T08:55:35.000Z</time>
      </trkpt>
      <trkpt lat="47.84621" lon="7.11679">
        <ele>898.59997558594</ele>
        <time>2020-03-08T08:55:37.000Z</time>
      </trkpt>
      <trkpt lat="47.84629" lon="7.11679">
        <ele>899</ele>
        <time>2020-03-08T08:55:40.000Z</time>
      </trkpt>
      <trkpt lat="47.84632" lon="7.11679">
        <ele>899.59997558594</ele>
        <time>2020-03-08T08:55:41.000Z</time>
      </trkpt>
      <trkpt lat="47.84635" lon="7.11681">
        <ele>900</ele>
        <time>2020-03-08T08:55:42.000Z</time>
      </trkpt>
      <trkpt lat="47.84639" lon="7.11682">
        <ele>900.40002441406</ele>
        <time>2020-03-08T08:55:43.000Z</time>
      </trkpt>
      <trkpt lat="47.84642" lon="7.11683">
        <ele>900.79998779297</ele>
        <time>2020-03-08T08:55:44.000Z</time>
      </trkpt>
      <trkpt lat="47.84645" lon="7.11683">
        <ele>901.20001220703</ele>
        <time>2020-03-08T08:55:45.000Z</time>
      </trkpt>
      <trkpt lat="47.84647" lon="7.11683">
        <ele>901.79998779297</ele>
        <time>2020-03-08T08:55:46.000Z</time>
      </trkpt>
      <trkpt lat="47.84657" lon="7.11685">
        <ele>902.20001220703</ele>
        <time>2020-03-08T08:55:47.000Z</time>
      </trkpt>
      <trkpt lat="47.84659" lon="7.11685">
        <ele>902.79998779297</ele>
        <time>2020-03-08T08:55:48.000Z</time>
      </trkpt>
      <trkpt lat="47.84662" lon="7.11685">
        <ele>903.20001220703</ele>
        <time>2020-03-08T08:55:49.000Z</time>
      </trkpt>
      <trkpt lat="47.84668" lon="7.11685">
        <ele>903.79998779297</ele>
        <time>2020-03-08T08:55:50.000Z</time>
      </trkpt>
      <trkpt lat="47.84669" lon="7.11685">
        <ele>904.20001220703</ele>
        <time>2020-03-08T08:55:51.000Z</time>
      </trkpt>
      <trkpt lat="47.84674" lon="7.11685">
        <ele>904.79998779297</ele>
        <time>2020-03-08T08:55:52.000Z</time>
      </trkpt>
      <trkpt lat="47.84678" lon="7.11685">
        <ele>905.20001220703</ele>
        <time>2020-03-08T08:55:53.000Z</time>
      </trkpt>
      <trkpt lat="47.84687" lon="7.11686">
        <ele>905.59997558594</ele>
        <time>2020-03-08T08:55:56.000Z</time>
      </trkpt>
      <trkpt lat="47.84691" lon="7.11687">
        <ele>906.20001220703</ele>
        <time>2020-03-08T08:55:57.000Z</time>
      </trkpt>
      <trkpt lat="47.84694" lon="7.11688">
        <ele>906.59997558594</ele>
        <time>2020-03-08T08:55:58.000Z</time>
      </trkpt>
      <trkpt lat="47.84697" lon="7.11689">
        <ele>907</ele>
        <time>2020-03-08T08:55:59.000Z</time>
      </trkpt>
      <trkpt lat="47.847" lon="7.11691">
        <ele>907.40002441406</ele>
        <time>2020-03-08T08:56:00.000Z</time>
      </trkpt>
      <trkpt lat="47.84706" lon="7.11696">
        <ele>907.40002441406</ele>
        <time>2020-03-08T08:56:02.000Z</time>
      </trkpt>
      <trkpt lat="47.84721" lon="7.11708">
        <ele>907.40002441406</ele>
        <time>2020-03-08T08:56:07.000Z</time>
      </trkpt>
      <trkpt lat="47.84724" lon="7.11711">
        <ele>907.79998779297</ele>
        <time>2020-03-08T08:56:08.000Z</time>
      </trkpt>
      <trkpt lat="47.84726" lon="7.11713">
        <ele>908.59997558594</ele>
        <time>2020-03-08T08:56:09.000Z</time>
      </trkpt>
      <trkpt lat="47.84728" lon="7.11717">
        <ele>909</ele>
        <time>2020-03-08T08:56:10.000Z</time>
      </trkpt>
      <trkpt lat="47.8473" lon="7.1172">
        <ele>909.59997558594</ele>
        <time>2020-03-08T08:56:11.000Z</time>
      </trkpt>
      <trkpt lat="47.84733" lon="7.11723">
        <ele>909.59997558594</ele>
        <time>2020-03-08T08:56:12.000Z</time>
      </trkpt>
      <trkpt lat="47.84745" lon="7.11733">
        <ele>909.59997558594</ele>
        <time>2020-03-08T08:56:17.000Z</time>
      </trkpt>
      <trkpt lat="47.84754" lon="7.11736">
        <ele>909.59997558594</ele>
        <time>2020-03-08T08:56:20.000Z</time>
      </trkpt>
      <trkpt lat="47.84758" lon="7.11739">
        <ele>909.59997558594</ele>
        <time>2020-03-08T08:56:22.000Z</time>
      </trkpt>
      <trkpt lat="47.84773" lon="7.11746">
        <ele>909.59997558594</ele>
        <time>2020-03-08T08:56:28.000Z</time>
      </trkpt>
      <trkpt lat="47.84774" lon="7.11747">
        <ele>910</ele>
        <time>2020-03-08T08:56:29.000Z</time>
      </trkpt>
      <trkpt lat="47.84776" lon="7.11747">
        <ele>910.40002441406</ele>
        <time>2020-03-08T08:56:30.000Z</time>
      </trkpt>
      <trkpt lat="47.84779" lon="7.11748">
        <ele>910.79998779297</ele>
        <time>2020-03-08T08:56:31.000Z</time>
      </trkpt>
      <trkpt lat="47.84781" lon="7.1175">
        <ele>911.20001220703</ele>
        <time>2020-03-08T08:56:32.000Z</time>
      </trkpt>
      <trkpt lat="47.84782" lon="7.11752">
        <ele>911.59997558594</ele>
        <time>2020-03-08T08:56:33.000Z</time>
      </trkpt>
      <trkpt lat="47.84785" lon="7.11753">
        <ele>911.59997558594</ele>
        <time>2020-03-08T08:56:34.000Z</time>
      </trkpt>
      <trkpt lat="47.84798" lon="7.11761">
        <ele>912</ele>
        <time>2020-03-08T08:56:39.000Z</time>
      </trkpt>
      <trkpt lat="47.84801" lon="7.11762">
        <ele>912.40002441406</ele>
        <time>2020-03-08T08:56:40.000Z</time>
      </trkpt>
      <trkpt lat="47.84803" lon="7.11763">
        <ele>913</ele>
        <time>2020-03-08T08:56:41.000Z</time>
      </trkpt>
      <trkpt lat="47.84806" lon="7.11764">
        <ele>913.40002441406</ele>
        <time>2020-03-08T08:56:42.000Z</time>
      </trkpt>
      <trkpt lat="47.84807" lon="7.11764">
        <ele>913.79998779297</ele>
        <time>2020-03-08T08:56:43.000Z</time>
      </trkpt>
      <trkpt lat="47.84816" lon="7.11769">
        <ele>913.79998779297</ele>
        <time>2020-03-08T08:56:47.000Z</time>
      </trkpt>
      <trkpt lat="47.84823" lon="7.11771">
        <ele>914.20001220703</ele>
        <time>2020-03-08T08:56:51.000Z</time>
      </trkpt>
      <trkpt lat="47.84825" lon="7.11772">
        <ele>914.59997558594</ele>
        <time>2020-03-08T08:56:52.000Z</time>
      </trkpt>
      <trkpt lat="47.84828" lon="7.11774">
        <ele>915</ele>
        <time>2020-03-08T08:56:53.000Z</time>
      </trkpt>
      <trkpt lat="47.8483" lon="7.11775">
        <ele>915.40002441406</ele>
        <time>2020-03-08T08:56:54.000Z</time>
      </trkpt>
      <trkpt lat="47.84832" lon="7.11776">
        <ele>915.79998779297</ele>
        <time>2020-03-08T08:56:55.000Z</time>
      </trkpt>
      <trkpt lat="47.84839" lon="7.11776">
        <ele>916.79998779297</ele>
        <time>2020-03-08T08:56:58.000Z</time>
      </trkpt>
      <trkpt lat="47.84841" lon="7.11776">
        <ele>917.20001220703</ele>
        <time>2020-03-08T08:56:59.000Z</time>
      </trkpt>
      <trkpt lat="47.84843" lon="7.11775">
        <ele>917.59997558594</ele>
        <time>2020-03-08T08:57:00.000Z</time>
      </trkpt>
      <trkpt lat="47.84844" lon="7.11775">
        <ele>918</ele>
        <time>2020-03-08T08:57:01.000Z</time>
      </trkpt>
      <trkpt lat="47.84845" lon="7.11775">
        <ele>918.59997558594</ele>
        <time>2020-03-08T08:57:02.000Z</time>
      </trkpt>
      <trkpt lat="47.84847" lon="7.11775">
        <ele>919</ele>
        <time>2020-03-08T08:57:03.000Z</time>
      </trkpt>
      <trkpt lat="47.84849" lon="7.11775">
        <ele>919.59997558594</ele>
        <time>2020-03-08T08:57:04.000Z</time>
      </trkpt>
      <trkpt lat="47.84852" lon="7.11776">
        <ele>920</ele>
        <time>2020-03-08T08:57:05.000Z</time>
      </trkpt>
      <trkpt lat="47.84855" lon="7.11776">
        <ele>920.40002441406</ele>
        <time>2020-03-08T08:57:06.000Z</time>
      </trkpt>
      <trkpt lat="47.84859" lon="7.11775">
        <ele>920.40002441406</ele>
        <time>2020-03-08T08:57:07.000Z</time>
      </trkpt>
      <trkpt lat="47.84863" lon="7.11771">
        <ele>920.40002441406</ele>
        <time>2020-03-08T08:57:09.000Z</time>
      </trkpt>
      <trkpt lat="47.84865" lon="7.11768">
        <ele>920.40002441406</ele>
        <time>2020-03-08T08:57:10.000Z</time>
      </trkpt>
      <trkpt lat="47.84868" lon="7.11765">
        <ele>920.40002441406</ele>
        <time>2020-03-08T08:57:12.000Z</time>
      </trkpt>
      <trkpt lat="47.84872" lon="7.11769">
        <ele>922.59997558594</ele>
        <time>2020-03-08T08:59:58.000Z</time>
      </trkpt>
      <trkpt lat="47.84874" lon="7.1177">
        <ele>922.59997558594</ele>
        <time>2020-03-08T08:59:59.000Z</time>
      </trkpt>
      <trkpt lat="47.84884" lon="7.11774">
        <ele>922.59997558594</ele>
        <time>2020-03-08T09:00:03.000Z</time>
      </trkpt>
      <trkpt lat="47.84887" lon="7.11774">
        <ele>922.59997558594</ele>
        <time>2020-03-08T09:00:04.000Z</time>
      </trkpt>
      <trkpt lat="47.84889" lon="7.11774">
        <ele>923</ele>
        <time>2020-03-08T09:00:05.000Z</time>
      </trkpt>
      <trkpt lat="47.84891" lon="7.11773">
        <ele>923.40002441406</ele>
        <time>2020-03-08T09:00:06.000Z</time>
      </trkpt>
      <trkpt lat="47.84892" lon="7.11773">
        <ele>923.79998779297</ele>
        <time>2020-03-08T09:00:07.000Z</time>
      </trkpt>
      <trkpt lat="47.84893" lon="7.11773">
        <ele>924.20001220703</ele>
        <time>2020-03-08T09:00:08.000Z</time>
      </trkpt>
      <trkpt lat="47.84894" lon="7.11774">
        <ele>924.59997558594</ele>
        <time>2020-03-08T09:00:09.000Z</time>
      </trkpt>
      <trkpt lat="47.84895" lon="7.11776">
        <ele>924.59997558594</ele>
        <time>2020-03-08T09:00:10.000Z</time>
      </trkpt>
      <trkpt lat="47.84896" lon="7.11778">
        <ele>925</ele>
        <time>2020-03-08T09:00:11.000Z</time>
      </trkpt>
      <trkpt lat="47.84897" lon="7.11781">
        <ele>925.40002441406</ele>
        <time>2020-03-08T09:00:12.000Z</time>
      </trkpt>
      <trkpt lat="47.84898" lon="7.11784">
        <ele>925.79998779297</ele>
        <time>2020-03-08T09:00:13.000Z</time>
      </trkpt>
      <trkpt lat="47.849" lon="7.11788">
        <ele>926.20001220703</ele>
        <time>2020-03-08T09:00:14.000Z</time>
      </trkpt>
      <trkpt lat="47.84902" lon="7.11792">
        <ele>926.79998779297</ele>
        <time>2020-03-08T09:00:15.000Z</time>
      </trkpt>
      <trkpt lat="47.84906" lon="7.11802">
        <ele>927.20001220703</ele>
        <time>2020-03-08T09:00:18.000Z</time>
      </trkpt>
      <trkpt lat="47.84907" lon="7.11804">
        <ele>927.59997558594</ele>
        <time>2020-03-08T09:00:19.000Z</time>
      </trkpt>
      <trkpt lat="47.84908" lon="7.11807">
        <ele>928</ele>
        <time>2020-03-08T09:00:20.000Z</time>
      </trkpt>
      <trkpt lat="47.84909" lon="7.1181">
        <ele>928.59997558594</ele>
        <time>2020-03-08T09:00:21.000Z</time>
      </trkpt>
      <trkpt lat="47.8491" lon="7.11814">
        <ele>929</ele>
        <time>2020-03-08T09:00:22.000Z</time>
      </trkpt>
      <trkpt lat="47.84913" lon="7.11821">
        <ele>929.40002441406</ele>
        <time>2020-03-08T09:00:25.000Z</time>
      </trkpt>
      <trkpt lat="47.84915" lon="7.11824">
        <ele>929.79998779297</ele>
        <time>2020-03-08T09:00:26.000Z</time>
      </trkpt>
      <trkpt lat="47.84916" lon="7.11826">
        <ele>930.20001220703</ele>
        <time>2020-03-08T09:00:27.000Z</time>
      </trkpt>
      <trkpt lat="47.84918" lon="7.11829">
        <ele>930.59997558594</ele>
        <time>2020-03-08T09:00:28.000Z</time>
      </trkpt>
      <trkpt lat="47.8492" lon="7.11831">
        <ele>931</ele>
        <time>2020-03-08T09:00:29.000Z</time>
      </trkpt>
      <trkpt lat="47.84924" lon="7.11839">
        <ele>931</ele>
        <time>2020-03-08T09:00:32.000Z</time>
      </trkpt>
      <trkpt lat="47.84926" lon="7.1184">
        <ele>931.59997558594</ele>
        <time>2020-03-08T09:00:33.000Z</time>
      </trkpt>
      <trkpt lat="47.84927" lon="7.11842">
        <ele>932</ele>
        <time>2020-03-08T09:00:34.000Z</time>
      </trkpt>
      <trkpt lat="47.84928" lon="7.11843">
        <ele>932.40002441406</ele>
        <time>2020-03-08T09:00:35.000Z</time>
      </trkpt>
      <trkpt lat="47.84931" lon="7.11845">
        <ele>932.79998779297</ele>
        <time>2020-03-08T09:00:36.000Z</time>
      </trkpt>
      <trkpt lat="47.84933" lon="7.11847">
        <ele>933.40002441406</ele>
        <time>2020-03-08T09:00:37.000Z</time>
      </trkpt>
      <trkpt lat="47.84939" lon="7.11852">
        <ele>933.79998779297</ele>
        <time>2020-03-08T09:00:40.000Z</time>
      </trkpt>
      <trkpt lat="47.84941" lon="7.11854">
        <ele>934.20001220703</ele>
        <time>2020-03-08T09:00:41.000Z</time>
      </trkpt>
      <trkpt lat="47.84943" lon="7.11856">
        <ele>934.59997558594</ele>
        <time>2020-03-08T09:00:42.000Z</time>
      </trkpt>
      <trkpt lat="47.84944" lon="7.11858">
        <ele>935</ele>
        <time>2020-03-08T09:00:43.000Z</time>
      </trkpt>
      <trkpt lat="47.84946" lon="7.1186">
        <ele>935.40002441406</ele>
        <time>2020-03-08T09:00:44.000Z</time>
      </trkpt>
      <trkpt lat="47.84948" lon="7.11864">
        <ele>935.40002441406</ele>
        <time>2020-03-08T09:00:46.000Z</time>
      </trkpt>
      <trkpt lat="47.8495" lon="7.1187">
        <ele>935.79998779297</ele>
        <time>2020-03-08T09:00:48.000Z</time>
      </trkpt>
      <trkpt lat="47.8495" lon="7.11873">
        <ele>936.20001220703</ele>
        <time>2020-03-08T09:00:49.000Z</time>
      </trkpt>
      <trkpt lat="47.84951" lon="7.11875">
        <ele>936.79998779297</ele>
        <time>2020-03-08T09:00:50.000Z</time>
      </trkpt>
      <trkpt lat="47.84952" lon="7.11877">
        <ele>937.20001220703</ele>
        <time>2020-03-08T09:00:51.000Z</time>
      </trkpt>
      <trkpt lat="47.84954" lon="7.11878">
        <ele>937.59997558594</ele>
        <time>2020-03-08T09:00:52.000Z</time>
      </trkpt>
      <trkpt lat="47.84955" lon="7.1188">
        <ele>937.59997558594</ele>
        <time>2020-03-08T09:00:53.000Z</time>
      </trkpt>
      <trkpt lat="47.84961" lon="7.11888">
        <ele>937.20001220703</ele>
        <time>2020-03-08T09:00:57.000Z</time>
      </trkpt>
      <trkpt lat="47.84963" lon="7.11889">
        <ele>936.59997558594</ele>
        <time>2020-03-08T09:00:58.000Z</time>
      </trkpt>
      <trkpt lat="47.84966" lon="7.11888">
        <ele>936.20001220703</ele>
        <time>2020-03-08T09:00:59.000Z</time>
      </trkpt>
      <trkpt lat="47.84968" lon="7.11887">
        <ele>935.59997558594</ele>
        <time>2020-03-08T09:01:00.000Z</time>
      </trkpt>
      <trkpt lat="47.84971" lon="7.11886">
        <ele>935</ele>
        <time>2020-03-08T09:01:01.000Z</time>
      </trkpt>
      <trkpt lat="47.84974" lon="7.11885">
        <ele>934.40002441406</ele>
        <time>2020-03-08T09:01:02.000Z</time>
      </trkpt>
      <trkpt lat="47.84978" lon="7.11884">
        <ele>933.79998779297</ele>
        <time>2020-03-08T09:01:03.000Z</time>
      </trkpt>
      <trkpt lat="47.84981" lon="7.11882">
        <ele>933.20001220703</ele>
        <time>2020-03-08T09:01:04.000Z</time>
      </trkpt>
      <trkpt lat="47.84984" lon="7.11879">
        <ele>932.59997558594</ele>
        <time>2020-03-08T09:01:05.000Z</time>
      </trkpt>
      <trkpt lat="47.84998" lon="7.11877">
        <ele>932.59997558594</ele>
        <time>2020-03-08T09:01:07.000Z</time>
      </trkpt>
      <trkpt lat="47.8502" lon="7.11873">
        <ele>932.59997558594</ele>
        <time>2020-03-08T09:01:13.000Z</time>
      </trkpt>
      <trkpt lat="47.85031" lon="7.1188">
        <ele>932.59997558594</ele>
        <time>2020-03-08T09:01:18.000Z</time>
      </trkpt>
      <trkpt lat="47.85042" lon="7.11894">
        <ele>932.59997558594</ele>
        <time>2020-03-08T09:01:23.000Z</time>
      </trkpt>
      <trkpt lat="47.85044" lon="7.11894">
        <ele>932.59997558594</ele>
        <time>2020-03-08T09:01:24.000Z</time>
      </trkpt>
      <trkpt lat="47.85071" lon="7.11906">
        <ele>932.59997558594</ele>
        <time>2020-03-08T09:01:30.000Z</time>
      </trkpt>
      <trkpt lat="47.85091" lon="7.11913">
        <ele>932.59997558594</ele>
        <time>2020-03-08T09:01:35.000Z</time>
      </trkpt>
      <trkpt lat="47.85112" lon="7.1192">
        <ele>932.59997558594</ele>
        <time>2020-03-08T09:01:42.000Z</time>
      </trkpt>
      <trkpt lat="47.85123" lon="7.11925">
        <ele>932.59997558594</ele>
        <time>2020-03-08T09:01:48.000Z</time>
      </trkpt>
      <trkpt lat="47.8514" lon="7.11933">
        <ele>932.59997558594</ele>
        <time>2020-03-08T09:01:56.000Z</time>
      </trkpt>
      <trkpt lat="47.85155" lon="7.11938">
        <ele>932.59997558594</ele>
        <time>2020-03-08T09:02:03.000Z</time>
      </trkpt>
      <trkpt lat="47.85178" lon="7.11949">
        <ele>932.59997558594</ele>
        <time>2020-03-08T09:02:09.000Z</time>
      </trkpt>
      <trkpt lat="47.85199" lon="7.11951">
        <ele>932.59997558594</ele>
        <time>2020-03-08T09:02:15.000Z</time>
      </trkpt>
      <trkpt lat="47.85227" lon="7.11963">
        <ele>932.59997558594</ele>
        <time>2020-03-08T09:02:20.000Z</time>
      </trkpt>
      <trkpt lat="47.85244" lon="7.11974">
        <ele>932.59997558594</ele>
        <time>2020-03-08T09:02:25.000Z</time>
      </trkpt>
      <trkpt lat="47.85248" lon="7.1198">
        <ele>932.59997558594</ele>
        <time>2020-03-08T09:02:27.000Z</time>
      </trkpt>
      <trkpt lat="47.85257" lon="7.1199">
        <ele>932.59997558594</ele>
        <time>2020-03-08T09:02:30.000Z</time>
      </trkpt>
      <trkpt lat="47.85271" lon="7.12012">
        <ele>932.59997558594</ele>
        <time>2020-03-08T09:02:36.000Z</time>
      </trkpt>
      <trkpt lat="47.85286" lon="7.12041">
        <ele>932.59997558594</ele>
        <time>2020-03-08T09:02:43.000Z</time>
      </trkpt>
      <trkpt lat="47.85301" lon="7.12078">
        <ele>932.59997558594</ele>
        <time>2020-03-08T09:02:50.000Z</time>
      </trkpt>
      <trkpt lat="47.85309" lon="7.12094">
        <ele>932.59997558594</ele>
        <time>2020-03-08T09:02:54.000Z</time>
      </trkpt>
      <trkpt lat="47.85316" lon="7.12101">
        <ele>932.59997558594</ele>
        <time>2020-03-08T09:02:57.000Z</time>
      </trkpt>
      <trkpt lat="47.85321" lon="7.12106">
        <ele>932.59997558594</ele>
        <time>2020-03-08T09:02:59.000Z</time>
      </trkpt>
      <trkpt lat="47.85326" lon="7.12114">
        <ele>932.59997558594</ele>
        <time>2020-03-08T09:03:01.000Z</time>
      </trkpt>
      <trkpt lat="47.85331" lon="7.12122">
        <ele>932.59997558594</ele>
        <time>2020-03-08T09:03:04.000Z</time>
      </trkpt>
      <trkpt lat="47.85335" lon="7.12124">
        <ele>932.59997558594</ele>
        <time>2020-03-08T09:03:08.000Z</time>
      </trkpt>
      <trkpt lat="47.85338" lon="7.12132">
        <ele>933</ele>
        <time>2020-03-08T09:03:37.000Z</time>
      </trkpt>
      <trkpt lat="47.85339" lon="7.12135">
        <ele>933.40002441406</ele>
        <time>2020-03-08T09:03:38.000Z</time>
      </trkpt>
      <trkpt lat="47.85341" lon="7.12139">
        <ele>933.79998779297</ele>
        <time>2020-03-08T09:03:39.000Z</time>
      </trkpt>
      <trkpt lat="47.85344" lon="7.12142">
        <ele>934.20001220703</ele>
        <time>2020-03-08T09:03:40.000Z</time>
      </trkpt>
      <trkpt lat="47.85348" lon="7.12147">
        <ele>934.59997558594</ele>
        <time>2020-03-08T09:03:41.000Z</time>
      </trkpt>
      <trkpt lat="47.85356" lon="7.12163">
        <ele>934.59997558594</ele>
        <time>2020-03-08T09:03:44.000Z</time>
      </trkpt>
      <trkpt lat="47.85362" lon="7.12172">
        <ele>934.59997558594</ele>
        <time>2020-03-08T09:03:46.000Z</time>
      </trkpt>
      <trkpt lat="47.85385" lon="7.12206">
        <ele>934.59997558594</ele>
        <time>2020-03-08T09:03:53.000Z</time>
      </trkpt>
      <trkpt lat="47.85388" lon="7.12211">
        <ele>934.59997558594</ele>
        <time>2020-03-08T09:03:54.000Z</time>
      </trkpt>
      <trkpt lat="47.854" lon="7.12224">
        <ele>934.59997558594</ele>
        <time>2020-03-08T09:03:57.000Z</time>
      </trkpt>
      <trkpt lat="47.85404" lon="7.12229">
        <ele>934.59997558594</ele>
        <time>2020-03-08T09:03:58.000Z</time>
      </trkpt>
      <trkpt lat="47.85422" lon="7.1225">
        <ele>934.59997558594</ele>
        <time>2020-03-08T09:04:03.000Z</time>
      </trkpt>
      <trkpt lat="47.85437" lon="7.12264">
        <ele>934.59997558594</ele>
        <time>2020-03-08T09:04:08.000Z</time>
      </trkpt>
      <trkpt lat="47.85457" lon="7.12276">
        <ele>934.59997558594</ele>
        <time>2020-03-08T09:04:14.000Z</time>
      </trkpt>
      <trkpt lat="47.85469" lon="7.12294">
        <ele>934.59997558594</ele>
        <time>2020-03-08T09:04:19.000Z</time>
      </trkpt>
      <trkpt lat="47.85489" lon="7.12322">
        <ele>935.59997558594</ele>
        <time>2020-03-08T09:04:23.000Z</time>
      </trkpt>
      <trkpt lat="47.85492" lon="7.12327">
        <ele>936</ele>
        <time>2020-03-08T09:04:24.000Z</time>
      </trkpt>
      <trkpt lat="47.85495" lon="7.12331">
        <ele>936.40002441406</ele>
        <time>2020-03-08T09:04:25.000Z</time>
      </trkpt>
      <trkpt lat="47.85498" lon="7.12336">
        <ele>936.79998779297</ele>
        <time>2020-03-08T09:04:26.000Z</time>
      </trkpt>
      <trkpt lat="47.85513" lon="7.12357">
        <ele>936.79998779297</ele>
        <time>2020-03-08T09:04:30.000Z</time>
      </trkpt>
      <trkpt lat="47.85531" lon="7.12375">
        <ele>936.79998779297</ele>
        <time>2020-03-08T09:04:36.000Z</time>
      </trkpt>
      <trkpt lat="47.85538" lon="7.12379">
        <ele>936.79998779297</ele>
        <time>2020-03-08T09:04:41.000Z</time>
      </trkpt>
      <trkpt lat="47.85542" lon="7.12381">
        <ele>936.79998779297</ele>
        <time>2020-03-08T09:04:42.000Z</time>
      </trkpt>
      <trkpt lat="47.85552" lon="7.12398">
        <ele>936.79998779297</ele>
        <time>2020-03-08T09:04:46.000Z</time>
      </trkpt>
      <trkpt lat="47.85568" lon="7.12423">
        <ele>936.79998779297</ele>
        <time>2020-03-08T09:04:52.000Z</time>
      </trkpt>
      <trkpt lat="47.85584" lon="7.12433">
        <ele>936.79998779297</ele>
        <time>2020-03-08T09:04:57.000Z</time>
      </trkpt>
      <trkpt lat="47.85596" lon="7.1245">
        <ele>936.79998779297</ele>
        <time>2020-03-08T09:05:01.000Z</time>
      </trkpt>
      <trkpt lat="47.85613" lon="7.12466">
        <ele>936.79998779297</ele>
        <time>2020-03-08T09:05:07.000Z</time>
      </trkpt>
      <trkpt lat="47.85633" lon="7.12479">
        <ele>936.79998779297</ele>
        <time>2020-03-08T09:05:13.000Z</time>
      </trkpt>
      <trkpt lat="47.85651" lon="7.12486">
        <ele>936.79998779297</ele>
        <time>2020-03-08T09:05:18.000Z</time>
      </trkpt>
      <trkpt lat="47.85655" lon="7.1249">
        <ele>936.79998779297</ele>
        <time>2020-03-08T09:05:19.000Z</time>
      </trkpt>
      <trkpt lat="47.85664" lon="7.12501">
        <ele>936.79998779297</ele>
        <time>2020-03-08T09:05:22.000Z</time>
      </trkpt>
      <trkpt lat="47.85682" lon="7.12514">
        <ele>936.79998779297</ele>
        <time>2020-03-08T09:05:27.000Z</time>
      </trkpt>
      <trkpt lat="47.85702" lon="7.12521">
        <ele>937.20001220703</ele>
        <time>2020-03-08T09:05:31.000Z</time>
      </trkpt>
      <trkpt lat="47.85707" lon="7.12522">
        <ele>937.79998779297</ele>
        <time>2020-03-08T09:05:32.000Z</time>
      </trkpt>
      <trkpt lat="47.85711" lon="7.12521">
        <ele>938.20001220703</ele>
        <time>2020-03-08T09:05:33.000Z</time>
      </trkpt>
      <trkpt lat="47.85716" lon="7.12522">
        <ele>938.59997558594</ele>
        <time>2020-03-08T09:05:34.000Z</time>
      </trkpt>
      <trkpt lat="47.8572" lon="7.12523">
        <ele>939</ele>
        <time>2020-03-08T09:05:35.000Z</time>
      </trkpt>
      <trkpt lat="47.85729" lon="7.12524">
        <ele>939</ele>
        <time>2020-03-08T09:05:37.000Z</time>
      </trkpt>
      <trkpt lat="47.8575" lon="7.12532">
        <ele>939</ele>
        <time>2020-03-08T09:05:42.000Z</time>
      </trkpt>
      <trkpt lat="47.85768" lon="7.12544">
        <ele>939</ele>
        <time>2020-03-08T09:05:47.000Z</time>
      </trkpt>
      <trkpt lat="47.85794" lon="7.12553">
        <ele>939</ele>
        <time>2020-03-08T09:05:55.000Z</time>
      </trkpt>
      <trkpt lat="47.85821" lon="7.12554">
        <ele>939</ele>
        <time>2020-03-08T09:06:02.000Z</time>
      </trkpt>
      <trkpt lat="47.85841" lon="7.12548">
        <ele>939</ele>
        <time>2020-03-08T09:06:07.000Z</time>
      </trkpt>
      <trkpt lat="47.8586" lon="7.12526">
        <ele>939</ele>
        <time>2020-03-08T09:06:13.000Z</time>
      </trkpt>
      <trkpt lat="47.85871" lon="7.125">
        <ele>939</ele>
        <time>2020-03-08T09:06:19.000Z</time>
      </trkpt>
      <trkpt lat="47.85879" lon="7.12473">
        <ele>939</ele>
        <time>2020-03-08T09:06:25.000Z</time>
      </trkpt>
      <trkpt lat="47.85886" lon="7.12447">
        <ele>939</ele>
        <time>2020-03-08T09:06:30.000Z</time>
      </trkpt>
      <trkpt lat="47.85894" lon="7.12419">
        <ele>939</ele>
        <time>2020-03-08T09:06:35.000Z</time>
      </trkpt>
      <trkpt lat="47.85898" lon="7.12388">
        <ele>939</ele>
        <time>2020-03-08T09:06:41.000Z</time>
      </trkpt>
      <trkpt lat="47.859" lon="7.1236">
        <ele>939</ele>
        <time>2020-03-08T09:06:46.000Z</time>
      </trkpt>
      <trkpt lat="47.85901" lon="7.12324">
        <ele>939</ele>
        <time>2020-03-08T09:06:52.000Z</time>
      </trkpt>
      <trkpt lat="47.85902" lon="7.12311">
        <ele>939</ele>
        <time>2020-03-08T09:06:57.000Z</time>
      </trkpt>
      <trkpt lat="47.85903" lon="7.12309">
        <ele>939</ele>
        <time>2020-03-08T09:06:58.000Z</time>
      </trkpt>
      <trkpt lat="47.85913" lon="7.12282">
        <ele>939</ele>
        <time>2020-03-08T09:07:45.000Z</time>
      </trkpt>
      <trkpt lat="47.85914" lon="7.12277">
        <ele>939</ele>
        <time>2020-03-08T09:07:47.000Z</time>
      </trkpt>
      <trkpt lat="47.8592" lon="7.12256">
        <ele>939</ele>
        <time>2020-03-08T09:07:53.000Z</time>
      </trkpt>
      <trkpt lat="47.85929" lon="7.12229">
        <ele>939.40002441406</ele>
        <time>2020-03-08T09:07:59.000Z</time>
      </trkpt>
      <trkpt lat="47.85931" lon="7.12225">
        <ele>939.79998779297</ele>
        <time>2020-03-08T09:08:00.000Z</time>
      </trkpt>
      <trkpt lat="47.85933" lon="7.1222">
        <ele>940.20001220703</ele>
        <time>2020-03-08T09:08:01.000Z</time>
      </trkpt>
      <trkpt lat="47.85934" lon="7.12217">
        <ele>940.59997558594</ele>
        <time>2020-03-08T09:08:02.000Z</time>
      </trkpt>
      <trkpt lat="47.85936" lon="7.12212">
        <ele>941</ele>
        <time>2020-03-08T09:08:03.000Z</time>
      </trkpt>
      <trkpt lat="47.8594" lon="7.12197">
        <ele>941</ele>
        <time>2020-03-08T09:08:06.000Z</time>
      </trkpt>
      <trkpt lat="47.85942" lon="7.1219">
        <ele>941</ele>
        <time>2020-03-08T09:08:07.000Z</time>
      </trkpt>
      <trkpt lat="47.85945" lon="7.12177">
        <ele>941</ele>
        <time>2020-03-08T09:08:09.000Z</time>
      </trkpt>
      <trkpt lat="47.85947" lon="7.12171">
        <ele>941</ele>
        <time>2020-03-08T09:08:10.000Z</time>
      </trkpt>
      <trkpt lat="47.8596" lon="7.12145">
        <ele>941</ele>
        <time>2020-03-08T09:08:15.000Z</time>
      </trkpt>
      <trkpt lat="47.85966" lon="7.12125">
        <ele>941</ele>
        <time>2020-03-08T09:08:20.000Z</time>
      </trkpt>
      <trkpt lat="47.85975" lon="7.12104">
        <ele>941</ele>
        <time>2020-03-08T09:08:25.000Z</time>
      </trkpt>
      <trkpt lat="47.85986" lon="7.12086">
        <ele>941</ele>
        <time>2020-03-08T09:08:30.000Z</time>
      </trkpt>
      <trkpt lat="47.85997" lon="7.1206">
        <ele>941</ele>
        <time>2020-03-08T09:08:36.000Z</time>
      </trkpt>
      <trkpt lat="47.86011" lon="7.1204">
        <ele>941</ele>
        <time>2020-03-08T09:08:41.000Z</time>
      </trkpt>
      <trkpt lat="47.86014" lon="7.12033">
        <ele>941</ele>
        <time>2020-03-08T09:08:43.000Z</time>
      </trkpt>
      <trkpt lat="47.86018" lon="7.12025">
        <ele>941</ele>
        <time>2020-03-08T09:08:45.000Z</time>
      </trkpt>
      <trkpt lat="47.86034" lon="7.11997">
        <ele>941</ele>
        <time>2020-03-08T09:08:52.000Z</time>
      </trkpt>
      <trkpt lat="47.86035" lon="7.11989">
        <ele>941</ele>
        <time>2020-03-08T09:08:53.000Z</time>
      </trkpt>
      <trkpt lat="47.86039" lon="7.11988">
        <ele>941</ele>
        <time>2020-03-08T09:08:55.000Z</time>
      </trkpt>
      <trkpt lat="47.86042" lon="7.11996">
        <ele>941</ele>
        <time>2020-03-08T09:08:57.000Z</time>
      </trkpt>
      <trkpt lat="47.86046" lon="7.12002">
        <ele>941</ele>
        <time>2020-03-08T09:08:59.000Z</time>
      </trkpt>
      <trkpt lat="47.86057" lon="7.12023">
        <ele>941</ele>
        <time>2020-03-08T09:09:04.000Z</time>
      </trkpt>
      <trkpt lat="47.86061" lon="7.12035">
        <ele>941</ele>
        <time>2020-03-08T09:09:09.000Z</time>
      </trkpt>
      <trkpt lat="47.86062" lon="7.12037">
        <ele>941</ele>
        <time>2020-03-08T09:09:27.000Z</time>
      </trkpt>
      <trkpt lat="47.86068" lon="7.1205">
        <ele>941</ele>
        <time>2020-03-08T09:09:30.000Z</time>
      </trkpt>
      <trkpt lat="47.86074" lon="7.12069">
        <ele>941</ele>
        <time>2020-03-08T09:09:34.000Z</time>
      </trkpt>
      <trkpt lat="47.86076" lon="7.12074">
        <ele>941</ele>
        <time>2020-03-08T09:09:35.000Z</time>
      </trkpt>
      <trkpt lat="47.86086" lon="7.12098">
        <ele>941</ele>
        <time>2020-03-08T09:09:41.000Z</time>
      </trkpt>
      <trkpt lat="47.86099" lon="7.12114">
        <ele>941.40002441406</ele>
        <time>2020-03-08T09:09:46.000Z</time>
      </trkpt>
      <trkpt lat="47.86101" lon="7.12119">
        <ele>942</ele>
        <time>2020-03-08T09:09:47.000Z</time>
      </trkpt>
      <trkpt lat="47.86103" lon="7.12123">
        <ele>942.40002441406</ele>
        <time>2020-03-08T09:09:48.000Z</time>
      </trkpt>
      <trkpt lat="47.86106" lon="7.12126">
        <ele>942.79998779297</ele>
        <time>2020-03-08T09:09:49.000Z</time>
      </trkpt>
      <trkpt lat="47.86108" lon="7.1213">
        <ele>943.20001220703</ele>
        <time>2020-03-08T09:09:50.000Z</time>
      </trkpt>
      <trkpt lat="47.86111" lon="7.12138">
        <ele>943.20001220703</ele>
        <time>2020-03-08T09:09:52.000Z</time>
      </trkpt>
      <trkpt lat="47.86118" lon="7.1215">
        <ele>943.20001220703</ele>
        <time>2020-03-08T09:09:57.000Z</time>
      </trkpt>
      <trkpt lat="47.86124" lon="7.12151">
        <ele>943.20001220703</ele>
        <time>2020-03-08T09:10:03.000Z</time>
      </trkpt>
      <trkpt lat="47.86124" lon="7.12152">
        <ele>943.20001220703</ele>
        <time>2020-03-08T09:10:04.000Z</time>
      </trkpt>
      <trkpt lat="47.86125" lon="7.12159">
        <ele>943.20001220703</ele>
        <time>2020-03-08T09:10:24.000Z</time>
      </trkpt>
      <trkpt lat="47.86125" lon="7.12166">
        <ele>943.20001220703</ele>
        <time>2020-03-08T09:10:26.000Z</time>
      </trkpt>
      <trkpt lat="47.86131" lon="7.1218">
        <ele>943.20001220703</ele>
        <time>2020-03-08T09:10:31.000Z</time>
      </trkpt>
      <trkpt lat="47.86134" lon="7.12185">
        <ele>943.20001220703</ele>
        <time>2020-03-08T09:10:33.000Z</time>
      </trkpt>
      <trkpt lat="47.86148" lon="7.12201">
        <ele>943.20001220703</ele>
        <time>2020-03-08T09:10:36.000Z</time>
      </trkpt>
      <trkpt lat="47.86161" lon="7.12213">
        <ele>943.20001220703</ele>
        <time>2020-03-08T09:10:41.000Z</time>
      </trkpt>
      <trkpt lat="47.86182" lon="7.12231">
        <ele>943.20001220703</ele>
        <time>2020-03-08T09:10:46.000Z</time>
      </trkpt>
      <trkpt lat="47.86198" lon="7.12243">
        <ele>943.20001220703</ele>
        <time>2020-03-08T09:10:50.000Z</time>
      </trkpt>
      <trkpt lat="47.86203" lon="7.12245">
        <ele>943.20001220703</ele>
        <time>2020-03-08T09:10:51.000Z</time>
      </trkpt>
      <trkpt lat="47.86211" lon="7.12247">
        <ele>942.79998779297</ele>
        <time>2020-03-08T09:10:53.000Z</time>
      </trkpt>
      <trkpt lat="47.86214" lon="7.12248">
        <ele>942.40002441406</ele>
        <time>2020-03-08T09:10:54.000Z</time>
      </trkpt>
      <trkpt lat="47.86216" lon="7.12249">
        <ele>942</ele>
        <time>2020-03-08T09:10:55.000Z</time>
      </trkpt>
      <trkpt lat="47.86217" lon="7.1225">
        <ele>941.40002441406</ele>
        <time>2020-03-08T09:10:56.000Z</time>
      </trkpt>
      <trkpt lat="47.86218" lon="7.1225">
        <ele>940.79998779297</ele>
        <time>2020-03-08T09:10:57.000Z</time>
      </trkpt>
      <trkpt lat="47.8622" lon="7.12251">
        <ele>939.59997558594</ele>
        <time>2020-03-08T09:10:58.000Z</time>
      </trkpt>
      <trkpt lat="47.86221" lon="7.12251">
        <ele>939</ele>
        <time>2020-03-08T09:10:59.000Z</time>
      </trkpt>
      <trkpt lat="47.86223" lon="7.12253">
        <ele>938.40002441406</ele>
        <time>2020-03-08T09:11:00.000Z</time>
      </trkpt>
      <trkpt lat="47.86226" lon="7.12254">
        <ele>938</ele>
        <time>2020-03-08T09:11:01.000Z</time>
      </trkpt>
      <trkpt lat="47.8623" lon="7.12259">
        <ele>937.59997558594</ele>
        <time>2020-03-08T09:11:02.000Z</time>
      </trkpt>
      <trkpt lat="47.86234" lon="7.12264">
        <ele>937</ele>
        <time>2020-03-08T09:11:03.000Z</time>
      </trkpt>
      <trkpt lat="47.86238" lon="7.1227">
        <ele>936.40002441406</ele>
        <time>2020-03-08T09:11:04.000Z</time>
      </trkpt>
      <trkpt lat="47.86242" lon="7.12275">
        <ele>935.79998779297</ele>
        <time>2020-03-08T09:11:05.000Z</time>
      </trkpt>
      <trkpt lat="47.86247" lon="7.12281">
        <ele>935.20001220703</ele>
        <time>2020-03-08T09:11:06.000Z</time>
      </trkpt>
      <trkpt lat="47.86251" lon="7.12286">
        <ele>934.59997558594</ele>
        <time>2020-03-08T09:11:07.000Z</time>
      </trkpt>
      <trkpt lat="47.86256" lon="7.1229">
        <ele>934.59997558594</ele>
        <time>2020-03-08T09:11:08.000Z</time>
      </trkpt>
      <trkpt lat="47.86265" lon="7.12298">
        <ele>934.59997558594</ele>
        <time>2020-03-08T09:11:10.000Z</time>
      </trkpt>
      <trkpt lat="47.86271" lon="7.12301">
        <ele>934.59997558594</ele>
        <time>2020-03-08T09:11:11.000Z</time>
      </trkpt>
      <trkpt lat="47.86285" lon="7.12303">
        <ele>934</ele>
        <time>2020-03-08T09:11:13.000Z</time>
      </trkpt>
      <trkpt lat="47.86292" lon="7.12303">
        <ele>933.59997558594</ele>
        <time>2020-03-08T09:11:14.000Z</time>
      </trkpt>
      <trkpt lat="47.86298" lon="7.12302">
        <ele>933</ele>
        <time>2020-03-08T09:11:15.000Z</time>
      </trkpt>
      <trkpt lat="47.86302" lon="7.12303">
        <ele>932.40002441406</ele>
        <time>2020-03-08T09:11:16.000Z</time>
      </trkpt>
      <trkpt lat="47.86306" lon="7.12305">
        <ele>932</ele>
        <time>2020-03-08T09:11:17.000Z</time>
      </trkpt>
      <trkpt lat="47.8631" lon="7.12308">
        <ele>931.40002441406</ele>
        <time>2020-03-08T09:11:18.000Z</time>
      </trkpt>
      <trkpt lat="47.86314" lon="7.12311">
        <ele>930.79998779297</ele>
        <time>2020-03-08T09:11:19.000Z</time>
      </trkpt>
      <trkpt lat="47.86318" lon="7.12314">
        <ele>930.20001220703</ele>
        <time>2020-03-08T09:11:20.000Z</time>
      </trkpt>
      <trkpt lat="47.86322" lon="7.12316">
        <ele>929.79998779297</ele>
        <time>2020-03-08T09:11:21.000Z</time>
      </trkpt>
      <trkpt lat="47.86334" lon="7.12325">
        <ele>929.40002441406</ele>
        <time>2020-03-08T09:11:26.000Z</time>
      </trkpt>
      <trkpt lat="47.86337" lon="7.12326">
        <ele>928.79998779297</ele>
        <time>2020-03-08T09:11:27.000Z</time>
      </trkpt>
      <trkpt lat="47.86341" lon="7.12325">
        <ele>928.40002441406</ele>
        <time>2020-03-08T09:11:28.000Z</time>
      </trkpt>
      <trkpt lat="47.86346" lon="7.12325">
        <ele>928</ele>
        <time>2020-03-08T09:11:29.000Z</time>
      </trkpt>
      <trkpt lat="47.86352" lon="7.12325">
        <ele>927.59997558594</ele>
        <time>2020-03-08T09:11:30.000Z</time>
      </trkpt>
      <trkpt lat="47.86358" lon="7.12326">
        <ele>927.20001220703</ele>
        <time>2020-03-08T09:11:31.000Z</time>
      </trkpt>
      <trkpt lat="47.86364" lon="7.12326">
        <ele>926.59997558594</ele>
        <time>2020-03-08T09:11:32.000Z</time>
      </trkpt>
      <trkpt lat="47.86369" lon="7.12327">
        <ele>926.20001220703</ele>
        <time>2020-03-08T09:11:33.000Z</time>
      </trkpt>
      <trkpt lat="47.86373" lon="7.12326">
        <ele>925.59997558594</ele>
        <time>2020-03-08T09:11:34.000Z</time>
      </trkpt>
      <trkpt lat="47.86373" lon="7.12325">
        <ele>925</ele>
        <time>2020-03-08T09:11:35.000Z</time>
      </trkpt>
      <trkpt lat="47.86372" lon="7.12325">
        <ele>924.40002441406</ele>
        <time>2020-03-08T09:11:36.000Z</time>
      </trkpt>
      <trkpt lat="47.86375" lon="7.12329">
        <ele>923</ele>
        <time>2020-03-08T09:15:47.000Z</time>
      </trkpt>
      <trkpt lat="47.86377" lon="7.12334">
        <ele>923</ele>
        <time>2020-03-08T09:15:49.000Z</time>
      </trkpt>
      <trkpt lat="47.8638" lon="7.12339">
        <ele>922.59997558594</ele>
        <time>2020-03-08T09:15:51.000Z</time>
      </trkpt>
      <trkpt lat="47.86382" lon="7.12342">
        <ele>922.20001220703</ele>
        <time>2020-03-08T09:15:52.000Z</time>
      </trkpt>
      <trkpt lat="47.86384" lon="7.12346">
        <ele>921.79998779297</ele>
        <time>2020-03-08T09:15:53.000Z</time>
      </trkpt>
      <trkpt lat="47.86386" lon="7.1235">
        <ele>921.40002441406</ele>
        <time>2020-03-08T09:15:54.000Z</time>
      </trkpt>
      <trkpt lat="47.86388" lon="7.12354">
        <ele>920.79998779297</ele>
        <time>2020-03-08T09:15:55.000Z</time>
      </trkpt>
      <trkpt lat="47.86392" lon="7.12362">
        <ele>920.79998779297</ele>
        <time>2020-03-08T09:15:58.000Z</time>
      </trkpt>
      <trkpt lat="47.86396" lon="7.12369">
        <ele>920.40002441406</ele>
        <time>2020-03-08T09:16:00.000Z</time>
      </trkpt>
      <trkpt lat="47.86397" lon="7.12372">
        <ele>920</ele>
        <time>2020-03-08T09:16:01.000Z</time>
      </trkpt>
      <trkpt lat="47.86399" lon="7.12375">
        <ele>919</ele>
        <time>2020-03-08T09:16:02.000Z</time>
      </trkpt>
      <trkpt lat="47.864" lon="7.12376">
        <ele>918.59997558594</ele>
        <time>2020-03-08T09:16:03.000Z</time>
      </trkpt>
      <trkpt lat="47.86408" lon="7.12378">
        <ele>918.20001220703</ele>
        <time>2020-03-08T09:16:09.000Z</time>
      </trkpt>
      <trkpt lat="47.86407" lon="7.12378">
        <ele>917.79998779297</ele>
        <time>2020-03-08T09:16:10.000Z</time>
      </trkpt>
      <trkpt lat="47.8641" lon="7.12382">
        <ele>916.40002441406</ele>
        <time>2020-03-08T09:16:13.000Z</time>
      </trkpt>
      <trkpt lat="47.86412" lon="7.12384">
        <ele>916.40002441406</ele>
        <time>2020-03-08T09:16:14.000Z</time>
      </trkpt>
      <trkpt lat="47.86422" lon="7.12389">
        <ele>916.40002441406</ele>
        <time>2020-03-08T09:16:19.000Z</time>
      </trkpt>
      <trkpt lat="47.86423" lon="7.12389">
        <ele>916.40002441406</ele>
        <time>2020-03-08T09:16:22.000Z</time>
      </trkpt>
      <trkpt lat="47.86426" lon="7.12391">
        <ele>916.40002441406</ele>
        <time>2020-03-08T09:16:28.000Z</time>
      </trkpt>
      <trkpt lat="47.86427" lon="7.12393">
        <ele>916.40002441406</ele>
        <time>2020-03-08T09:16:31.000Z</time>
      </trkpt>
      <trkpt lat="47.86428" lon="7.12395">
        <ele>915.59997558594</ele>
        <time>2020-03-08T09:16:36.000Z</time>
      </trkpt>
      <trkpt lat="47.86429" lon="7.12396">
        <ele>915.20001220703</ele>
        <time>2020-03-08T09:16:37.000Z</time>
      </trkpt>
      <trkpt lat="47.86428" lon="7.12395">
        <ele>914.79998779297</ele>
        <time>2020-03-08T09:16:38.000Z</time>
      </trkpt>
      <trkpt lat="47.86431" lon="7.124">
        <ele>914.40002441406</ele>
        <time>2020-03-08T09:16:45.000Z</time>
      </trkpt>
      <trkpt lat="47.86432" lon="7.12403">
        <ele>914.40002441406</ele>
        <time>2020-03-08T09:16:46.000Z</time>
      </trkpt>
      <trkpt lat="47.86446" lon="7.12418">
        <ele>914.40002441406</ele>
        <time>2020-03-08T09:16:51.000Z</time>
      </trkpt>
      <trkpt lat="47.86451" lon="7.12418">
        <ele>914</ele>
        <time>2020-03-08T09:16:52.000Z</time>
      </trkpt>
      <trkpt lat="47.86456" lon="7.12419">
        <ele>913.59997558594</ele>
        <time>2020-03-08T09:16:53.000Z</time>
      </trkpt>
      <trkpt lat="47.86461" lon="7.1242">
        <ele>913.20001220703</ele>
        <time>2020-03-08T09:16:54.000Z</time>
      </trkpt>
      <trkpt lat="47.86467" lon="7.1242">
        <ele>912.79998779297</ele>
        <time>2020-03-08T09:16:55.000Z</time>
      </trkpt>
      <trkpt lat="47.86473" lon="7.1242">
        <ele>912.40002441406</ele>
        <time>2020-03-08T09:16:56.000Z</time>
      </trkpt>
      <trkpt lat="47.86486" lon="7.1242">
        <ele>911.79998779297</ele>
        <time>2020-03-08T09:16:58.000Z</time>
      </trkpt>
      <trkpt lat="47.86493" lon="7.1242">
        <ele>911.40002441406</ele>
        <time>2020-03-08T09:16:59.000Z</time>
      </trkpt>
      <trkpt lat="47.86501" lon="7.12421">
        <ele>911</ele>
        <time>2020-03-08T09:17:00.000Z</time>
      </trkpt>
      <trkpt lat="47.86509" lon="7.12421">
        <ele>910.40002441406</ele>
        <time>2020-03-08T09:17:01.000Z</time>
      </trkpt>
      <trkpt lat="47.86517" lon="7.12422">
        <ele>910</ele>
        <time>2020-03-08T09:17:02.000Z</time>
      </trkpt>
      <trkpt lat="47.86525" lon="7.12421">
        <ele>909.40002441406</ele>
        <time>2020-03-08T09:17:03.000Z</time>
      </trkpt>
      <trkpt lat="47.86534" lon="7.1242">
        <ele>908.79998779297</ele>
        <time>2020-03-08T09:17:04.000Z</time>
      </trkpt>
      <trkpt lat="47.86543" lon="7.12421">
        <ele>908.20001220703</ele>
        <time>2020-03-08T09:17:05.000Z</time>
      </trkpt>
      <trkpt lat="47.86553" lon="7.12423">
        <ele>907.59997558594</ele>
        <time>2020-03-08T09:17:06.000Z</time>
      </trkpt>
      <trkpt lat="47.86563" lon="7.12422">
        <ele>907</ele>
        <time>2020-03-08T09:17:07.000Z</time>
      </trkpt>
      <trkpt lat="47.86574" lon="7.12422">
        <ele>906.20001220703</ele>
        <time>2020-03-08T09:17:08.000Z</time>
      </trkpt>
      <trkpt lat="47.86586" lon="7.12422">
        <ele>905.59997558594</ele>
        <time>2020-03-08T09:17:09.000Z</time>
      </trkpt>
      <trkpt lat="47.86597" lon="7.1242">
        <ele>905</ele>
        <time>2020-03-08T09:17:10.000Z</time>
      </trkpt>
      <trkpt lat="47.86609" lon="7.12418">
        <ele>904</ele>
        <time>2020-03-08T09:17:11.000Z</time>
      </trkpt>
      <trkpt lat="47.86621" lon="7.12415">
        <ele>903.20001220703</ele>
        <time>2020-03-08T09:17:12.000Z</time>
      </trkpt>
      <trkpt lat="47.86634" lon="7.12412">
        <ele>902.20001220703</ele>
        <time>2020-03-08T09:17:13.000Z</time>
      </trkpt>
      <trkpt lat="47.86644" lon="7.12408">
        <ele>901.20001220703</ele>
        <time>2020-03-08T09:17:14.000Z</time>
      </trkpt>
      <trkpt lat="47.86655" lon="7.12403">
        <ele>900.20001220703</ele>
        <time>2020-03-08T09:17:15.000Z</time>
      </trkpt>
      <trkpt lat="47.86665" lon="7.12399">
        <ele>898.20001220703</ele>
        <time>2020-03-08T09:17:16.000Z</time>
      </trkpt>
      <trkpt lat="47.86675" lon="7.12395">
        <ele>897.20001220703</ele>
        <time>2020-03-08T09:17:17.000Z</time>
      </trkpt>
      <trkpt lat="47.86685" lon="7.12391">
        <ele>896.40002441406</ele>
        <time>2020-03-08T09:17:18.000Z</time>
      </trkpt>
      <trkpt lat="47.86693" lon="7.12388">
        <ele>895.79998779297</ele>
        <time>2020-03-08T09:17:19.000Z</time>
      </trkpt>
      <trkpt lat="47.86701" lon="7.12383">
        <ele>895</ele>
        <time>2020-03-08T09:17:20.000Z</time>
      </trkpt>
      <trkpt lat="47.86708" lon="7.12377">
        <ele>894.40002441406</ele>
        <time>2020-03-08T09:17:21.000Z</time>
      </trkpt>
      <trkpt lat="47.86713" lon="7.12369">
        <ele>893.59997558594</ele>
        <time>2020-03-08T09:17:22.000Z</time>
      </trkpt>
      <trkpt lat="47.86716" lon="7.1236">
        <ele>893</ele>
        <time>2020-03-08T09:17:23.000Z</time>
      </trkpt>
      <trkpt lat="47.86718" lon="7.12349">
        <ele>892.59997558594</ele>
        <time>2020-03-08T09:17:24.000Z</time>
      </trkpt>
      <trkpt lat="47.86718" lon="7.12338">
        <ele>891.79998779297</ele>
        <time>2020-03-08T09:17:25.000Z</time>
      </trkpt>
      <trkpt lat="47.86718" lon="7.12329">
        <ele>890.79998779297</ele>
        <time>2020-03-08T09:17:26.000Z</time>
      </trkpt>
      <trkpt lat="47.86716" lon="7.12321">
        <ele>890</ele>
        <time>2020-03-08T09:17:27.000Z</time>
      </trkpt>
      <trkpt lat="47.86715" lon="7.12313">
        <ele>889</ele>
        <time>2020-03-08T09:17:28.000Z</time>
      </trkpt>
      <trkpt lat="47.86713" lon="7.12305">
        <ele>888</ele>
        <time>2020-03-08T09:17:29.000Z</time>
      </trkpt>
      <trkpt lat="47.8671" lon="7.12299">
        <ele>887.20001220703</ele>
        <time>2020-03-08T09:17:30.000Z</time>
      </trkpt>
      <trkpt lat="47.86708" lon="7.12294">
        <ele>886.20001220703</ele>
        <time>2020-03-08T09:17:31.000Z</time>
      </trkpt>
      <trkpt lat="47.86705" lon="7.12288">
        <ele>886.20001220703</ele>
        <time>2020-03-08T09:17:32.000Z</time>
      </trkpt>
      <trkpt lat="47.86695" lon="7.12276">
        <ele>886.20001220703</ele>
        <time>2020-03-08T09:17:34.000Z</time>
      </trkpt>
      <trkpt lat="47.86689" lon="7.1227">
        <ele>885.79998779297</ele>
        <time>2020-03-08T09:17:35.000Z</time>
      </trkpt>
      <trkpt lat="47.86686" lon="7.12263">
        <ele>885.40002441406</ele>
        <time>2020-03-08T09:17:36.000Z</time>
      </trkpt>
      <trkpt lat="47.86682" lon="7.12256">
        <ele>885</ele>
        <time>2020-03-08T09:17:37.000Z</time>
      </trkpt>
      <trkpt lat="47.8668" lon="7.12248">
        <ele>884.40002441406</ele>
        <time>2020-03-08T09:17:38.000Z</time>
      </trkpt>
      <trkpt lat="47.86678" lon="7.1224">
        <ele>884</ele>
        <time>2020-03-08T09:17:39.000Z</time>
      </trkpt>
      <trkpt lat="47.86677" lon="7.12233">
        <ele>883.40002441406</ele>
        <time>2020-03-08T09:17:40.000Z</time>
      </trkpt>
      <trkpt lat="47.86675" lon="7.12226">
        <ele>882.40002441406</ele>
        <time>2020-03-08T09:17:41.000Z</time>
      </trkpt>
      <trkpt lat="47.86675" lon="7.12219">
        <ele>882</ele>
        <time>2020-03-08T09:17:42.000Z</time>
      </trkpt>
      <trkpt lat="47.86675" lon="7.12189">
        <ele>881.59997558594</ele>
        <time>2020-03-08T09:17:46.000Z</time>
      </trkpt>
      <trkpt lat="47.86676" lon="7.12182">
        <ele>881.20001220703</ele>
        <time>2020-03-08T09:17:47.000Z</time>
      </trkpt>
      <trkpt lat="47.86678" lon="7.12176">
        <ele>880.59997558594</ele>
        <time>2020-03-08T09:17:48.000Z</time>
      </trkpt>
      <trkpt lat="47.8668" lon="7.12172">
        <ele>880.20001220703</ele>
        <time>2020-03-08T09:17:49.000Z</time>
      </trkpt>
      <trkpt lat="47.86683" lon="7.12168">
        <ele>879.79998779297</ele>
        <time>2020-03-08T09:17:50.000Z</time>
      </trkpt>
      <trkpt lat="47.86685" lon="7.12165">
        <ele>879.79998779297</ele>
        <time>2020-03-08T09:17:51.000Z</time>
      </trkpt>
      <trkpt lat="47.86687" lon="7.12162">
        <ele>879.79998779297</ele>
        <time>2020-03-08T09:17:52.000Z</time>
      </trkpt>
      <trkpt lat="47.86687" lon="7.12159">
        <ele>879.79998779297</ele>
        <time>2020-03-08T09:17:53.000Z</time>
      </trkpt>
      <trkpt lat="47.86688" lon="7.12158">
        <ele>879.79998779297</ele>
        <time>2020-03-08T09:17:55.000Z</time>
      </trkpt>
      <trkpt lat="47.86686" lon="7.12155">
        <ele>877.79998779297</ele>
        <time>2020-03-08T09:19:43.000Z</time>
      </trkpt>
      <trkpt lat="47.86686" lon="7.12145">
        <ele>877.79998779297</ele>
        <time>2020-03-08T09:19:45.000Z</time>
      </trkpt>
      <trkpt lat="47.86687" lon="7.12137">
        <ele>877.20001220703</ele>
        <time>2020-03-08T09:19:46.000Z</time>
      </trkpt>
      <trkpt lat="47.86687" lon="7.12129">
        <ele>876.59997558594</ele>
        <time>2020-03-08T09:19:47.000Z</time>
      </trkpt>
      <trkpt lat="47.86688" lon="7.1212">
        <ele>875.40002441406</ele>
        <time>2020-03-08T09:19:48.000Z</time>
      </trkpt>
      <trkpt lat="47.86688" lon="7.12109">
        <ele>874.40002441406</ele>
        <time>2020-03-08T09:19:49.000Z</time>
      </trkpt>
      <trkpt lat="47.86687" lon="7.12099">
        <ele>873.20001220703</ele>
        <time>2020-03-08T09:19:50.000Z</time>
      </trkpt>
      <trkpt lat="47.86686" lon="7.12086">
        <ele>872</ele>
        <time>2020-03-08T09:19:51.000Z</time>
      </trkpt>
      <trkpt lat="47.86685" lon="7.12075">
        <ele>870.59997558594</ele>
        <time>2020-03-08T09:19:52.000Z</time>
      </trkpt>
      <trkpt lat="47.86683" lon="7.12064">
        <ele>869.20001220703</ele>
        <time>2020-03-08T09:19:53.000Z</time>
      </trkpt>
      <trkpt lat="47.86682" lon="7.12053">
        <ele>867.79998779297</ele>
        <time>2020-03-08T09:19:54.000Z</time>
      </trkpt>
      <trkpt lat="47.86681" lon="7.12041">
        <ele>866.20001220703</ele>
        <time>2020-03-08T09:19:55.000Z</time>
      </trkpt>
      <trkpt lat="47.86681" lon="7.1203">
        <ele>865</ele>
        <time>2020-03-08T09:19:56.000Z</time>
      </trkpt>
      <trkpt lat="47.8668" lon="7.12019">
        <ele>863.59997558594</ele>
        <time>2020-03-08T09:19:57.000Z</time>
      </trkpt>
      <trkpt lat="47.8668" lon="7.12009">
        <ele>862.20001220703</ele>
        <time>2020-03-08T09:19:58.000Z</time>
      </trkpt>
      <trkpt lat="47.8668" lon="7.11998">
        <ele>861</ele>
        <time>2020-03-08T09:19:59.000Z</time>
      </trkpt>
      <trkpt lat="47.86681" lon="7.11988">
        <ele>859.59997558594</ele>
        <time>2020-03-08T09:20:00.000Z</time>
      </trkpt>
      <trkpt lat="47.86683" lon="7.11978">
        <ele>858.59997558594</ele>
        <time>2020-03-08T09:20:01.000Z</time>
      </trkpt>
      <trkpt lat="47.86685" lon="7.11969">
        <ele>857.59997558594</ele>
        <time>2020-03-08T09:20:02.000Z</time>
      </trkpt>
      <trkpt lat="47.86687" lon="7.11959">
        <ele>856.59997558594</ele>
        <time>2020-03-08T09:20:03.000Z</time>
      </trkpt>
      <trkpt lat="47.86689" lon="7.1195">
        <ele>855.59997558594</ele>
        <time>2020-03-08T09:20:04.000Z</time>
      </trkpt>
      <trkpt lat="47.8669" lon="7.11941">
        <ele>854.59997558594</ele>
        <time>2020-03-08T09:20:05.000Z</time>
      </trkpt>
      <trkpt lat="47.86692" lon="7.11933">
        <ele>853.59997558594</ele>
        <time>2020-03-08T09:20:06.000Z</time>
      </trkpt>
      <trkpt lat="47.86692" lon="7.11927">
        <ele>852.40002441406</ele>
        <time>2020-03-08T09:20:07.000Z</time>
      </trkpt>
      <trkpt lat="47.86693" lon="7.11922">
        <ele>851.40002441406</ele>
        <time>2020-03-08T09:20:08.000Z</time>
      </trkpt>
      <trkpt lat="47.86693" lon="7.11918">
        <ele>849.20001220703</ele>
        <time>2020-03-08T09:20:09.000Z</time>
      </trkpt>
      <trkpt lat="47.86692" lon="7.11915">
        <ele>848.20001220703</ele>
        <time>2020-03-08T09:20:10.000Z</time>
      </trkpt>
      <trkpt lat="47.86691" lon="7.11912">
        <ele>847.20001220703</ele>
        <time>2020-03-08T09:20:11.000Z</time>
      </trkpt>
      <trkpt lat="47.8669" lon="7.11909">
        <ele>846.20001220703</ele>
        <time>2020-03-08T09:20:12.000Z</time>
      </trkpt>
      <trkpt lat="47.86689" lon="7.11906">
        <ele>845.20001220703</ele>
        <time>2020-03-08T09:20:13.000Z</time>
      </trkpt>
      <trkpt lat="47.86688" lon="7.11901">
        <ele>844.40002441406</ele>
        <time>2020-03-08T09:20:14.000Z</time>
      </trkpt>
      <trkpt lat="47.86686" lon="7.11895">
        <ele>844.40002441406</ele>
        <time>2020-03-08T09:20:16.000Z</time>
      </trkpt>
      <trkpt lat="47.86683" lon="7.11884">
        <ele>844</ele>
        <time>2020-03-08T09:20:19.000Z</time>
      </trkpt>
      <trkpt lat="47.86682" lon="7.11881">
        <ele>843.59997558594</ele>
        <time>2020-03-08T09:20:20.000Z</time>
      </trkpt>
      <trkpt lat="47.86681" lon="7.11877">
        <ele>843.20001220703</ele>
        <time>2020-03-08T09:20:21.000Z</time>
      </trkpt>
      <trkpt lat="47.86679" lon="7.11872">
        <ele>842.79998779297</ele>
        <time>2020-03-08T09:20:22.000Z</time>
      </trkpt>
      <trkpt lat="47.86677" lon="7.11866">
        <ele>842.40002441406</ele>
        <time>2020-03-08T09:20:23.000Z</time>
      </trkpt>
      <trkpt lat="47.86674" lon="7.11853">
        <ele>842.40002441406</ele>
        <time>2020-03-08T09:20:25.000Z</time>
      </trkpt>
      <trkpt lat="47.86669" lon="7.11831">
        <ele>841.79998779297</ele>
        <time>2020-03-08T09:20:28.000Z</time>
      </trkpt>
      <trkpt lat="47.86668" lon="7.11824">
        <ele>841.40002441406</ele>
        <time>2020-03-08T09:20:29.000Z</time>
      </trkpt>
      <trkpt lat="47.86667" lon="7.11816">
        <ele>841</ele>
        <time>2020-03-08T09:20:30.000Z</time>
      </trkpt>
      <trkpt lat="47.86665" lon="7.11807">
        <ele>840.59997558594</ele>
        <time>2020-03-08T09:20:31.000Z</time>
      </trkpt>
      <trkpt lat="47.86663" lon="7.11799">
        <ele>840.20001220703</ele>
        <time>2020-03-08T09:20:32.000Z</time>
      </trkpt>
      <trkpt lat="47.86662" lon="7.1179">
        <ele>839.79998779297</ele>
        <time>2020-03-08T09:20:33.000Z</time>
      </trkpt>
      <trkpt lat="47.8666" lon="7.11781">
        <ele>839</ele>
        <time>2020-03-08T09:20:34.000Z</time>
      </trkpt>
      <trkpt lat="47.86659" lon="7.11772">
        <ele>838.59997558594</ele>
        <time>2020-03-08T09:20:35.000Z</time>
      </trkpt>
      <trkpt lat="47.86657" lon="7.11763">
        <ele>838</ele>
        <time>2020-03-08T09:20:36.000Z</time>
      </trkpt>
      <trkpt lat="47.86655" lon="7.11753">
        <ele>837.40002441406</ele>
        <time>2020-03-08T09:20:37.000Z</time>
      </trkpt>
      <trkpt lat="47.86654" lon="7.11743">
        <ele>837</ele>
        <time>2020-03-08T09:20:38.000Z</time>
      </trkpt>
      <trkpt lat="47.86653" lon="7.11734">
        <ele>836.40002441406</ele>
        <time>2020-03-08T09:20:39.000Z</time>
      </trkpt>
      <trkpt lat="47.86652" lon="7.11725">
        <ele>835.79998779297</ele>
        <time>2020-03-08T09:20:40.000Z</time>
      </trkpt>
      <trkpt lat="47.86652" lon="7.11717">
        <ele>835.79998779297</ele>
        <time>2020-03-08T09:20:41.000Z</time>
      </trkpt>
      <trkpt lat="47.86652" lon="7.11711">
        <ele>835.40002441406</ele>
        <time>2020-03-08T09:20:42.000Z</time>
      </trkpt>
      <trkpt lat="47.86654" lon="7.11705">
        <ele>834.79998779297</ele>
        <time>2020-03-08T09:20:43.000Z</time>
      </trkpt>
      <trkpt lat="47.86656" lon="7.117">
        <ele>834.40002441406</ele>
        <time>2020-03-08T09:20:44.000Z</time>
      </trkpt>
      <trkpt lat="47.8666" lon="7.11696">
        <ele>833.79998779297</ele>
        <time>2020-03-08T09:20:45.000Z</time>
      </trkpt>
      <trkpt lat="47.86665" lon="7.11694">
        <ele>833.40002441406</ele>
        <time>2020-03-08T09:20:46.000Z</time>
      </trkpt>
      <trkpt lat="47.8667" lon="7.11691">
        <ele>833.40002441406</ele>
        <time>2020-03-08T09:20:47.000Z</time>
      </trkpt>
      <trkpt lat="47.86676" lon="7.11688">
        <ele>832.79998779297</ele>
        <time>2020-03-08T09:20:48.000Z</time>
      </trkpt>
      <trkpt lat="47.86681" lon="7.11684">
        <ele>832.40002441406</ele>
        <time>2020-03-08T09:20:49.000Z</time>
      </trkpt>
      <trkpt lat="47.86685" lon="7.11678">
        <ele>832</ele>
        <time>2020-03-08T09:20:50.000Z</time>
      </trkpt>
      <trkpt lat="47.86688" lon="7.1167">
        <ele>831.40002441406</ele>
        <time>2020-03-08T09:20:51.000Z</time>
      </trkpt>
      <trkpt lat="47.86689" lon="7.11661">
        <ele>831</ele>
        <time>2020-03-08T09:20:52.000Z</time>
      </trkpt>
      <trkpt lat="47.86689" lon="7.1165">
        <ele>830.59997558594</ele>
        <time>2020-03-08T09:20:53.000Z</time>
      </trkpt>
      <trkpt lat="47.86689" lon="7.1164">
        <ele>830.20001220703</ele>
        <time>2020-03-08T09:20:54.000Z</time>
      </trkpt>
      <trkpt lat="47.86689" lon="7.11631">
        <ele>829.59997558594</ele>
        <time>2020-03-08T09:20:55.000Z</time>
      </trkpt>
      <trkpt lat="47.86691" lon="7.11622">
        <ele>829</ele>
        <time>2020-03-08T09:20:56.000Z</time>
      </trkpt>
      <trkpt lat="47.86695" lon="7.11614">
        <ele>828.40002441406</ele>
        <time>2020-03-08T09:20:57.000Z</time>
      </trkpt>
      <trkpt lat="47.86699" lon="7.11608">
        <ele>827.20001220703</ele>
        <time>2020-03-08T09:20:58.000Z</time>
      </trkpt>
      <trkpt lat="47.86705" lon="7.11604">
        <ele>826.79998779297</ele>
        <time>2020-03-08T09:20:59.000Z</time>
      </trkpt>
      <trkpt lat="47.86712" lon="7.11601">
        <ele>826.20001220703</ele>
        <time>2020-03-08T09:21:00.000Z</time>
      </trkpt>
      <trkpt lat="47.86718" lon="7.116">
        <ele>825.59997558594</ele>
        <time>2020-03-08T09:21:01.000Z</time>
      </trkpt>
      <trkpt lat="47.86724" lon="7.11599">
        <ele>825</ele>
        <time>2020-03-08T09:21:02.000Z</time>
      </trkpt>
      <trkpt lat="47.8673" lon="7.11598">
        <ele>824.59997558594</ele>
        <time>2020-03-08T09:21:03.000Z</time>
      </trkpt>
      <trkpt lat="47.8674" lon="7.11597">
        <ele>824.59997558594</ele>
        <time>2020-03-08T09:21:05.000Z</time>
      </trkpt>
      <trkpt lat="47.86753" lon="7.11594">
        <ele>824.59997558594</ele>
        <time>2020-03-08T09:21:09.000Z</time>
      </trkpt>
      <trkpt lat="47.86764" lon="7.11597">
        <ele>824.59997558594</ele>
        <time>2020-03-08T09:21:15.000Z</time>
      </trkpt>
      <trkpt lat="47.86764" lon="7.116">
        <ele>824.59997558594</ele>
        <time>2020-03-08T09:21:19.000Z</time>
      </trkpt>
      <trkpt lat="47.86762" lon="7.11604">
        <ele>824.59997558594</ele>
        <time>2020-03-08T09:21:21.000Z</time>
      </trkpt>
      <trkpt lat="47.86757" lon="7.11609">
        <ele>824.59997558594</ele>
        <time>2020-03-08T09:21:25.000Z</time>
      </trkpt>
      <trkpt lat="47.86759" lon="7.11611">
        <ele>824.59997558594</ele>
        <time>2020-03-08T09:21:27.000Z</time>
      </trkpt>
      <trkpt lat="47.86761" lon="7.11611">
        <ele>824.59997558594</ele>
        <time>2020-03-08T09:21:30.000Z</time>
      </trkpt>
      <trkpt lat="47.86762" lon="7.1161">
        <ele>824.20001220703</ele>
        <time>2020-03-08T09:21:31.000Z</time>
      </trkpt>
      <trkpt lat="47.86763" lon="7.11608">
        <ele>823.59997558594</ele>
        <time>2020-03-08T09:21:32.000Z</time>
      </trkpt>
      <trkpt lat="47.86764" lon="7.11605">
        <ele>823.20001220703</ele>
        <time>2020-03-08T09:21:33.000Z</time>
      </trkpt>
      <trkpt lat="47.86765" lon="7.11602">
        <ele>822.79998779297</ele>
        <time>2020-03-08T09:21:34.000Z</time>
      </trkpt>
      <trkpt lat="47.86766" lon="7.116">
        <ele>822.40002441406</ele>
        <time>2020-03-08T09:21:35.000Z</time>
      </trkpt>
      <trkpt lat="47.86768" lon="7.11597">
        <ele>822.40002441406</ele>
        <time>2020-03-08T09:21:36.000Z</time>
      </trkpt>
      <trkpt lat="47.86778" lon="7.11577">
        <ele>822.40002441406</ele>
        <time>2020-03-08T09:21:43.000Z</time>
      </trkpt>
      <trkpt lat="47.8678" lon="7.11553">
        <ele>822.40002441406</ele>
        <time>2020-03-08T09:21:47.000Z</time>
      </trkpt>
      <trkpt lat="47.86779" lon="7.11547">
        <ele>822.40002441406</ele>
        <time>2020-03-08T09:21:48.000Z</time>
      </trkpt>
      <trkpt lat="47.86771" lon="7.11511">
        <ele>822.40002441406</ele>
        <time>2020-03-08T09:21:54.000Z</time>
      </trkpt>
      <trkpt lat="47.86769" lon="7.11504">
        <ele>822</ele>
        <time>2020-03-08T09:21:55.000Z</time>
      </trkpt>
      <trkpt lat="47.86767" lon="7.11496">
        <ele>821.59997558594</ele>
        <time>2020-03-08T09:21:56.000Z</time>
      </trkpt>
      <trkpt lat="47.86765" lon="7.11488">
        <ele>821</ele>
        <time>2020-03-08T09:21:57.000Z</time>
      </trkpt>
      <trkpt lat="47.86763" lon="7.1148">
        <ele>820.59997558594</ele>
        <time>2020-03-08T09:21:58.000Z</time>
      </trkpt>
      <trkpt lat="47.8676" lon="7.11472">
        <ele>820.20001220703</ele>
        <time>2020-03-08T09:21:59.000Z</time>
      </trkpt>
      <trkpt lat="47.86754" lon="7.11454">
        <ele>819.59997558594</ele>
        <time>2020-03-08T09:22:01.000Z</time>
      </trkpt>
      <trkpt lat="47.8675" lon="7.11444">
        <ele>819</ele>
        <time>2020-03-08T09:22:02.000Z</time>
      </trkpt>
      <trkpt lat="47.86747" lon="7.11435">
        <ele>818.59997558594</ele>
        <time>2020-03-08T09:22:03.000Z</time>
      </trkpt>
      <trkpt lat="47.86743" lon="7.11426">
        <ele>818</ele>
        <time>2020-03-08T09:22:04.000Z</time>
      </trkpt>
      <trkpt lat="47.8674" lon="7.11417">
        <ele>817.40002441406</ele>
        <time>2020-03-08T09:22:05.000Z</time>
      </trkpt>
      <trkpt lat="47.86732" lon="7.11393">
        <ele>817.40002441406</ele>
        <time>2020-03-08T09:22:09.000Z</time>
      </trkpt>
      <trkpt lat="47.8673" lon="7.1138">
        <ele>817.40002441406</ele>
        <time>2020-03-08T09:22:14.000Z</time>
      </trkpt>
      <trkpt lat="47.8673" lon="7.11372">
        <ele>817.79998779297</ele>
        <time>2020-03-08T09:22:17.000Z</time>
      </trkpt>
      <trkpt lat="47.8673" lon="7.11369">
        <ele>818.20001220703</ele>
        <time>2020-03-08T09:22:18.000Z</time>
      </trkpt>
      <trkpt lat="47.86729" lon="7.11366">
        <ele>818.59997558594</ele>
        <time>2020-03-08T09:22:19.000Z</time>
      </trkpt>
      <trkpt lat="47.86728" lon="7.11362">
        <ele>819</ele>
        <time>2020-03-08T09:22:20.000Z</time>
      </trkpt>
      <trkpt lat="47.86727" lon="7.11358">
        <ele>819.40002441406</ele>
        <time>2020-03-08T09:22:21.000Z</time>
      </trkpt>
      <trkpt lat="47.86724" lon="7.11345">
        <ele>819.40002441406</ele>
        <time>2020-03-08T09:22:24.000Z</time>
      </trkpt>
      <trkpt lat="47.86723" lon="7.1134">
        <ele>819.79998779297</ele>
        <time>2020-03-08T09:22:25.000Z</time>
      </trkpt>
      <trkpt lat="47.86722" lon="7.11335">
        <ele>820.40002441406</ele>
        <time>2020-03-08T09:22:26.000Z</time>
      </trkpt>
      <trkpt lat="47.86721" lon="7.1133">
        <ele>820.79998779297</ele>
        <time>2020-03-08T09:22:27.000Z</time>
      </trkpt>
      <trkpt lat="47.8672" lon="7.11325">
        <ele>821.20001220703</ele>
        <time>2020-03-08T09:22:28.000Z</time>
      </trkpt>
      <trkpt lat="47.86719" lon="7.11321">
        <ele>821.59997558594</ele>
        <time>2020-03-08T09:22:29.000Z</time>
      </trkpt>
      <trkpt lat="47.86718" lon="7.11312">
        <ele>821.59997558594</ele>
        <time>2020-03-08T09:22:31.000Z</time>
      </trkpt>
      <trkpt lat="47.86718" lon="7.11307">
        <ele>822</ele>
        <time>2020-03-08T09:22:32.000Z</time>
      </trkpt>
      <trkpt lat="47.86718" lon="7.11303">
        <ele>822.40002441406</ele>
        <time>2020-03-08T09:22:33.000Z</time>
      </trkpt>
      <trkpt lat="47.86718" lon="7.11299">
        <ele>822.79998779297</ele>
        <time>2020-03-08T09:22:34.000Z</time>
      </trkpt>
      <trkpt lat="47.86718" lon="7.11297">
        <ele>823.20001220703</ele>
        <time>2020-03-08T09:22:35.000Z</time>
      </trkpt>
      <trkpt lat="47.86717" lon="7.11294">
        <ele>823.59997558594</ele>
        <time>2020-03-08T09:22:36.000Z</time>
      </trkpt>
      <trkpt lat="47.86717" lon="7.11292">
        <ele>823.59997558594</ele>
        <time>2020-03-08T09:22:37.000Z</time>
      </trkpt>
      <trkpt lat="47.86716" lon="7.11274">
        <ele>824</ele>
        <time>2020-03-08T09:22:42.000Z</time>
      </trkpt>
      <trkpt lat="47.86716" lon="7.1127">
        <ele>824.40002441406</ele>
        <time>2020-03-08T09:22:43.000Z</time>
      </trkpt>
      <trkpt lat="47.86716" lon="7.11266">
        <ele>824.79998779297</ele>
        <time>2020-03-08T09:22:44.000Z</time>
      </trkpt>
      <trkpt lat="47.86716" lon="7.11263">
        <ele>825.40002441406</ele>
        <time>2020-03-08T09:22:45.000Z</time>
      </trkpt>
      <trkpt lat="47.86716" lon="7.11259">
        <ele>825.79998779297</ele>
        <time>2020-03-08T09:22:46.000Z</time>
      </trkpt>
      <trkpt lat="47.86715" lon="7.11245">
        <ele>825.79998779297</ele>
        <time>2020-03-08T09:22:49.000Z</time>
      </trkpt>
      <trkpt lat="47.86712" lon="7.11221">
        <ele>825.79998779297</ele>
        <time>2020-03-08T09:22:55.000Z</time>
      </trkpt>
      <trkpt lat="47.86706" lon="7.11198">
        <ele>825.79998779297</ele>
        <time>2020-03-08T09:23:02.000Z</time>
      </trkpt>
      <trkpt lat="47.86699" lon="7.1118">
        <ele>825.79998779297</ele>
        <time>2020-03-08T09:23:06.000Z</time>
      </trkpt>
      <trkpt lat="47.8669" lon="7.11152">
        <ele>825.79998779297</ele>
        <time>2020-03-08T09:23:10.000Z</time>
      </trkpt>
      <trkpt lat="47.86689" lon="7.11145">
        <ele>825.20001220703</ele>
        <time>2020-03-08T09:23:11.000Z</time>
      </trkpt>
      <trkpt lat="47.86687" lon="7.11138">
        <ele>824.59997558594</ele>
        <time>2020-03-08T09:23:12.000Z</time>
      </trkpt>
      <trkpt lat="47.86684" lon="7.11131">
        <ele>824.20001220703</ele>
        <time>2020-03-08T09:23:13.000Z</time>
      </trkpt>
      <trkpt lat="47.86682" lon="7.11123">
        <ele>823.40002441406</ele>
        <time>2020-03-08T09:23:14.000Z</time>
      </trkpt>
      <trkpt lat="47.86679" lon="7.11114">
        <ele>822.59997558594</ele>
        <time>2020-03-08T09:23:15.000Z</time>
      </trkpt>
      <trkpt lat="47.86677" lon="7.11106">
        <ele>821.59997558594</ele>
        <time>2020-03-08T09:23:16.000Z</time>
      </trkpt>
      <trkpt lat="47.86675" lon="7.111">
        <ele>820.79998779297</ele>
        <time>2020-03-08T09:23:17.000Z</time>
      </trkpt>
      <trkpt lat="47.86673" lon="7.11094">
        <ele>820</ele>
        <time>2020-03-08T09:23:18.000Z</time>
      </trkpt>
      <trkpt lat="47.86672" lon="7.11088">
        <ele>820</ele>
        <time>2020-03-08T09:23:19.000Z</time>
      </trkpt>
      <trkpt lat="47.86666" lon="7.1107">
        <ele>820</ele>
        <time>2020-03-08T09:23:24.000Z</time>
      </trkpt>
      <trkpt lat="47.86661" lon="7.11049">
        <ele>820</ele>
        <time>2020-03-08T09:23:29.000Z</time>
      </trkpt>
      <trkpt lat="47.86656" lon="7.11032">
        <ele>820</ele>
        <time>2020-03-08T09:23:34.000Z</time>
      </trkpt>
      <trkpt lat="47.8665" lon="7.1101">
        <ele>820</ele>
        <time>2020-03-08T09:23:41.000Z</time>
      </trkpt>
      <trkpt lat="47.86644" lon="7.1099">
        <ele>820</ele>
        <time>2020-03-08T09:23:46.000Z</time>
      </trkpt>
      <trkpt lat="47.86641" lon="7.1098">
        <ele>819.59997558594</ele>
        <time>2020-03-08T09:23:48.000Z</time>
      </trkpt>
      <trkpt lat="47.86639" lon="7.10976">
        <ele>819.20001220703</ele>
        <time>2020-03-08T09:23:49.000Z</time>
      </trkpt>
      <trkpt lat="47.86638" lon="7.10971">
        <ele>818.20001220703</ele>
        <time>2020-03-08T09:23:50.000Z</time>
      </trkpt>
      <trkpt lat="47.86637" lon="7.10965">
        <ele>817.59997558594</ele>
        <time>2020-03-08T09:23:51.000Z</time>
      </trkpt>
      <trkpt lat="47.86635" lon="7.1096">
        <ele>817</ele>
        <time>2020-03-08T09:23:52.000Z</time>
      </trkpt>
      <trkpt lat="47.86633" lon="7.10953">
        <ele>816.40002441406</ele>
        <time>2020-03-08T09:23:53.000Z</time>
      </trkpt>
      <trkpt lat="47.86632" lon="7.10947">
        <ele>815.79998779297</ele>
        <time>2020-03-08T09:23:54.000Z</time>
      </trkpt>
      <trkpt lat="47.8663" lon="7.1094">
        <ele>815.20001220703</ele>
        <time>2020-03-08T09:23:55.000Z</time>
      </trkpt>
      <trkpt lat="47.86629" lon="7.10933">
        <ele>814.59997558594</ele>
        <time>2020-03-08T09:23:56.000Z</time>
      </trkpt>
      <trkpt lat="47.86628" lon="7.10925">
        <ele>814</ele>
        <time>2020-03-08T09:23:57.000Z</time>
      </trkpt>
      <trkpt lat="47.86628" lon="7.10916">
        <ele>813.40002441406</ele>
        <time>2020-03-08T09:23:58.000Z</time>
      </trkpt>
      <trkpt lat="47.86628" lon="7.10907">
        <ele>812.79998779297</ele>
        <time>2020-03-08T09:23:59.000Z</time>
      </trkpt>
      <trkpt lat="47.86628" lon="7.10898">
        <ele>811.79998779297</ele>
        <time>2020-03-08T09:24:00.000Z</time>
      </trkpt>
      <trkpt lat="47.86627" lon="7.1089">
        <ele>810.79998779297</ele>
        <time>2020-03-08T09:24:01.000Z</time>
      </trkpt>
      <trkpt lat="47.86625" lon="7.10881">
        <ele>809.79998779297</ele>
        <time>2020-03-08T09:24:02.000Z</time>
      </trkpt>
      <trkpt lat="47.86623" lon="7.10873">
        <ele>808.79998779297</ele>
        <time>2020-03-08T09:24:03.000Z</time>
      </trkpt>
      <trkpt lat="47.86621" lon="7.10864">
        <ele>807.79998779297</ele>
        <time>2020-03-08T09:24:04.000Z</time>
      </trkpt>
      <trkpt lat="47.86617" lon="7.10855">
        <ele>807</ele>
        <time>2020-03-08T09:24:05.000Z</time>
      </trkpt>
      <trkpt lat="47.86614" lon="7.10846">
        <ele>806</ele>
        <time>2020-03-08T09:24:06.000Z</time>
      </trkpt>
      <trkpt lat="47.86612" lon="7.10837">
        <ele>805.20001220703</ele>
        <time>2020-03-08T09:24:07.000Z</time>
      </trkpt>
      <trkpt lat="47.86609" lon="7.10829">
        <ele>804.40002441406</ele>
        <time>2020-03-08T09:24:08.000Z</time>
      </trkpt>
      <trkpt lat="47.86607" lon="7.10823">
        <ele>803.59997558594</ele>
        <time>2020-03-08T09:24:09.000Z</time>
      </trkpt>
      <trkpt lat="47.86605" lon="7.10819">
        <ele>802.79998779297</ele>
        <time>2020-03-08T09:24:10.000Z</time>
      </trkpt>
      <trkpt lat="47.86603" lon="7.10815">
        <ele>802</ele>
        <time>2020-03-08T09:24:11.000Z</time>
      </trkpt>
      <trkpt lat="47.86602" lon="7.10811">
        <ele>801.20001220703</ele>
        <time>2020-03-08T09:24:12.000Z</time>
      </trkpt>
      <trkpt lat="47.86598" lon="7.10789">
        <ele>801.20001220703</ele>
        <time>2020-03-08T09:24:18.000Z</time>
      </trkpt>
      <trkpt lat="47.86593" lon="7.1077">
        <ele>800.59997558594</ele>
        <time>2020-03-08T09:24:23.000Z</time>
      </trkpt>
      <trkpt lat="47.86592" lon="7.10767">
        <ele>800.20001220703</ele>
        <time>2020-03-08T09:24:24.000Z</time>
      </trkpt>
      <trkpt lat="47.86591" lon="7.10764">
        <ele>799.59997558594</ele>
        <time>2020-03-08T09:24:25.000Z</time>
      </trkpt>
      <trkpt lat="47.8659" lon="7.1076">
        <ele>799</ele>
        <time>2020-03-08T09:24:26.000Z</time>
      </trkpt>
      <trkpt lat="47.86588" lon="7.10755">
        <ele>798.40002441406</ele>
        <time>2020-03-08T09:24:27.000Z</time>
      </trkpt>
      <trkpt lat="47.86587" lon="7.10747">
        <ele>797.79998779297</ele>
        <time>2020-03-08T09:24:28.000Z</time>
      </trkpt>
      <trkpt lat="47.86585" lon="7.10739">
        <ele>796.79998779297</ele>
        <time>2020-03-08T09:24:29.000Z</time>
      </trkpt>
      <trkpt lat="47.86584" lon="7.10731">
        <ele>796</ele>
        <time>2020-03-08T09:24:30.000Z</time>
      </trkpt>
      <trkpt lat="47.86582" lon="7.10722">
        <ele>795</ele>
        <time>2020-03-08T09:24:31.000Z</time>
      </trkpt>
      <trkpt lat="47.8658" lon="7.10713">
        <ele>794</ele>
        <time>2020-03-08T09:24:32.000Z</time>
      </trkpt>
      <trkpt lat="47.86579" lon="7.10705">
        <ele>792.59997558594</ele>
        <time>2020-03-08T09:24:33.000Z</time>
      </trkpt>
      <trkpt lat="47.86578" lon="7.10698">
        <ele>791.40002441406</ele>
        <time>2020-03-08T09:24:34.000Z</time>
      </trkpt>
      <trkpt lat="47.86577" lon="7.10691">
        <ele>790.20001220703</ele>
        <time>2020-03-08T09:24:35.000Z</time>
      </trkpt>
      <trkpt lat="47.86576" lon="7.10684">
        <ele>789</ele>
        <time>2020-03-08T09:24:36.000Z</time>
      </trkpt>
      <trkpt lat="47.86575" lon="7.10676">
        <ele>787.79998779297</ele>
        <time>2020-03-08T09:24:37.000Z</time>
      </trkpt>
      <trkpt lat="47.86574" lon="7.10669">
        <ele>786.59997558594</ele>
        <time>2020-03-08T09:24:38.000Z</time>
      </trkpt>
      <trkpt lat="47.86573" lon="7.1066">
        <ele>785.40002441406</ele>
        <time>2020-03-08T09:24:39.000Z</time>
      </trkpt>
      <trkpt lat="47.86572" lon="7.1065">
        <ele>782.79998779297</ele>
        <time>2020-03-08T09:24:40.000Z</time>
      </trkpt>
      <trkpt lat="47.86571" lon="7.1064">
        <ele>781.40002441406</ele>
        <time>2020-03-08T09:24:41.000Z</time>
      </trkpt>
      <trkpt lat="47.8657" lon="7.10631">
        <ele>779.79998779297</ele>
        <time>2020-03-08T09:24:42.000Z</time>
      </trkpt>
      <trkpt lat="47.86568" lon="7.10623">
        <ele>778.40002441406</ele>
        <time>2020-03-08T09:24:43.000Z</time>
      </trkpt>
      <trkpt lat="47.86566" lon="7.10617">
        <ele>777</ele>
        <time>2020-03-08T09:24:44.000Z</time>
      </trkpt>
      <trkpt lat="47.86564" lon="7.10612">
        <ele>775.40002441406</ele>
        <time>2020-03-08T09:24:45.000Z</time>
      </trkpt>
      <trkpt lat="47.86563" lon="7.10609">
        <ele>774</ele>
        <time>2020-03-08T09:24:46.000Z</time>
      </trkpt>
      <trkpt lat="47.86562" lon="7.10608">
        <ele>773</ele>
        <time>2020-03-08T09:24:47.000Z</time>
      </trkpt>
      <trkpt lat="47.86562" lon="7.10607">
        <ele>772</ele>
        <time>2020-03-08T09:24:48.000Z</time>
      </trkpt>
      <trkpt lat="47.86562" lon="7.10607">
        <ele>770.79998779297</ele>
        <time>2020-03-08T09:24:49.000Z</time>
      </trkpt>
      <trkpt lat="47.86562" lon="7.10606">
        <ele>769.79998779297</ele>
        <time>2020-03-08T09:24:50.000Z</time>
      </trkpt>
      <trkpt lat="47.86559" lon="7.10603">
        <ele>768.79998779297</ele>
        <time>2020-03-08T09:25:08.000Z</time>
      </trkpt>
      <trkpt lat="47.86555" lon="7.10598">
        <ele>768.40002441406</ele>
        <time>2020-03-08T09:25:10.000Z</time>
      </trkpt>
      <trkpt lat="47.86552" lon="7.10595">
        <ele>768</ele>
        <time>2020-03-08T09:25:11.000Z</time>
      </trkpt>
      <trkpt lat="47.8655" lon="7.10591">
        <ele>767.20001220703</ele>
        <time>2020-03-08T09:25:12.000Z</time>
      </trkpt>
      <trkpt lat="47.86547" lon="7.10587">
        <ele>766.40002441406</ele>
        <time>2020-03-08T09:25:13.000Z</time>
      </trkpt>
      <trkpt lat="47.86545" lon="7.10582">
        <ele>765.20001220703</ele>
        <time>2020-03-08T09:25:14.000Z</time>
      </trkpt>
      <trkpt lat="47.86542" lon="7.10577">
        <ele>764</ele>
        <time>2020-03-08T09:25:15.000Z</time>
      </trkpt>
      <trkpt lat="47.8654" lon="7.10571">
        <ele>762.79998779297</ele>
        <time>2020-03-08T09:25:16.000Z</time>
      </trkpt>
      <trkpt lat="47.86539" lon="7.10565">
        <ele>761.40002441406</ele>
        <time>2020-03-08T09:25:17.000Z</time>
      </trkpt>
      <trkpt lat="47.86537" lon="7.10557">
        <ele>760.20001220703</ele>
        <time>2020-03-08T09:25:18.000Z</time>
      </trkpt>
      <trkpt lat="47.86534" lon="7.1055">
        <ele>758.59997558594</ele>
        <time>2020-03-08T09:25:19.000Z</time>
      </trkpt>
      <trkpt lat="47.86532" lon="7.10541">
        <ele>757</ele>
        <time>2020-03-08T09:25:20.000Z</time>
      </trkpt>
      <trkpt lat="47.86529" lon="7.10533">
        <ele>755.40002441406</ele>
        <time>2020-03-08T09:25:21.000Z</time>
      </trkpt>
      <trkpt lat="47.86526" lon="7.10526">
        <ele>753.79998779297</ele>
        <time>2020-03-08T09:25:22.000Z</time>
      </trkpt>
      <trkpt lat="47.86524" lon="7.10519">
        <ele>752.20001220703</ele>
        <time>2020-03-08T09:25:23.000Z</time>
      </trkpt>
      <trkpt lat="47.86522" lon="7.10513">
        <ele>750.59997558594</ele>
        <time>2020-03-08T09:25:24.000Z</time>
      </trkpt>
      <trkpt lat="47.86521" lon="7.10507">
        <ele>749.20001220703</ele>
        <time>2020-03-08T09:25:25.000Z</time>
      </trkpt>
      <trkpt lat="47.86519" lon="7.105">
        <ele>747.59997558594</ele>
        <time>2020-03-08T09:25:26.000Z</time>
      </trkpt>
      <trkpt lat="47.86518" lon="7.10493">
        <ele>746.40002441406</ele>
        <time>2020-03-08T09:25:27.000Z</time>
      </trkpt>
      <trkpt lat="47.86516" lon="7.10486">
        <ele>745.20001220703</ele>
        <time>2020-03-08T09:25:28.000Z</time>
      </trkpt>
      <trkpt lat="47.86514" lon="7.10477">
        <ele>743.20001220703</ele>
        <time>2020-03-08T09:25:29.000Z</time>
      </trkpt>
      <trkpt lat="47.86513" lon="7.10469">
        <ele>742.20001220703</ele>
        <time>2020-03-08T09:25:30.000Z</time>
      </trkpt>
      <trkpt lat="47.86512" lon="7.1046">
        <ele>741.20001220703</ele>
        <time>2020-03-08T09:25:31.000Z</time>
      </trkpt>
      <trkpt lat="47.8651" lon="7.10452">
        <ele>740.20001220703</ele>
        <time>2020-03-08T09:25:32.000Z</time>
      </trkpt>
      <trkpt lat="47.86509" lon="7.10445">
        <ele>739.40002441406</ele>
        <time>2020-03-08T09:25:33.000Z</time>
      </trkpt>
      <trkpt lat="47.86507" lon="7.10438">
        <ele>738.79998779297</ele>
        <time>2020-03-08T09:25:34.000Z</time>
      </trkpt>
      <trkpt lat="47.86506" lon="7.10431">
        <ele>738.20001220703</ele>
        <time>2020-03-08T09:25:35.000Z</time>
      </trkpt>
      <trkpt lat="47.86505" lon="7.10424">
        <ele>737.59997558594</ele>
        <time>2020-03-08T09:25:36.000Z</time>
      </trkpt>
      <trkpt lat="47.86504" lon="7.10418">
        <ele>737</ele>
        <time>2020-03-08T09:25:37.000Z</time>
      </trkpt>
      <trkpt lat="47.86503" lon="7.10415">
        <ele>737</ele>
        <time>2020-03-08T09:25:38.000Z</time>
      </trkpt>
      <trkpt lat="47.86503" lon="7.10414">
        <ele>737</ele>
        <time>2020-03-08T09:25:39.000Z</time>
      </trkpt>
      <trkpt lat="47.865" lon="7.10408">
        <ele>737</ele>
        <time>2020-03-08T09:27:42.000Z</time>
      </trkpt>
      <trkpt lat="47.86497" lon="7.10398">
        <ele>737</ele>
        <time>2020-03-08T09:27:44.000Z</time>
      </trkpt>
      <trkpt lat="47.86493" lon="7.1039">
        <ele>736.40002441406</ele>
        <time>2020-03-08T09:27:46.000Z</time>
      </trkpt>
      <trkpt lat="47.86491" lon="7.10386">
        <ele>736</ele>
        <time>2020-03-08T09:27:47.000Z</time>
      </trkpt>
      <trkpt lat="47.8649" lon="7.10381">
        <ele>735.20001220703</ele>
        <time>2020-03-08T09:27:48.000Z</time>
      </trkpt>
      <trkpt lat="47.86489" lon="7.10376">
        <ele>734.40002441406</ele>
        <time>2020-03-08T09:27:49.000Z</time>
      </trkpt>
      <trkpt lat="47.86488" lon="7.10371">
        <ele>733.59997558594</ele>
        <time>2020-03-08T09:27:50.000Z</time>
      </trkpt>
      <trkpt lat="47.86487" lon="7.10365">
        <ele>732.59997558594</ele>
        <time>2020-03-08T09:27:51.000Z</time>
      </trkpt>
      <trkpt lat="47.86486" lon="7.10357">
        <ele>731.59997558594</ele>
        <time>2020-03-08T09:27:52.000Z</time>
      </trkpt>
      <trkpt lat="47.86485" lon="7.10351">
        <ele>729.20001220703</ele>
        <time>2020-03-08T09:27:53.000Z</time>
      </trkpt>
      <trkpt lat="47.86484" lon="7.10346">
        <ele>728</ele>
        <time>2020-03-08T09:27:54.000Z</time>
      </trkpt>
      <trkpt lat="47.86481" lon="7.10342">
        <ele>727</ele>
        <time>2020-03-08T09:27:55.000Z</time>
      </trkpt>
      <trkpt lat="47.86479" lon="7.10339">
        <ele>725.79998779297</ele>
        <time>2020-03-08T09:27:56.000Z</time>
      </trkpt>
      <trkpt lat="47.86476" lon="7.10336">
        <ele>724.79998779297</ele>
        <time>2020-03-08T09:27:57.000Z</time>
      </trkpt>
      <trkpt lat="47.86474" lon="7.10333">
        <ele>723.79998779297</ele>
        <time>2020-03-08T09:27:58.000Z</time>
      </trkpt>
      <trkpt lat="47.86471" lon="7.10329">
        <ele>722.79998779297</ele>
        <time>2020-03-08T09:27:59.000Z</time>
      </trkpt>
      <trkpt lat="47.86469" lon="7.10326">
        <ele>722</ele>
        <time>2020-03-08T09:28:00.000Z</time>
      </trkpt>
      <trkpt lat="47.86467" lon="7.10323">
        <ele>721</ele>
        <time>2020-03-08T09:28:01.000Z</time>
      </trkpt>
      <trkpt lat="47.86467" lon="7.10321">
        <ele>720</ele>
        <time>2020-03-08T09:28:02.000Z</time>
      </trkpt>
      <trkpt lat="47.86466" lon="7.10321">
        <ele>719.40002441406</ele>
        <time>2020-03-08T09:28:03.000Z</time>
      </trkpt>
      <trkpt lat="47.86466" lon="7.10321">
        <ele>718.79998779297</ele>
        <time>2020-03-08T09:28:04.000Z</time>
      </trkpt>
      <trkpt lat="47.86467" lon="7.10316">
        <ele>717</ele>
        <time>2020-03-08T09:28:12.000Z</time>
      </trkpt>
      <trkpt lat="47.86468" lon="7.10307">
        <ele>717</ele>
        <time>2020-03-08T09:28:14.000Z</time>
      </trkpt>
      <trkpt lat="47.86468" lon="7.10286">
        <ele>716.59997558594</ele>
        <time>2020-03-08T09:28:17.000Z</time>
      </trkpt>
      <trkpt lat="47.86468" lon="7.10277">
        <ele>715.59997558594</ele>
        <time>2020-03-08T09:28:18.000Z</time>
      </trkpt>
      <trkpt lat="47.86467" lon="7.10268">
        <ele>715.20001220703</ele>
        <time>2020-03-08T09:28:19.000Z</time>
      </trkpt>
      <trkpt lat="47.86466" lon="7.10258">
        <ele>714.40002441406</ele>
        <time>2020-03-08T09:28:20.000Z</time>
      </trkpt>
      <trkpt lat="47.86464" lon="7.10249">
        <ele>713.79998779297</ele>
        <time>2020-03-08T09:28:21.000Z</time>
      </trkpt>
      <trkpt lat="47.86462" lon="7.10242">
        <ele>713.20001220703</ele>
        <time>2020-03-08T09:28:22.000Z</time>
      </trkpt>
      <trkpt lat="47.86459" lon="7.10234">
        <ele>712.40002441406</ele>
        <time>2020-03-08T09:28:23.000Z</time>
      </trkpt>
      <trkpt lat="47.86456" lon="7.10226">
        <ele>711.59997558594</ele>
        <time>2020-03-08T09:28:24.000Z</time>
      </trkpt>
      <trkpt lat="47.86453" lon="7.10218">
        <ele>710.59997558594</ele>
        <time>2020-03-08T09:28:25.000Z</time>
      </trkpt>
      <trkpt lat="47.8645" lon="7.1021">
        <ele>709.59997558594</ele>
        <time>2020-03-08T09:28:26.000Z</time>
      </trkpt>
      <trkpt lat="47.86447" lon="7.10203">
        <ele>708.79998779297</ele>
        <time>2020-03-08T09:28:27.000Z</time>
      </trkpt>
      <trkpt lat="47.86445" lon="7.10197">
        <ele>707.79998779297</ele>
        <time>2020-03-08T09:28:28.000Z</time>
      </trkpt>
      <trkpt lat="47.86444" lon="7.10193">
        <ele>707</ele>
        <time>2020-03-08T09:28:29.000Z</time>
      </trkpt>
      <trkpt lat="47.86441" lon="7.10184">
        <ele>707</ele>
        <time>2020-03-08T09:28:32.000Z</time>
      </trkpt>
      <trkpt lat="47.86437" lon="7.10179">
        <ele>707</ele>
        <time>2020-03-08T09:28:37.000Z</time>
      </trkpt>
      <trkpt lat="47.86436" lon="7.10176">
        <ele>707</ele>
        <time>2020-03-08T09:28:48.000Z</time>
      </trkpt>
      <trkpt lat="47.86432" lon="7.10163">
        <ele>707.40002441406</ele>
        <time>2020-03-08T09:28:54.000Z</time>
      </trkpt>
      <trkpt lat="47.86431" lon="7.10162">
        <ele>707.79998779297</ele>
        <time>2020-03-08T09:28:55.000Z</time>
      </trkpt>
      <trkpt lat="47.8643" lon="7.1016">
        <ele>708.20001220703</ele>
        <time>2020-03-08T09:28:56.000Z</time>
      </trkpt>
      <trkpt lat="47.86429" lon="7.10159">
        <ele>708.59997558594</ele>
        <time>2020-03-08T09:28:57.000Z</time>
      </trkpt>
      <trkpt lat="47.86428" lon="7.10158">
        <ele>709</ele>
        <time>2020-03-08T09:28:58.000Z</time>
      </trkpt>
      <trkpt lat="47.86426" lon="7.10155">
        <ele>709</ele>
        <time>2020-03-08T09:29:00.000Z</time>
      </trkpt>
      <trkpt lat="47.86423" lon="7.10149">
        <ele>709.40002441406</ele>
        <time>2020-03-08T09:29:04.000Z</time>
      </trkpt>
      <trkpt lat="47.86422" lon="7.10147">
        <ele>709.79998779297</ele>
        <time>2020-03-08T09:29:05.000Z</time>
      </trkpt>
      <trkpt lat="47.86421" lon="7.10145">
        <ele>710.20001220703</ele>
        <time>2020-03-08T09:29:06.000Z</time>
      </trkpt>
      <trkpt lat="47.8642" lon="7.10143">
        <ele>711.20001220703</ele>
        <time>2020-03-08T09:29:07.000Z</time>
      </trkpt>
      <trkpt lat="47.86413" lon="7.10134">
        <ele>711.20001220703</ele>
        <time>2020-03-08T09:29:12.000Z</time>
      </trkpt>
      <trkpt lat="47.8641" lon="7.10131">
        <ele>711.59997558594</ele>
        <time>2020-03-08T09:29:14.000Z</time>
      </trkpt>
      <trkpt lat="47.86408" lon="7.1013">
        <ele>712</ele>
        <time>2020-03-08T09:29:15.000Z</time>
      </trkpt>
      <trkpt lat="47.86407" lon="7.10129">
        <ele>712.40002441406</ele>
        <time>2020-03-08T09:29:16.000Z</time>
      </trkpt>
      <trkpt lat="47.86405" lon="7.10129">
        <ele>712.79998779297</ele>
        <time>2020-03-08T09:29:17.000Z</time>
      </trkpt>
      <trkpt lat="47.86404" lon="7.10129">
        <ele>713.20001220703</ele>
        <time>2020-03-08T09:29:18.000Z</time>
      </trkpt>
      <trkpt lat="47.86391" lon="7.10125">
        <ele>713.20001220703</ele>
        <time>2020-03-08T09:29:26.000Z</time>
      </trkpt>
      <trkpt lat="47.8638" lon="7.10122">
        <ele>713.20001220703</ele>
        <time>2020-03-08T09:29:32.000Z</time>
      </trkpt>
      <trkpt lat="47.86376" lon="7.10121">
        <ele>713.20001220703</ele>
        <time>2020-03-08T09:29:37.000Z</time>
      </trkpt>
      <trkpt lat="47.86372" lon="7.10115">
        <ele>713.20001220703</ele>
        <time>2020-03-08T09:29:40.000Z</time>
      </trkpt>
      <trkpt lat="47.86353" lon="7.10099">
        <ele>713.20001220703</ele>
        <time>2020-03-08T09:29:46.000Z</time>
      </trkpt>
      <trkpt lat="47.86342" lon="7.10086">
        <ele>713.20001220703</ele>
        <time>2020-03-08T09:29:52.000Z</time>
      </trkpt>
      <trkpt lat="47.8633" lon="7.10068">
        <ele>713.20001220703</ele>
        <time>2020-03-08T09:29:59.000Z</time>
      </trkpt>
      <trkpt lat="47.86323" lon="7.10057">
        <ele>713.59997558594</ele>
        <time>2020-03-08T09:30:02.000Z</time>
      </trkpt>
      <trkpt lat="47.86321" lon="7.10054">
        <ele>714</ele>
        <time>2020-03-08T09:30:03.000Z</time>
      </trkpt>
      <trkpt lat="47.8632" lon="7.10051">
        <ele>714.40002441406</ele>
        <time>2020-03-08T09:30:04.000Z</time>
      </trkpt>
      <trkpt lat="47.86318" lon="7.10047">
        <ele>714.79998779297</ele>
        <time>2020-03-08T09:30:05.000Z</time>
      </trkpt>
      <trkpt lat="47.86317" lon="7.10043">
        <ele>715.40002441406</ele>
        <time>2020-03-08T09:30:06.000Z</time>
      </trkpt>
      <trkpt lat="47.86309" lon="7.10015">
        <ele>715.40002441406</ele>
        <time>2020-03-08T09:30:13.000Z</time>
      </trkpt>
      <trkpt lat="47.86303" lon="7.09985">
        <ele>715.40002441406</ele>
        <time>2020-03-08T09:30:19.000Z</time>
      </trkpt>
      <trkpt lat="47.86296" lon="7.09961">
        <ele>715.79998779297</ele>
        <time>2020-03-08T09:30:24.000Z</time>
      </trkpt>
      <trkpt lat="47.86295" lon="7.09957">
        <ele>716.20001220703</ele>
        <time>2020-03-08T09:30:25.000Z</time>
      </trkpt>
      <trkpt lat="47.86294" lon="7.09954">
        <ele>716.59997558594</ele>
        <time>2020-03-08T09:30:26.000Z</time>
      </trkpt>
      <trkpt lat="47.86292" lon="7.0995">
        <ele>717</ele>
        <time>2020-03-08T09:30:27.000Z</time>
      </trkpt>
      <trkpt lat="47.86291" lon="7.09946">
        <ele>717.59997558594</ele>
        <time>2020-03-08T09:30:28.000Z</time>
      </trkpt>
      <trkpt lat="47.86289" lon="7.09934">
        <ele>717.59997558594</ele>
        <time>2020-03-08T09:30:31.000Z</time>
      </trkpt>
      <trkpt lat="47.86288" lon="7.09927">
        <ele>717.59997558594</ele>
        <time>2020-03-08T09:30:33.000Z</time>
      </trkpt>
      <trkpt lat="47.86287" lon="7.09916">
        <ele>717.59997558594</ele>
        <time>2020-03-08T09:30:36.000Z</time>
      </trkpt>
      <trkpt lat="47.86287" lon="7.09908">
        <ele>717.59997558594</ele>
        <time>2020-03-08T09:30:38.000Z</time>
      </trkpt>
      <trkpt lat="47.86287" lon="7.0989">
        <ele>717.59997558594</ele>
        <time>2020-03-08T09:30:42.000Z</time>
      </trkpt>
      <trkpt lat="47.86285" lon="7.09881">
        <ele>718</ele>
        <time>2020-03-08T09:30:44.000Z</time>
      </trkpt>
      <trkpt lat="47.86285" lon="7.09877">
        <ele>718.40002441406</ele>
        <time>2020-03-08T09:30:45.000Z</time>
      </trkpt>
      <trkpt lat="47.86283" lon="7.09872">
        <ele>719.20001220703</ele>
        <time>2020-03-08T09:30:46.000Z</time>
      </trkpt>
      <trkpt lat="47.86281" lon="7.09867">
        <ele>719.59997558594</ele>
        <time>2020-03-08T09:30:47.000Z</time>
      </trkpt>
      <trkpt lat="47.86275" lon="7.09851">
        <ele>719.59997558594</ele>
        <time>2020-03-08T09:30:50.000Z</time>
      </trkpt>
      <trkpt lat="47.86264" lon="7.09821">
        <ele>719.59997558594</ele>
        <time>2020-03-08T09:30:57.000Z</time>
      </trkpt>
      <trkpt lat="47.86252" lon="7.0981">
        <ele>719.59997558594</ele>
        <time>2020-03-08T09:31:02.000Z</time>
      </trkpt>
      <trkpt lat="47.8625" lon="7.09808">
        <ele>720</ele>
        <time>2020-03-08T09:31:03.000Z</time>
      </trkpt>
      <trkpt lat="47.86248" lon="7.09806">
        <ele>720.40002441406</ele>
        <time>2020-03-08T09:31:04.000Z</time>
      </trkpt>
      <trkpt lat="47.86247" lon="7.09804">
        <ele>720.79998779297</ele>
        <time>2020-03-08T09:31:05.000Z</time>
      </trkpt>
      <trkpt lat="47.86245" lon="7.09801">
        <ele>721.40002441406</ele>
        <time>2020-03-08T09:31:06.000Z</time>
      </trkpt>
      <trkpt lat="47.86243" lon="7.09799">
        <ele>721.79998779297</ele>
        <time>2020-03-08T09:31:07.000Z</time>
      </trkpt>
      <trkpt lat="47.86239" lon="7.09793">
        <ele>721.79998779297</ele>
        <time>2020-03-08T09:31:09.000Z</time>
      </trkpt>
      <trkpt lat="47.86238" lon="7.09791">
        <ele>722.20001220703</ele>
        <time>2020-03-08T09:31:10.000Z</time>
      </trkpt>
      <trkpt lat="47.86237" lon="7.0979">
        <ele>722.59997558594</ele>
        <time>2020-03-08T09:31:11.000Z</time>
      </trkpt>
      <trkpt lat="47.86236" lon="7.09788">
        <ele>723</ele>
        <time>2020-03-08T09:31:12.000Z</time>
      </trkpt>
      <trkpt lat="47.86235" lon="7.09787">
        <ele>723.40002441406</ele>
        <time>2020-03-08T09:31:13.000Z</time>
      </trkpt>
      <trkpt lat="47.86234" lon="7.09785">
        <ele>723.79998779297</ele>
        <time>2020-03-08T09:31:14.000Z</time>
      </trkpt>
      <trkpt lat="47.86233" lon="7.09784">
        <ele>723.79998779297</ele>
        <time>2020-03-08T09:31:15.000Z</time>
      </trkpt>
      <trkpt lat="47.86229" lon="7.09781">
        <ele>724.40002441406</ele>
        <time>2020-03-08T09:31:18.000Z</time>
      </trkpt>
      <trkpt lat="47.86228" lon="7.09779">
        <ele>724.79998779297</ele>
        <time>2020-03-08T09:31:19.000Z</time>
      </trkpt>
      <trkpt lat="47.86227" lon="7.09778">
        <ele>725.20001220703</ele>
        <time>2020-03-08T09:31:20.000Z</time>
      </trkpt>
      <trkpt lat="47.86225" lon="7.09777">
        <ele>725.59997558594</ele>
        <time>2020-03-08T09:31:21.000Z</time>
      </trkpt>
      <trkpt lat="47.86224" lon="7.09775">
        <ele>726.20001220703</ele>
        <time>2020-03-08T09:31:22.000Z</time>
      </trkpt>
      <trkpt lat="47.86222" lon="7.09772">
        <ele>726.20001220703</ele>
        <time>2020-03-08T09:31:23.000Z</time>
      </trkpt>
      <trkpt lat="47.86217" lon="7.09765">
        <ele>726.20001220703</ele>
        <time>2020-03-08T09:31:26.000Z</time>
      </trkpt>
      <trkpt lat="47.86215" lon="7.09763">
        <ele>726.59997558594</ele>
        <time>2020-03-08T09:31:28.000Z</time>
      </trkpt>
      <trkpt lat="47.86213" lon="7.09761">
        <ele>727</ele>
        <time>2020-03-08T09:31:29.000Z</time>
      </trkpt>
      <trkpt lat="47.86211" lon="7.0976">
        <ele>727.40002441406</ele>
        <time>2020-03-08T09:31:30.000Z</time>
      </trkpt>
      <trkpt lat="47.86209" lon="7.09759">
        <ele>727.79998779297</ele>
        <time>2020-03-08T09:31:31.000Z</time>
      </trkpt>
      <trkpt lat="47.86207" lon="7.09757">
        <ele>728.20001220703</ele>
        <time>2020-03-08T09:31:32.000Z</time>
      </trkpt>
      <trkpt lat="47.86202" lon="7.09754">
        <ele>728.20001220703</ele>
        <time>2020-03-08T09:31:34.000Z</time>
      </trkpt>
      <trkpt lat="47.86183" lon="7.09741">
        <ele>728.20001220703</ele>
        <time>2020-03-08T09:31:42.000Z</time>
      </trkpt>
      <trkpt lat="47.86181" lon="7.0974">
        <ele>728.59997558594</ele>
        <time>2020-03-08T09:31:43.000Z</time>
      </trkpt>
      <trkpt lat="47.86179" lon="7.09738">
        <ele>729.20001220703</ele>
        <time>2020-03-08T09:31:44.000Z</time>
      </trkpt>
      <trkpt lat="47.86177" lon="7.09735">
        <ele>729.59997558594</ele>
        <time>2020-03-08T09:31:45.000Z</time>
      </trkpt>
      <trkpt lat="47.86175" lon="7.09733">
        <ele>730</ele>
        <time>2020-03-08T09:31:46.000Z</time>
      </trkpt>
      <trkpt lat="47.86173" lon="7.09731">
        <ele>730.40002441406</ele>
        <time>2020-03-08T09:31:47.000Z</time>
      </trkpt>
      <trkpt lat="47.86172" lon="7.09729">
        <ele>730.40002441406</ele>
        <time>2020-03-08T09:31:48.000Z</time>
      </trkpt>
      <trkpt lat="47.86164" lon="7.09712">
        <ele>730.79998779297</ele>
        <time>2020-03-08T09:31:54.000Z</time>
      </trkpt>
      <trkpt lat="47.86163" lon="7.09709">
        <ele>731.40002441406</ele>
        <time>2020-03-08T09:31:55.000Z</time>
      </trkpt>
      <trkpt lat="47.86162" lon="7.09706">
        <ele>731.79998779297</ele>
        <time>2020-03-08T09:31:56.000Z</time>
      </trkpt>
      <trkpt lat="47.86162" lon="7.09704">
        <ele>732.20001220703</ele>
        <time>2020-03-08T09:31:57.000Z</time>
      </trkpt>
      <trkpt lat="47.86162" lon="7.09701">
        <ele>732.59997558594</ele>
        <time>2020-03-08T09:31:58.000Z</time>
      </trkpt>
      <trkpt lat="47.86161" lon="7.09698">
        <ele>732.59997558594</ele>
        <time>2020-03-08T09:31:59.000Z</time>
      </trkpt>
      <trkpt lat="47.86159" lon="7.09693">
        <ele>733</ele>
        <time>2020-03-08T09:32:01.000Z</time>
      </trkpt>
      <trkpt lat="47.86158" lon="7.09689">
        <ele>733.40002441406</ele>
        <time>2020-03-08T09:32:02.000Z</time>
      </trkpt>
      <trkpt lat="47.86157" lon="7.09686">
        <ele>733.79998779297</ele>
        <time>2020-03-08T09:32:03.000Z</time>
      </trkpt>
      <trkpt lat="47.86156" lon="7.09682">
        <ele>734.20001220703</ele>
        <time>2020-03-08T09:32:04.000Z</time>
      </trkpt>
      <trkpt lat="47.86155" lon="7.09679">
        <ele>734.59997558594</ele>
        <time>2020-03-08T09:32:05.000Z</time>
      </trkpt>
      <trkpt lat="47.86154" lon="7.09674">
        <ele>734.59997558594</ele>
        <time>2020-03-08T09:32:06.000Z</time>
      </trkpt>
      <trkpt lat="47.86148" lon="7.0966">
        <ele>735.20001220703</ele>
        <time>2020-03-08T09:32:11.000Z</time>
      </trkpt>
      <trkpt lat="47.86147" lon="7.09657">
        <ele>735.59997558594</ele>
        <time>2020-03-08T09:32:12.000Z</time>
      </trkpt>
      <trkpt lat="47.86146" lon="7.09654">
        <ele>736</ele>
        <time>2020-03-08T09:32:13.000Z</time>
      </trkpt>
      <trkpt lat="47.86145" lon="7.09652">
        <ele>736.40002441406</ele>
        <time>2020-03-08T09:32:14.000Z</time>
      </trkpt>
      <trkpt lat="47.86145" lon="7.0965">
        <ele>736.79998779297</ele>
        <time>2020-03-08T09:32:15.000Z</time>
      </trkpt>
      <trkpt lat="47.86139" lon="7.09639">
        <ele>736.79998779297</ele>
        <time>2020-03-08T09:32:19.000Z</time>
      </trkpt>
      <trkpt lat="47.86136" lon="7.09635">
        <ele>737.20001220703</ele>
        <time>2020-03-08T09:32:21.000Z</time>
      </trkpt>
      <trkpt lat="47.86134" lon="7.09633">
        <ele>737.59997558594</ele>
        <time>2020-03-08T09:32:22.000Z</time>
      </trkpt>
      <trkpt lat="47.86133" lon="7.09629">
        <ele>738.59997558594</ele>
        <time>2020-03-08T09:32:23.000Z</time>
      </trkpt>
      <trkpt lat="47.86131" lon="7.09627">
        <ele>739</ele>
        <time>2020-03-08T09:32:24.000Z</time>
      </trkpt>
      <trkpt lat="47.8613" lon="7.09625">
        <ele>739</ele>
        <time>2020-03-08T09:32:25.000Z</time>
      </trkpt>
      <trkpt lat="47.86122" lon="7.09608">
        <ele>739</ele>
        <time>2020-03-08T09:32:31.000Z</time>
      </trkpt>
      <trkpt lat="47.86112" lon="7.09594">
        <ele>739.40002441406</ele>
        <time>2020-03-08T09:32:36.000Z</time>
      </trkpt>
      <trkpt lat="47.8611" lon="7.09592">
        <ele>739.79998779297</ele>
        <time>2020-03-08T09:32:37.000Z</time>
      </trkpt>
      <trkpt lat="47.86107" lon="7.09589">
        <ele>740.20001220703</ele>
        <time>2020-03-08T09:32:38.000Z</time>
      </trkpt>
      <trkpt lat="47.86104" lon="7.09587">
        <ele>740.59997558594</ele>
        <time>2020-03-08T09:32:39.000Z</time>
      </trkpt>
      <trkpt lat="47.86101" lon="7.09584">
        <ele>741</ele>
        <time>2020-03-08T09:32:40.000Z</time>
      </trkpt>
      <trkpt lat="47.86094" lon="7.09577">
        <ele>741</ele>
        <time>2020-03-08T09:32:43.000Z</time>
      </trkpt>
      <trkpt lat="47.86092" lon="7.09574">
        <ele>741.59997558594</ele>
        <time>2020-03-08T09:32:44.000Z</time>
      </trkpt>
      <trkpt lat="47.86089" lon="7.09571">
        <ele>742</ele>
        <time>2020-03-08T09:32:45.000Z</time>
      </trkpt>
      <trkpt lat="47.86089" lon="7.09569">
        <ele>742.40002441406</ele>
        <time>2020-03-08T09:32:46.000Z</time>
      </trkpt>
      <trkpt lat="47.86088" lon="7.09567">
        <ele>742.79998779297</ele>
        <time>2020-03-08T09:32:47.000Z</time>
      </trkpt>
      <trkpt lat="47.86085" lon="7.09565">
        <ele>743.20001220703</ele>
        <time>2020-03-08T09:32:48.000Z</time>
      </trkpt>
      <trkpt lat="47.86083" lon="7.09563">
        <ele>743.20001220703</ele>
        <time>2020-03-08T09:32:49.000Z</time>
      </trkpt>
      <trkpt lat="47.86081" lon="7.09561">
        <ele>743.59997558594</ele>
        <time>2020-03-08T09:32:50.000Z</time>
      </trkpt>
      <trkpt lat="47.86079" lon="7.09559">
        <ele>744</ele>
        <time>2020-03-08T09:32:51.000Z</time>
      </trkpt>
      <trkpt lat="47.86076" lon="7.09557">
        <ele>744.59997558594</ele>
        <time>2020-03-08T09:32:52.000Z</time>
      </trkpt>
      <trkpt lat="47.86072" lon="7.09555">
        <ele>745</ele>
        <time>2020-03-08T09:32:53.000Z</time>
      </trkpt>
      <trkpt lat="47.86069" lon="7.09553">
        <ele>745.40002441406</ele>
        <time>2020-03-08T09:32:54.000Z</time>
      </trkpt>
      <trkpt lat="47.86056" lon="7.09547">
        <ele>745.79998779297</ele>
        <time>2020-03-08T09:33:00.000Z</time>
      </trkpt>
      <trkpt lat="47.86053" lon="7.09546">
        <ele>746.20001220703</ele>
        <time>2020-03-08T09:33:01.000Z</time>
      </trkpt>
      <trkpt lat="47.86051" lon="7.09544">
        <ele>746.59997558594</ele>
        <time>2020-03-08T09:33:02.000Z</time>
      </trkpt>
      <trkpt lat="47.86049" lon="7.09543">
        <ele>747</ele>
        <time>2020-03-08T09:33:03.000Z</time>
      </trkpt>
      <trkpt lat="47.86047" lon="7.09543">
        <ele>747.40002441406</ele>
        <time>2020-03-08T09:33:04.000Z</time>
      </trkpt>
      <trkpt lat="47.8604" lon="7.09539">
        <ele>747.40002441406</ele>
        <time>2020-03-08T09:33:07.000Z</time>
      </trkpt>
      <trkpt lat="47.86034" lon="7.09534">
        <ele>747.79998779297</ele>
        <time>2020-03-08T09:33:11.000Z</time>
      </trkpt>
      <trkpt lat="47.86032" lon="7.09534">
        <ele>748.20001220703</ele>
        <time>2020-03-08T09:33:12.000Z</time>
      </trkpt>
      <trkpt lat="47.8603" lon="7.09533">
        <ele>749.20001220703</ele>
        <time>2020-03-08T09:33:13.000Z</time>
      </trkpt>
      <trkpt lat="47.86028" lon="7.09531">
        <ele>749.59997558594</ele>
        <time>2020-03-08T09:33:14.000Z</time>
      </trkpt>
      <trkpt lat="47.86021" lon="7.0952">
        <ele>750</ele>
        <time>2020-03-08T09:33:19.000Z</time>
      </trkpt>
      <trkpt lat="47.86019" lon="7.09518">
        <ele>750.40002441406</ele>
        <time>2020-03-08T09:33:20.000Z</time>
      </trkpt>
      <trkpt lat="47.86018" lon="7.09516">
        <ele>750.79998779297</ele>
        <time>2020-03-08T09:33:21.000Z</time>
      </trkpt>
      <trkpt lat="47.86017" lon="7.09515">
        <ele>751.40002441406</ele>
        <time>2020-03-08T09:33:22.000Z</time>
      </trkpt>
      <trkpt lat="47.86017" lon="7.09514">
        <ele>751.79998779297</ele>
        <time>2020-03-08T09:33:23.000Z</time>
      </trkpt>
      <trkpt lat="47.86015" lon="7.09512">
        <ele>751.79998779297</ele>
        <time>2020-03-08T09:33:26.000Z</time>
      </trkpt>
      <trkpt lat="47.86014" lon="7.09508">
        <ele>751.79998779297</ele>
        <time>2020-03-08T09:34:08.000Z</time>
      </trkpt>
      <trkpt lat="47.86012" lon="7.09507">
        <ele>751.79998779297</ele>
        <time>2020-03-08T09:34:09.000Z</time>
      </trkpt>
      <trkpt lat="47.8601" lon="7.09502">
        <ele>751.79998779297</ele>
        <time>2020-03-08T09:34:11.000Z</time>
      </trkpt>
      <trkpt lat="47.86009" lon="7.09492">
        <ele>752.20001220703</ele>
        <time>2020-03-08T09:34:15.000Z</time>
      </trkpt>
      <trkpt lat="47.86009" lon="7.0949">
        <ele>752.59997558594</ele>
        <time>2020-03-08T09:34:16.000Z</time>
      </trkpt>
      <trkpt lat="47.86009" lon="7.09488">
        <ele>753</ele>
        <time>2020-03-08T09:34:17.000Z</time>
      </trkpt>
      <trkpt lat="47.86009" lon="7.09486">
        <ele>753.40002441406</ele>
        <time>2020-03-08T09:34:18.000Z</time>
      </trkpt>
      <trkpt lat="47.86008" lon="7.09484">
        <ele>754</ele>
        <time>2020-03-08T09:34:19.000Z</time>
      </trkpt>
      <trkpt lat="47.86004" lon="7.09477">
        <ele>754</ele>
        <time>2020-03-08T09:34:23.000Z</time>
      </trkpt>
      <trkpt lat="47.86002" lon="7.09473">
        <ele>754</ele>
        <time>2020-03-08T09:34:26.000Z</time>
      </trkpt>
      <trkpt lat="47.86001" lon="7.09465">
        <ele>754.79998779297</ele>
        <time>2020-03-08T09:34:29.000Z</time>
      </trkpt>
      <trkpt lat="47.86" lon="7.09463">
        <ele>755.20001220703</ele>
        <time>2020-03-08T09:34:30.000Z</time>
      </trkpt>
      <trkpt lat="47.86" lon="7.0946">
        <ele>755.59997558594</ele>
        <time>2020-03-08T09:34:31.000Z</time>
      </trkpt>
      <trkpt lat="47.86" lon="7.09458">
        <ele>756</ele>
        <time>2020-03-08T09:34:32.000Z</time>
      </trkpt>
      <trkpt lat="47.86001" lon="7.09456">
        <ele>756</ele>
        <time>2020-03-08T09:34:33.000Z</time>
      </trkpt>
      <trkpt lat="47.86001" lon="7.09452">
        <ele>756</ele>
        <time>2020-03-08T09:34:35.000Z</time>
      </trkpt>
      <trkpt lat="47.86" lon="7.09446">
        <ele>756</ele>
        <time>2020-03-08T09:34:37.000Z</time>
      </trkpt>
      <trkpt lat="47.85999" lon="7.09435">
        <ele>756.40002441406</ele>
        <time>2020-03-08T09:34:41.000Z</time>
      </trkpt>
      <trkpt lat="47.86" lon="7.09433">
        <ele>756.79998779297</ele>
        <time>2020-03-08T09:34:42.000Z</time>
      </trkpt>
      <trkpt lat="47.86" lon="7.0943">
        <ele>757.20001220703</ele>
        <time>2020-03-08T09:34:43.000Z</time>
      </trkpt>
      <trkpt lat="47.86" lon="7.09428">
        <ele>757.59997558594</ele>
        <time>2020-03-08T09:34:44.000Z</time>
      </trkpt>
      <trkpt lat="47.86" lon="7.09426">
        <ele>758</ele>
        <time>2020-03-08T09:34:45.000Z</time>
      </trkpt>
      <trkpt lat="47.86001" lon="7.09418">
        <ele>758</ele>
        <time>2020-03-08T09:34:49.000Z</time>
      </trkpt>
      <trkpt lat="47.86001" lon="7.09416">
        <ele>758.40002441406</ele>
        <time>2020-03-08T09:34:50.000Z</time>
      </trkpt>
      <trkpt lat="47.86001" lon="7.09414">
        <ele>759</ele>
        <time>2020-03-08T09:34:51.000Z</time>
      </trkpt>
      <trkpt lat="47.86001" lon="7.09412">
        <ele>759.79998779297</ele>
        <time>2020-03-08T09:34:52.000Z</time>
      </trkpt>
      <trkpt lat="47.86001" lon="7.09409">
        <ele>760.20001220703</ele>
        <time>2020-03-08T09:34:53.000Z</time>
      </trkpt>
      <trkpt lat="47.86001" lon="7.09406">
        <ele>760.20001220703</ele>
        <time>2020-03-08T09:34:54.000Z</time>
      </trkpt>
      <trkpt lat="47.86001" lon="7.09402">
        <ele>760.20001220703</ele>
        <time>2020-03-08T09:34:56.000Z</time>
      </trkpt>
      <trkpt lat="47.86001" lon="7.09387">
        <ele>760.20001220703</ele>
        <time>2020-03-08T09:35:02.000Z</time>
      </trkpt>
      <trkpt lat="47.86003" lon="7.09378">
        <ele>760.59997558594</ele>
        <time>2020-03-08T09:35:05.000Z</time>
      </trkpt>
      <trkpt lat="47.86004" lon="7.09375">
        <ele>761.20001220703</ele>
        <time>2020-03-08T09:35:06.000Z</time>
      </trkpt>
      <trkpt lat="47.86005" lon="7.09373">
        <ele>761.59997558594</ele>
        <time>2020-03-08T09:35:07.000Z</time>
      </trkpt>
      <trkpt lat="47.86005" lon="7.0937">
        <ele>762</ele>
        <time>2020-03-08T09:35:08.000Z</time>
      </trkpt>
      <trkpt lat="47.86006" lon="7.09368">
        <ele>762.59997558594</ele>
        <time>2020-03-08T09:35:09.000Z</time>
      </trkpt>
      <trkpt lat="47.86006" lon="7.09366">
        <ele>763.20001220703</ele>
        <time>2020-03-08T09:35:10.000Z</time>
      </trkpt>
      <trkpt lat="47.86007" lon="7.09366">
        <ele>763.59997558594</ele>
        <time>2020-03-08T09:35:11.000Z</time>
      </trkpt>
      <trkpt lat="47.86009" lon="7.09348">
        <ele>766.79998779297</ele>
        <time>2020-03-08T09:35:37.000Z</time>
      </trkpt>
      <trkpt lat="47.86008" lon="7.09345">
        <ele>766.79998779297</ele>
        <time>2020-03-08T09:35:38.000Z</time>
      </trkpt>
      <trkpt lat="47.86008" lon="7.09334">
        <ele>767.20001220703</ele>
        <time>2020-03-08T09:35:43.000Z</time>
      </trkpt>
      <trkpt lat="47.86008" lon="7.09331">
        <ele>767.59997558594</ele>
        <time>2020-03-08T09:35:44.000Z</time>
      </trkpt>
      <trkpt lat="47.86008" lon="7.09329">
        <ele>768</ele>
        <time>2020-03-08T09:35:45.000Z</time>
      </trkpt>
      <trkpt lat="47.86008" lon="7.09326">
        <ele>768.40002441406</ele>
        <time>2020-03-08T09:35:46.000Z</time>
      </trkpt>
      <trkpt lat="47.86008" lon="7.09323">
        <ele>769</ele>
        <time>2020-03-08T09:35:47.000Z</time>
      </trkpt>
      <trkpt lat="47.86009" lon="7.09316">
        <ele>769</ele>
        <time>2020-03-08T09:35:49.000Z</time>
      </trkpt>
      <trkpt lat="47.86007" lon="7.093">
        <ele>769</ele>
        <time>2020-03-08T09:35:55.000Z</time>
      </trkpt>
      <trkpt lat="47.86007" lon="7.09297">
        <ele>769.40002441406</ele>
        <time>2020-03-08T09:35:56.000Z</time>
      </trkpt>
      <trkpt lat="47.86007" lon="7.09294">
        <ele>769.79998779297</ele>
        <time>2020-03-08T09:35:57.000Z</time>
      </trkpt>
      <trkpt lat="47.86007" lon="7.09291">
        <ele>770.20001220703</ele>
        <time>2020-03-08T09:35:58.000Z</time>
      </trkpt>
      <trkpt lat="47.86007" lon="7.09289">
        <ele>770.59997558594</ele>
        <time>2020-03-08T09:35:59.000Z</time>
      </trkpt>
      <trkpt lat="47.86007" lon="7.09287">
        <ele>771</ele>
        <time>2020-03-08T09:36:00.000Z</time>
      </trkpt>
      <trkpt lat="47.86006" lon="7.09287">
        <ele>771</ele>
        <time>2020-03-08T09:36:01.000Z</time>
      </trkpt>
      <trkpt lat="47.86006" lon="7.09286">
        <ele>771</ele>
        <time>2020-03-08T09:36:02.000Z</time>
      </trkpt>
      <trkpt lat="47.86024" lon="7.09288">
        <ele>779.40002441406</ele>
        <time>2020-03-08T09:41:42.000Z</time>
      </trkpt>
      <trkpt lat="47.86021" lon="7.09292">
        <ele>778.79998779297</ele>
        <time>2020-03-08T09:41:44.000Z</time>
      </trkpt>
      <trkpt lat="47.8602" lon="7.09293">
        <ele>778.40002441406</ele>
        <time>2020-03-08T09:41:45.000Z</time>
      </trkpt>
      <trkpt lat="47.86018" lon="7.09295">
        <ele>778</ele>
        <time>2020-03-08T09:41:46.000Z</time>
      </trkpt>
      <trkpt lat="47.86016" lon="7.09296">
        <ele>777.40002441406</ele>
        <time>2020-03-08T09:41:47.000Z</time>
      </trkpt>
      <trkpt lat="47.86015" lon="7.09297">
        <ele>777</ele>
        <time>2020-03-08T09:41:48.000Z</time>
      </trkpt>
      <trkpt lat="47.86013" lon="7.09297">
        <ele>776.59997558594</ele>
        <time>2020-03-08T09:41:49.000Z</time>
      </trkpt>
      <trkpt lat="47.86012" lon="7.09298">
        <ele>776</ele>
        <time>2020-03-08T09:41:50.000Z</time>
      </trkpt>
      <trkpt lat="47.86011" lon="7.09299">
        <ele>775.59997558594</ele>
        <time>2020-03-08T09:41:51.000Z</time>
      </trkpt>
      <trkpt lat="47.8601" lon="7.093">
        <ele>775.20001220703</ele>
        <time>2020-03-08T09:41:52.000Z</time>
      </trkpt>
      <trkpt lat="47.86008" lon="7.09302">
        <ele>774.59997558594</ele>
        <time>2020-03-08T09:41:53.000Z</time>
      </trkpt>
      <trkpt lat="47.86006" lon="7.09304">
        <ele>773.79998779297</ele>
        <time>2020-03-08T09:41:54.000Z</time>
      </trkpt>
      <trkpt lat="47.86004" lon="7.09307">
        <ele>773.40002441406</ele>
        <time>2020-03-08T09:41:55.000Z</time>
      </trkpt>
      <trkpt lat="47.86003" lon="7.0931">
        <ele>773</ele>
        <time>2020-03-08T09:41:56.000Z</time>
      </trkpt>
      <trkpt lat="47.86003" lon="7.09313">
        <ele>772.40002441406</ele>
        <time>2020-03-08T09:41:57.000Z</time>
      </trkpt>
      <trkpt lat="47.86003" lon="7.09318">
        <ele>771.79998779297</ele>
        <time>2020-03-08T09:41:58.000Z</time>
      </trkpt>
      <trkpt lat="47.86003" lon="7.09323">
        <ele>771.20001220703</ele>
        <time>2020-03-08T09:41:59.000Z</time>
      </trkpt>
      <trkpt lat="47.86004" lon="7.09329">
        <ele>770.59997558594</ele>
        <time>2020-03-08T09:42:00.000Z</time>
      </trkpt>
      <trkpt lat="47.86004" lon="7.09333">
        <ele>769.79998779297</ele>
        <time>2020-03-08T09:42:01.000Z</time>
      </trkpt>
      <trkpt lat="47.86003" lon="7.0935">
        <ele>769.79998779297</ele>
        <time>2020-03-08T09:42:05.000Z</time>
      </trkpt>
      <trkpt lat="47.86001" lon="7.0936">
        <ele>769.40002441406</ele>
        <time>2020-03-08T09:42:08.000Z</time>
      </trkpt>
      <trkpt lat="47.86001" lon="7.09364">
        <ele>768.79998779297</ele>
        <time>2020-03-08T09:42:09.000Z</time>
      </trkpt>
      <trkpt lat="47.86" lon="7.09368">
        <ele>768.40002441406</ele>
        <time>2020-03-08T09:42:10.000Z</time>
      </trkpt>
      <trkpt lat="47.85999" lon="7.09372">
        <ele>767.59997558594</ele>
        <time>2020-03-08T09:42:11.000Z</time>
      </trkpt>
      <trkpt lat="47.85998" lon="7.09375">
        <ele>767</ele>
        <time>2020-03-08T09:42:12.000Z</time>
      </trkpt>
      <trkpt lat="47.85997" lon="7.09378">
        <ele>766.20001220703</ele>
        <time>2020-03-08T09:42:13.000Z</time>
      </trkpt>
      <trkpt lat="47.85996" lon="7.09381">
        <ele>765.59997558594</ele>
        <time>2020-03-08T09:42:14.000Z</time>
      </trkpt>
      <trkpt lat="47.85996" lon="7.09385">
        <ele>764.79998779297</ele>
        <time>2020-03-08T09:42:15.000Z</time>
      </trkpt>
      <trkpt lat="47.85996" lon="7.09388">
        <ele>764.20001220703</ele>
        <time>2020-03-08T09:42:16.000Z</time>
      </trkpt>
      <trkpt lat="47.85997" lon="7.09392">
        <ele>763.59997558594</ele>
        <time>2020-03-08T09:42:17.000Z</time>
      </trkpt>
      <trkpt lat="47.85998" lon="7.09396">
        <ele>763</ele>
        <time>2020-03-08T09:42:18.000Z</time>
      </trkpt>
      <trkpt lat="47.85998" lon="7.094">
        <ele>762.40002441406</ele>
        <time>2020-03-08T09:42:19.000Z</time>
      </trkpt>
      <trkpt lat="47.85998" lon="7.09415">
        <ele>762</ele>
        <time>2020-03-08T09:42:22.000Z</time>
      </trkpt>
      <trkpt lat="47.85998" lon="7.09419">
        <ele>761.40002441406</ele>
        <time>2020-03-08T09:42:23.000Z</time>
      </trkpt>
      <trkpt lat="47.85998" lon="7.09424">
        <ele>761</ele>
        <time>2020-03-08T09:42:24.000Z</time>
      </trkpt>
      <trkpt lat="47.85998" lon="7.0943">
        <ele>760.59997558594</ele>
        <time>2020-03-08T09:42:25.000Z</time>
      </trkpt>
      <trkpt lat="47.85998" lon="7.09436">
        <ele>760.20001220703</ele>
        <time>2020-03-08T09:42:26.000Z</time>
      </trkpt>
      <trkpt lat="47.86" lon="7.09448">
        <ele>759.79998779297</ele>
        <time>2020-03-08T09:42:28.000Z</time>
      </trkpt>
      <trkpt lat="47.86001" lon="7.09454">
        <ele>759.20001220703</ele>
        <time>2020-03-08T09:42:29.000Z</time>
      </trkpt>
      <trkpt lat="47.86001" lon="7.0946">
        <ele>758.59997558594</ele>
        <time>2020-03-08T09:42:30.000Z</time>
      </trkpt>
      <trkpt lat="47.86003" lon="7.09466">
        <ele>758.20001220703</ele>
        <time>2020-03-08T09:42:31.000Z</time>
      </trkpt>
      <trkpt lat="47.86005" lon="7.09471">
        <ele>757.59997558594</ele>
        <time>2020-03-08T09:42:32.000Z</time>
      </trkpt>
      <trkpt lat="47.86007" lon="7.09476">
        <ele>757.20001220703</ele>
        <time>2020-03-08T09:42:33.000Z</time>
      </trkpt>
      <trkpt lat="47.86008" lon="7.0948">
        <ele>756.79998779297</ele>
        <time>2020-03-08T09:42:34.000Z</time>
      </trkpt>
      <trkpt lat="47.86009" lon="7.09484">
        <ele>756.40002441406</ele>
        <time>2020-03-08T09:42:35.000Z</time>
      </trkpt>
      <trkpt lat="47.8601" lon="7.09487">
        <ele>756</ele>
        <time>2020-03-08T09:42:36.000Z</time>
      </trkpt>
      <trkpt lat="47.8601" lon="7.09491">
        <ele>755.59997558594</ele>
        <time>2020-03-08T09:42:37.000Z</time>
      </trkpt>
      <trkpt lat="47.86011" lon="7.09499">
        <ele>755.59997558594</ele>
        <time>2020-03-08T09:42:40.000Z</time>
      </trkpt>
      <trkpt lat="47.86013" lon="7.09504">
        <ele>755</ele>
        <time>2020-03-08T09:42:42.000Z</time>
      </trkpt>
      <trkpt lat="47.86014" lon="7.09507">
        <ele>754.59997558594</ele>
        <time>2020-03-08T09:42:43.000Z</time>
      </trkpt>
      <trkpt lat="47.86016" lon="7.0951">
        <ele>753.79998779297</ele>
        <time>2020-03-08T09:42:44.000Z</time>
      </trkpt>
      <trkpt lat="47.86017" lon="7.09513">
        <ele>753.20001220703</ele>
        <time>2020-03-08T09:42:45.000Z</time>
      </trkpt>
      <trkpt lat="47.8602" lon="7.09521">
        <ele>753.20001220703</ele>
        <time>2020-03-08T09:42:47.000Z</time>
      </trkpt>
      <trkpt lat="47.86026" lon="7.09531">
        <ele>752.79998779297</ele>
        <time>2020-03-08T09:42:50.000Z</time>
      </trkpt>
      <trkpt lat="47.86029" lon="7.09535">
        <ele>752.40002441406</ele>
        <time>2020-03-08T09:42:51.000Z</time>
      </trkpt>
      <trkpt lat="47.86031" lon="7.09538">
        <ele>752</ele>
        <time>2020-03-08T09:42:52.000Z</time>
      </trkpt>
      <trkpt lat="47.86035" lon="7.09541">
        <ele>751.59997558594</ele>
        <time>2020-03-08T09:42:53.000Z</time>
      </trkpt>
      <trkpt lat="47.86038" lon="7.09543">
        <ele>751.20001220703</ele>
        <time>2020-03-08T09:42:54.000Z</time>
      </trkpt>
      <trkpt lat="47.86042" lon="7.09545">
        <ele>750.79998779297</ele>
        <time>2020-03-08T09:42:55.000Z</time>
      </trkpt>
      <trkpt lat="47.86045" lon="7.09546">
        <ele>750.40002441406</ele>
        <time>2020-03-08T09:42:56.000Z</time>
      </trkpt>
      <trkpt lat="47.8605" lon="7.09548">
        <ele>750</ele>
        <time>2020-03-08T09:42:57.000Z</time>
      </trkpt>
      <trkpt lat="47.86055" lon="7.0955">
        <ele>749.59997558594</ele>
        <time>2020-03-08T09:42:58.000Z</time>
      </trkpt>
      <trkpt lat="47.8606" lon="7.09552">
        <ele>749.20001220703</ele>
        <time>2020-03-08T09:42:59.000Z</time>
      </trkpt>
      <trkpt lat="47.86065" lon="7.09554">
        <ele>748.59997558594</ele>
        <time>2020-03-08T09:43:00.000Z</time>
      </trkpt>
      <trkpt lat="47.86069" lon="7.09557">
        <ele>748.20001220703</ele>
        <time>2020-03-08T09:43:01.000Z</time>
      </trkpt>
      <trkpt lat="47.86073" lon="7.0956">
        <ele>747.79998779297</ele>
        <time>2020-03-08T09:43:02.000Z</time>
      </trkpt>
      <trkpt lat="47.86077" lon="7.09565">
        <ele>747.40002441406</ele>
        <time>2020-03-08T09:43:03.000Z</time>
      </trkpt>
      <trkpt lat="47.86082" lon="7.09571">
        <ele>746.79998779297</ele>
        <time>2020-03-08T09:43:04.000Z</time>
      </trkpt>
      <trkpt lat="47.86085" lon="7.09577">
        <ele>746.20001220703</ele>
        <time>2020-03-08T09:43:05.000Z</time>
      </trkpt>
      <trkpt lat="47.86089" lon="7.09582">
        <ele>745.79998779297</ele>
        <time>2020-03-08T09:43:06.000Z</time>
      </trkpt>
      <trkpt lat="47.86094" lon="7.09588">
        <ele>745</ele>
        <time>2020-03-08T09:43:07.000Z</time>
      </trkpt>
      <trkpt lat="47.86098" lon="7.09595">
        <ele>743.79998779297</ele>
        <time>2020-03-08T09:43:08.000Z</time>
      </trkpt>
      <trkpt lat="47.86102" lon="7.09601">
        <ele>743.20001220703</ele>
        <time>2020-03-08T09:43:09.000Z</time>
      </trkpt>
      <trkpt lat="47.86105" lon="7.09608">
        <ele>742.59997558594</ele>
        <time>2020-03-08T09:43:10.000Z</time>
      </trkpt>
      <trkpt lat="47.86109" lon="7.09615">
        <ele>742</ele>
        <time>2020-03-08T09:43:11.000Z</time>
      </trkpt>
      <trkpt lat="47.86112" lon="7.0962">
        <ele>741.40002441406</ele>
        <time>2020-03-08T09:43:12.000Z</time>
      </trkpt>
      <trkpt lat="47.86115" lon="7.09626">
        <ele>741</ele>
        <time>2020-03-08T09:43:13.000Z</time>
      </trkpt>
      <trkpt lat="47.86118" lon="7.09633">
        <ele>740.40002441406</ele>
        <time>2020-03-08T09:43:14.000Z</time>
      </trkpt>
      <trkpt lat="47.86122" lon="7.0964">
        <ele>739.79998779297</ele>
        <time>2020-03-08T09:43:15.000Z</time>
      </trkpt>
      <trkpt lat="47.86125" lon="7.09646">
        <ele>739.40002441406</ele>
        <time>2020-03-08T09:43:16.000Z</time>
      </trkpt>
      <trkpt lat="47.86128" lon="7.09653">
        <ele>739</ele>
        <time>2020-03-08T09:43:17.000Z</time>
      </trkpt>
      <trkpt lat="47.8613" lon="7.09659">
        <ele>738.59997558594</ele>
        <time>2020-03-08T09:43:18.000Z</time>
      </trkpt>
      <trkpt lat="47.86133" lon="7.09667">
        <ele>738</ele>
        <time>2020-03-08T09:43:19.000Z</time>
      </trkpt>
      <trkpt lat="47.86136" lon="7.09675">
        <ele>737.40002441406</ele>
        <time>2020-03-08T09:43:20.000Z</time>
      </trkpt>
      <trkpt lat="47.86139" lon="7.09684">
        <ele>737</ele>
        <time>2020-03-08T09:43:21.000Z</time>
      </trkpt>
      <trkpt lat="47.86142" lon="7.09693">
        <ele>736.40002441406</ele>
        <time>2020-03-08T09:43:22.000Z</time>
      </trkpt>
      <trkpt lat="47.86146" lon="7.09702">
        <ele>735.79998779297</ele>
        <time>2020-03-08T09:43:23.000Z</time>
      </trkpt>
      <trkpt lat="47.86149" lon="7.09711">
        <ele>735.40002441406</ele>
        <time>2020-03-08T09:43:24.000Z</time>
      </trkpt>
      <trkpt lat="47.86152" lon="7.09719">
        <ele>734.79998779297</ele>
        <time>2020-03-08T09:43:25.000Z</time>
      </trkpt>
      <trkpt lat="47.86156" lon="7.09725">
        <ele>734.20001220703</ele>
        <time>2020-03-08T09:43:26.000Z</time>
      </trkpt>
      <trkpt lat="47.8616" lon="7.0973">
        <ele>733.79998779297</ele>
        <time>2020-03-08T09:43:27.000Z</time>
      </trkpt>
      <trkpt lat="47.86165" lon="7.09735">
        <ele>733.20001220703</ele>
        <time>2020-03-08T09:43:28.000Z</time>
      </trkpt>
      <trkpt lat="47.8617" lon="7.09739">
        <ele>732.59997558594</ele>
        <time>2020-03-08T09:43:29.000Z</time>
      </trkpt>
      <trkpt lat="47.86174" lon="7.09741">
        <ele>732</ele>
        <time>2020-03-08T09:43:30.000Z</time>
      </trkpt>
      <trkpt lat="47.86179" lon="7.09743">
        <ele>731.59997558594</ele>
        <time>2020-03-08T09:43:31.000Z</time>
      </trkpt>
      <trkpt lat="47.86183" lon="7.09745">
        <ele>731</ele>
        <time>2020-03-08T09:43:32.000Z</time>
      </trkpt>
      <trkpt lat="47.86187" lon="7.09747">
        <ele>730.20001220703</ele>
        <time>2020-03-08T09:43:33.000Z</time>
      </trkpt>
      <trkpt lat="47.86191" lon="7.09749">
        <ele>729.79998779297</ele>
        <time>2020-03-08T09:43:34.000Z</time>
      </trkpt>
      <trkpt lat="47.86195" lon="7.09751">
        <ele>729.40002441406</ele>
        <time>2020-03-08T09:43:35.000Z</time>
      </trkpt>
      <trkpt lat="47.86199" lon="7.09753">
        <ele>729</ele>
        <time>2020-03-08T09:43:36.000Z</time>
      </trkpt>
      <trkpt lat="47.86205" lon="7.09755">
        <ele>729</ele>
        <time>2020-03-08T09:43:39.000Z</time>
      </trkpt>
      <trkpt lat="47.86206" lon="7.09756">
        <ele>729</ele>
        <time>2020-03-08T09:43:41.000Z</time>
      </trkpt>
      <trkpt lat="47.86209" lon="7.09762">
        <ele>727</ele>
        <time>2020-03-08T09:44:00.000Z</time>
      </trkpt>
      <trkpt lat="47.86211" lon="7.09764">
        <ele>727</ele>
        <time>2020-03-08T09:44:01.000Z</time>
      </trkpt>
      <trkpt lat="47.86218" lon="7.0977">
        <ele>727</ele>
        <time>2020-03-08T09:44:04.000Z</time>
      </trkpt>
      <trkpt lat="47.86222" lon="7.09774">
        <ele>726.40002441406</ele>
        <time>2020-03-08T09:44:06.000Z</time>
      </trkpt>
      <trkpt lat="47.86223" lon="7.09774">
        <ele>726</ele>
        <time>2020-03-08T09:44:07.000Z</time>
      </trkpt>
      <trkpt lat="47.86223" lon="7.09775">
        <ele>725.59997558594</ele>
        <time>2020-03-08T09:44:08.000Z</time>
      </trkpt>
      <trkpt lat="47.86223" lon="7.09777">
        <ele>725.20001220703</ele>
        <time>2020-03-08T09:44:09.000Z</time>
      </trkpt>
      <trkpt lat="47.86223" lon="7.0978">
        <ele>724.59997558594</ele>
        <time>2020-03-08T09:44:10.000Z</time>
      </trkpt>
      <trkpt lat="47.86222" lon="7.09785">
        <ele>724.59997558594</ele>
        <time>2020-03-08T09:44:12.000Z</time>
      </trkpt>
      <trkpt lat="47.86219" lon="7.09793">
        <ele>724.20001220703</ele>
        <time>2020-03-08T09:44:15.000Z</time>
      </trkpt>
      <trkpt lat="47.86218" lon="7.09796">
        <ele>723.79998779297</ele>
        <time>2020-03-08T09:44:16.000Z</time>
      </trkpt>
      <trkpt lat="47.86216" lon="7.09799">
        <ele>723.40002441406</ele>
        <time>2020-03-08T09:44:17.000Z</time>
      </trkpt>
      <trkpt lat="47.86215" lon="7.09802">
        <ele>723</ele>
        <time>2020-03-08T09:44:18.000Z</time>
      </trkpt>
      <trkpt lat="47.86214" lon="7.09806">
        <ele>722.59997558594</ele>
        <time>2020-03-08T09:44:19.000Z</time>
      </trkpt>
      <trkpt lat="47.86208" lon="7.09815">
        <ele>722.20001220703</ele>
        <time>2020-03-08T09:44:22.000Z</time>
      </trkpt>
      <trkpt lat="47.86206" lon="7.09819">
        <ele>721.20001220703</ele>
        <time>2020-03-08T09:44:23.000Z</time>
      </trkpt>
      <trkpt lat="47.86203" lon="7.0982">
        <ele>720.79998779297</ele>
        <time>2020-03-08T09:44:24.000Z</time>
      </trkpt>
      <trkpt lat="47.86201" lon="7.09821">
        <ele>720.20001220703</ele>
        <time>2020-03-08T09:44:25.000Z</time>
      </trkpt>
      <trkpt lat="47.86198" lon="7.09822">
        <ele>719.79998779297</ele>
        <time>2020-03-08T09:44:26.000Z</time>
      </trkpt>
      <trkpt lat="47.86195" lon="7.09822">
        <ele>719.20001220703</ele>
        <time>2020-03-08T09:44:27.000Z</time>
      </trkpt>
      <trkpt lat="47.86192" lon="7.09823">
        <ele>718.59997558594</ele>
        <time>2020-03-08T09:44:28.000Z</time>
      </trkpt>
      <trkpt lat="47.86189" lon="7.09823">
        <ele>718.20001220703</ele>
        <time>2020-03-08T09:44:29.000Z</time>
      </trkpt>
      <trkpt lat="47.86187" lon="7.09822">
        <ele>717.59997558594</ele>
        <time>2020-03-08T09:44:30.000Z</time>
      </trkpt>
      <trkpt lat="47.86184" lon="7.09821">
        <ele>717</ele>
        <time>2020-03-08T09:44:31.000Z</time>
      </trkpt>
      <trkpt lat="47.86181" lon="7.09821">
        <ele>716.59997558594</ele>
        <time>2020-03-08T09:44:32.000Z</time>
      </trkpt>
      <trkpt lat="47.86178" lon="7.09823">
        <ele>716</ele>
        <time>2020-03-08T09:44:33.000Z</time>
      </trkpt>
      <trkpt lat="47.86175" lon="7.09823">
        <ele>715.59997558594</ele>
        <time>2020-03-08T09:44:34.000Z</time>
      </trkpt>
      <trkpt lat="47.8617" lon="7.09824">
        <ele>715</ele>
        <time>2020-03-08T09:44:35.000Z</time>
      </trkpt>
      <trkpt lat="47.86166" lon="7.09823">
        <ele>714.40002441406</ele>
        <time>2020-03-08T09:44:36.000Z</time>
      </trkpt>
      <trkpt lat="47.8616" lon="7.09823">
        <ele>713.59997558594</ele>
        <time>2020-03-08T09:44:37.000Z</time>
      </trkpt>
      <trkpt lat="47.86156" lon="7.09823">
        <ele>713</ele>
        <time>2020-03-08T09:44:38.000Z</time>
      </trkpt>
      <trkpt lat="47.86149" lon="7.09822">
        <ele>712.20001220703</ele>
        <time>2020-03-08T09:44:39.000Z</time>
      </trkpt>
      <trkpt lat="47.86143" lon="7.0982">
        <ele>711.40002441406</ele>
        <time>2020-03-08T09:44:40.000Z</time>
      </trkpt>
      <trkpt lat="47.86138" lon="7.09819">
        <ele>710.59997558594</ele>
        <time>2020-03-08T09:44:41.000Z</time>
      </trkpt>
      <trkpt lat="47.86133" lon="7.09817">
        <ele>709.79998779297</ele>
        <time>2020-03-08T09:44:42.000Z</time>
      </trkpt>
      <trkpt lat="47.86128" lon="7.09815">
        <ele>709</ele>
        <time>2020-03-08T09:44:43.000Z</time>
      </trkpt>
      <trkpt lat="47.86124" lon="7.09813">
        <ele>708.40002441406</ele>
        <time>2020-03-08T09:44:44.000Z</time>
      </trkpt>
      <trkpt lat="47.86117" lon="7.09811">
        <ele>707.79998779297</ele>
        <time>2020-03-08T09:44:45.000Z</time>
      </trkpt>
      <trkpt lat="47.8611" lon="7.09811">
        <ele>707.20001220703</ele>
        <time>2020-03-08T09:44:46.000Z</time>
      </trkpt>
      <trkpt lat="47.86104" lon="7.09809">
        <ele>705.79998779297</ele>
        <time>2020-03-08T09:44:47.000Z</time>
      </trkpt>
      <trkpt lat="47.861" lon="7.09806">
        <ele>705.20001220703</ele>
        <time>2020-03-08T09:44:48.000Z</time>
      </trkpt>
      <trkpt lat="47.86096" lon="7.09805">
        <ele>704.40002441406</ele>
        <time>2020-03-08T09:44:49.000Z</time>
      </trkpt>
      <trkpt lat="47.86092" lon="7.09802">
        <ele>703.59997558594</ele>
        <time>2020-03-08T09:44:50.000Z</time>
      </trkpt>
      <trkpt lat="47.86087" lon="7.09797">
        <ele>702.79998779297</ele>
        <time>2020-03-08T09:44:51.000Z</time>
      </trkpt>
      <trkpt lat="47.86083" lon="7.09794">
        <ele>702</ele>
        <time>2020-03-08T09:44:52.000Z</time>
      </trkpt>
      <trkpt lat="47.8608" lon="7.09791">
        <ele>701.40002441406</ele>
        <time>2020-03-08T09:44:53.000Z</time>
      </trkpt>
      <trkpt lat="47.86077" lon="7.09789">
        <ele>700.79998779297</ele>
        <time>2020-03-08T09:44:54.000Z</time>
      </trkpt>
      <trkpt lat="47.86074" lon="7.09788">
        <ele>700.20001220703</ele>
        <time>2020-03-08T09:44:55.000Z</time>
      </trkpt>
      <trkpt lat="47.86071" lon="7.09786">
        <ele>699.40002441406</ele>
        <time>2020-03-08T09:44:56.000Z</time>
      </trkpt>
      <trkpt lat="47.86069" lon="7.09785">
        <ele>698.59997558594</ele>
        <time>2020-03-08T09:44:57.000Z</time>
      </trkpt>
      <trkpt lat="47.86066" lon="7.09783">
        <ele>698</ele>
        <time>2020-03-08T09:44:58.000Z</time>
      </trkpt>
      <trkpt lat="47.86062" lon="7.0978">
        <ele>697.20001220703</ele>
        <time>2020-03-08T09:44:59.000Z</time>
      </trkpt>
      <trkpt lat="47.86059" lon="7.09776">
        <ele>696.59997558594</ele>
        <time>2020-03-08T09:45:00.000Z</time>
      </trkpt>
      <trkpt lat="47.86055" lon="7.09772">
        <ele>695.79998779297</ele>
        <time>2020-03-08T09:45:01.000Z</time>
      </trkpt>
      <trkpt lat="47.86052" lon="7.09767">
        <ele>695</ele>
        <time>2020-03-08T09:45:02.000Z</time>
      </trkpt>
      <trkpt lat="47.86049" lon="7.09762">
        <ele>694.20001220703</ele>
        <time>2020-03-08T09:45:03.000Z</time>
      </trkpt>
      <trkpt lat="47.86047" lon="7.09756">
        <ele>693.20001220703</ele>
        <time>2020-03-08T09:45:04.000Z</time>
      </trkpt>
      <trkpt lat="47.86044" lon="7.09751">
        <ele>692.20001220703</ele>
        <time>2020-03-08T09:45:05.000Z</time>
      </trkpt>
      <trkpt lat="47.8604" lon="7.09748">
        <ele>691.20001220703</ele>
        <time>2020-03-08T09:45:06.000Z</time>
      </trkpt>
      <trkpt lat="47.86037" lon="7.09744">
        <ele>690.40002441406</ele>
        <time>2020-03-08T09:45:07.000Z</time>
      </trkpt>
      <trkpt lat="47.86034" lon="7.09742">
        <ele>689.40002441406</ele>
        <time>2020-03-08T09:45:08.000Z</time>
      </trkpt>
      <trkpt lat="47.86033" lon="7.09739">
        <ele>688.40002441406</ele>
        <time>2020-03-08T09:45:09.000Z</time>
      </trkpt>
      <trkpt lat="47.86031" lon="7.09737">
        <ele>687.59997558594</ele>
        <time>2020-03-08T09:45:10.000Z</time>
      </trkpt>
      <trkpt lat="47.8603" lon="7.09736">
        <ele>686.59997558594</ele>
        <time>2020-03-08T09:45:11.000Z</time>
      </trkpt>
      <trkpt lat="47.86025" lon="7.09735">
        <ele>686.59997558594</ele>
        <time>2020-03-08T09:45:14.000Z</time>
      </trkpt>
      <trkpt lat="47.8602" lon="7.09733">
        <ele>686.59997558594</ele>
        <time>2020-03-08T09:45:20.000Z</time>
      </trkpt>
      <trkpt lat="47.86015" lon="7.0972">
        <ele>686.59997558594</ele>
        <time>2020-03-08T09:46:03.000Z</time>
      </trkpt>
      <trkpt lat="47.86013" lon="7.09722">
        <ele>686.59997558594</ele>
        <time>2020-03-08T09:46:04.000Z</time>
      </trkpt>
      <trkpt lat="47.86002" lon="7.09731">
        <ele>686.59997558594</ele>
        <time>2020-03-08T09:46:08.000Z</time>
      </trkpt>
      <trkpt lat="47.85991" lon="7.0974">
        <ele>686.59997558594</ele>
        <time>2020-03-08T09:46:13.000Z</time>
      </trkpt>
      <trkpt lat="47.85983" lon="7.09747">
        <ele>686.59997558594</ele>
        <time>2020-03-08T09:46:18.000Z</time>
      </trkpt>
      <trkpt lat="47.8597" lon="7.09759">
        <ele>686.59997558594</ele>
        <time>2020-03-08T09:46:25.000Z</time>
      </trkpt>
      <trkpt lat="47.85958" lon="7.0977">
        <ele>686.59997558594</ele>
        <time>2020-03-08T09:46:30.000Z</time>
      </trkpt>
      <trkpt lat="47.85943" lon="7.09784">
        <ele>686.59997558594</ele>
        <time>2020-03-08T09:46:36.000Z</time>
      </trkpt>
      <trkpt lat="47.85939" lon="7.09788">
        <ele>686.59997558594</ele>
        <time>2020-03-08T09:46:37.000Z</time>
      </trkpt>
      <trkpt lat="47.85927" lon="7.098">
        <ele>686.20001220703</ele>
        <time>2020-03-08T09:46:40.000Z</time>
      </trkpt>
      <trkpt lat="47.85922" lon="7.09803">
        <ele>685.79998779297</ele>
        <time>2020-03-08T09:46:41.000Z</time>
      </trkpt>
      <trkpt lat="47.85918" lon="7.09806">
        <ele>685.40002441406</ele>
        <time>2020-03-08T09:46:42.000Z</time>
      </trkpt>
      <trkpt lat="47.85914" lon="7.09808">
        <ele>684.79998779297</ele>
        <time>2020-03-08T09:46:43.000Z</time>
      </trkpt>
      <trkpt lat="47.85911" lon="7.09811">
        <ele>684.40002441406</ele>
        <time>2020-03-08T09:46:44.000Z</time>
      </trkpt>
      <trkpt lat="47.85907" lon="7.09814">
        <ele>683.59997558594</ele>
        <time>2020-03-08T09:46:45.000Z</time>
      </trkpt>
      <trkpt lat="47.85902" lon="7.09818">
        <ele>683.20001220703</ele>
        <time>2020-03-08T09:46:46.000Z</time>
      </trkpt>
      <trkpt lat="47.85898" lon="7.09819">
        <ele>682.79998779297</ele>
        <time>2020-03-08T09:46:47.000Z</time>
      </trkpt>
      <trkpt lat="47.85893" lon="7.09823">
        <ele>682.40002441406</ele>
        <time>2020-03-08T09:46:48.000Z</time>
      </trkpt>
      <trkpt lat="47.85887" lon="7.09826">
        <ele>682.40002441406</ele>
        <time>2020-03-08T09:46:49.000Z</time>
      </trkpt>
      <trkpt lat="47.85877" lon="7.09828">
        <ele>681.79998779297</ele>
        <time>2020-03-08T09:46:51.000Z</time>
      </trkpt>
      <trkpt lat="47.85872" lon="7.09827">
        <ele>681.40002441406</ele>
        <time>2020-03-08T09:46:52.000Z</time>
      </trkpt>
      <trkpt lat="47.85868" lon="7.09825">
        <ele>681</ele>
        <time>2020-03-08T09:46:53.000Z</time>
      </trkpt>
      <trkpt lat="47.85864" lon="7.09823">
        <ele>680.40002441406</ele>
        <time>2020-03-08T09:46:54.000Z</time>
      </trkpt>
      <trkpt lat="47.85861" lon="7.09819">
        <ele>680</ele>
        <time>2020-03-08T09:46:55.000Z</time>
      </trkpt>
      <trkpt lat="47.85855" lon="7.09809">
        <ele>680</ele>
        <time>2020-03-08T09:46:57.000Z</time>
      </trkpt>
      <trkpt lat="47.85853" lon="7.09804">
        <ele>679.59997558594</ele>
        <time>2020-03-08T09:46:58.000Z</time>
      </trkpt>
      <trkpt lat="47.85851" lon="7.09798">
        <ele>679.20001220703</ele>
        <time>2020-03-08T09:46:59.000Z</time>
      </trkpt>
      <trkpt lat="47.85849" lon="7.09792">
        <ele>678.79998779297</ele>
        <time>2020-03-08T09:47:00.000Z</time>
      </trkpt>
      <trkpt lat="47.85847" lon="7.09786">
        <ele>678.20001220703</ele>
        <time>2020-03-08T09:47:01.000Z</time>
      </trkpt>
      <trkpt lat="47.85845" lon="7.09779">
        <ele>677.79998779297</ele>
        <time>2020-03-08T09:47:02.000Z</time>
      </trkpt>
      <trkpt lat="47.85841" lon="7.09766">
        <ele>677.40002441406</ele>
        <time>2020-03-08T09:47:04.000Z</time>
      </trkpt>
      <trkpt lat="47.85838" lon="7.09757">
        <ele>677</ele>
        <time>2020-03-08T09:47:05.000Z</time>
      </trkpt>
      <trkpt lat="47.85835" lon="7.09748">
        <ele>676.59997558594</ele>
        <time>2020-03-08T09:47:06.000Z</time>
      </trkpt>
      <trkpt lat="47.85832" lon="7.0974">
        <ele>676</ele>
        <time>2020-03-08T09:47:07.000Z</time>
      </trkpt>
      <trkpt lat="47.85829" lon="7.09733">
        <ele>675.59997558594</ele>
        <time>2020-03-08T09:47:08.000Z</time>
      </trkpt>
      <trkpt lat="47.85826" lon="7.09726">
        <ele>675.20001220703</ele>
        <time>2020-03-08T09:47:09.000Z</time>
      </trkpt>
      <trkpt lat="47.85824" lon="7.09719">
        <ele>674.59997558594</ele>
        <time>2020-03-08T09:47:10.000Z</time>
      </trkpt>
      <trkpt lat="47.85821" lon="7.09712">
        <ele>674.20001220703</ele>
        <time>2020-03-08T09:47:11.000Z</time>
      </trkpt>
      <trkpt lat="47.85818" lon="7.09704">
        <ele>673.59997558594</ele>
        <time>2020-03-08T09:47:12.000Z</time>
      </trkpt>
      <trkpt lat="47.85815" lon="7.09698">
        <ele>673.20001220703</ele>
        <time>2020-03-08T09:47:13.000Z</time>
      </trkpt>
      <trkpt lat="47.85811" lon="7.0969">
        <ele>672.79998779297</ele>
        <time>2020-03-08T09:47:14.000Z</time>
      </trkpt>
      <trkpt lat="47.85808" lon="7.09683">
        <ele>672.40002441406</ele>
        <time>2020-03-08T09:47:15.000Z</time>
      </trkpt>
      <trkpt lat="47.85804" lon="7.09677">
        <ele>672</ele>
        <time>2020-03-08T09:47:16.000Z</time>
      </trkpt>
      <trkpt lat="47.858" lon="7.09673">
        <ele>671.40002441406</ele>
        <time>2020-03-08T09:47:17.000Z</time>
      </trkpt>
      <trkpt lat="47.85796" lon="7.09669">
        <ele>671</ele>
        <time>2020-03-08T09:47:18.000Z</time>
      </trkpt>
      <trkpt lat="47.85786" lon="7.09661">
        <ele>670.59997558594</ele>
        <time>2020-03-08T09:47:20.000Z</time>
      </trkpt>
      <trkpt lat="47.85781" lon="7.09658">
        <ele>670.20001220703</ele>
        <time>2020-03-08T09:47:21.000Z</time>
      </trkpt>
      <trkpt lat="47.85777" lon="7.09654">
        <ele>669.59997558594</ele>
        <time>2020-03-08T09:47:22.000Z</time>
      </trkpt>
      <trkpt lat="47.85773" lon="7.0965">
        <ele>669.20001220703</ele>
        <time>2020-03-08T09:47:23.000Z</time>
      </trkpt>
      <trkpt lat="47.85767" lon="7.09646">
        <ele>668.79998779297</ele>
        <time>2020-03-08T09:47:24.000Z</time>
      </trkpt>
      <trkpt lat="47.85757" lon="7.09637">
        <ele>668.40002441406</ele>
        <time>2020-03-08T09:47:26.000Z</time>
      </trkpt>
      <trkpt lat="47.85753" lon="7.09632">
        <ele>668</ele>
        <time>2020-03-08T09:47:27.000Z</time>
      </trkpt>
      <trkpt lat="47.85749" lon="7.09627">
        <ele>667.59997558594</ele>
        <time>2020-03-08T09:47:28.000Z</time>
      </trkpt>
      <trkpt lat="47.85745" lon="7.09622">
        <ele>667</ele>
        <time>2020-03-08T09:47:29.000Z</time>
      </trkpt>
      <trkpt lat="47.8574" lon="7.09618">
        <ele>666.59997558594</ele>
        <time>2020-03-08T09:47:30.000Z</time>
      </trkpt>
      <trkpt lat="47.85735" lon="7.09614">
        <ele>666</ele>
        <time>2020-03-08T09:47:31.000Z</time>
      </trkpt>
      <trkpt lat="47.8573" lon="7.0961">
        <ele>665.59997558594</ele>
        <time>2020-03-08T09:47:32.000Z</time>
      </trkpt>
      <trkpt lat="47.85725" lon="7.09607">
        <ele>665</ele>
        <time>2020-03-08T09:47:33.000Z</time>
      </trkpt>
      <trkpt lat="47.8572" lon="7.09603">
        <ele>664</ele>
        <time>2020-03-08T09:47:34.000Z</time>
      </trkpt>
      <trkpt lat="47.85715" lon="7.096">
        <ele>663.40002441406</ele>
        <time>2020-03-08T09:47:35.000Z</time>
      </trkpt>
      <trkpt lat="47.8571" lon="7.09596">
        <ele>662.79998779297</ele>
        <time>2020-03-08T09:47:36.000Z</time>
      </trkpt>
      <trkpt lat="47.85705" lon="7.09591">
        <ele>662.20001220703</ele>
        <time>2020-03-08T09:47:37.000Z</time>
      </trkpt>
      <trkpt lat="47.85699" lon="7.09586">
        <ele>662.20001220703</ele>
        <time>2020-03-08T09:47:38.000Z</time>
      </trkpt>
      <trkpt lat="47.85695" lon="7.09582">
        <ele>661.79998779297</ele>
        <time>2020-03-08T09:47:39.000Z</time>
      </trkpt>
      <trkpt lat="47.85691" lon="7.09576">
        <ele>661.40002441406</ele>
        <time>2020-03-08T09:47:40.000Z</time>
      </trkpt>
      <trkpt lat="47.85688" lon="7.09569">
        <ele>660.79998779297</ele>
        <time>2020-03-08T09:47:41.000Z</time>
      </trkpt>
      <trkpt lat="47.85685" lon="7.09562">
        <ele>660.40002441406</ele>
        <time>2020-03-08T09:47:42.000Z</time>
      </trkpt>
      <trkpt lat="47.85682" lon="7.09553">
        <ele>660</ele>
        <time>2020-03-08T09:47:43.000Z</time>
      </trkpt>
      <trkpt lat="47.85676" lon="7.09526">
        <ele>660</ele>
        <time>2020-03-08T09:47:46.000Z</time>
      </trkpt>
      <trkpt lat="47.85674" lon="7.09505">
        <ele>659.40002441406</ele>
        <time>2020-03-08T09:47:48.000Z</time>
      </trkpt>
      <trkpt lat="47.85673" lon="7.09494">
        <ele>659</ele>
        <time>2020-03-08T09:47:49.000Z</time>
      </trkpt>
      <trkpt lat="47.85674" lon="7.09485">
        <ele>658.40002441406</ele>
        <time>2020-03-08T09:47:50.000Z</time>
      </trkpt>
      <trkpt lat="47.85675" lon="7.09476">
        <ele>658</ele>
        <time>2020-03-08T09:47:51.000Z</time>
      </trkpt>
      <trkpt lat="47.85678" lon="7.09468">
        <ele>657.40002441406</ele>
        <time>2020-03-08T09:47:52.000Z</time>
      </trkpt>
      <trkpt lat="47.85681" lon="7.09461">
        <ele>657</ele>
        <time>2020-03-08T09:47:53.000Z</time>
      </trkpt>
      <trkpt lat="47.85684" lon="7.09456">
        <ele>656.40002441406</ele>
        <time>2020-03-08T09:47:54.000Z</time>
      </trkpt>
      <trkpt lat="47.85686" lon="7.09451">
        <ele>655.79998779297</ele>
        <time>2020-03-08T09:47:55.000Z</time>
      </trkpt>
      <trkpt lat="47.85688" lon="7.09448">
        <ele>655.40002441406</ele>
        <time>2020-03-08T09:47:56.000Z</time>
      </trkpt>
      <trkpt lat="47.8569" lon="7.09446">
        <ele>655.40002441406</ele>
        <time>2020-03-08T09:47:57.000Z</time>
      </trkpt>
      <trkpt lat="47.85691" lon="7.09444">
        <ele>655.40002441406</ele>
        <time>2020-03-08T09:47:59.000Z</time>
      </trkpt>
      <trkpt lat="47.85692" lon="7.09441">
        <ele>653.40002441406</ele>
        <time>2020-03-08T09:48:21.000Z</time>
      </trkpt>
      <trkpt lat="47.85692" lon="7.09439">
        <ele>653.40002441406</ele>
        <time>2020-03-08T09:48:22.000Z</time>
      </trkpt>
      <trkpt lat="47.857" lon="7.09427">
        <ele>653.40002441406</ele>
        <time>2020-03-08T09:48:26.000Z</time>
      </trkpt>
      <trkpt lat="47.85706" lon="7.09419">
        <ele>653.40002441406</ele>
        <time>2020-03-08T09:48:28.000Z</time>
      </trkpt>
      <trkpt lat="47.85716" lon="7.094">
        <ele>653</ele>
        <time>2020-03-08T09:48:31.000Z</time>
      </trkpt>
      <trkpt lat="47.85719" lon="7.09393">
        <ele>652.40002441406</ele>
        <time>2020-03-08T09:48:32.000Z</time>
      </trkpt>
      <trkpt lat="47.85723" lon="7.09386">
        <ele>652</ele>
        <time>2020-03-08T09:48:33.000Z</time>
      </trkpt>
      <trkpt lat="47.85727" lon="7.09379">
        <ele>651.59997558594</ele>
        <time>2020-03-08T09:48:34.000Z</time>
      </trkpt>
      <trkpt lat="47.85731" lon="7.09372">
        <ele>651</ele>
        <time>2020-03-08T09:48:35.000Z</time>
      </trkpt>
      <trkpt lat="47.85739" lon="7.09356">
        <ele>650.59997558594</ele>
        <time>2020-03-08T09:48:37.000Z</time>
      </trkpt>
      <trkpt lat="47.85743" lon="7.09348">
        <ele>650.20001220703</ele>
        <time>2020-03-08T09:48:38.000Z</time>
      </trkpt>
      <trkpt lat="47.85748" lon="7.09339">
        <ele>649.79998779297</ele>
        <time>2020-03-08T09:48:39.000Z</time>
      </trkpt>
      <trkpt lat="47.85753" lon="7.09331">
        <ele>649.40002441406</ele>
        <time>2020-03-08T09:48:40.000Z</time>
      </trkpt>
      <trkpt lat="47.85758" lon="7.09323">
        <ele>649</ele>
        <time>2020-03-08T09:48:41.000Z</time>
      </trkpt>
      <trkpt lat="47.85763" lon="7.09316">
        <ele>648.40002441406</ele>
        <time>2020-03-08T09:48:42.000Z</time>
      </trkpt>
      <trkpt lat="47.85768" lon="7.0931">
        <ele>648</ele>
        <time>2020-03-08T09:48:43.000Z</time>
      </trkpt>
      <trkpt lat="47.85774" lon="7.09304">
        <ele>647.40002441406</ele>
        <time>2020-03-08T09:48:44.000Z</time>
      </trkpt>
      <trkpt lat="47.85779" lon="7.09297">
        <ele>647</ele>
        <time>2020-03-08T09:48:45.000Z</time>
      </trkpt>
      <trkpt lat="47.85783" lon="7.09291">
        <ele>646.40002441406</ele>
        <time>2020-03-08T09:48:46.000Z</time>
      </trkpt>
      <trkpt lat="47.85786" lon="7.09283">
        <ele>646</ele>
        <time>2020-03-08T09:48:47.000Z</time>
      </trkpt>
      <trkpt lat="47.85788" lon="7.09274">
        <ele>645.40002441406</ele>
        <time>2020-03-08T09:48:48.000Z</time>
      </trkpt>
      <trkpt lat="47.85789" lon="7.09265">
        <ele>644.20001220703</ele>
        <time>2020-03-08T09:48:49.000Z</time>
      </trkpt>
      <trkpt lat="47.85789" lon="7.09256">
        <ele>643.59997558594</ele>
        <time>2020-03-08T09:48:50.000Z</time>
      </trkpt>
      <trkpt lat="47.85789" lon="7.09246">
        <ele>642.79998779297</ele>
        <time>2020-03-08T09:48:51.000Z</time>
      </trkpt>
      <trkpt lat="47.8579" lon="7.09235">
        <ele>642.20001220703</ele>
        <time>2020-03-08T09:48:52.000Z</time>
      </trkpt>
      <trkpt lat="47.8579" lon="7.09223">
        <ele>641.59997558594</ele>
        <time>2020-03-08T09:48:53.000Z</time>
      </trkpt>
      <trkpt lat="47.8579" lon="7.09211">
        <ele>641</ele>
        <time>2020-03-08T09:48:54.000Z</time>
      </trkpt>
      <trkpt lat="47.8579" lon="7.092">
        <ele>640.40002441406</ele>
        <time>2020-03-08T09:48:55.000Z</time>
      </trkpt>
      <trkpt lat="47.85791" lon="7.09189">
        <ele>639.79998779297</ele>
        <time>2020-03-08T09:48:56.000Z</time>
      </trkpt>
      <trkpt lat="47.85791" lon="7.09177">
        <ele>639.20001220703</ele>
        <time>2020-03-08T09:48:57.000Z</time>
      </trkpt>
      <trkpt lat="47.85792" lon="7.09165">
        <ele>638.59997558594</ele>
        <time>2020-03-08T09:48:58.000Z</time>
      </trkpt>
      <trkpt lat="47.85792" lon="7.09153">
        <ele>638.20001220703</ele>
        <time>2020-03-08T09:48:59.000Z</time>
      </trkpt>
      <trkpt lat="47.85792" lon="7.09141">
        <ele>637.59997558594</ele>
        <time>2020-03-08T09:49:00.000Z</time>
      </trkpt>
      <trkpt lat="47.85793" lon="7.09128">
        <ele>637.20001220703</ele>
        <time>2020-03-08T09:49:01.000Z</time>
      </trkpt>
      <trkpt lat="47.85793" lon="7.09115">
        <ele>636.59997558594</ele>
        <time>2020-03-08T09:49:02.000Z</time>
      </trkpt>
      <trkpt lat="47.85794" lon="7.09102">
        <ele>636</ele>
        <time>2020-03-08T09:49:03.000Z</time>
      </trkpt>
      <trkpt lat="47.85795" lon="7.0909">
        <ele>635.40002441406</ele>
        <time>2020-03-08T09:49:04.000Z</time>
      </trkpt>
      <trkpt lat="47.85795" lon="7.09076">
        <ele>634.79998779297</ele>
        <time>2020-03-08T09:49:05.000Z</time>
      </trkpt>
      <trkpt lat="47.85796" lon="7.09063">
        <ele>634.20001220703</ele>
        <time>2020-03-08T09:49:06.000Z</time>
      </trkpt>
      <trkpt lat="47.85797" lon="7.09049">
        <ele>633.59997558594</ele>
        <time>2020-03-08T09:49:07.000Z</time>
      </trkpt>
      <trkpt lat="47.85798" lon="7.09036">
        <ele>633</ele>
        <time>2020-03-08T09:49:08.000Z</time>
      </trkpt>
      <trkpt lat="47.85799" lon="7.09022">
        <ele>632.40002441406</ele>
        <time>2020-03-08T09:49:09.000Z</time>
      </trkpt>
      <trkpt lat="47.858" lon="7.09009">
        <ele>631.59997558594</ele>
        <time>2020-03-08T09:49:10.000Z</time>
      </trkpt>
      <trkpt lat="47.85801" lon="7.08995">
        <ele>631</ele>
        <time>2020-03-08T09:49:11.000Z</time>
      </trkpt>
      <trkpt lat="47.85802" lon="7.08982">
        <ele>630.40002441406</ele>
        <time>2020-03-08T09:49:12.000Z</time>
      </trkpt>
      <trkpt lat="47.85803" lon="7.08967">
        <ele>629.59997558594</ele>
        <time>2020-03-08T09:49:13.000Z</time>
      </trkpt>
      <trkpt lat="47.85803" lon="7.08952">
        <ele>628.20001220703</ele>
        <time>2020-03-08T09:49:14.000Z</time>
      </trkpt>
      <trkpt lat="47.85803" lon="7.08939">
        <ele>627.20001220703</ele>
        <time>2020-03-08T09:49:15.000Z</time>
      </trkpt>
      <trkpt lat="47.85803" lon="7.08925">
        <ele>626.40002441406</ele>
        <time>2020-03-08T09:49:16.000Z</time>
      </trkpt>
      <trkpt lat="47.85802" lon="7.08912">
        <ele>625.59997558594</ele>
        <time>2020-03-08T09:49:17.000Z</time>
      </trkpt>
      <trkpt lat="47.85801" lon="7.08898">
        <ele>624.79998779297</ele>
        <time>2020-03-08T09:49:18.000Z</time>
      </trkpt>
      <trkpt lat="47.858" lon="7.08884">
        <ele>624</ele>
        <time>2020-03-08T09:49:19.000Z</time>
      </trkpt>
      <trkpt lat="47.85798" lon="7.08869">
        <ele>623</ele>
        <time>2020-03-08T09:49:20.000Z</time>
      </trkpt>
      <trkpt lat="47.85797" lon="7.08855">
        <ele>622.20001220703</ele>
        <time>2020-03-08T09:49:21.000Z</time>
      </trkpt>
      <trkpt lat="47.85796" lon="7.08839">
        <ele>621.40002441406</ele>
        <time>2020-03-08T09:49:22.000Z</time>
      </trkpt>
      <trkpt lat="47.85794" lon="7.08826">
        <ele>620.40002441406</ele>
        <time>2020-03-08T09:49:23.000Z</time>
      </trkpt>
      <trkpt lat="47.85792" lon="7.08814">
        <ele>619.59997558594</ele>
        <time>2020-03-08T09:49:24.000Z</time>
      </trkpt>
      <trkpt lat="47.85789" lon="7.08803">
        <ele>619</ele>
        <time>2020-03-08T09:49:25.000Z</time>
      </trkpt>
      <trkpt lat="47.85787" lon="7.08792">
        <ele>618.20001220703</ele>
        <time>2020-03-08T09:49:26.000Z</time>
      </trkpt>
      <trkpt lat="47.85785" lon="7.08782">
        <ele>617.40002441406</ele>
        <time>2020-03-08T09:49:27.000Z</time>
      </trkpt>
      <trkpt lat="47.85783" lon="7.08774">
        <ele>616.59997558594</ele>
        <time>2020-03-08T09:49:28.000Z</time>
      </trkpt>
      <trkpt lat="47.85782" lon="7.08766">
        <ele>616</ele>
        <time>2020-03-08T09:49:29.000Z</time>
      </trkpt>
      <trkpt lat="47.8578" lon="7.08759">
        <ele>615.59997558594</ele>
        <time>2020-03-08T09:49:30.000Z</time>
      </trkpt>
      <trkpt lat="47.85778" lon="7.08752">
        <ele>615</ele>
        <time>2020-03-08T09:49:31.000Z</time>
      </trkpt>
      <trkpt lat="47.85776" lon="7.08744">
        <ele>614.40002441406</ele>
        <time>2020-03-08T09:49:32.000Z</time>
      </trkpt>
      <trkpt lat="47.85774" lon="7.08735">
        <ele>613.79998779297</ele>
        <time>2020-03-08T09:49:33.000Z</time>
      </trkpt>
      <trkpt lat="47.85771" lon="7.08725">
        <ele>613.20001220703</ele>
        <time>2020-03-08T09:49:34.000Z</time>
      </trkpt>
      <trkpt lat="47.85768" lon="7.08716">
        <ele>612.40002441406</ele>
        <time>2020-03-08T09:49:35.000Z</time>
      </trkpt>
      <trkpt lat="47.85765" lon="7.08706">
        <ele>611.79998779297</ele>
        <time>2020-03-08T09:49:36.000Z</time>
      </trkpt>
      <trkpt lat="47.85761" lon="7.08696">
        <ele>611</ele>
        <time>2020-03-08T09:49:37.000Z</time>
      </trkpt>
      <trkpt lat="47.85758" lon="7.08686">
        <ele>610</ele>
        <time>2020-03-08T09:49:38.000Z</time>
      </trkpt>
      <trkpt lat="47.85754" lon="7.08678">
        <ele>608.40002441406</ele>
        <time>2020-03-08T09:49:39.000Z</time>
      </trkpt>
      <trkpt lat="47.8575" lon="7.08671">
        <ele>607.40002441406</ele>
        <time>2020-03-08T09:49:40.000Z</time>
      </trkpt>
      <trkpt lat="47.85747" lon="7.08664">
        <ele>607.40002441406</ele>
        <time>2020-03-08T09:49:41.000Z</time>
      </trkpt>
      <trkpt lat="47.85738" lon="7.08643">
        <ele>607.40002441406</ele>
        <time>2020-03-08T09:49:45.000Z</time>
      </trkpt>
      <trkpt lat="47.85736" lon="7.08639">
        <ele>607.40002441406</ele>
        <time>2020-03-08T09:49:46.000Z</time>
      </trkpt>
      <trkpt lat="47.85731" lon="7.08632">
        <ele>607.40002441406</ele>
        <time>2020-03-08T09:49:49.000Z</time>
      </trkpt>
      <trkpt lat="47.85725" lon="7.08626">
        <ele>607.79998779297</ele>
        <time>2020-03-08T09:49:52.000Z</time>
      </trkpt>
      <trkpt lat="47.85724" lon="7.08624">
        <ele>608.40002441406</ele>
        <time>2020-03-08T09:49:53.000Z</time>
      </trkpt>
      <trkpt lat="47.85722" lon="7.08622">
        <ele>608.79998779297</ele>
        <time>2020-03-08T09:49:54.000Z</time>
      </trkpt>
      <trkpt lat="47.85721" lon="7.0862">
        <ele>609.20001220703</ele>
        <time>2020-03-08T09:49:55.000Z</time>
      </trkpt>
      <trkpt lat="47.85721" lon="7.08618">
        <ele>609.59997558594</ele>
        <time>2020-03-08T09:49:56.000Z</time>
      </trkpt>
      <trkpt lat="47.85719" lon="7.08612">
        <ele>609.59997558594</ele>
        <time>2020-03-08T09:50:00.000Z</time>
      </trkpt>
      <trkpt lat="47.85713" lon="7.08606">
        <ele>611</ele>
        <time>2020-03-08T09:50:23.000Z</time>
      </trkpt>
      <trkpt lat="47.85711" lon="7.08605">
        <ele>611.40002441406</ele>
        <time>2020-03-08T09:50:24.000Z</time>
      </trkpt>
      <trkpt lat="47.8571" lon="7.08604">
        <ele>611.79998779297</ele>
        <time>2020-03-08T09:50:25.000Z</time>
      </trkpt>
      <trkpt lat="47.85708" lon="7.08603">
        <ele>611.79998779297</ele>
        <time>2020-03-08T09:50:26.000Z</time>
      </trkpt>
      <trkpt lat="47.85702" lon="7.08599">
        <ele>611.79998779297</ele>
        <time>2020-03-08T09:50:32.000Z</time>
      </trkpt>
      <trkpt lat="47.85701" lon="7.08598">
        <ele>611.79998779297</ele>
        <time>2020-03-08T09:50:34.000Z</time>
      </trkpt>
      <trkpt lat="47.85713" lon="7.08607">
        <ele>611.79998779297</ele>
        <time>2020-03-08T09:51:50.000Z</time>
      </trkpt>
      <trkpt lat="47.85715" lon="7.08604">
        <ele>611.79998779297</ele>
        <time>2020-03-08T09:51:51.000Z</time>
      </trkpt>
      <trkpt lat="47.85717" lon="7.086">
        <ele>611.79998779297</ele>
        <time>2020-03-08T09:51:53.000Z</time>
      </trkpt>
      <trkpt lat="47.85722" lon="7.08593">
        <ele>611.79998779297</ele>
        <time>2020-03-08T09:51:55.000Z</time>
      </trkpt>
      <trkpt lat="47.85727" lon="7.08585">
        <ele>611.40002441406</ele>
        <time>2020-03-08T09:51:57.000Z</time>
      </trkpt>
      <trkpt lat="47.8573" lon="7.08581">
        <ele>610.79998779297</ele>
        <time>2020-03-08T09:51:58.000Z</time>
      </trkpt>
      <trkpt lat="47.85734" lon="7.08577">
        <ele>610.40002441406</ele>
        <time>2020-03-08T09:51:59.000Z</time>
      </trkpt>
      <trkpt lat="47.85737" lon="7.08573">
        <ele>609.59997558594</ele>
        <time>2020-03-08T09:52:00.000Z</time>
      </trkpt>
      <trkpt lat="47.85741" lon="7.08567">
        <ele>609</ele>
        <time>2020-03-08T09:52:01.000Z</time>
      </trkpt>
      <trkpt lat="47.85744" lon="7.08562">
        <ele>608</ele>
        <time>2020-03-08T09:52:02.000Z</time>
      </trkpt>
      <trkpt lat="47.85748" lon="7.08557">
        <ele>607</ele>
        <time>2020-03-08T09:52:03.000Z</time>
      </trkpt>
      <trkpt lat="47.85754" lon="7.08553">
        <ele>605.59997558594</ele>
        <time>2020-03-08T09:52:04.000Z</time>
      </trkpt>
      <trkpt lat="47.85759" lon="7.08549">
        <ele>604.40002441406</ele>
        <time>2020-03-08T09:52:05.000Z</time>
      </trkpt>
      <trkpt lat="47.85765" lon="7.08545">
        <ele>602.79998779297</ele>
        <time>2020-03-08T09:52:06.000Z</time>
      </trkpt>
      <trkpt lat="47.85771" lon="7.08542">
        <ele>600</ele>
        <time>2020-03-08T09:52:07.000Z</time>
      </trkpt>
      <trkpt lat="47.85778" lon="7.0854">
        <ele>598.59997558594</ele>
        <time>2020-03-08T09:52:08.000Z</time>
      </trkpt>
      <trkpt lat="47.85784" lon="7.08539">
        <ele>597.40002441406</ele>
        <time>2020-03-08T09:52:09.000Z</time>
      </trkpt>
      <trkpt lat="47.85791" lon="7.08539">
        <ele>596</ele>
        <time>2020-03-08T09:52:10.000Z</time>
      </trkpt>
      <trkpt lat="47.85797" lon="7.0854">
        <ele>594.59997558594</ele>
        <time>2020-03-08T09:52:11.000Z</time>
      </trkpt>
      <trkpt lat="47.85802" lon="7.08541">
        <ele>595</ele>
        <time>2020-03-08T09:52:12.000Z</time>
      </trkpt>
      <trkpt lat="47.85806" lon="7.08543">
        <ele>595.59997558594</ele>
        <time>2020-03-08T09:52:13.000Z</time>
      </trkpt>
      <trkpt lat="47.8581" lon="7.08544">
        <ele>596</ele>
        <time>2020-03-08T09:52:14.000Z</time>
      </trkpt>
      <trkpt lat="47.85814" lon="7.08544">
        <ele>596.59997558594</ele>
        <time>2020-03-08T09:52:15.000Z</time>
      </trkpt>
      <trkpt lat="47.85816" lon="7.08546">
        <ele>597.20001220703</ele>
        <time>2020-03-08T09:52:16.000Z</time>
      </trkpt>
      <trkpt lat="47.85818" lon="7.08548">
        <ele>598</ele>
        <time>2020-03-08T09:52:17.000Z</time>
      </trkpt>
      <trkpt lat="47.8582" lon="7.08549">
        <ele>598.59997558594</ele>
        <time>2020-03-08T09:52:18.000Z</time>
      </trkpt>
      <trkpt lat="47.85822" lon="7.0855">
        <ele>599.20001220703</ele>
        <time>2020-03-08T09:52:19.000Z</time>
      </trkpt>
      <trkpt lat="47.85824" lon="7.0855">
        <ele>599.59997558594</ele>
        <time>2020-03-08T09:52:20.000Z</time>
      </trkpt>
      <trkpt lat="47.85826" lon="7.0855">
        <ele>600.20001220703</ele>
        <time>2020-03-08T09:52:21.000Z</time>
      </trkpt>
      <trkpt lat="47.85827" lon="7.08549">
        <ele>600.59997558594</ele>
        <time>2020-03-08T09:52:22.000Z</time>
      </trkpt>
      <trkpt lat="47.85828" lon="7.08549">
        <ele>601</ele>
        <time>2020-03-08T09:52:23.000Z</time>
      </trkpt>
      <trkpt lat="47.85833" lon="7.08544">
        <ele>601.59997558594</ele>
        <time>2020-03-08T09:53:05.000Z</time>
      </trkpt>
      <trkpt lat="47.85837" lon="7.0854">
        <ele>601.59997558594</ele>
        <time>2020-03-08T09:53:07.000Z</time>
      </trkpt>
      <trkpt lat="47.85844" lon="7.08534">
        <ele>601</ele>
        <time>2020-03-08T09:53:09.000Z</time>
      </trkpt>
      <trkpt lat="47.85848" lon="7.0853">
        <ele>600.59997558594</ele>
        <time>2020-03-08T09:53:10.000Z</time>
      </trkpt>
      <trkpt lat="47.85854" lon="7.08525">
        <ele>600</ele>
        <time>2020-03-08T09:53:11.000Z</time>
      </trkpt>
      <trkpt lat="47.8586" lon="7.0852">
        <ele>599.20001220703</ele>
        <time>2020-03-08T09:53:12.000Z</time>
      </trkpt>
      <trkpt lat="47.85867" lon="7.08515">
        <ele>598.20001220703</ele>
        <time>2020-03-08T09:53:13.000Z</time>
      </trkpt>
      <trkpt lat="47.85873" lon="7.0851">
        <ele>597</ele>
        <time>2020-03-08T09:53:14.000Z</time>
      </trkpt>
      <trkpt lat="47.85881" lon="7.08506">
        <ele>595.79998779297</ele>
        <time>2020-03-08T09:53:15.000Z</time>
      </trkpt>
      <trkpt lat="47.85888" lon="7.08502">
        <ele>594.79998779297</ele>
        <time>2020-03-08T09:53:16.000Z</time>
      </trkpt>
      <trkpt lat="47.85895" lon="7.08499">
        <ele>593.40002441406</ele>
        <time>2020-03-08T09:53:17.000Z</time>
      </trkpt>
      <trkpt lat="47.85903" lon="7.08496">
        <ele>592.20001220703</ele>
        <time>2020-03-08T09:53:18.000Z</time>
      </trkpt>
      <trkpt lat="47.8591" lon="7.08494">
        <ele>590.79998779297</ele>
        <time>2020-03-08T09:53:19.000Z</time>
      </trkpt>
      <trkpt lat="47.85917" lon="7.08494">
        <ele>589.40002441406</ele>
        <time>2020-03-08T09:53:20.000Z</time>
      </trkpt>
      <trkpt lat="47.85926" lon="7.08496">
        <ele>587</ele>
        <time>2020-03-08T09:53:21.000Z</time>
      </trkpt>
      <trkpt lat="47.85934" lon="7.08498">
        <ele>585.79998779297</ele>
        <time>2020-03-08T09:53:22.000Z</time>
      </trkpt>
      <trkpt lat="47.85942" lon="7.08501">
        <ele>584.59997558594</ele>
        <time>2020-03-08T09:53:23.000Z</time>
      </trkpt>
      <trkpt lat="47.85952" lon="7.08506">
        <ele>583.20001220703</ele>
        <time>2020-03-08T09:53:24.000Z</time>
      </trkpt>
      <trkpt lat="47.85962" lon="7.08509">
        <ele>582</ele>
        <time>2020-03-08T09:53:25.000Z</time>
      </trkpt>
      <trkpt lat="47.85972" lon="7.08514">
        <ele>580.59997558594</ele>
        <time>2020-03-08T09:53:26.000Z</time>
      </trkpt>
      <trkpt lat="47.85982" lon="7.08518">
        <ele>579</ele>
        <time>2020-03-08T09:53:27.000Z</time>
      </trkpt>
      <trkpt lat="47.85992" lon="7.08521">
        <ele>577.20001220703</ele>
        <time>2020-03-08T09:53:28.000Z</time>
      </trkpt>
      <trkpt lat="47.86002" lon="7.08524">
        <ele>575.40002441406</ele>
        <time>2020-03-08T09:53:29.000Z</time>
      </trkpt>
      <trkpt lat="47.86011" lon="7.08527">
        <ele>573.40002441406</ele>
        <time>2020-03-08T09:53:30.000Z</time>
      </trkpt>
      <trkpt lat="47.86019" lon="7.08529">
        <ele>571.40002441406</ele>
        <time>2020-03-08T09:53:31.000Z</time>
      </trkpt>
      <trkpt lat="47.86027" lon="7.08531">
        <ele>569.40002441406</ele>
        <time>2020-03-08T09:53:32.000Z</time>
      </trkpt>
      <trkpt lat="47.86035" lon="7.08532">
        <ele>567.40002441406</ele>
        <time>2020-03-08T09:53:33.000Z</time>
      </trkpt>
      <trkpt lat="47.86043" lon="7.08534">
        <ele>565.59997558594</ele>
        <time>2020-03-08T09:53:34.000Z</time>
      </trkpt>
      <trkpt lat="47.86051" lon="7.08535">
        <ele>563.59997558594</ele>
        <time>2020-03-08T09:53:35.000Z</time>
      </trkpt>
      <trkpt lat="47.86059" lon="7.08536">
        <ele>561.59997558594</ele>
        <time>2020-03-08T09:53:36.000Z</time>
      </trkpt>
      <trkpt lat="47.86068" lon="7.08538">
        <ele>559.59997558594</ele>
        <time>2020-03-08T09:53:37.000Z</time>
      </trkpt>
      <trkpt lat="47.86076" lon="7.0854">
        <ele>557.59997558594</ele>
        <time>2020-03-08T09:53:38.000Z</time>
      </trkpt>
      <trkpt lat="47.86086" lon="7.08541">
        <ele>555.59997558594</ele>
        <time>2020-03-08T09:53:39.000Z</time>
      </trkpt>
      <trkpt lat="47.86095" lon="7.08542">
        <ele>553.40002441406</ele>
        <time>2020-03-08T09:53:40.000Z</time>
      </trkpt>
      <trkpt lat="47.86106" lon="7.08543">
        <ele>551.40002441406</ele>
        <time>2020-03-08T09:53:41.000Z</time>
      </trkpt>
      <trkpt lat="47.86116" lon="7.08544">
        <ele>549.40002441406</ele>
        <time>2020-03-08T09:53:42.000Z</time>
      </trkpt>
      <trkpt lat="47.86126" lon="7.08545">
        <ele>547.40002441406</ele>
        <time>2020-03-08T09:53:43.000Z</time>
      </trkpt>
      <trkpt lat="47.86136" lon="7.08547">
        <ele>545.59997558594</ele>
        <time>2020-03-08T09:53:44.000Z</time>
      </trkpt>
      <trkpt lat="47.86145" lon="7.08549">
        <ele>543.59997558594</ele>
        <time>2020-03-08T09:53:45.000Z</time>
      </trkpt>
      <trkpt lat="47.86155" lon="7.08553">
        <ele>539.59997558594</ele>
        <time>2020-03-08T09:53:46.000Z</time>
      </trkpt>
      <trkpt lat="47.86164" lon="7.08556">
        <ele>538</ele>
        <time>2020-03-08T09:53:47.000Z</time>
      </trkpt>
      <trkpt lat="47.86171" lon="7.08557">
        <ele>536.20001220703</ele>
        <time>2020-03-08T09:53:48.000Z</time>
      </trkpt>
      <trkpt lat="47.86175" lon="7.08557">
        <ele>534.59997558594</ele>
        <time>2020-03-08T09:53:49.000Z</time>
      </trkpt>
      <trkpt lat="47.86178" lon="7.08558">
        <ele>533.20001220703</ele>
        <time>2020-03-08T09:53:50.000Z</time>
      </trkpt>
      <trkpt lat="47.86178" lon="7.08559">
        <ele>531.59997558594</ele>
        <time>2020-03-08T09:53:51.000Z</time>
      </trkpt>
      <trkpt lat="47.86178" lon="7.0856">
        <ele>530.20001220703</ele>
        <time>2020-03-08T09:53:52.000Z</time>
      </trkpt>
      <trkpt lat="47.86178" lon="7.08561">
        <ele>528.59997558594</ele>
        <time>2020-03-08T09:53:53.000Z</time>
      </trkpt>
      <trkpt lat="47.86178" lon="7.08561">
        <ele>528.59997558594</ele>
        <time>2020-03-08T09:53:54.000Z</time>
      </trkpt>
      <trkpt lat="47.86175" lon="7.08562">
        <ele>528.59997558594</ele>
        <time>2020-03-08T09:54:20.000Z</time>
      </trkpt>
      <trkpt lat="47.86161" lon="7.08554">
        <ele>528.59997558594</ele>
        <time>2020-03-08T09:54:26.000Z</time>
      </trkpt>
      <trkpt lat="47.86145" lon="7.08547">
        <ele>528.59997558594</ele>
        <time>2020-03-08T09:54:32.000Z</time>
      </trkpt>
      <trkpt lat="47.86143" lon="7.08545">
        <ele>529.20001220703</ele>
        <time>2020-03-08T09:54:33.000Z</time>
      </trkpt>
      <trkpt lat="47.8614" lon="7.08544">
        <ele>529.59997558594</ele>
        <time>2020-03-08T09:54:34.000Z</time>
      </trkpt>
      <trkpt lat="47.86137" lon="7.08542">
        <ele>530.40002441406</ele>
        <time>2020-03-08T09:54:35.000Z</time>
      </trkpt>
      <trkpt lat="47.86134" lon="7.0854">
        <ele>530.79998779297</ele>
        <time>2020-03-08T09:54:36.000Z</time>
      </trkpt>
      <trkpt lat="47.8613" lon="7.08538">
        <ele>530.79998779297</ele>
        <time>2020-03-08T09:54:37.000Z</time>
      </trkpt>
      <trkpt lat="47.86114" lon="7.08526">
        <ele>531.20001220703</ele>
        <time>2020-03-08T09:54:42.000Z</time>
      </trkpt>
      <trkpt lat="47.8611" lon="7.08524">
        <ele>531.59997558594</ele>
        <time>2020-03-08T09:54:43.000Z</time>
      </trkpt>
      <trkpt lat="47.86106" lon="7.08522">
        <ele>532</ele>
        <time>2020-03-08T09:54:44.000Z</time>
      </trkpt>
      <trkpt lat="47.86103" lon="7.08519">
        <ele>532.59997558594</ele>
        <time>2020-03-08T09:54:45.000Z</time>
      </trkpt>
      <trkpt lat="47.861" lon="7.08516">
        <ele>533</ele>
        <time>2020-03-08T09:54:46.000Z</time>
      </trkpt>
      <trkpt lat="47.86093" lon="7.08509">
        <ele>533</ele>
        <time>2020-03-08T09:54:49.000Z</time>
      </trkpt>
      <trkpt lat="47.86084" lon="7.08501">
        <ele>533.40002441406</ele>
        <time>2020-03-08T09:54:53.000Z</time>
      </trkpt>
      <trkpt lat="47.86081" lon="7.08498">
        <ele>533.79998779297</ele>
        <time>2020-03-08T09:54:54.000Z</time>
      </trkpt>
      <trkpt lat="47.86079" lon="7.08496">
        <ele>534.20001220703</ele>
        <time>2020-03-08T09:54:55.000Z</time>
      </trkpt>
      <trkpt lat="47.86077" lon="7.08493">
        <ele>534.79998779297</ele>
        <time>2020-03-08T09:54:56.000Z</time>
      </trkpt>
      <trkpt lat="47.86075" lon="7.0849">
        <ele>535.20001220703</ele>
        <time>2020-03-08T09:54:57.000Z</time>
      </trkpt>
      <trkpt lat="47.86066" lon="7.08479">
        <ele>535.20001220703</ele>
        <time>2020-03-08T09:55:01.000Z</time>
      </trkpt>
      <trkpt lat="47.86062" lon="7.08473">
        <ele>535.59997558594</ele>
        <time>2020-03-08T09:55:03.000Z</time>
      </trkpt>
      <trkpt lat="47.86059" lon="7.0847">
        <ele>536</ele>
        <time>2020-03-08T09:55:04.000Z</time>
      </trkpt>
      <trkpt lat="47.86057" lon="7.08468">
        <ele>536.40002441406</ele>
        <time>2020-03-08T09:55:05.000Z</time>
      </trkpt>
      <trkpt lat="47.86054" lon="7.08465">
        <ele>536.79998779297</ele>
        <time>2020-03-08T09:55:06.000Z</time>
      </trkpt>
      <trkpt lat="47.86051" lon="7.08463">
        <ele>537.20001220703</ele>
        <time>2020-03-08T09:55:07.000Z</time>
      </trkpt>
      <trkpt lat="47.86049" lon="7.0846">
        <ele>537.20001220703</ele>
        <time>2020-03-08T09:55:08.000Z</time>
      </trkpt>
      <trkpt lat="47.86034" lon="7.08446">
        <ele>537.79998779297</ele>
        <time>2020-03-08T09:55:14.000Z</time>
      </trkpt>
      <trkpt lat="47.86032" lon="7.08444">
        <ele>538.20001220703</ele>
        <time>2020-03-08T09:55:15.000Z</time>
      </trkpt>
      <trkpt lat="47.86029" lon="7.08442">
        <ele>538.59997558594</ele>
        <time>2020-03-08T09:55:16.000Z</time>
      </trkpt>
      <trkpt lat="47.86026" lon="7.08439">
        <ele>539</ele>
        <time>2020-03-08T09:55:17.000Z</time>
      </trkpt>
      <trkpt lat="47.86021" lon="7.08436">
        <ele>539.40002441406</ele>
        <time>2020-03-08T09:55:18.000Z</time>
      </trkpt>
      <trkpt lat="47.86017" lon="7.08433">
        <ele>539.40002441406</ele>
        <time>2020-03-08T09:55:19.000Z</time>
      </trkpt>
      <trkpt lat="47.85998" lon="7.0842">
        <ele>540.20001220703</ele>
        <time>2020-03-08T09:55:25.000Z</time>
      </trkpt>
      <trkpt lat="47.85995" lon="7.08417">
        <ele>540.59997558594</ele>
        <time>2020-03-08T09:55:26.000Z</time>
      </trkpt>
      <trkpt lat="47.85992" lon="7.08415">
        <ele>541</ele>
        <time>2020-03-08T09:55:27.000Z</time>
      </trkpt>
      <trkpt lat="47.85989" lon="7.08413">
        <ele>541.40002441406</ele>
        <time>2020-03-08T09:55:28.000Z</time>
      </trkpt>
      <trkpt lat="47.8597" lon="7.08402">
        <ele>541.40002441406</ele>
        <time>2020-03-08T09:55:32.000Z</time>
      </trkpt>
      <trkpt lat="47.85956" lon="7.08398">
        <ele>541.79998779297</ele>
        <time>2020-03-08T09:55:36.000Z</time>
      </trkpt>
      <trkpt lat="47.85953" lon="7.08398">
        <ele>542.20001220703</ele>
        <time>2020-03-08T09:55:37.000Z</time>
      </trkpt>
      <trkpt lat="47.8595" lon="7.08397">
        <ele>542.59997558594</ele>
        <time>2020-03-08T09:55:38.000Z</time>
      </trkpt>
      <trkpt lat="47.85947" lon="7.08396">
        <ele>543</ele>
        <time>2020-03-08T09:55:39.000Z</time>
      </trkpt>
      <trkpt lat="47.85944" lon="7.08395">
        <ele>543.40002441406</ele>
        <time>2020-03-08T09:55:40.000Z</time>
      </trkpt>
      <trkpt lat="47.85937" lon="7.08394">
        <ele>543.40002441406</ele>
        <time>2020-03-08T09:55:43.000Z</time>
      </trkpt>
      <trkpt lat="47.85926" lon="7.0839">
        <ele>543.40002441406</ele>
        <time>2020-03-08T09:55:47.000Z</time>
      </trkpt>
      <trkpt lat="47.85922" lon="7.08389">
        <ele>544</ele>
        <time>2020-03-08T09:55:48.000Z</time>
      </trkpt>
      <trkpt lat="47.85918" lon="7.08389">
        <ele>544.40002441406</ele>
        <time>2020-03-08T09:55:49.000Z</time>
      </trkpt>
      <trkpt lat="47.85915" lon="7.08388">
        <ele>545.20001220703</ele>
        <time>2020-03-08T09:55:50.000Z</time>
      </trkpt>
      <trkpt lat="47.85912" lon="7.08388">
        <ele>545.59997558594</ele>
        <time>2020-03-08T09:55:51.000Z</time>
      </trkpt>
      <trkpt lat="47.85906" lon="7.08387">
        <ele>545.59997558594</ele>
        <time>2020-03-08T09:55:54.000Z</time>
      </trkpt>
      <trkpt lat="47.859" lon="7.08386">
        <ele>545.59997558594</ele>
        <time>2020-03-08T09:55:59.000Z</time>
      </trkpt>
      <trkpt lat="47.85889" lon="7.08385">
        <ele>545.59997558594</ele>
        <time>2020-03-08T09:56:04.000Z</time>
      </trkpt>
      <trkpt lat="47.85873" lon="7.08381">
        <ele>545</ele>
        <time>2020-03-08T09:56:09.000Z</time>
      </trkpt>
      <trkpt lat="47.85869" lon="7.0838">
        <ele>544.59997558594</ele>
        <time>2020-03-08T09:56:10.000Z</time>
      </trkpt>
      <trkpt lat="47.85865" lon="7.08378">
        <ele>544</ele>
        <time>2020-03-08T09:56:11.000Z</time>
      </trkpt>
      <trkpt lat="47.85861" lon="7.08376">
        <ele>543.40002441406</ele>
        <time>2020-03-08T09:56:12.000Z</time>
      </trkpt>
      <trkpt lat="47.85857" lon="7.08375">
        <ele>542.59997558594</ele>
        <time>2020-03-08T09:56:13.000Z</time>
      </trkpt>
      <trkpt lat="47.85853" lon="7.08373">
        <ele>541.20001220703</ele>
        <time>2020-03-08T09:56:14.000Z</time>
      </trkpt>
      <trkpt lat="47.85849" lon="7.08371">
        <ele>540.40002441406</ele>
        <time>2020-03-08T09:56:15.000Z</time>
      </trkpt>
      <trkpt lat="47.85844" lon="7.08371">
        <ele>539.40002441406</ele>
        <time>2020-03-08T09:56:16.000Z</time>
      </trkpt>
      <trkpt lat="47.85839" lon="7.0837">
        <ele>538.40002441406</ele>
        <time>2020-03-08T09:56:17.000Z</time>
      </trkpt>
      <trkpt lat="47.85834" lon="7.08369">
        <ele>537.59997558594</ele>
        <time>2020-03-08T09:56:18.000Z</time>
      </trkpt>
      <trkpt lat="47.85829" lon="7.08368">
        <ele>536.59997558594</ele>
        <time>2020-03-08T09:56:19.000Z</time>
      </trkpt>
      <trkpt lat="47.85824" lon="7.08369">
        <ele>535.79998779297</ele>
        <time>2020-03-08T09:56:20.000Z</time>
      </trkpt>
      <trkpt lat="47.85819" lon="7.08369">
        <ele>535</ele>
        <time>2020-03-08T09:56:21.000Z</time>
      </trkpt>
      <trkpt lat="47.85814" lon="7.0837">
        <ele>534.20001220703</ele>
        <time>2020-03-08T09:56:22.000Z</time>
      </trkpt>
      <trkpt lat="47.8581" lon="7.08371">
        <ele>533.59997558594</ele>
        <time>2020-03-08T09:56:23.000Z</time>
      </trkpt>
      <trkpt lat="47.85807" lon="7.0837">
        <ele>532.79998779297</ele>
        <time>2020-03-08T09:56:24.000Z</time>
      </trkpt>
      <trkpt lat="47.85802" lon="7.08371">
        <ele>532.20001220703</ele>
        <time>2020-03-08T09:56:25.000Z</time>
      </trkpt>
      <trkpt lat="47.85797" lon="7.08371">
        <ele>531.59997558594</ele>
        <time>2020-03-08T09:56:26.000Z</time>
      </trkpt>
      <trkpt lat="47.85794" lon="7.08371">
        <ele>531</ele>
        <time>2020-03-08T09:56:27.000Z</time>
      </trkpt>
      <trkpt lat="47.85791" lon="7.08372">
        <ele>530.59997558594</ele>
        <time>2020-03-08T09:56:28.000Z</time>
      </trkpt>
      <trkpt lat="47.85789" lon="7.08373">
        <ele>530.20001220703</ele>
        <time>2020-03-08T09:56:29.000Z</time>
      </trkpt>
      <trkpt lat="47.85788" lon="7.08374">
        <ele>529.79998779297</ele>
        <time>2020-03-08T09:56:30.000Z</time>
      </trkpt>
      <trkpt lat="47.85786" lon="7.08375">
        <ele>529.40002441406</ele>
        <time>2020-03-08T09:56:31.000Z</time>
      </trkpt>
      <trkpt lat="47.85783" lon="7.08376">
        <ele>529</ele>
        <time>2020-03-08T09:56:32.000Z</time>
      </trkpt>
      <trkpt lat="47.8578" lon="7.08377">
        <ele>528.40002441406</ele>
        <time>2020-03-08T09:56:33.000Z</time>
      </trkpt>
      <trkpt lat="47.85778" lon="7.08377">
        <ele>528</ele>
        <time>2020-03-08T09:56:34.000Z</time>
      </trkpt>
      <trkpt lat="47.85776" lon="7.08378">
        <ele>527.40002441406</ele>
        <time>2020-03-08T09:56:35.000Z</time>
      </trkpt>
      <trkpt lat="47.85774" lon="7.08377">
        <ele>527</ele>
        <time>2020-03-08T09:56:36.000Z</time>
      </trkpt>
      <trkpt lat="47.85773" lon="7.08377">
        <ele>526.40002441406</ele>
        <time>2020-03-08T09:56:37.000Z</time>
      </trkpt>
      <trkpt lat="47.85771" lon="7.08377">
        <ele>526.40002441406</ele>
        <time>2020-03-08T09:56:38.000Z</time>
      </trkpt>
      <trkpt lat="47.85785" lon="7.08372">
        <ele>532.79998779297</ele>
        <time>2020-03-08T10:05:41.000Z</time>
      </trkpt>
      <trkpt lat="47.85787" lon="7.08372">
        <ele>532.79998779297</ele>
        <time>2020-03-08T10:05:42.000Z</time>
      </trkpt>
      <trkpt lat="47.85789" lon="7.08372">
        <ele>533.20001220703</ele>
        <time>2020-03-08T10:05:43.000Z</time>
      </trkpt>
      <trkpt lat="47.8579" lon="7.08371">
        <ele>533.59997558594</ele>
        <time>2020-03-08T10:05:44.000Z</time>
      </trkpt>
      <trkpt lat="47.85791" lon="7.08371">
        <ele>534</ele>
        <time>2020-03-08T10:05:45.000Z</time>
      </trkpt>
      <trkpt lat="47.85793" lon="7.0837">
        <ele>534.40002441406</ele>
        <time>2020-03-08T10:05:46.000Z</time>
      </trkpt>
      <trkpt lat="47.85794" lon="7.08369">
        <ele>534.79998779297</ele>
        <time>2020-03-08T10:05:47.000Z</time>
      </trkpt>
      <trkpt lat="47.85797" lon="7.08368">
        <ele>534.79998779297</ele>
        <time>2020-03-08T10:05:49.000Z</time>
      </trkpt>
      <trkpt lat="47.85798" lon="7.08368">
        <ele>535.20001220703</ele>
        <time>2020-03-08T10:05:50.000Z</time>
      </trkpt>
      <trkpt lat="47.858" lon="7.08367">
        <ele>535.59997558594</ele>
        <time>2020-03-08T10:05:51.000Z</time>
      </trkpt>
      <trkpt lat="47.85802" lon="7.08367">
        <ele>536</ele>
        <time>2020-03-08T10:05:52.000Z</time>
      </trkpt>
      <trkpt lat="47.85804" lon="7.08367">
        <ele>536.40002441406</ele>
        <time>2020-03-08T10:05:53.000Z</time>
      </trkpt>
      <trkpt lat="47.85806" lon="7.08368">
        <ele>536.79998779297</ele>
        <time>2020-03-08T10:05:54.000Z</time>
      </trkpt>
      <trkpt lat="47.85811" lon="7.08366">
        <ele>536.79998779297</ele>
        <time>2020-03-08T10:05:57.000Z</time>
      </trkpt>
      <trkpt lat="47.85813" lon="7.08366">
        <ele>537.40002441406</ele>
        <time>2020-03-08T10:05:58.000Z</time>
      </trkpt>
      <trkpt lat="47.85815" lon="7.08366">
        <ele>537.79998779297</ele>
        <time>2020-03-08T10:05:59.000Z</time>
      </trkpt>
      <trkpt lat="47.85817" lon="7.08366">
        <ele>538.20001220703</ele>
        <time>2020-03-08T10:06:00.000Z</time>
      </trkpt>
      <trkpt lat="47.85818" lon="7.08366">
        <ele>538.59997558594</ele>
        <time>2020-03-08T10:06:01.000Z</time>
      </trkpt>
      <trkpt lat="47.8582" lon="7.08366">
        <ele>539</ele>
        <time>2020-03-08T10:06:02.000Z</time>
      </trkpt>
      <trkpt lat="47.85826" lon="7.08367">
        <ele>539</ele>
        <time>2020-03-08T10:06:05.000Z</time>
      </trkpt>
      <trkpt lat="47.85828" lon="7.08368">
        <ele>539.59997558594</ele>
        <time>2020-03-08T10:06:06.000Z</time>
      </trkpt>
      <trkpt lat="47.8583" lon="7.08369">
        <ele>540</ele>
        <time>2020-03-08T10:06:07.000Z</time>
      </trkpt>
      <trkpt lat="47.85831" lon="7.08369">
        <ele>540.40002441406</ele>
        <time>2020-03-08T10:06:08.000Z</time>
      </trkpt>
      <trkpt lat="47.85833" lon="7.08371">
        <ele>540.79998779297</ele>
        <time>2020-03-08T10:06:09.000Z</time>
      </trkpt>
      <trkpt lat="47.85835" lon="7.08371">
        <ele>541.20001220703</ele>
        <time>2020-03-08T10:06:10.000Z</time>
      </trkpt>
      <trkpt lat="47.85837" lon="7.08371">
        <ele>541.20001220703</ele>
        <time>2020-03-08T10:06:11.000Z</time>
      </trkpt>
      <trkpt lat="47.85838" lon="7.08372">
        <ele>541.59997558594</ele>
        <time>2020-03-08T10:06:12.000Z</time>
      </trkpt>
      <trkpt lat="47.8584" lon="7.08373">
        <ele>542.59997558594</ele>
        <time>2020-03-08T10:06:13.000Z</time>
      </trkpt>
      <trkpt lat="47.85842" lon="7.08374">
        <ele>543</ele>
        <time>2020-03-08T10:06:14.000Z</time>
      </trkpt>
      <trkpt lat="47.85844" lon="7.08374">
        <ele>543.40002441406</ele>
        <time>2020-03-08T10:06:15.000Z</time>
      </trkpt>
      <trkpt lat="47.85847" lon="7.08376">
        <ele>543.79998779297</ele>
        <time>2020-03-08T10:06:17.000Z</time>
      </trkpt>
      <trkpt lat="47.85849" lon="7.08376">
        <ele>544.20001220703</ele>
        <time>2020-03-08T10:06:18.000Z</time>
      </trkpt>
      <trkpt lat="47.8585" lon="7.08377">
        <ele>544.59997558594</ele>
        <time>2020-03-08T10:06:19.000Z</time>
      </trkpt>
      <trkpt lat="47.85851" lon="7.08377">
        <ele>545</ele>
        <time>2020-03-08T10:06:20.000Z</time>
      </trkpt>
      <trkpt lat="47.85853" lon="7.08377">
        <ele>545.59997558594</ele>
        <time>2020-03-08T10:06:21.000Z</time>
      </trkpt>
      <trkpt lat="47.85858" lon="7.08378">
        <ele>546</ele>
        <time>2020-03-08T10:06:23.000Z</time>
      </trkpt>
      <trkpt lat="47.8586" lon="7.08377">
        <ele>546.40002441406</ele>
        <time>2020-03-08T10:06:24.000Z</time>
      </trkpt>
      <trkpt lat="47.85862" lon="7.08379">
        <ele>546.79998779297</ele>
        <time>2020-03-08T10:06:25.000Z</time>
      </trkpt>
      <trkpt lat="47.85865" lon="7.08381">
        <ele>547.20001220703</ele>
        <time>2020-03-08T10:06:26.000Z</time>
      </trkpt>
      <trkpt lat="47.85867" lon="7.08383">
        <ele>547.79998779297</ele>
        <time>2020-03-08T10:06:27.000Z</time>
      </trkpt>
      <trkpt lat="47.85872" lon="7.08384">
        <ele>548.20001220703</ele>
        <time>2020-03-08T10:06:29.000Z</time>
      </trkpt>
      <trkpt lat="47.85874" lon="7.08384">
        <ele>548.59997558594</ele>
        <time>2020-03-08T10:06:30.000Z</time>
      </trkpt>
      <trkpt lat="47.85875" lon="7.08384">
        <ele>549</ele>
        <time>2020-03-08T10:06:31.000Z</time>
      </trkpt>
      <trkpt lat="47.85877" lon="7.08383">
        <ele>549.40002441406</ele>
        <time>2020-03-08T10:06:32.000Z</time>
      </trkpt>
      <trkpt lat="47.85879" lon="7.08382">
        <ele>549.79998779297</ele>
        <time>2020-03-08T10:06:33.000Z</time>
      </trkpt>
      <trkpt lat="47.85884" lon="7.08383">
        <ele>550.20001220703</ele>
        <time>2020-03-08T10:06:36.000Z</time>
      </trkpt>
      <trkpt lat="47.85885" lon="7.08384">
        <ele>550.59997558594</ele>
        <time>2020-03-08T10:06:37.000Z</time>
      </trkpt>
      <trkpt lat="47.85887" lon="7.08385">
        <ele>551.59997558594</ele>
        <time>2020-03-08T10:06:38.000Z</time>
      </trkpt>
      <trkpt lat="47.85888" lon="7.08385">
        <ele>552</ele>
        <time>2020-03-08T10:06:39.000Z</time>
      </trkpt>
      <trkpt lat="47.8589" lon="7.08386">
        <ele>552</ele>
        <time>2020-03-08T10:06:41.000Z</time>
      </trkpt>
      <trkpt lat="47.85894" lon="7.08386">
        <ele>552</ele>
        <time>2020-03-08T10:06:44.000Z</time>
      </trkpt>
      <trkpt lat="47.85896" lon="7.08387">
        <ele>552</ele>
        <time>2020-03-08T10:07:17.000Z</time>
      </trkpt>
      <trkpt lat="47.85899" lon="7.08387">
        <ele>552</ele>
        <time>2020-03-08T10:07:18.000Z</time>
      </trkpt>
      <trkpt lat="47.85918" lon="7.08389">
        <ele>552</ele>
        <time>2020-03-08T10:07:25.000Z</time>
      </trkpt>
      <trkpt lat="47.85942" lon="7.08391">
        <ele>552</ele>
        <time>2020-03-08T10:07:33.000Z</time>
      </trkpt>
      <trkpt lat="47.85957" lon="7.08395">
        <ele>551.59997558594</ele>
        <time>2020-03-08T10:07:37.000Z</time>
      </trkpt>
      <trkpt lat="47.85962" lon="7.08398">
        <ele>551</ele>
        <time>2020-03-08T10:07:38.000Z</time>
      </trkpt>
      <trkpt lat="47.85967" lon="7.08401">
        <ele>550.59997558594</ele>
        <time>2020-03-08T10:07:39.000Z</time>
      </trkpt>
      <trkpt lat="47.85973" lon="7.08404">
        <ele>550.20001220703</ele>
        <time>2020-03-08T10:07:40.000Z</time>
      </trkpt>
      <trkpt lat="47.85979" lon="7.08409">
        <ele>549.79998779297</ele>
        <time>2020-03-08T10:07:41.000Z</time>
      </trkpt>
      <trkpt lat="47.85995" lon="7.08421">
        <ele>549.79998779297</ele>
        <time>2020-03-08T10:07:44.000Z</time>
      </trkpt>
      <trkpt lat="47.85999" lon="7.08425">
        <ele>549.79998779297</ele>
        <time>2020-03-08T10:07:45.000Z</time>
      </trkpt>
      <trkpt lat="47.86011" lon="7.08435">
        <ele>549.40002441406</ele>
        <time>2020-03-08T10:07:48.000Z</time>
      </trkpt>
      <trkpt lat="47.86015" lon="7.08438">
        <ele>549</ele>
        <time>2020-03-08T10:07:49.000Z</time>
      </trkpt>
      <trkpt lat="47.86018" lon="7.08441">
        <ele>548.40002441406</ele>
        <time>2020-03-08T10:07:50.000Z</time>
      </trkpt>
      <trkpt lat="47.86023" lon="7.08445">
        <ele>548</ele>
        <time>2020-03-08T10:07:51.000Z</time>
      </trkpt>
      <trkpt lat="47.86027" lon="7.08449">
        <ele>547.59997558594</ele>
        <time>2020-03-08T10:07:52.000Z</time>
      </trkpt>
      <trkpt lat="47.86031" lon="7.08454">
        <ele>547.59997558594</ele>
        <time>2020-03-08T10:07:53.000Z</time>
      </trkpt>
      <trkpt lat="47.8604" lon="7.08463">
        <ele>547.20001220703</ele>
        <time>2020-03-08T10:07:55.000Z</time>
      </trkpt>
      <trkpt lat="47.86044" lon="7.08467">
        <ele>546.79998779297</ele>
        <time>2020-03-08T10:07:56.000Z</time>
      </trkpt>
      <trkpt lat="47.86047" lon="7.08472">
        <ele>546.40002441406</ele>
        <time>2020-03-08T10:07:57.000Z</time>
      </trkpt>
      <trkpt lat="47.86051" lon="7.08478">
        <ele>546</ele>
        <time>2020-03-08T10:07:58.000Z</time>
      </trkpt>
      <trkpt lat="47.86055" lon="7.08483">
        <ele>545.59997558594</ele>
        <time>2020-03-08T10:07:59.000Z</time>
      </trkpt>
      <trkpt lat="47.86064" lon="7.08493">
        <ele>545.59997558594</ele>
        <time>2020-03-08T10:08:01.000Z</time>
      </trkpt>
      <trkpt lat="47.86077" lon="7.08508">
        <ele>545.20001220703</ele>
        <time>2020-03-08T10:08:04.000Z</time>
      </trkpt>
      <trkpt lat="47.86081" lon="7.08512">
        <ele>544.79998779297</ele>
        <time>2020-03-08T10:08:05.000Z</time>
      </trkpt>
      <trkpt lat="47.86086" lon="7.08516">
        <ele>544.20001220703</ele>
        <time>2020-03-08T10:08:06.000Z</time>
      </trkpt>
      <trkpt lat="47.8609" lon="7.0852">
        <ele>543.79998779297</ele>
        <time>2020-03-08T10:08:07.000Z</time>
      </trkpt>
      <trkpt lat="47.86095" lon="7.08524">
        <ele>543.40002441406</ele>
        <time>2020-03-08T10:08:08.000Z</time>
      </trkpt>
      <trkpt lat="47.86105" lon="7.0853">
        <ele>543</ele>
        <time>2020-03-08T10:08:10.000Z</time>
      </trkpt>
      <trkpt lat="47.86109" lon="7.08533">
        <ele>542.59997558594</ele>
        <time>2020-03-08T10:08:11.000Z</time>
      </trkpt>
      <trkpt lat="47.86113" lon="7.08536">
        <ele>542.20001220703</ele>
        <time>2020-03-08T10:08:12.000Z</time>
      </trkpt>
      <trkpt lat="47.86117" lon="7.08539">
        <ele>541.79998779297</ele>
        <time>2020-03-08T10:08:13.000Z</time>
      </trkpt>
      <trkpt lat="47.86121" lon="7.08541">
        <ele>541.40002441406</ele>
        <time>2020-03-08T10:08:14.000Z</time>
      </trkpt>
      <trkpt lat="47.86124" lon="7.08544">
        <ele>541.40002441406</ele>
        <time>2020-03-08T10:08:15.000Z</time>
      </trkpt>
      <trkpt lat="47.86144" lon="7.08558">
        <ele>541</ele>
        <time>2020-03-08T10:08:20.000Z</time>
      </trkpt>
      <trkpt lat="47.86147" lon="7.08561">
        <ele>540.59997558594</ele>
        <time>2020-03-08T10:08:21.000Z</time>
      </trkpt>
      <trkpt lat="47.86151" lon="7.08564">
        <ele>540</ele>
        <time>2020-03-08T10:08:22.000Z</time>
      </trkpt>
      <trkpt lat="47.86155" lon="7.08568">
        <ele>539.59997558594</ele>
        <time>2020-03-08T10:08:23.000Z</time>
      </trkpt>
      <trkpt lat="47.86159" lon="7.08571">
        <ele>539.20001220703</ele>
        <time>2020-03-08T10:08:24.000Z</time>
      </trkpt>
      <trkpt lat="47.86173" lon="7.08586">
        <ele>539.20001220703</ele>
        <time>2020-03-08T10:08:27.000Z</time>
      </trkpt>
      <trkpt lat="47.86177" lon="7.0859">
        <ele>539.20001220703</ele>
        <time>2020-03-08T10:08:28.000Z</time>
      </trkpt>
      <trkpt lat="47.86182" lon="7.08594">
        <ele>538.79998779297</ele>
        <time>2020-03-08T10:08:29.000Z</time>
      </trkpt>
      <trkpt lat="47.86187" lon="7.08597">
        <ele>538.40002441406</ele>
        <time>2020-03-08T10:08:30.000Z</time>
      </trkpt>
      <trkpt lat="47.86192" lon="7.08601">
        <ele>538</ele>
        <time>2020-03-08T10:08:31.000Z</time>
      </trkpt>
      <trkpt lat="47.86197" lon="7.08605">
        <ele>537.59997558594</ele>
        <time>2020-03-08T10:08:32.000Z</time>
      </trkpt>
      <trkpt lat="47.86201" lon="7.08609">
        <ele>537.20001220703</ele>
        <time>2020-03-08T10:08:33.000Z</time>
      </trkpt>
      <trkpt lat="47.8621" lon="7.08617">
        <ele>537.20001220703</ele>
        <time>2020-03-08T10:08:35.000Z</time>
      </trkpt>
      <trkpt lat="47.86219" lon="7.08623">
        <ele>537.20001220703</ele>
        <time>2020-03-08T10:08:38.000Z</time>
      </trkpt>
      <trkpt lat="47.86221" lon="7.08623">
        <ele>537.20001220703</ele>
        <time>2020-03-08T10:08:39.000Z</time>
      </trkpt>
      <trkpt lat="47.86221" lon="7.08621">
        <ele>536.79998779297</ele>
        <time>2020-03-08T10:08:40.000Z</time>
      </trkpt>
      <trkpt lat="47.86221" lon="7.0862">
        <ele>536.40002441406</ele>
        <time>2020-03-08T10:08:41.000Z</time>
      </trkpt>
      <trkpt lat="47.86218" lon="7.08617">
        <ele>535.20001220703</ele>
        <time>2020-03-08T10:08:44.000Z</time>
      </trkpt>
      <trkpt lat="47.86212" lon="7.08609">
        <ele>534.79998779297</ele>
        <time>2020-03-08T10:08:48.000Z</time>
      </trkpt>
      <trkpt lat="47.8621" lon="7.08605">
        <ele>534.40002441406</ele>
        <time>2020-03-08T10:08:49.000Z</time>
      </trkpt>
      <trkpt lat="47.86209" lon="7.08601">
        <ele>533.79998779297</ele>
        <time>2020-03-08T10:08:50.000Z</time>
      </trkpt>
      <trkpt lat="47.86207" lon="7.08597">
        <ele>533.20001220703</ele>
        <time>2020-03-08T10:08:51.000Z</time>
      </trkpt>
      <trkpt lat="47.86206" lon="7.08592">
        <ele>532.59997558594</ele>
        <time>2020-03-08T10:08:52.000Z</time>
      </trkpt>
      <trkpt lat="47.86205" lon="7.08587">
        <ele>532</ele>
        <time>2020-03-08T10:08:53.000Z</time>
      </trkpt>
      <trkpt lat="47.86204" lon="7.08582">
        <ele>531.20001220703</ele>
        <time>2020-03-08T10:08:54.000Z</time>
      </trkpt>
      <trkpt lat="47.86202" lon="7.08575">
        <ele>530.59997558594</ele>
        <time>2020-03-08T10:08:55.000Z</time>
      </trkpt>
      <trkpt lat="47.86202" lon="7.08569">
        <ele>529.59997558594</ele>
        <time>2020-03-08T10:08:56.000Z</time>
      </trkpt>
      <trkpt lat="47.86199" lon="7.08562">
        <ele>528.79998779297</ele>
        <time>2020-03-08T10:08:57.000Z</time>
      </trkpt>
      <trkpt lat="47.86197" lon="7.08554">
        <ele>527.79998779297</ele>
        <time>2020-03-08T10:08:58.000Z</time>
      </trkpt>
      <trkpt lat="47.86195" lon="7.08546">
        <ele>526.59997558594</ele>
        <time>2020-03-08T10:08:59.000Z</time>
      </trkpt>
      <trkpt lat="47.86192" lon="7.08538">
        <ele>525.59997558594</ele>
        <time>2020-03-08T10:09:00.000Z</time>
      </trkpt>
      <trkpt lat="47.86189" lon="7.0853">
        <ele>524.40002441406</ele>
        <time>2020-03-08T10:09:01.000Z</time>
      </trkpt>
      <trkpt lat="47.86186" lon="7.08521">
        <ele>523.20001220703</ele>
        <time>2020-03-08T10:09:02.000Z</time>
      </trkpt>
      <trkpt lat="47.86183" lon="7.08515">
        <ele>522.20001220703</ele>
        <time>2020-03-08T10:09:03.000Z</time>
      </trkpt>
      <trkpt lat="47.86181" lon="7.0851">
        <ele>521</ele>
        <time>2020-03-08T10:09:04.000Z</time>
      </trkpt>
      <trkpt lat="47.86178" lon="7.08506">
        <ele>519.79998779297</ele>
        <time>2020-03-08T10:09:05.000Z</time>
      </trkpt>
      <trkpt lat="47.86175" lon="7.08504">
        <ele>518.59997558594</ele>
        <time>2020-03-08T10:09:06.000Z</time>
      </trkpt>
      <trkpt lat="47.86173" lon="7.08502">
        <ele>516.20001220703</ele>
        <time>2020-03-08T10:09:07.000Z</time>
      </trkpt>
      <trkpt lat="47.86171" lon="7.08501">
        <ele>515.20001220703</ele>
        <time>2020-03-08T10:09:08.000Z</time>
      </trkpt>
      <trkpt lat="47.86169" lon="7.08499">
        <ele>514</ele>
        <time>2020-03-08T10:09:09.000Z</time>
      </trkpt>
      <trkpt lat="47.86167" lon="7.08497">
        <ele>514</ele>
        <time>2020-03-08T10:09:11.000Z</time>
      </trkpt>
      <trkpt lat="47.86164" lon="7.0849">
        <ele>514</ele>
        <time>2020-03-08T10:09:22.000Z</time>
      </trkpt>
      <trkpt lat="47.86164" lon="7.08485">
        <ele>513.59997558594</ele>
        <time>2020-03-08T10:09:24.000Z</time>
      </trkpt>
      <trkpt lat="47.86164" lon="7.08481">
        <ele>513</ele>
        <time>2020-03-08T10:09:25.000Z</time>
      </trkpt>
      <trkpt lat="47.86164" lon="7.08475">
        <ele>512.59997558594</ele>
        <time>2020-03-08T10:09:26.000Z</time>
      </trkpt>
      <trkpt lat="47.86164" lon="7.08471">
        <ele>512</ele>
        <time>2020-03-08T10:09:27.000Z</time>
      </trkpt>
      <trkpt lat="47.86163" lon="7.08468">
        <ele>511.20001220703</ele>
        <time>2020-03-08T10:09:28.000Z</time>
      </trkpt>
      <trkpt lat="47.86162" lon="7.08464">
        <ele>510.39999389648</ele>
        <time>2020-03-08T10:09:29.000Z</time>
      </trkpt>
      <trkpt lat="47.86163" lon="7.0846">
        <ele>509.39999389648</ele>
        <time>2020-03-08T10:09:30.000Z</time>
      </trkpt>
      <trkpt lat="47.86163" lon="7.08457">
        <ele>508.60000610352</ele>
        <time>2020-03-08T10:09:31.000Z</time>
      </trkpt>
      <trkpt lat="47.86163" lon="7.08454">
        <ele>507</ele>
        <time>2020-03-08T10:09:32.000Z</time>
      </trkpt>
      <trkpt lat="47.86162" lon="7.08451">
        <ele>506.39999389648</ele>
        <time>2020-03-08T10:09:33.000Z</time>
      </trkpt>
      <trkpt lat="47.86162" lon="7.08449">
        <ele>505.60000610352</ele>
        <time>2020-03-08T10:09:34.000Z</time>
      </trkpt>
      <trkpt lat="47.86162" lon="7.08447">
        <ele>504.79998779297</ele>
        <time>2020-03-08T10:09:35.000Z</time>
      </trkpt>
      <trkpt lat="47.86161" lon="7.08443">
        <ele>504</ele>
        <time>2020-03-08T10:09:36.000Z</time>
      </trkpt>
      <trkpt lat="47.8616" lon="7.08441">
        <ele>503.20001220703</ele>
        <time>2020-03-08T10:09:37.000Z</time>
      </trkpt>
      <trkpt lat="47.86159" lon="7.08438">
        <ele>502.39999389648</ele>
        <time>2020-03-08T10:09:38.000Z</time>
      </trkpt>
      <trkpt lat="47.86159" lon="7.08435">
        <ele>501.60000610352</ele>
        <time>2020-03-08T10:09:39.000Z</time>
      </trkpt>
      <trkpt lat="47.86158" lon="7.08431">
        <ele>501.20001220703</ele>
        <time>2020-03-08T10:09:40.000Z</time>
      </trkpt>
      <trkpt lat="47.86158" lon="7.08427">
        <ele>500.79998779297</ele>
        <time>2020-03-08T10:09:41.000Z</time>
      </trkpt>
      <trkpt lat="47.86157" lon="7.08422">
        <ele>500.39999389648</ele>
        <time>2020-03-08T10:09:42.000Z</time>
      </trkpt>
      <trkpt lat="47.86157" lon="7.08416">
        <ele>499.79998779297</ele>
        <time>2020-03-08T10:09:43.000Z</time>
      </trkpt>
      <trkpt lat="47.86156" lon="7.08411">
        <ele>499.39999389648</ele>
        <time>2020-03-08T10:09:44.000Z</time>
      </trkpt>
      <trkpt lat="47.86153" lon="7.08399">
        <ele>498.79998779297</ele>
        <time>2020-03-08T10:09:46.000Z</time>
      </trkpt>
      <trkpt lat="47.86151" lon="7.08394">
        <ele>498.39999389648</ele>
        <time>2020-03-08T10:09:47.000Z</time>
      </trkpt>
      <trkpt lat="47.86148" lon="7.0839">
        <ele>497.79998779297</ele>
        <time>2020-03-08T10:09:48.000Z</time>
      </trkpt>
      <trkpt lat="47.86146" lon="7.08387">
        <ele>497.39999389648</ele>
        <time>2020-03-08T10:09:49.000Z</time>
      </trkpt>
      <trkpt lat="47.86144" lon="7.08385">
        <ele>496.79998779297</ele>
        <time>2020-03-08T10:09:50.000Z</time>
      </trkpt>
      <trkpt lat="47.86136" lon="7.08371">
        <ele>496.79998779297</ele>
        <time>2020-03-08T10:09:54.000Z</time>
      </trkpt>
      <trkpt lat="47.86122" lon="7.08343">
        <ele>496.79998779297</ele>
        <time>2020-03-08T10:10:00.000Z</time>
      </trkpt>
      <trkpt lat="47.86058" lon="7.08281">
        <ele>496.79998779297</ele>
        <time>2020-03-08T10:10:04.000Z</time>
      </trkpt>
      <trkpt lat="47.86039" lon="7.08269">
        <ele>496.79998779297</ele>
        <time>2020-03-08T10:10:08.000Z</time>
      </trkpt>
      <trkpt lat="47.86031" lon="7.08266">
        <ele>496.79998779297</ele>
        <time>2020-03-08T10:10:10.000Z</time>
      </trkpt>
      <trkpt lat="47.86009" lon="7.08256">
        <ele>497.39999389648</ele>
        <time>2020-03-08T10:10:16.000Z</time>
      </trkpt>
      <trkpt lat="47.86007" lon="7.08254">
        <ele>497.79998779297</ele>
        <time>2020-03-08T10:10:17.000Z</time>
      </trkpt>
      <trkpt lat="47.86005" lon="7.08251">
        <ele>498.20001220703</ele>
        <time>2020-03-08T10:10:18.000Z</time>
      </trkpt>
      <trkpt lat="47.86002" lon="7.08248">
        <ele>498.79998779297</ele>
        <time>2020-03-08T10:10:19.000Z</time>
      </trkpt>
      <trkpt lat="47.85999" lon="7.08246">
        <ele>499.20001220703</ele>
        <time>2020-03-08T10:10:20.000Z</time>
      </trkpt>
      <trkpt lat="47.85996" lon="7.08244">
        <ele>499.20001220703</ele>
        <time>2020-03-08T10:10:21.000Z</time>
      </trkpt>
      <trkpt lat="47.85984" lon="7.08231">
        <ele>499.20001220703</ele>
        <time>2020-03-08T10:10:26.000Z</time>
      </trkpt>
      <trkpt lat="47.85966" lon="7.08223">
        <ele>498.79998779297</ele>
        <time>2020-03-08T10:10:31.000Z</time>
      </trkpt>
      <trkpt lat="47.85961" lon="7.08222">
        <ele>498.20001220703</ele>
        <time>2020-03-08T10:10:32.000Z</time>
      </trkpt>
      <trkpt lat="47.85957" lon="7.08223">
        <ele>497.79998779297</ele>
        <time>2020-03-08T10:10:33.000Z</time>
      </trkpt>
      <trkpt lat="47.85953" lon="7.08224">
        <ele>497.39999389648</ele>
        <time>2020-03-08T10:10:34.000Z</time>
      </trkpt>
      <trkpt lat="47.85949" lon="7.08225">
        <ele>496.79998779297</ele>
        <time>2020-03-08T10:10:35.000Z</time>
      </trkpt>
      <trkpt lat="47.85946" lon="7.08226">
        <ele>496.20001220703</ele>
        <time>2020-03-08T10:10:36.000Z</time>
      </trkpt>
      <trkpt lat="47.85943" lon="7.08228">
        <ele>495.60000610352</ele>
        <time>2020-03-08T10:10:37.000Z</time>
      </trkpt>
      <trkpt lat="47.8594" lon="7.08231">
        <ele>495</ele>
        <time>2020-03-08T10:10:38.000Z</time>
      </trkpt>
      <trkpt lat="47.85936" lon="7.08233">
        <ele>494.39999389648</ele>
        <time>2020-03-08T10:10:39.000Z</time>
      </trkpt>
      <trkpt lat="47.85932" lon="7.08235">
        <ele>494</ele>
        <time>2020-03-08T10:10:40.000Z</time>
      </trkpt>
      <trkpt lat="47.85929" lon="7.08237">
        <ele>493.39999389648</ele>
        <time>2020-03-08T10:10:41.000Z</time>
      </trkpt>
      <trkpt lat="47.85925" lon="7.0824">
        <ele>493</ele>
        <time>2020-03-08T10:10:42.000Z</time>
      </trkpt>
      <trkpt lat="47.85922" lon="7.08243">
        <ele>492.39999389648</ele>
        <time>2020-03-08T10:10:43.000Z</time>
      </trkpt>
      <trkpt lat="47.85919" lon="7.08245">
        <ele>491.79998779297</ele>
        <time>2020-03-08T10:10:44.000Z</time>
      </trkpt>
      <trkpt lat="47.85915" lon="7.08247">
        <ele>491.20001220703</ele>
        <time>2020-03-08T10:10:45.000Z</time>
      </trkpt>
      <trkpt lat="47.85911" lon="7.08248">
        <ele>490</ele>
        <time>2020-03-08T10:10:46.000Z</time>
      </trkpt>
      <trkpt lat="47.85906" lon="7.08248">
        <ele>489.60000610352</ele>
        <time>2020-03-08T10:10:47.000Z</time>
      </trkpt>
      <trkpt lat="47.85902" lon="7.08248">
        <ele>489</ele>
        <time>2020-03-08T10:10:48.000Z</time>
      </trkpt>
      <trkpt lat="47.85898" lon="7.08248">
        <ele>488.39999389648</ele>
        <time>2020-03-08T10:10:49.000Z</time>
      </trkpt>
      <trkpt lat="47.85894" lon="7.08247">
        <ele>487.60000610352</ele>
        <time>2020-03-08T10:10:50.000Z</time>
      </trkpt>
      <trkpt lat="47.85889" lon="7.08245">
        <ele>487</ele>
        <time>2020-03-08T10:10:51.000Z</time>
      </trkpt>
      <trkpt lat="47.85883" lon="7.08243">
        <ele>486</ele>
        <time>2020-03-08T10:10:52.000Z</time>
      </trkpt>
      <trkpt lat="47.85877" lon="7.08242">
        <ele>485.20001220703</ele>
        <time>2020-03-08T10:10:53.000Z</time>
      </trkpt>
      <trkpt lat="47.85871" lon="7.0824">
        <ele>484.20001220703</ele>
        <time>2020-03-08T10:10:54.000Z</time>
      </trkpt>
      <trkpt lat="47.85866" lon="7.08238">
        <ele>483.39999389648</ele>
        <time>2020-03-08T10:10:55.000Z</time>
      </trkpt>
      <trkpt lat="47.85861" lon="7.08234">
        <ele>482.60000610352</ele>
        <time>2020-03-08T10:10:56.000Z</time>
      </trkpt>
      <trkpt lat="47.85855" lon="7.08231">
        <ele>481.60000610352</ele>
        <time>2020-03-08T10:10:57.000Z</time>
      </trkpt>
      <trkpt lat="47.8585" lon="7.08228">
        <ele>480.79998779297</ele>
        <time>2020-03-08T10:10:58.000Z</time>
      </trkpt>
      <trkpt lat="47.85844" lon="7.08225">
        <ele>480.20001220703</ele>
        <time>2020-03-08T10:10:59.000Z</time>
      </trkpt>
      <trkpt lat="47.85838" lon="7.08224">
        <ele>479.39999389648</ele>
        <time>2020-03-08T10:11:00.000Z</time>
      </trkpt>
      <trkpt lat="47.85832" lon="7.08222">
        <ele>478.79998779297</ele>
        <time>2020-03-08T10:11:01.000Z</time>
      </trkpt>
      <trkpt lat="47.85826" lon="7.08222">
        <ele>478</ele>
        <time>2020-03-08T10:11:02.000Z</time>
      </trkpt>
      <trkpt lat="47.85819" lon="7.08223">
        <ele>477.20001220703</ele>
        <time>2020-03-08T10:11:03.000Z</time>
      </trkpt>
      <trkpt lat="47.85813" lon="7.08224">
        <ele>476.39999389648</ele>
        <time>2020-03-08T10:11:04.000Z</time>
      </trkpt>
      <trkpt lat="47.85807" lon="7.08225">
        <ele>475.60000610352</ele>
        <time>2020-03-08T10:11:05.000Z</time>
      </trkpt>
      <trkpt lat="47.85802" lon="7.08225">
        <ele>475</ele>
        <time>2020-03-08T10:11:06.000Z</time>
      </trkpt>
      <trkpt lat="47.85799" lon="7.08226">
        <ele>474.20001220703</ele>
        <time>2020-03-08T10:11:07.000Z</time>
      </trkpt>
      <trkpt lat="47.85796" lon="7.08228">
        <ele>473.39999389648</ele>
        <time>2020-03-08T10:11:08.000Z</time>
      </trkpt>
      <trkpt lat="47.85793" lon="7.08228">
        <ele>472.79998779297</ele>
        <time>2020-03-08T10:11:09.000Z</time>
      </trkpt>
      <trkpt lat="47.8579" lon="7.08227">
        <ele>472.20001220703</ele>
        <time>2020-03-08T10:11:10.000Z</time>
      </trkpt>
      <trkpt lat="47.85787" lon="7.08226">
        <ele>471</ele>
        <time>2020-03-08T10:11:11.000Z</time>
      </trkpt>
      <trkpt lat="47.85783" lon="7.08226">
        <ele>470.60000610352</ele>
        <time>2020-03-08T10:11:12.000Z</time>
      </trkpt>
      <trkpt lat="47.85781" lon="7.08224">
        <ele>470</ele>
        <time>2020-03-08T10:11:13.000Z</time>
      </trkpt>
      <trkpt lat="47.8578" lon="7.08221">
        <ele>469.60000610352</ele>
        <time>2020-03-08T10:11:14.000Z</time>
      </trkpt>
      <trkpt lat="47.85778" lon="7.08219">
        <ele>469</ele>
        <time>2020-03-08T10:11:15.000Z</time>
      </trkpt>
      <trkpt lat="47.85777" lon="7.08217">
        <ele>468.60000610352</ele>
        <time>2020-03-08T10:11:16.000Z</time>
      </trkpt>
      <trkpt lat="47.85775" lon="7.08215">
        <ele>468</ele>
        <time>2020-03-08T10:11:17.000Z</time>
      </trkpt>
      <trkpt lat="47.85772" lon="7.08213">
        <ele>467.60000610352</ele>
        <time>2020-03-08T10:11:19.000Z</time>
      </trkpt>
      <trkpt lat="47.85771" lon="7.08212">
        <ele>467.20001220703</ele>
        <time>2020-03-08T10:11:20.000Z</time>
      </trkpt>
      <trkpt lat="47.8577" lon="7.08211">
        <ele>466.79998779297</ele>
        <time>2020-03-08T10:11:21.000Z</time>
      </trkpt>
      <trkpt lat="47.85769" lon="7.08211">
        <ele>466.39999389648</ele>
        <time>2020-03-08T10:11:22.000Z</time>
      </trkpt>
      <trkpt lat="47.85766" lon="7.08201">
        <ele>466</ele>
        <time>2020-03-08T10:11:30.000Z</time>
      </trkpt>
      <trkpt lat="47.85762" lon="7.08193">
        <ele>466</ele>
        <time>2020-03-08T10:11:33.000Z</time>
      </trkpt>
      <trkpt lat="47.85761" lon="7.08192">
        <ele>465.60000610352</ele>
        <time>2020-03-08T10:11:34.000Z</time>
      </trkpt>
      <trkpt lat="47.8576" lon="7.08191">
        <ele>464.60000610352</ele>
        <time>2020-03-08T10:11:35.000Z</time>
      </trkpt>
      <trkpt lat="47.85758" lon="7.0819">
        <ele>464.20001220703</ele>
        <time>2020-03-08T10:11:36.000Z</time>
      </trkpt>
      <trkpt lat="47.85755" lon="7.08188">
        <ele>463.79998779297</ele>
        <time>2020-03-08T10:11:48.000Z</time>
      </trkpt>
      <trkpt lat="47.85752" lon="7.08186">
        <ele>463.79998779297</ele>
        <time>2020-03-08T10:11:49.000Z</time>
      </trkpt>
      <trkpt lat="47.85745" lon="7.08183">
        <ele>463.20001220703</ele>
        <time>2020-03-08T10:11:51.000Z</time>
      </trkpt>
      <trkpt lat="47.8574" lon="7.08181">
        <ele>462.79998779297</ele>
        <time>2020-03-08T10:11:52.000Z</time>
      </trkpt>
      <trkpt lat="47.85734" lon="7.08179">
        <ele>462.39999389648</ele>
        <time>2020-03-08T10:11:53.000Z</time>
      </trkpt>
      <trkpt lat="47.85728" lon="7.08177">
        <ele>462</ele>
        <time>2020-03-08T10:11:54.000Z</time>
      </trkpt>
      <trkpt lat="47.85723" lon="7.08175">
        <ele>461.20001220703</ele>
        <time>2020-03-08T10:11:55.000Z</time>
      </trkpt>
      <trkpt lat="47.85718" lon="7.08174">
        <ele>460.60000610352</ele>
        <time>2020-03-08T10:11:56.000Z</time>
      </trkpt>
      <trkpt lat="47.85714" lon="7.08172">
        <ele>460</ele>
        <time>2020-03-08T10:11:57.000Z</time>
      </trkpt>
      <trkpt lat="47.85711" lon="7.08171">
        <ele>459.39999389648</ele>
        <time>2020-03-08T10:11:58.000Z</time>
      </trkpt>
      <trkpt lat="47.85708" lon="7.0817">
        <ele>458.60000610352</ele>
        <time>2020-03-08T10:11:59.000Z</time>
      </trkpt>
      <trkpt lat="47.85704" lon="7.0817">
        <ele>457.79998779297</ele>
        <time>2020-03-08T10:12:00.000Z</time>
      </trkpt>
      <trkpt lat="47.85702" lon="7.08169">
        <ele>457.39999389648</ele>
        <time>2020-03-08T10:12:01.000Z</time>
      </trkpt>
      <trkpt lat="47.857" lon="7.08169">
        <ele>456.79998779297</ele>
        <time>2020-03-08T10:12:02.000Z</time>
      </trkpt>
      <trkpt lat="47.85698" lon="7.08168">
        <ele>456.39999389648</ele>
        <time>2020-03-08T10:12:03.000Z</time>
      </trkpt>
      <trkpt lat="47.8569" lon="7.08164">
        <ele>456.39999389648</ele>
        <time>2020-03-08T10:12:06.000Z</time>
      </trkpt>
      <trkpt lat="47.85676" lon="7.08156">
        <ele>456.39999389648</ele>
        <time>2020-03-08T10:12:11.000Z</time>
      </trkpt>
      <trkpt lat="47.85662" lon="7.08152">
        <ele>456.39999389648</ele>
        <time>2020-03-08T10:12:16.000Z</time>
      </trkpt>
      <trkpt lat="47.85648" lon="7.08151">
        <ele>456</ele>
        <time>2020-03-08T10:12:23.000Z</time>
      </trkpt>
      <trkpt lat="47.85646" lon="7.08151">
        <ele>455.60000610352</ele>
        <time>2020-03-08T10:12:24.000Z</time>
      </trkpt>
      <trkpt lat="47.85643" lon="7.08151">
        <ele>454.79998779297</ele>
        <time>2020-03-08T10:12:25.000Z</time>
      </trkpt>
      <trkpt lat="47.8564" lon="7.08152">
        <ele>454.39999389648</ele>
        <time>2020-03-08T10:12:26.000Z</time>
      </trkpt>
      <trkpt lat="47.85634" lon="7.08152">
        <ele>454.39999389648</ele>
        <time>2020-03-08T10:12:28.000Z</time>
      </trkpt>
      <trkpt lat="47.85628" lon="7.08152">
        <ele>454</ele>
        <time>2020-03-08T10:12:30.000Z</time>
      </trkpt>
      <trkpt lat="47.85625" lon="7.08153">
        <ele>453.60000610352</ele>
        <time>2020-03-08T10:12:31.000Z</time>
      </trkpt>
      <trkpt lat="47.85622" lon="7.08154">
        <ele>453.20001220703</ele>
        <time>2020-03-08T10:12:32.000Z</time>
      </trkpt>
      <trkpt lat="47.85617" lon="7.08154">
        <ele>452.79998779297</ele>
        <time>2020-03-08T10:12:33.000Z</time>
      </trkpt>
      <trkpt lat="47.85614" lon="7.08153">
        <ele>452.39999389648</ele>
        <time>2020-03-08T10:12:34.000Z</time>
      </trkpt>
      <trkpt lat="47.85603" lon="7.08152">
        <ele>452.39999389648</ele>
        <time>2020-03-08T10:12:36.000Z</time>
      </trkpt>
      <trkpt lat="47.8559" lon="7.08148">
        <ele>451.79998779297</ele>
        <time>2020-03-08T10:12:38.000Z</time>
      </trkpt>
      <trkpt lat="47.85582" lon="7.08145">
        <ele>451.39999389648</ele>
        <time>2020-03-08T10:12:39.000Z</time>
      </trkpt>
      <trkpt lat="47.85573" lon="7.08143">
        <ele>451</ele>
        <time>2020-03-08T10:12:40.000Z</time>
      </trkpt>
      <trkpt lat="47.85518" lon="7.0812">
        <ele>450.60000610352</ele>
        <time>2020-03-08T10:12:41.000Z</time>
      </trkpt>
      <trkpt lat="47.85512" lon="7.08117">
        <ele>450</ele>
        <time>2020-03-08T10:12:42.000Z</time>
      </trkpt>
      <trkpt lat="47.85505" lon="7.08116">
        <ele>450</ele>
        <time>2020-03-08T10:12:43.000Z</time>
      </trkpt>
      <trkpt lat="47.85499" lon="7.08114">
        <ele>449.60000610352</ele>
        <time>2020-03-08T10:12:44.000Z</time>
      </trkpt>
      <trkpt lat="47.85494" lon="7.08113">
        <ele>449.20001220703</ele>
        <time>2020-03-08T10:12:45.000Z</time>
      </trkpt>
      <trkpt lat="47.85489" lon="7.08113">
        <ele>448.79998779297</ele>
        <time>2020-03-08T10:12:46.000Z</time>
      </trkpt>
      <trkpt lat="47.85483" lon="7.08112">
        <ele>448.39999389648</ele>
        <time>2020-03-08T10:12:47.000Z</time>
      </trkpt>
      <trkpt lat="47.85476" lon="7.08116">
        <ele>448</ele>
        <time>2020-03-08T10:12:48.000Z</time>
      </trkpt>
      <trkpt lat="47.85463" lon="7.0812">
        <ele>447.60000610352</ele>
        <time>2020-03-08T10:12:50.000Z</time>
      </trkpt>
      <trkpt lat="47.85457" lon="7.08122">
        <ele>447.20001220703</ele>
        <time>2020-03-08T10:12:51.000Z</time>
      </trkpt>
      <trkpt lat="47.8545" lon="7.08121">
        <ele>446.79998779297</ele>
        <time>2020-03-08T10:12:52.000Z</time>
      </trkpt>
      <trkpt lat="47.85444" lon="7.08121">
        <ele>446.39999389648</ele>
        <time>2020-03-08T10:12:53.000Z</time>
      </trkpt>
      <trkpt lat="47.85438" lon="7.0812">
        <ele>446</ele>
        <time>2020-03-08T10:12:54.000Z</time>
      </trkpt>
      <trkpt lat="47.85424" lon="7.08119">
        <ele>445.39999389648</ele>
        <time>2020-03-08T10:12:56.000Z</time>
      </trkpt>
      <trkpt lat="47.85417" lon="7.08119">
        <ele>445</ele>
        <time>2020-03-08T10:12:57.000Z</time>
      </trkpt>
      <trkpt lat="47.8541" lon="7.08117">
        <ele>444.60000610352</ele>
        <time>2020-03-08T10:12:58.000Z</time>
      </trkpt>
      <trkpt lat="47.85403" lon="7.08114">
        <ele>444</ele>
        <time>2020-03-08T10:12:59.000Z</time>
      </trkpt>
      <trkpt lat="47.85397" lon="7.08113">
        <ele>443.60000610352</ele>
        <time>2020-03-08T10:13:00.000Z</time>
      </trkpt>
      <trkpt lat="47.85371" lon="7.0811">
        <ele>443.20001220703</ele>
        <time>2020-03-08T10:13:04.000Z</time>
      </trkpt>
      <trkpt lat="47.85365" lon="7.08109">
        <ele>442.79998779297</ele>
        <time>2020-03-08T10:13:05.000Z</time>
      </trkpt>
      <trkpt lat="47.85359" lon="7.08109">
        <ele>442.20001220703</ele>
        <time>2020-03-08T10:13:06.000Z</time>
      </trkpt>
      <trkpt lat="47.85353" lon="7.0811">
        <ele>441.79998779297</ele>
        <time>2020-03-08T10:13:07.000Z</time>
      </trkpt>
      <trkpt lat="47.85347" lon="7.08111">
        <ele>441.39999389648</ele>
        <time>2020-03-08T10:13:08.000Z</time>
      </trkpt>
      <trkpt lat="47.85335" lon="7.08115">
        <ele>440.79998779297</ele>
        <time>2020-03-08T10:13:10.000Z</time>
      </trkpt>
      <trkpt lat="47.85329" lon="7.08117">
        <ele>440.39999389648</ele>
        <time>2020-03-08T10:13:11.000Z</time>
      </trkpt>
      <trkpt lat="47.85323" lon="7.08119">
        <ele>439.79998779297</ele>
        <time>2020-03-08T10:13:12.000Z</time>
      </trkpt>
      <trkpt lat="47.85317" lon="7.0812">
        <ele>439.39999389648</ele>
        <time>2020-03-08T10:13:13.000Z</time>
      </trkpt>
      <trkpt lat="47.85311" lon="7.08122">
        <ele>438.39999389648</ele>
        <time>2020-03-08T10:13:14.000Z</time>
      </trkpt>
      <trkpt lat="47.85304" lon="7.08123">
        <ele>438</ele>
        <time>2020-03-08T10:13:15.000Z</time>
      </trkpt>
      <trkpt lat="47.85299" lon="7.08122">
        <ele>437.60000610352</ele>
        <time>2020-03-08T10:13:16.000Z</time>
      </trkpt>
      <trkpt lat="47.85293" lon="7.08122">
        <ele>437.20001220703</ele>
        <time>2020-03-08T10:13:17.000Z</time>
      </trkpt>
      <trkpt lat="47.85288" lon="7.08121">
        <ele>436.39999389648</ele>
        <time>2020-03-08T10:13:18.000Z</time>
      </trkpt>
      <trkpt lat="47.85284" lon="7.08119">
        <ele>435.79998779297</ele>
        <time>2020-03-08T10:13:19.000Z</time>
      </trkpt>
      <trkpt lat="47.85281" lon="7.08116">
        <ele>434.79998779297</ele>
        <time>2020-03-08T10:13:20.000Z</time>
      </trkpt>
      <trkpt lat="47.85278" lon="7.08112">
        <ele>434</ele>
        <time>2020-03-08T10:13:21.000Z</time>
      </trkpt>
      <trkpt lat="47.85276" lon="7.08109">
        <ele>433</ele>
        <time>2020-03-08T10:13:22.000Z</time>
      </trkpt>
      <trkpt lat="47.85274" lon="7.08108">
        <ele>432</ele>
        <time>2020-03-08T10:13:23.000Z</time>
      </trkpt>
      <trkpt lat="47.85272" lon="7.08107">
        <ele>431</ele>
        <time>2020-03-08T10:13:24.000Z</time>
      </trkpt>
      <trkpt lat="47.85272" lon="7.08107">
        <ele>430</ele>
        <time>2020-03-08T10:13:25.000Z</time>
      </trkpt>
      <trkpt lat="47.85271" lon="7.08106">
        <ele>429</ele>
        <time>2020-03-08T10:13:26.000Z</time>
      </trkpt>
      <trkpt lat="47.85261" lon="7.08106">
        <ele>425</ele>
        <time>2020-03-08T10:13:48.000Z</time>
      </trkpt>
      <trkpt lat="47.85259" lon="7.08106">
        <ele>425</ele>
        <time>2020-03-08T10:13:49.000Z</time>
      </trkpt>
      <trkpt lat="47.85258" lon="7.08106">
        <ele>424.39999389648</ele>
        <time>2020-03-08T10:13:50.000Z</time>
      </trkpt>
      <trkpt lat="47.85256" lon="7.08104">
        <ele>423.79998779297</ele>
        <time>2020-03-08T10:13:51.000Z</time>
      </trkpt>
      <trkpt lat="47.85255" lon="7.08102">
        <ele>423.20001220703</ele>
        <time>2020-03-08T10:13:52.000Z</time>
      </trkpt>
      <trkpt lat="47.85253" lon="7.08101">
        <ele>422.79998779297</ele>
        <time>2020-03-08T10:13:53.000Z</time>
      </trkpt>
      <trkpt lat="47.85253" lon="7.081">
        <ele>422.20001220703</ele>
        <time>2020-03-08T10:13:54.000Z</time>
      </trkpt>
      <trkpt lat="47.85251" lon="7.08097">
        <ele>420.20001220703</ele>
        <time>2020-03-08T10:14:35.000Z</time>
      </trkpt>
      <trkpt lat="47.85248" lon="7.08088">
        <ele>420.20001220703</ele>
        <time>2020-03-08T10:14:38.000Z</time>
      </trkpt>
      <trkpt lat="47.85247" lon="7.08086">
        <ele>420.20001220703</ele>
        <time>2020-03-08T10:14:39.000Z</time>
      </trkpt>
      <trkpt lat="47.85244" lon="7.08077">
        <ele>419.60000610352</ele>
        <time>2020-03-08T10:14:41.000Z</time>
      </trkpt>
      <trkpt lat="47.85243" lon="7.08071">
        <ele>419</ele>
        <time>2020-03-08T10:14:42.000Z</time>
      </trkpt>
      <trkpt lat="47.85242" lon="7.08063">
        <ele>418.60000610352</ele>
        <time>2020-03-08T10:14:43.000Z</time>
      </trkpt>
      <trkpt lat="47.85241" lon="7.08056">
        <ele>418</ele>
        <time>2020-03-08T10:14:44.000Z</time>
      </trkpt>
      <trkpt lat="47.8524" lon="7.08048">
        <ele>417.39999389648</ele>
        <time>2020-03-08T10:14:45.000Z</time>
      </trkpt>
      <trkpt lat="47.85237" lon="7.0804">
        <ele>417</ele>
        <time>2020-03-08T10:14:46.000Z</time>
      </trkpt>
      <trkpt lat="47.85234" lon="7.08032">
        <ele>416.60000610352</ele>
        <time>2020-03-08T10:14:47.000Z</time>
      </trkpt>
      <trkpt lat="47.85231" lon="7.08024">
        <ele>416.20001220703</ele>
        <time>2020-03-08T10:14:48.000Z</time>
      </trkpt>
      <trkpt lat="47.85227" lon="7.08017">
        <ele>415.79998779297</ele>
        <time>2020-03-08T10:14:49.000Z</time>
      </trkpt>
      <trkpt lat="47.85224" lon="7.0801">
        <ele>415.39999389648</ele>
        <time>2020-03-08T10:14:50.000Z</time>
      </trkpt>
      <trkpt lat="47.85211" lon="7.0799">
        <ele>415.39999389648</ele>
        <time>2020-03-08T10:14:53.000Z</time>
      </trkpt>
      <trkpt lat="47.85202" lon="7.07977">
        <ele>415</ele>
        <time>2020-03-08T10:14:55.000Z</time>
      </trkpt>
      <trkpt lat="47.85197" lon="7.07971">
        <ele>414.60000610352</ele>
        <time>2020-03-08T10:14:56.000Z</time>
      </trkpt>
      <trkpt lat="47.85193" lon="7.07967">
        <ele>414.20001220703</ele>
        <time>2020-03-08T10:14:57.000Z</time>
      </trkpt>
      <trkpt lat="47.85191" lon="7.07965">
        <ele>413.79998779297</ele>
        <time>2020-03-08T10:14:58.000Z</time>
      </trkpt>
      <trkpt lat="47.85189" lon="7.07964">
        <ele>413.39999389648</ele>
        <time>2020-03-08T10:14:59.000Z</time>
      </trkpt>
      <trkpt lat="47.85184" lon="7.07965">
        <ele>413.39999389648</ele>
        <time>2020-03-08T10:15:02.000Z</time>
      </trkpt>
      <trkpt lat="47.85178" lon="7.07964">
        <ele>413.39999389648</ele>
        <time>2020-03-08T10:15:05.000Z</time>
      </trkpt>
      <trkpt lat="47.85176" lon="7.07963">
        <ele>413.39999389648</ele>
        <time>2020-03-08T10:15:07.000Z</time>
      </trkpt>
      <trkpt lat="47.85175" lon="7.07962">
        <ele>413.39999389648</ele>
        <time>2020-03-08T10:15:08.000Z</time>
      </trkpt>
      <trkpt lat="47.85168" lon="7.07965">
        <ele>413.39999389648</ele>
        <time>2020-03-08T10:15:12.000Z</time>
      </trkpt>
      <trkpt lat="47.85166" lon="7.07966">
        <ele>413.39999389648</ele>
        <time>2020-03-08T10:15:13.000Z</time>
      </trkpt>
      <trkpt lat="47.85158" lon="7.07978">
        <ele>413.39999389648</ele>
        <time>2020-03-08T10:15:18.000Z</time>
      </trkpt>
      <trkpt lat="47.85154" lon="7.07984">
        <ele>413.39999389648</ele>
        <time>2020-03-08T10:15:22.000Z</time>
      </trkpt>
      <trkpt lat="47.85153" lon="7.07985">
        <ele>413.39999389648</ele>
        <time>2020-03-08T10:15:23.000Z</time>
      </trkpt>
      <trkpt lat="47.85149" lon="7.07988">
        <ele>413.39999389648</ele>
        <time>2020-03-08T10:15:26.000Z</time>
      </trkpt>
      <trkpt lat="47.85148" lon="7.07992">
        <ele>413.39999389648</ele>
        <time>2020-03-08T10:15:29.000Z</time>
      </trkpt>
      <trkpt lat="47.8514" lon="7.08">
        <ele>413.39999389648</ele>
        <time>2020-03-08T10:15:34.000Z</time>
      </trkpt>
      <trkpt lat="47.85128" lon="7.08013">
        <ele>413.39999389648</ele>
        <time>2020-03-08T10:15:40.000Z</time>
      </trkpt>
      <trkpt lat="47.85113" lon="7.08022">
        <ele>413.39999389648</ele>
        <time>2020-03-08T10:15:46.000Z</time>
      </trkpt>
      <trkpt lat="47.85098" lon="7.08027">
        <ele>413.39999389648</ele>
        <time>2020-03-08T10:15:52.000Z</time>
      </trkpt>
      <trkpt lat="47.85096" lon="7.08028">
        <ele>413.39999389648</ele>
        <time>2020-03-08T10:15:53.000Z</time>
      </trkpt>
      <trkpt lat="47.8509" lon="7.08026">
        <ele>413.39999389648</ele>
        <time>2020-03-08T10:15:56.000Z</time>
      </trkpt>
      <trkpt lat="47.85086" lon="7.08027">
        <ele>413.39999389648</ele>
        <time>2020-03-08T10:15:58.000Z</time>
      </trkpt>
      <trkpt lat="47.85085" lon="7.08026">
        <ele>413.39999389648</ele>
        <time>2020-03-08T10:15:59.000Z</time>
      </trkpt>
      <trkpt lat="47.85081" lon="7.08027">
        <ele>413.39999389648</ele>
        <time>2020-03-08T10:16:02.000Z</time>
      </trkpt>
      <trkpt lat="47.8508" lon="7.08027">
        <ele>413.39999389648</ele>
        <time>2020-03-08T10:16:03.000Z</time>
      </trkpt>
      <trkpt lat="47.8508" lon="7.08027">
        <ele>413.39999389648</ele>
        <time>2020-03-08T10:16:41.000Z</time>
      </trkpt>
      <trkpt lat="47.85078" lon="7.08025">
        <ele>413.39999389648</ele>
        <time>2020-03-08T10:16:42.000Z</time>
      </trkpt>
      <trkpt lat="47.85067" lon="7.08021">
        <ele>413.39999389648</ele>
        <time>2020-03-08T10:16:46.000Z</time>
      </trkpt>
      <trkpt lat="47.85049" lon="7.08005">
        <ele>413.39999389648</ele>
        <time>2020-03-08T10:16:51.000Z</time>
      </trkpt>
      <trkpt lat="47.85029" lon="7.07977">
        <ele>413</ele>
        <time>2020-03-08T10:16:56.000Z</time>
      </trkpt>
      <trkpt lat="47.85024" lon="7.07971">
        <ele>412.60000610352</ele>
        <time>2020-03-08T10:16:57.000Z</time>
      </trkpt>
      <trkpt lat="47.8502" lon="7.07964">
        <ele>412</ele>
        <time>2020-03-08T10:16:58.000Z</time>
      </trkpt>
      <trkpt lat="47.85015" lon="7.07957">
        <ele>411.60000610352</ele>
        <time>2020-03-08T10:16:59.000Z</time>
      </trkpt>
      <trkpt lat="47.85011" lon="7.0795">
        <ele>411.20001220703</ele>
        <time>2020-03-08T10:17:00.000Z</time>
      </trkpt>
      <trkpt lat="47.85006" lon="7.07943">
        <ele>411.20001220703</ele>
        <time>2020-03-08T10:17:01.000Z</time>
      </trkpt>
      <trkpt lat="47.84995" lon="7.0793">
        <ele>411.20001220703</ele>
        <time>2020-03-08T10:17:03.000Z</time>
      </trkpt>
      <trkpt lat="47.84984" lon="7.07917">
        <ele>410.79998779297</ele>
        <time>2020-03-08T10:17:05.000Z</time>
      </trkpt>
      <trkpt lat="47.84978" lon="7.07912">
        <ele>410.39999389648</ele>
        <time>2020-03-08T10:17:06.000Z</time>
      </trkpt>
      <trkpt lat="47.84972" lon="7.07908">
        <ele>409.79998779297</ele>
        <time>2020-03-08T10:17:07.000Z</time>
      </trkpt>
      <trkpt lat="47.84965" lon="7.07905">
        <ele>409.39999389648</ele>
        <time>2020-03-08T10:17:08.000Z</time>
      </trkpt>
      <trkpt lat="47.84958" lon="7.07903">
        <ele>409</ele>
        <time>2020-03-08T10:17:09.000Z</time>
      </trkpt>
      <trkpt lat="47.84951" lon="7.07901">
        <ele>409</ele>
        <time>2020-03-08T10:17:10.000Z</time>
      </trkpt>
      <trkpt lat="47.8493" lon="7.07895">
        <ele>409</ele>
        <time>2020-03-08T10:17:13.000Z</time>
      </trkpt>
      <trkpt lat="47.84924" lon="7.07893">
        <ele>408.60000610352</ele>
        <time>2020-03-08T10:17:14.000Z</time>
      </trkpt>
      <trkpt lat="47.84917" lon="7.07891">
        <ele>408.20001220703</ele>
        <time>2020-03-08T10:17:15.000Z</time>
      </trkpt>
      <trkpt lat="47.8491" lon="7.07888">
        <ele>407.79998779297</ele>
        <time>2020-03-08T10:17:16.000Z</time>
      </trkpt>
      <trkpt lat="47.84904" lon="7.07884">
        <ele>407.20001220703</ele>
        <time>2020-03-08T10:17:17.000Z</time>
      </trkpt>
      <trkpt lat="47.84898" lon="7.07879">
        <ele>406.79998779297</ele>
        <time>2020-03-08T10:17:18.000Z</time>
      </trkpt>
      <trkpt lat="47.84887" lon="7.07868">
        <ele>406.79998779297</ele>
        <time>2020-03-08T10:17:20.000Z</time>
      </trkpt>
      <trkpt lat="47.84873" lon="7.07853">
        <ele>406.79998779297</ele>
        <time>2020-03-08T10:17:23.000Z</time>
      </trkpt>
      <trkpt lat="47.84851" lon="7.07827">
        <ele>406.79998779297</ele>
        <time>2020-03-08T10:17:28.000Z</time>
      </trkpt>
      <trkpt lat="47.84846" lon="7.07823">
        <ele>406.39999389648</ele>
        <time>2020-03-08T10:17:29.000Z</time>
      </trkpt>
      <trkpt lat="47.84842" lon="7.07819">
        <ele>406</ele>
        <time>2020-03-08T10:17:30.000Z</time>
      </trkpt>
      <trkpt lat="47.84837" lon="7.07814">
        <ele>405.60000610352</ele>
        <time>2020-03-08T10:17:31.000Z</time>
      </trkpt>
      <trkpt lat="47.84833" lon="7.0781">
        <ele>405.20001220703</ele>
        <time>2020-03-08T10:17:32.000Z</time>
      </trkpt>
      <trkpt lat="47.84829" lon="7.07806">
        <ele>404.79998779297</ele>
        <time>2020-03-08T10:17:33.000Z</time>
      </trkpt>
      <trkpt lat="47.84812" lon="7.0779">
        <ele>404.79998779297</ele>
        <time>2020-03-08T10:17:37.000Z</time>
      </trkpt>
      <trkpt lat="47.84808" lon="7.07786">
        <ele>404.79998779297</ele>
        <time>2020-03-08T10:17:38.000Z</time>
      </trkpt>
      <trkpt lat="47.84791" lon="7.07764">
        <ele>404.79998779297</ele>
        <time>2020-03-08T10:17:43.000Z</time>
      </trkpt>
      <trkpt lat="47.84782" lon="7.07749">
        <ele>404.39999389648</ele>
        <time>2020-03-08T10:17:46.000Z</time>
      </trkpt>
      <trkpt lat="47.84779" lon="7.07744">
        <ele>404</ele>
        <time>2020-03-08T10:17:47.000Z</time>
      </trkpt>
      <trkpt lat="47.84776" lon="7.07738">
        <ele>403.60000610352</ele>
        <time>2020-03-08T10:17:48.000Z</time>
      </trkpt>
      <trkpt lat="47.84773" lon="7.07732">
        <ele>403.20001220703</ele>
        <time>2020-03-08T10:17:49.000Z</time>
      </trkpt>
      <trkpt lat="47.8477" lon="7.07727">
        <ele>402.79998779297</ele>
        <time>2020-03-08T10:17:50.000Z</time>
      </trkpt>
      <trkpt lat="47.84753" lon="7.07715">
        <ele>402.79998779297</ele>
        <time>2020-03-08T10:17:54.000Z</time>
      </trkpt>
      <trkpt lat="47.84747" lon="7.07712">
        <ele>402.79998779297</ele>
        <time>2020-03-08T10:17:57.000Z</time>
      </trkpt>
      <trkpt lat="47.84748" lon="7.07714">
        <ele>402.79998779297</ele>
        <time>2020-03-08T10:17:58.000Z</time>
      </trkpt>
      <trkpt lat="47.84751" lon="7.07715">
        <ele>402.79998779297</ele>
        <time>2020-03-08T10:18:00.000Z</time>
      </trkpt>
      <trkpt lat="47.84757" lon="7.07718">
        <ele>402.79998779297</ele>
        <time>2020-03-08T10:18:02.000Z</time>
      </trkpt>
      <trkpt lat="47.84766" lon="7.07713">
        <ele>402.79998779297</ele>
        <time>2020-03-08T10:18:05.000Z</time>
      </trkpt>
      <trkpt lat="47.84764" lon="7.07696">
        <ele>402.79998779297</ele>
        <time>2020-03-08T10:18:08.000Z</time>
      </trkpt>
      <trkpt lat="47.84758" lon="7.07683">
        <ele>401.79998779297</ele>
        <time>2020-03-08T10:18:10.000Z</time>
      </trkpt>
      <trkpt lat="47.84754" lon="7.07677">
        <ele>401.39999389648</ele>
        <time>2020-03-08T10:18:11.000Z</time>
      </trkpt>
      <trkpt lat="47.8475" lon="7.07671">
        <ele>401</ele>
        <time>2020-03-08T10:18:12.000Z</time>
      </trkpt>
      <trkpt lat="47.84745" lon="7.07664">
        <ele>400.60000610352</ele>
        <time>2020-03-08T10:18:13.000Z</time>
      </trkpt>
      <trkpt lat="47.84738" lon="7.07657">
        <ele>400.20001220703</ele>
        <time>2020-03-08T10:18:14.000Z</time>
      </trkpt>
      <trkpt lat="47.84732" lon="7.07651">
        <ele>399.79998779297</ele>
        <time>2020-03-08T10:18:15.000Z</time>
      </trkpt>
      <trkpt lat="47.84728" lon="7.07646">
        <ele>399.39999389648</ele>
        <time>2020-03-08T10:18:16.000Z</time>
      </trkpt>
      <trkpt lat="47.84725" lon="7.07641">
        <ele>398.79998779297</ele>
        <time>2020-03-08T10:18:17.000Z</time>
      </trkpt>
      <trkpt lat="47.84721" lon="7.07638">
        <ele>398.39999389648</ele>
        <time>2020-03-08T10:18:18.000Z</time>
      </trkpt>
      <trkpt lat="47.84715" lon="7.07636">
        <ele>398.39999389648</ele>
        <time>2020-03-08T10:18:20.000Z</time>
      </trkpt>
      <trkpt lat="47.84713" lon="7.07638">
        <ele>398.39999389648</ele>
        <time>2020-03-08T10:18:23.000Z</time>
      </trkpt>
      <trkpt lat="47.84711" lon="7.0764">
        <ele>398.39999389648</ele>
        <time>2020-03-08T10:18:34.000Z</time>
      </trkpt>
      <trkpt lat="47.84703" lon="7.07647">
        <ele>398.39999389648</ele>
        <time>2020-03-08T10:18:39.000Z</time>
      </trkpt>
      <trkpt lat="47.847" lon="7.07648">
        <ele>398.39999389648</ele>
        <time>2020-03-08T10:18:41.000Z</time>
      </trkpt>
      <trkpt lat="47.847" lon="7.07647">
        <ele>398.39999389648</ele>
        <time>2020-03-08T10:18:43.000Z</time>
      </trkpt>
      <trkpt lat="47.8469" lon="7.07641">
        <ele>402.60000610352</ele>
        <time>2020-03-08T10:19:14.000Z</time>
      </trkpt>
      <trkpt lat="47.84686" lon="7.07635">
        <ele>402.60000610352</ele>
        <time>2020-03-08T10:19:17.000Z</time>
      </trkpt>
      <trkpt lat="47.84684" lon="7.07633">
        <ele>403</ele>
        <time>2020-03-08T10:19:18.000Z</time>
      </trkpt>
      <trkpt lat="47.84683" lon="7.07632">
        <ele>403.39999389648</ele>
        <time>2020-03-08T10:19:19.000Z</time>
      </trkpt>
      <trkpt lat="47.84681" lon="7.0763">
        <ele>404</ele>
        <time>2020-03-08T10:19:20.000Z</time>
      </trkpt>
      <trkpt lat="47.8468" lon="7.07629">
        <ele>404.39999389648</ele>
        <time>2020-03-08T10:19:21.000Z</time>
      </trkpt>
      <trkpt lat="47.84679" lon="7.07628">
        <ele>405</ele>
        <time>2020-03-08T10:19:22.000Z</time>
      </trkpt>
      <trkpt lat="47.84678" lon="7.07626">
        <ele>405.39999389648</ele>
        <time>2020-03-08T10:19:23.000Z</time>
      </trkpt>
      <trkpt lat="47.84677" lon="7.07626">
        <ele>406.39999389648</ele>
        <time>2020-03-08T10:19:24.000Z</time>
      </trkpt>
      <trkpt lat="47.84676" lon="7.07625">
        <ele>407</ele>
        <time>2020-03-08T10:19:25.000Z</time>
      </trkpt>
      <trkpt lat="47.84674" lon="7.07624">
        <ele>407.39999389648</ele>
        <time>2020-03-08T10:19:26.000Z</time>
      </trkpt>
      <trkpt lat="47.84673" lon="7.07623">
        <ele>408</ele>
        <time>2020-03-08T10:19:27.000Z</time>
      </trkpt>
      <trkpt lat="47.84671" lon="7.07622">
        <ele>408.60000610352</ele>
        <time>2020-03-08T10:19:28.000Z</time>
      </trkpt>
      <trkpt lat="47.84668" lon="7.07621">
        <ele>409</ele>
        <time>2020-03-08T10:19:29.000Z</time>
      </trkpt>
      <trkpt lat="47.84666" lon="7.07619">
        <ele>409.39999389648</ele>
        <time>2020-03-08T10:19:30.000Z</time>
      </trkpt>
      <trkpt lat="47.84664" lon="7.07618">
        <ele>409.79998779297</ele>
        <time>2020-03-08T10:19:31.000Z</time>
      </trkpt>
      <trkpt lat="47.84661" lon="7.07617">
        <ele>410.20001220703</ele>
        <time>2020-03-08T10:19:32.000Z</time>
      </trkpt>
      <trkpt lat="47.8466" lon="7.07616">
        <ele>410.60000610352</ele>
        <time>2020-03-08T10:19:33.000Z</time>
      </trkpt>
      <trkpt lat="47.84658" lon="7.07615">
        <ele>411.20001220703</ele>
        <time>2020-03-08T10:19:34.000Z</time>
      </trkpt>
      <trkpt lat="47.84653" lon="7.07612">
        <ele>411.60000610352</ele>
        <time>2020-03-08T10:19:36.000Z</time>
      </trkpt>
      <trkpt lat="47.84652" lon="7.07612">
        <ele>412</ele>
        <time>2020-03-08T10:19:37.000Z</time>
      </trkpt>
      <trkpt lat="47.8465" lon="7.0761">
        <ele>412.39999389648</ele>
        <time>2020-03-08T10:19:38.000Z</time>
      </trkpt>
      <trkpt lat="47.84648" lon="7.07608">
        <ele>412.79998779297</ele>
        <time>2020-03-08T10:19:39.000Z</time>
      </trkpt>
      <trkpt lat="47.84646" lon="7.07607">
        <ele>413.20001220703</ele>
        <time>2020-03-08T10:19:40.000Z</time>
      </trkpt>
      <trkpt lat="47.84641" lon="7.07606">
        <ele>413.20001220703</ele>
        <time>2020-03-08T10:19:42.000Z</time>
      </trkpt>
      <trkpt lat="47.84639" lon="7.07605">
        <ele>413.60000610352</ele>
        <time>2020-03-08T10:19:43.000Z</time>
      </trkpt>
      <trkpt lat="47.84637" lon="7.07605">
        <ele>414</ele>
        <time>2020-03-08T10:19:44.000Z</time>
      </trkpt>
      <trkpt lat="47.84634" lon="7.07604">
        <ele>414.39999389648</ele>
        <time>2020-03-08T10:19:45.000Z</time>
      </trkpt>
      <trkpt lat="47.84631" lon="7.07603">
        <ele>415</ele>
        <time>2020-03-08T10:19:46.000Z</time>
      </trkpt>
      <trkpt lat="47.84628" lon="7.07601">
        <ele>415.39999389648</ele>
        <time>2020-03-08T10:19:47.000Z</time>
      </trkpt>
      <trkpt lat="47.84624" lon="7.076">
        <ele>416.20001220703</ele>
        <time>2020-03-08T10:19:49.000Z</time>
      </trkpt>
      <trkpt lat="47.84622" lon="7.07599">
        <ele>416.60000610352</ele>
        <time>2020-03-08T10:19:50.000Z</time>
      </trkpt>
      <trkpt lat="47.8462" lon="7.07599">
        <ele>417</ele>
        <time>2020-03-08T10:19:51.000Z</time>
      </trkpt>
      <trkpt lat="47.84618" lon="7.07598">
        <ele>417.39999389648</ele>
        <time>2020-03-08T10:19:52.000Z</time>
      </trkpt>
      <trkpt lat="47.84616" lon="7.07598">
        <ele>417.39999389648</ele>
        <time>2020-03-08T10:19:53.000Z</time>
      </trkpt>
      <trkpt lat="47.8461" lon="7.07596">
        <ele>418</ele>
        <time>2020-03-08T10:19:56.000Z</time>
      </trkpt>
      <trkpt lat="47.84607" lon="7.07595">
        <ele>418.39999389648</ele>
        <time>2020-03-08T10:19:57.000Z</time>
      </trkpt>
      <trkpt lat="47.84604" lon="7.07594">
        <ele>418.79998779297</ele>
        <time>2020-03-08T10:19:58.000Z</time>
      </trkpt>
      <trkpt lat="47.84602" lon="7.07593">
        <ele>419.20001220703</ele>
        <time>2020-03-08T10:19:59.000Z</time>
      </trkpt>
      <trkpt lat="47.84599" lon="7.07592">
        <ele>419.60000610352</ele>
        <time>2020-03-08T10:20:00.000Z</time>
      </trkpt>
      <trkpt lat="47.84586" lon="7.0759">
        <ele>419.60000610352</ele>
        <time>2020-03-08T10:20:06.000Z</time>
      </trkpt>
      <trkpt lat="47.84571" lon="7.07586">
        <ele>419.60000610352</ele>
        <time>2020-03-08T10:20:11.000Z</time>
      </trkpt>
      <trkpt lat="47.84559" lon="7.0758">
        <ele>419.60000610352</ele>
        <time>2020-03-08T10:20:16.000Z</time>
      </trkpt>
      <trkpt lat="47.84549" lon="7.07573">
        <ele>419.60000610352</ele>
        <time>2020-03-08T10:20:22.000Z</time>
      </trkpt>
      <trkpt lat="47.84547" lon="7.07572">
        <ele>419.60000610352</ele>
        <time>2020-03-08T10:20:24.000Z</time>
      </trkpt>
      <trkpt lat="47.84544" lon="7.0757">
        <ele>419.60000610352</ele>
        <time>2020-03-08T10:20:28.000Z</time>
      </trkpt>
      <trkpt lat="47.84543" lon="7.0757">
        <ele>419.60000610352</ele>
        <time>2020-03-08T10:20:29.000Z</time>
      </trkpt>
      <trkpt lat="47.84534" lon="7.07562">
        <ele>419.60000610352</ele>
        <time>2020-03-08T10:20:33.000Z</time>
      </trkpt>
      <trkpt lat="47.84515" lon="7.07548">
        <ele>419.60000610352</ele>
        <time>2020-03-08T10:20:38.000Z</time>
      </trkpt>
      <trkpt lat="47.84511" lon="7.07546">
        <ele>419.60000610352</ele>
        <time>2020-03-08T10:20:39.000Z</time>
      </trkpt>
      <trkpt lat="47.84497" lon="7.07542">
        <ele>419.60000610352</ele>
        <time>2020-03-08T10:20:42.000Z</time>
      </trkpt>
      <trkpt lat="47.84489" lon="7.07539">
        <ele>419.20001220703</ele>
        <time>2020-03-08T10:20:44.000Z</time>
      </trkpt>
      <trkpt lat="47.84484" lon="7.07538">
        <ele>418.60000610352</ele>
        <time>2020-03-08T10:20:45.000Z</time>
      </trkpt>
      <trkpt lat="47.8448" lon="7.07536">
        <ele>418.20001220703</ele>
        <time>2020-03-08T10:20:46.000Z</time>
      </trkpt>
      <trkpt lat="47.84475" lon="7.07535">
        <ele>417.79998779297</ele>
        <time>2020-03-08T10:20:47.000Z</time>
      </trkpt>
      <trkpt lat="47.84471" lon="7.07534">
        <ele>417.39999389648</ele>
        <time>2020-03-08T10:20:48.000Z</time>
      </trkpt>
      <trkpt lat="47.84466" lon="7.07531">
        <ele>417.39999389648</ele>
        <time>2020-03-08T10:20:49.000Z</time>
      </trkpt>
      <trkpt lat="47.84452" lon="7.07524">
        <ele>417.39999389648</ele>
        <time>2020-03-08T10:20:52.000Z</time>
      </trkpt>
      <trkpt lat="47.8444" lon="7.07516">
        <ele>417</ele>
        <time>2020-03-08T10:20:55.000Z</time>
      </trkpt>
      <trkpt lat="47.84436" lon="7.07513">
        <ele>416.60000610352</ele>
        <time>2020-03-08T10:20:56.000Z</time>
      </trkpt>
      <trkpt lat="47.84432" lon="7.0751">
        <ele>416.20001220703</ele>
        <time>2020-03-08T10:20:57.000Z</time>
      </trkpt>
      <trkpt lat="47.84428" lon="7.07508">
        <ele>415.79998779297</ele>
        <time>2020-03-08T10:20:58.000Z</time>
      </trkpt>
      <trkpt lat="47.84425" lon="7.07507">
        <ele>415.39999389648</ele>
        <time>2020-03-08T10:20:59.000Z</time>
      </trkpt>
      <trkpt lat="47.84412" lon="7.07501">
        <ele>415.39999389648</ele>
        <time>2020-03-08T10:21:03.000Z</time>
      </trkpt>
      <trkpt lat="47.84409" lon="7.07501">
        <ele>415.79998779297</ele>
        <time>2020-03-08T10:21:04.000Z</time>
      </trkpt>
      <trkpt lat="47.84406" lon="7.07502">
        <ele>416.20001220703</ele>
        <time>2020-03-08T10:21:05.000Z</time>
      </trkpt>
      <trkpt lat="47.84403" lon="7.07504">
        <ele>416.60000610352</ele>
        <time>2020-03-08T10:21:06.000Z</time>
      </trkpt>
      <trkpt lat="47.844" lon="7.07506">
        <ele>417</ele>
        <time>2020-03-08T10:21:07.000Z</time>
      </trkpt>
      <trkpt lat="47.84399" lon="7.07508">
        <ele>417.39999389648</ele>
        <time>2020-03-08T10:21:08.000Z</time>
      </trkpt>
      <trkpt lat="47.84398" lon="7.0751">
        <ele>417.79998779297</ele>
        <time>2020-03-08T10:21:09.000Z</time>
      </trkpt>
      <trkpt lat="47.84397" lon="7.07513">
        <ele>418.39999389648</ele>
        <time>2020-03-08T10:21:10.000Z</time>
      </trkpt>
      <trkpt lat="47.84397" lon="7.07515">
        <ele>418.79998779297</ele>
        <time>2020-03-08T10:21:11.000Z</time>
      </trkpt>
      <trkpt lat="47.84396" lon="7.07518">
        <ele>419.20001220703</ele>
        <time>2020-03-08T10:21:12.000Z</time>
      </trkpt>
      <trkpt lat="47.84395" lon="7.0752">
        <ele>419.79998779297</ele>
        <time>2020-03-08T10:21:13.000Z</time>
      </trkpt>
      <trkpt lat="47.84395" lon="7.07522">
        <ele>420.20001220703</ele>
        <time>2020-03-08T10:21:14.000Z</time>
      </trkpt>
      <trkpt lat="47.84394" lon="7.07525">
        <ele>420.79998779297</ele>
        <time>2020-03-08T10:21:15.000Z</time>
      </trkpt>
      <trkpt lat="47.84394" lon="7.07528">
        <ele>421.20001220703</ele>
        <time>2020-03-08T10:21:16.000Z</time>
      </trkpt>
      <trkpt lat="47.84395" lon="7.0753">
        <ele>421.79998779297</ele>
        <time>2020-03-08T10:21:17.000Z</time>
      </trkpt>
      <trkpt lat="47.84398" lon="7.07533">
        <ele>422.20001220703</ele>
        <time>2020-03-08T10:21:19.000Z</time>
      </trkpt>
      <trkpt lat="47.844" lon="7.07534">
        <ele>422.60000610352</ele>
        <time>2020-03-08T10:21:20.000Z</time>
      </trkpt>
      <trkpt lat="47.84401" lon="7.07535">
        <ele>423</ele>
        <time>2020-03-08T10:21:21.000Z</time>
      </trkpt>
      <trkpt lat="47.84402" lon="7.07536">
        <ele>423.39999389648</ele>
        <time>2020-03-08T10:21:22.000Z</time>
      </trkpt>
      <trkpt lat="47.84404" lon="7.07537">
        <ele>423.79998779297</ele>
        <time>2020-03-08T10:21:23.000Z</time>
      </trkpt>
      <trkpt lat="47.84405" lon="7.07538">
        <ele>424.20001220703</ele>
        <time>2020-03-08T10:21:24.000Z</time>
      </trkpt>
      <trkpt lat="47.84407" lon="7.07539">
        <ele>424.79998779297</ele>
        <time>2020-03-08T10:21:25.000Z</time>
      </trkpt>
      <trkpt lat="47.84408" lon="7.0754">
        <ele>425.20001220703</ele>
        <time>2020-03-08T10:21:26.000Z</time>
      </trkpt>
      <trkpt lat="47.84409" lon="7.07542">
        <ele>425.60000610352</ele>
        <time>2020-03-08T10:21:27.000Z</time>
      </trkpt>
      <trkpt lat="47.8441" lon="7.07543">
        <ele>426</ele>
        <time>2020-03-08T10:21:28.000Z</time>
      </trkpt>
      <trkpt lat="47.84411" lon="7.07545">
        <ele>426.60000610352</ele>
        <time>2020-03-08T10:21:29.000Z</time>
      </trkpt>
      <trkpt lat="47.84411" lon="7.07548">
        <ele>427</ele>
        <time>2020-03-08T10:21:30.000Z</time>
      </trkpt>
      <trkpt lat="47.84412" lon="7.0755">
        <ele>427.39999389648</ele>
        <time>2020-03-08T10:21:31.000Z</time>
      </trkpt>
      <trkpt lat="47.84412" lon="7.07552">
        <ele>427.79998779297</ele>
        <time>2020-03-08T10:21:32.000Z</time>
      </trkpt>
      <trkpt lat="47.84412" lon="7.07555">
        <ele>428.20001220703</ele>
        <time>2020-03-08T10:21:33.000Z</time>
      </trkpt>
      <trkpt lat="47.84414" lon="7.0756">
        <ele>428.60000610352</ele>
        <time>2020-03-08T10:21:36.000Z</time>
      </trkpt>
      <trkpt lat="47.84415" lon="7.07562">
        <ele>429.20001220703</ele>
        <time>2020-03-08T10:21:37.000Z</time>
      </trkpt>
      <trkpt lat="47.84415" lon="7.07564">
        <ele>429.60000610352</ele>
        <time>2020-03-08T10:21:38.000Z</time>
      </trkpt>
      <trkpt lat="47.84416" lon="7.07566">
        <ele>430</ele>
        <time>2020-03-08T10:21:39.000Z</time>
      </trkpt>
      <trkpt lat="47.84417" lon="7.07568">
        <ele>430.39999389648</ele>
        <time>2020-03-08T10:21:40.000Z</time>
      </trkpt>
      <trkpt lat="47.84418" lon="7.07571">
        <ele>430.39999389648</ele>
        <time>2020-03-08T10:21:41.000Z</time>
      </trkpt>
      <trkpt lat="47.84419" lon="7.07575">
        <ele>430.39999389648</ele>
        <time>2020-03-08T10:21:43.000Z</time>
      </trkpt>
      <trkpt lat="47.8442" lon="7.07577">
        <ele>431</ele>
        <time>2020-03-08T10:21:44.000Z</time>
      </trkpt>
      <trkpt lat="47.84421" lon="7.07579">
        <ele>431.39999389648</ele>
        <time>2020-03-08T10:21:45.000Z</time>
      </trkpt>
      <trkpt lat="47.84422" lon="7.07581">
        <ele>431.79998779297</ele>
        <time>2020-03-08T10:21:46.000Z</time>
      </trkpt>
      <trkpt lat="47.84423" lon="7.07583">
        <ele>432.20001220703</ele>
        <time>2020-03-08T10:21:47.000Z</time>
      </trkpt>
      <trkpt lat="47.84424" lon="7.07584">
        <ele>432.60000610352</ele>
        <time>2020-03-08T10:21:48.000Z</time>
      </trkpt>
      <trkpt lat="47.84426" lon="7.07589">
        <ele>432.60000610352</ele>
        <time>2020-03-08T10:21:50.000Z</time>
      </trkpt>
      <trkpt lat="47.84427" lon="7.07591">
        <ele>433</ele>
        <time>2020-03-08T10:21:51.000Z</time>
      </trkpt>
      <trkpt lat="47.84428" lon="7.07593">
        <ele>433.39999389648</ele>
        <time>2020-03-08T10:21:52.000Z</time>
      </trkpt>
      <trkpt lat="47.84429" lon="7.07595">
        <ele>434.39999389648</ele>
        <time>2020-03-08T10:21:53.000Z</time>
      </trkpt>
      <trkpt lat="47.84429" lon="7.07597">
        <ele>434.79998779297</ele>
        <time>2020-03-08T10:21:54.000Z</time>
      </trkpt>
      <trkpt lat="47.84432" lon="7.07604">
        <ele>434.79998779297</ele>
        <time>2020-03-08T10:21:57.000Z</time>
      </trkpt>
      <trkpt lat="47.84433" lon="7.0761">
        <ele>435.20001220703</ele>
        <time>2020-03-08T10:21:59.000Z</time>
      </trkpt>
      <trkpt lat="47.84433" lon="7.07612">
        <ele>435.60000610352</ele>
        <time>2020-03-08T10:22:00.000Z</time>
      </trkpt>
      <trkpt lat="47.84434" lon="7.07615">
        <ele>436</ele>
        <time>2020-03-08T10:22:01.000Z</time>
      </trkpt>
      <trkpt lat="47.84434" lon="7.07618">
        <ele>436.39999389648</ele>
        <time>2020-03-08T10:22:02.000Z</time>
      </trkpt>
      <trkpt lat="47.84434" lon="7.07621">
        <ele>436.79998779297</ele>
        <time>2020-03-08T10:22:03.000Z</time>
      </trkpt>
      <trkpt lat="47.84434" lon="7.07627">
        <ele>436.79998779297</ele>
        <time>2020-03-08T10:22:05.000Z</time>
      </trkpt>
      <trkpt lat="47.84434" lon="7.07632">
        <ele>437.39999389648</ele>
        <time>2020-03-08T10:22:07.000Z</time>
      </trkpt>
      <trkpt lat="47.84433" lon="7.07634">
        <ele>437.79998779297</ele>
        <time>2020-03-08T10:22:08.000Z</time>
      </trkpt>
      <trkpt lat="47.84432" lon="7.07635">
        <ele>438.20001220703</ele>
        <time>2020-03-08T10:22:09.000Z</time>
      </trkpt>
      <trkpt lat="47.84431" lon="7.07637">
        <ele>438.79998779297</ele>
        <time>2020-03-08T10:22:10.000Z</time>
      </trkpt>
      <trkpt lat="47.84431" lon="7.07637">
        <ele>439.20001220703</ele>
        <time>2020-03-08T10:22:11.000Z</time>
      </trkpt>
      <trkpt lat="47.8443" lon="7.07638">
        <ele>439.20001220703</ele>
        <time>2020-03-08T10:22:13.000Z</time>
      </trkpt>
      <trkpt lat="47.8443" lon="7.07645">
        <ele>439.20001220703</ele>
        <time>2020-03-08T10:23:33.000Z</time>
      </trkpt>
      <trkpt lat="47.84429" lon="7.07647">
        <ele>439.20001220703</ele>
        <time>2020-03-08T10:23:34.000Z</time>
      </trkpt>
      <trkpt lat="47.84421" lon="7.0766">
        <ele>439.20001220703</ele>
        <time>2020-03-08T10:23:39.000Z</time>
      </trkpt>
      <trkpt lat="47.84412" lon="7.07674">
        <ele>439.20001220703</ele>
        <time>2020-03-08T10:23:44.000Z</time>
      </trkpt>
      <trkpt lat="47.84402" lon="7.07689">
        <ele>439.60000610352</ele>
        <time>2020-03-08T10:23:49.000Z</time>
      </trkpt>
      <trkpt lat="47.844" lon="7.07692">
        <ele>440</ele>
        <time>2020-03-08T10:23:50.000Z</time>
      </trkpt>
      <trkpt lat="47.84399" lon="7.07694">
        <ele>440.39999389648</ele>
        <time>2020-03-08T10:23:51.000Z</time>
      </trkpt>
      <trkpt lat="47.84397" lon="7.07696">
        <ele>440.79998779297</ele>
        <time>2020-03-08T10:23:52.000Z</time>
      </trkpt>
      <trkpt lat="47.84395" lon="7.07698">
        <ele>441.20001220703</ele>
        <time>2020-03-08T10:23:53.000Z</time>
      </trkpt>
      <trkpt lat="47.84391" lon="7.07703">
        <ele>442.20001220703</ele>
        <time>2020-03-08T10:23:55.000Z</time>
      </trkpt>
      <trkpt lat="47.8439" lon="7.07706">
        <ele>442.60000610352</ele>
        <time>2020-03-08T10:23:56.000Z</time>
      </trkpt>
      <trkpt lat="47.84388" lon="7.0771">
        <ele>443</ele>
        <time>2020-03-08T10:23:57.000Z</time>
      </trkpt>
      <trkpt lat="47.84387" lon="7.07713">
        <ele>443.39999389648</ele>
        <time>2020-03-08T10:23:58.000Z</time>
      </trkpt>
      <trkpt lat="47.84383" lon="7.07733">
        <ele>443.39999389648</ele>
        <time>2020-03-08T10:24:03.000Z</time>
      </trkpt>
      <trkpt lat="47.8438" lon="7.07755">
        <ele>443.79998779297</ele>
        <time>2020-03-08T10:24:09.000Z</time>
      </trkpt>
      <trkpt lat="47.8438" lon="7.07758">
        <ele>444.20001220703</ele>
        <time>2020-03-08T10:24:10.000Z</time>
      </trkpt>
      <trkpt lat="47.8438" lon="7.07761">
        <ele>444.60000610352</ele>
        <time>2020-03-08T10:24:11.000Z</time>
      </trkpt>
      <trkpt lat="47.8438" lon="7.07765">
        <ele>445</ele>
        <time>2020-03-08T10:24:12.000Z</time>
      </trkpt>
      <trkpt lat="47.8438" lon="7.07769">
        <ele>445.39999389648</ele>
        <time>2020-03-08T10:24:13.000Z</time>
      </trkpt>
      <trkpt lat="47.84379" lon="7.07781">
        <ele>445.39999389648</ele>
        <time>2020-03-08T10:24:16.000Z</time>
      </trkpt>
      <trkpt lat="47.84381" lon="7.07809">
        <ele>445.39999389648</ele>
        <time>2020-03-08T10:24:20.000Z</time>
      </trkpt>
      <trkpt lat="47.84382" lon="7.07817">
        <ele>445</ele>
        <time>2020-03-08T10:24:21.000Z</time>
      </trkpt>
      <trkpt lat="47.84384" lon="7.07826">
        <ele>444.60000610352</ele>
        <time>2020-03-08T10:24:22.000Z</time>
      </trkpt>
      <trkpt lat="47.84387" lon="7.07837">
        <ele>444</ele>
        <time>2020-03-08T10:24:23.000Z</time>
      </trkpt>
      <trkpt lat="47.8439" lon="7.07848">
        <ele>443.20001220703</ele>
        <time>2020-03-08T10:24:24.000Z</time>
      </trkpt>
      <trkpt lat="47.84393" lon="7.0786">
        <ele>442.60000610352</ele>
        <time>2020-03-08T10:24:25.000Z</time>
      </trkpt>
      <trkpt lat="47.84397" lon="7.07873">
        <ele>441.60000610352</ele>
        <time>2020-03-08T10:24:26.000Z</time>
      </trkpt>
      <trkpt lat="47.844" lon="7.07885">
        <ele>440.60000610352</ele>
        <time>2020-03-08T10:24:27.000Z</time>
      </trkpt>
      <trkpt lat="47.84403" lon="7.07897">
        <ele>439.79998779297</ele>
        <time>2020-03-08T10:24:28.000Z</time>
      </trkpt>
      <trkpt lat="47.84406" lon="7.07908">
        <ele>438.79998779297</ele>
        <time>2020-03-08T10:24:29.000Z</time>
      </trkpt>
      <trkpt lat="47.84409" lon="7.07919">
        <ele>438</ele>
        <time>2020-03-08T10:24:30.000Z</time>
      </trkpt>
      <trkpt lat="47.84411" lon="7.0793">
        <ele>437.20001220703</ele>
        <time>2020-03-08T10:24:31.000Z</time>
      </trkpt>
      <trkpt lat="47.84414" lon="7.0794">
        <ele>436.39999389648</ele>
        <time>2020-03-08T10:24:32.000Z</time>
      </trkpt>
      <trkpt lat="47.84416" lon="7.07952">
        <ele>435.39999389648</ele>
        <time>2020-03-08T10:24:33.000Z</time>
      </trkpt>
      <trkpt lat="47.84419" lon="7.07964">
        <ele>434.60000610352</ele>
        <time>2020-03-08T10:24:34.000Z</time>
      </trkpt>
      <trkpt lat="47.84422" lon="7.07977">
        <ele>433.60000610352</ele>
        <time>2020-03-08T10:24:35.000Z</time>
      </trkpt>
      <trkpt lat="47.84424" lon="7.0799">
        <ele>432.60000610352</ele>
        <time>2020-03-08T10:24:36.000Z</time>
      </trkpt>
      <trkpt lat="47.84426" lon="7.08">
        <ele>431.79998779297</ele>
        <time>2020-03-08T10:24:37.000Z</time>
      </trkpt>
      <trkpt lat="47.84427" lon="7.0801">
        <ele>430.79998779297</ele>
        <time>2020-03-08T10:24:38.000Z</time>
      </trkpt>
      <trkpt lat="47.84429" lon="7.08019">
        <ele>430</ele>
        <time>2020-03-08T10:24:39.000Z</time>
      </trkpt>
      <trkpt lat="47.84429" lon="7.08026">
        <ele>429</ele>
        <time>2020-03-08T10:24:40.000Z</time>
      </trkpt>
      <trkpt lat="47.84428" lon="7.08032">
        <ele>428.20001220703</ele>
        <time>2020-03-08T10:24:41.000Z</time>
      </trkpt>
      <trkpt lat="47.84427" lon="7.08036">
        <ele>427.60000610352</ele>
        <time>2020-03-08T10:24:42.000Z</time>
      </trkpt>
      <trkpt lat="47.84424" lon="7.0804">
        <ele>427.20001220703</ele>
        <time>2020-03-08T10:24:43.000Z</time>
      </trkpt>
      <trkpt lat="47.84423" lon="7.08042">
        <ele>426.79998779297</ele>
        <time>2020-03-08T10:24:44.000Z</time>
      </trkpt>
      <trkpt lat="47.84421" lon="7.08043">
        <ele>426</ele>
        <time>2020-03-08T10:24:45.000Z</time>
      </trkpt>
      <trkpt lat="47.84419" lon="7.08045">
        <ele>425.60000610352</ele>
        <time>2020-03-08T10:24:48.000Z</time>
      </trkpt>
      <trkpt lat="47.84418" lon="7.08045">
        <ele>424.60000610352</ele>
        <time>2020-03-08T10:24:50.000Z</time>
      </trkpt>
      <trkpt lat="47.84416" lon="7.08044">
        <ele>424.20001220703</ele>
        <time>2020-03-08T10:24:51.000Z</time>
      </trkpt>
      <trkpt lat="47.84412" lon="7.08043">
        <ele>423.79998779297</ele>
        <time>2020-03-08T10:24:52.000Z</time>
      </trkpt>
      <trkpt lat="47.84406" lon="7.08037">
        <ele>423.39999389648</ele>
        <time>2020-03-08T10:24:55.000Z</time>
      </trkpt>
      <trkpt lat="47.84404" lon="7.08034">
        <ele>423</ele>
        <time>2020-03-08T10:24:56.000Z</time>
      </trkpt>
      <trkpt lat="47.84403" lon="7.08032">
        <ele>422.60000610352</ele>
        <time>2020-03-08T10:24:57.000Z</time>
      </trkpt>
      <trkpt lat="47.84403" lon="7.08029">
        <ele>422.20001220703</ele>
        <time>2020-03-08T10:24:58.000Z</time>
      </trkpt>
      <trkpt lat="47.84403" lon="7.08027">
        <ele>421.79998779297</ele>
        <time>2020-03-08T10:24:59.000Z</time>
      </trkpt>
      <trkpt lat="47.84401" lon="7.08023">
        <ele>421.39999389648</ele>
        <time>2020-03-08T10:25:01.000Z</time>
      </trkpt>
      <trkpt lat="47.84399" lon="7.08021">
        <ele>421</ele>
        <time>2020-03-08T10:25:02.000Z</time>
      </trkpt>
      <trkpt lat="47.84397" lon="7.08021">
        <ele>420.39999389648</ele>
        <time>2020-03-08T10:25:03.000Z</time>
      </trkpt>
      <trkpt lat="47.84394" lon="7.08022">
        <ele>420</ele>
        <time>2020-03-08T10:25:04.000Z</time>
      </trkpt>
      <trkpt lat="47.84391" lon="7.08023">
        <ele>419.60000610352</ele>
        <time>2020-03-08T10:25:05.000Z</time>
      </trkpt>
      <trkpt lat="47.84371" lon="7.08025">
        <ele>419.60000610352</ele>
        <time>2020-03-08T10:25:10.000Z</time>
      </trkpt>
      <trkpt lat="47.84354" lon="7.0803">
        <ele>419.60000610352</ele>
        <time>2020-03-08T10:25:14.000Z</time>
      </trkpt>
      <trkpt lat="47.84345" lon="7.08034">
        <ele>419.60000610352</ele>
        <time>2020-03-08T10:25:16.000Z</time>
      </trkpt>
      <trkpt lat="47.84316" lon="7.08053">
        <ele>419.60000610352</ele>
        <time>2020-03-08T10:25:24.000Z</time>
      </trkpt>
      <trkpt lat="47.84303" lon="7.08063">
        <ele>419.60000610352</ele>
        <time>2020-03-08T10:25:29.000Z</time>
      </trkpt>
      <trkpt lat="47.84298" lon="7.08067">
        <ele>420</ele>
        <time>2020-03-08T10:25:31.000Z</time>
      </trkpt>
      <trkpt lat="47.84295" lon="7.08069">
        <ele>420.39999389648</ele>
        <time>2020-03-08T10:25:32.000Z</time>
      </trkpt>
      <trkpt lat="47.84292" lon="7.08071">
        <ele>421</ele>
        <time>2020-03-08T10:25:33.000Z</time>
      </trkpt>
      <trkpt lat="47.84289" lon="7.08073">
        <ele>421.79998779297</ele>
        <time>2020-03-08T10:25:34.000Z</time>
      </trkpt>
      <trkpt lat="47.84287" lon="7.08075">
        <ele>421.79998779297</ele>
        <time>2020-03-08T10:25:35.000Z</time>
      </trkpt>
      <trkpt lat="47.84281" lon="7.08077">
        <ele>422.20001220703</ele>
        <time>2020-03-08T10:25:37.000Z</time>
      </trkpt>
      <trkpt lat="47.84279" lon="7.08079">
        <ele>422.60000610352</ele>
        <time>2020-03-08T10:25:38.000Z</time>
      </trkpt>
      <trkpt lat="47.84276" lon="7.08082">
        <ele>423</ele>
        <time>2020-03-08T10:25:39.000Z</time>
      </trkpt>
      <trkpt lat="47.84275" lon="7.08084">
        <ele>423.39999389648</ele>
        <time>2020-03-08T10:25:40.000Z</time>
      </trkpt>
      <trkpt lat="47.84273" lon="7.08086">
        <ele>424</ele>
        <time>2020-03-08T10:25:41.000Z</time>
      </trkpt>
      <trkpt lat="47.84271" lon="7.08089">
        <ele>424.39999389648</ele>
        <time>2020-03-08T10:25:42.000Z</time>
      </trkpt>
      <trkpt lat="47.84268" lon="7.08092">
        <ele>425</ele>
        <time>2020-03-08T10:25:43.000Z</time>
      </trkpt>
      <trkpt lat="47.84266" lon="7.08094">
        <ele>425.39999389648</ele>
        <time>2020-03-08T10:25:44.000Z</time>
      </trkpt>
      <trkpt lat="47.84264" lon="7.08099">
        <ele>426</ele>
        <time>2020-03-08T10:25:45.000Z</time>
      </trkpt>
      <trkpt lat="47.84262" lon="7.08103">
        <ele>426</ele>
        <time>2020-03-08T10:25:46.000Z</time>
      </trkpt>
      <trkpt lat="47.84261" lon="7.08105">
        <ele>426.39999389648</ele>
        <time>2020-03-08T10:25:47.000Z</time>
      </trkpt>
      <trkpt lat="47.84259" lon="7.08107">
        <ele>426.79998779297</ele>
        <time>2020-03-08T10:25:48.000Z</time>
      </trkpt>
      <trkpt lat="47.84257" lon="7.0811">
        <ele>427.39999389648</ele>
        <time>2020-03-08T10:25:49.000Z</time>
      </trkpt>
      <trkpt lat="47.84255" lon="7.08111">
        <ele>427.79998779297</ele>
        <time>2020-03-08T10:25:50.000Z</time>
      </trkpt>
      <trkpt lat="47.84253" lon="7.08114">
        <ele>428.20001220703</ele>
        <time>2020-03-08T10:25:51.000Z</time>
      </trkpt>
      <trkpt lat="47.8425" lon="7.08117">
        <ele>428.60000610352</ele>
        <time>2020-03-08T10:25:53.000Z</time>
      </trkpt>
      <trkpt lat="47.84248" lon="7.08118">
        <ele>429.20001220703</ele>
        <time>2020-03-08T10:25:54.000Z</time>
      </trkpt>
      <trkpt lat="47.84246" lon="7.0812">
        <ele>429.60000610352</ele>
        <time>2020-03-08T10:25:55.000Z</time>
      </trkpt>
      <trkpt lat="47.84245" lon="7.08123">
        <ele>430</ele>
        <time>2020-03-08T10:25:56.000Z</time>
      </trkpt>
      <trkpt lat="47.84243" lon="7.08124">
        <ele>430.39999389648</ele>
        <time>2020-03-08T10:25:57.000Z</time>
      </trkpt>
      <trkpt lat="47.8424" lon="7.08129">
        <ele>431.39999389648</ele>
        <time>2020-03-08T10:25:59.000Z</time>
      </trkpt>
      <trkpt lat="47.84239" lon="7.08131">
        <ele>431.79998779297</ele>
        <time>2020-03-08T10:26:00.000Z</time>
      </trkpt>
      <trkpt lat="47.84237" lon="7.08133">
        <ele>432.20001220703</ele>
        <time>2020-03-08T10:26:01.000Z</time>
      </trkpt>
      <trkpt lat="47.84236" lon="7.08136">
        <ele>432.60000610352</ele>
        <time>2020-03-08T10:26:02.000Z</time>
      </trkpt>
      <trkpt lat="47.84233" lon="7.08143">
        <ele>433.20001220703</ele>
        <time>2020-03-08T10:26:04.000Z</time>
      </trkpt>
      <trkpt lat="47.84232" lon="7.08146">
        <ele>433.60000610352</ele>
        <time>2020-03-08T10:26:05.000Z</time>
      </trkpt>
      <trkpt lat="47.8423" lon="7.08148">
        <ele>434</ele>
        <time>2020-03-08T10:26:06.000Z</time>
      </trkpt>
      <trkpt lat="47.84229" lon="7.0815">
        <ele>434.39999389648</ele>
        <time>2020-03-08T10:26:07.000Z</time>
      </trkpt>
      <trkpt lat="47.84228" lon="7.08153">
        <ele>435</ele>
        <time>2020-03-08T10:26:08.000Z</time>
      </trkpt>
      <trkpt lat="47.84226" lon="7.08158">
        <ele>435.39999389648</ele>
        <time>2020-03-08T10:26:10.000Z</time>
      </trkpt>
      <trkpt lat="47.84224" lon="7.08161">
        <ele>435.79998779297</ele>
        <time>2020-03-08T10:26:11.000Z</time>
      </trkpt>
      <trkpt lat="47.84222" lon="7.08165">
        <ele>436.39999389648</ele>
        <time>2020-03-08T10:26:12.000Z</time>
      </trkpt>
      <trkpt lat="47.84221" lon="7.08169">
        <ele>436.79998779297</ele>
        <time>2020-03-08T10:26:13.000Z</time>
      </trkpt>
      <trkpt lat="47.84219" lon="7.08172">
        <ele>437.39999389648</ele>
        <time>2020-03-08T10:26:14.000Z</time>
      </trkpt>
      <trkpt lat="47.84217" lon="7.08179">
        <ele>437.79998779297</ele>
        <time>2020-03-08T10:26:16.000Z</time>
      </trkpt>
      <trkpt lat="47.84215" lon="7.08182">
        <ele>438.20001220703</ele>
        <time>2020-03-08T10:26:17.000Z</time>
      </trkpt>
      <trkpt lat="47.84214" lon="7.08186">
        <ele>438.79998779297</ele>
        <time>2020-03-08T10:26:18.000Z</time>
      </trkpt>
      <trkpt lat="47.84212" lon="7.08189">
        <ele>439.20001220703</ele>
        <time>2020-03-08T10:26:19.000Z</time>
      </trkpt>
      <trkpt lat="47.84211" lon="7.08193">
        <ele>439.79998779297</ele>
        <time>2020-03-08T10:26:20.000Z</time>
      </trkpt>
      <trkpt lat="47.84208" lon="7.08202">
        <ele>440.20001220703</ele>
        <time>2020-03-08T10:26:23.000Z</time>
      </trkpt>
      <trkpt lat="47.84207" lon="7.08205">
        <ele>441</ele>
        <time>2020-03-08T10:26:24.000Z</time>
      </trkpt>
      <trkpt lat="47.84205" lon="7.08207">
        <ele>441.39999389648</ele>
        <time>2020-03-08T10:26:25.000Z</time>
      </trkpt>
      <trkpt lat="47.84204" lon="7.08211">
        <ele>441.79998779297</ele>
        <time>2020-03-08T10:26:26.000Z</time>
      </trkpt>
      <trkpt lat="47.84198" lon="7.08222">
        <ele>441.79998779297</ele>
        <time>2020-03-08T10:26:30.000Z</time>
      </trkpt>
      <trkpt lat="47.84196" lon="7.08229">
        <ele>442.20001220703</ele>
        <time>2020-03-08T10:26:32.000Z</time>
      </trkpt>
      <trkpt lat="47.84194" lon="7.08232">
        <ele>442.79998779297</ele>
        <time>2020-03-08T10:26:33.000Z</time>
      </trkpt>
      <trkpt lat="47.84193" lon="7.08235">
        <ele>443.20001220703</ele>
        <time>2020-03-08T10:26:34.000Z</time>
      </trkpt>
      <trkpt lat="47.84192" lon="7.08238">
        <ele>443.60000610352</ele>
        <time>2020-03-08T10:26:35.000Z</time>
      </trkpt>
      <trkpt lat="47.84191" lon="7.0824">
        <ele>444.20001220703</ele>
        <time>2020-03-08T10:26:36.000Z</time>
      </trkpt>
      <trkpt lat="47.84189" lon="7.08243">
        <ele>444.20001220703</ele>
        <time>2020-03-08T10:26:37.000Z</time>
      </trkpt>
      <trkpt lat="47.84186" lon="7.08255">
        <ele>444.60000610352</ele>
        <time>2020-03-08T10:26:41.000Z</time>
      </trkpt>
      <trkpt lat="47.84185" lon="7.08257">
        <ele>445</ele>
        <time>2020-03-08T10:26:42.000Z</time>
      </trkpt>
      <trkpt lat="47.84184" lon="7.08259">
        <ele>445.39999389648</ele>
        <time>2020-03-08T10:26:43.000Z</time>
      </trkpt>
      <trkpt lat="47.84183" lon="7.08262">
        <ele>445.79998779297</ele>
        <time>2020-03-08T10:26:44.000Z</time>
      </trkpt>
      <trkpt lat="47.84182" lon="7.08264">
        <ele>446.20001220703</ele>
        <time>2020-03-08T10:26:45.000Z</time>
      </trkpt>
      <trkpt lat="47.84178" lon="7.08271">
        <ele>447</ele>
        <time>2020-03-08T10:26:48.000Z</time>
      </trkpt>
      <trkpt lat="47.84178" lon="7.08273">
        <ele>447.60000610352</ele>
        <time>2020-03-08T10:26:49.000Z</time>
      </trkpt>
      <trkpt lat="47.84177" lon="7.08275">
        <ele>448</ele>
        <time>2020-03-08T10:26:50.000Z</time>
      </trkpt>
      <trkpt lat="47.84176" lon="7.08279">
        <ele>448.39999389648</ele>
        <time>2020-03-08T10:26:51.000Z</time>
      </trkpt>
      <trkpt lat="47.84174" lon="7.08283">
        <ele>448.79998779297</ele>
        <time>2020-03-08T10:26:53.000Z</time>
      </trkpt>
      <trkpt lat="47.84173" lon="7.08285">
        <ele>449.20001220703</ele>
        <time>2020-03-08T10:26:54.000Z</time>
      </trkpt>
      <trkpt lat="47.84171" lon="7.08287">
        <ele>449.60000610352</ele>
        <time>2020-03-08T10:26:55.000Z</time>
      </trkpt>
      <trkpt lat="47.8417" lon="7.0829">
        <ele>450</ele>
        <time>2020-03-08T10:26:56.000Z</time>
      </trkpt>
      <trkpt lat="47.84168" lon="7.08292">
        <ele>450.39999389648</ele>
        <time>2020-03-08T10:26:57.000Z</time>
      </trkpt>
      <trkpt lat="47.84163" lon="7.08299">
        <ele>451</ele>
        <time>2020-03-08T10:27:00.000Z</time>
      </trkpt>
      <trkpt lat="47.84162" lon="7.08301">
        <ele>451.39999389648</ele>
        <time>2020-03-08T10:27:01.000Z</time>
      </trkpt>
      <trkpt lat="47.84161" lon="7.08303">
        <ele>451.79998779297</ele>
        <time>2020-03-08T10:27:02.000Z</time>
      </trkpt>
      <trkpt lat="47.8416" lon="7.08305">
        <ele>452.20001220703</ele>
        <time>2020-03-08T10:27:03.000Z</time>
      </trkpt>
      <trkpt lat="47.8416" lon="7.08308">
        <ele>452.60000610352</ele>
        <time>2020-03-08T10:27:04.000Z</time>
      </trkpt>
      <trkpt lat="47.84157" lon="7.08319">
        <ele>453.20001220703</ele>
        <time>2020-03-08T10:27:08.000Z</time>
      </trkpt>
      <trkpt lat="47.84156" lon="7.08321">
        <ele>453.60000610352</ele>
        <time>2020-03-08T10:27:09.000Z</time>
      </trkpt>
      <trkpt lat="47.84156" lon="7.08323">
        <ele>454</ele>
        <time>2020-03-08T10:27:10.000Z</time>
      </trkpt>
      <trkpt lat="47.84155" lon="7.08326">
        <ele>454.39999389648</ele>
        <time>2020-03-08T10:27:11.000Z</time>
      </trkpt>
      <trkpt lat="47.84154" lon="7.08329">
        <ele>454.79998779297</ele>
        <time>2020-03-08T10:27:12.000Z</time>
      </trkpt>
      <trkpt lat="47.84154" lon="7.08333">
        <ele>454.79998779297</ele>
        <time>2020-03-08T10:27:14.000Z</time>
      </trkpt>
      <trkpt lat="47.84153" lon="7.08342">
        <ele>454.79998779297</ele>
        <time>2020-03-08T10:27:18.000Z</time>
      </trkpt>
      <trkpt lat="47.84153" lon="7.08343">
        <ele>454.79998779297</ele>
        <time>2020-03-08T10:27:19.000Z</time>
      </trkpt>
      <trkpt lat="47.84152" lon="7.08347">
        <ele>455.20001220703</ele>
        <time>2020-03-08T10:27:22.000Z</time>
      </trkpt>
      <trkpt lat="47.84152" lon="7.08349">
        <ele>455.60000610352</ele>
        <time>2020-03-08T10:27:23.000Z</time>
      </trkpt>
      <trkpt lat="47.84153" lon="7.0835">
        <ele>456</ele>
        <time>2020-03-08T10:27:24.000Z</time>
      </trkpt>
      <trkpt lat="47.84154" lon="7.08351">
        <ele>456.39999389648</ele>
        <time>2020-03-08T10:27:25.000Z</time>
      </trkpt>
      <trkpt lat="47.84155" lon="7.08353">
        <ele>456.79998779297</ele>
        <time>2020-03-08T10:27:26.000Z</time>
      </trkpt>
      <trkpt lat="47.84161" lon="7.08368">
        <ele>456.79998779297</ele>
        <time>2020-03-08T10:27:31.000Z</time>
      </trkpt>
      <trkpt lat="47.84172" lon="7.08394">
        <ele>456.79998779297</ele>
        <time>2020-03-08T10:27:37.000Z</time>
      </trkpt>
      <trkpt lat="47.84181" lon="7.08436">
        <ele>456.79998779297</ele>
        <time>2020-03-08T10:27:45.000Z</time>
      </trkpt>
      <trkpt lat="47.84189" lon="7.08472">
        <ele>456.79998779297</ele>
        <time>2020-03-08T10:27:53.000Z</time>
      </trkpt>
      <trkpt lat="47.84196" lon="7.08509">
        <ele>456.79998779297</ele>
        <time>2020-03-08T10:28:01.000Z</time>
      </trkpt>
      <trkpt lat="47.84202" lon="7.08541">
        <ele>456.79998779297</ele>
        <time>2020-03-08T10:28:08.000Z</time>
      </trkpt>
      <trkpt lat="47.84208" lon="7.0858">
        <ele>456.79998779297</ele>
        <time>2020-03-08T10:28:14.000Z</time>
      </trkpt>
      <trkpt lat="47.84212" lon="7.08616">
        <ele>456.39999389648</ele>
        <time>2020-03-08T10:28:19.000Z</time>
      </trkpt>
      <trkpt lat="47.84213" lon="7.08624">
        <ele>456</ele>
        <time>2020-03-08T10:28:20.000Z</time>
      </trkpt>
      <trkpt lat="47.84214" lon="7.08631">
        <ele>455.60000610352</ele>
        <time>2020-03-08T10:28:21.000Z</time>
      </trkpt>
      <trkpt lat="47.84215" lon="7.08639">
        <ele>455.20001220703</ele>
        <time>2020-03-08T10:28:22.000Z</time>
      </trkpt>
      <trkpt lat="47.84216" lon="7.08646">
        <ele>454.79998779297</ele>
        <time>2020-03-08T10:28:23.000Z</time>
      </trkpt>
      <trkpt lat="47.84218" lon="7.08652">
        <ele>454.79998779297</ele>
        <time>2020-03-08T10:28:24.000Z</time>
      </trkpt>
      <trkpt lat="47.84222" lon="7.08672">
        <ele>454.79998779297</ele>
        <time>2020-03-08T10:28:27.000Z</time>
      </trkpt>
      <trkpt lat="47.84238" lon="7.08717">
        <ele>454.79998779297</ele>
        <time>2020-03-08T10:28:34.000Z</time>
      </trkpt>
      <trkpt lat="47.84244" lon="7.08731">
        <ele>454.79998779297</ele>
        <time>2020-03-08T10:28:38.000Z</time>
      </trkpt>
      <trkpt lat="47.84255" lon="7.08753">
        <ele>454.79998779297</ele>
        <time>2020-03-08T10:28:45.000Z</time>
      </trkpt>
      <trkpt lat="47.84261" lon="7.08765">
        <ele>455.20001220703</ele>
        <time>2020-03-08T10:28:49.000Z</time>
      </trkpt>
      <trkpt lat="47.84262" lon="7.08768">
        <ele>456</ele>
        <time>2020-03-08T10:28:50.000Z</time>
      </trkpt>
      <trkpt lat="47.84263" lon="7.08771">
        <ele>456.39999389648</ele>
        <time>2020-03-08T10:28:51.000Z</time>
      </trkpt>
      <trkpt lat="47.84263" lon="7.08774">
        <ele>456.79998779297</ele>
        <time>2020-03-08T10:28:52.000Z</time>
      </trkpt>
      <trkpt lat="47.84265" lon="7.08785">
        <ele>456.79998779297</ele>
        <time>2020-03-08T10:28:56.000Z</time>
      </trkpt>
      <trkpt lat="47.84266" lon="7.08788">
        <ele>456.79998779297</ele>
        <time>2020-03-08T10:28:57.000Z</time>
      </trkpt>
      <trkpt lat="47.84268" lon="7.08798">
        <ele>457.39999389648</ele>
        <time>2020-03-08T10:29:00.000Z</time>
      </trkpt>
      <trkpt lat="47.84268" lon="7.08801">
        <ele>457.79998779297</ele>
        <time>2020-03-08T10:29:01.000Z</time>
      </trkpt>
      <trkpt lat="47.84269" lon="7.08803">
        <ele>458.20001220703</ele>
        <time>2020-03-08T10:29:02.000Z</time>
      </trkpt>
      <trkpt lat="47.84271" lon="7.08805">
        <ele>458.60000610352</ele>
        <time>2020-03-08T10:29:03.000Z</time>
      </trkpt>
      <trkpt lat="47.84273" lon="7.08807">
        <ele>459</ele>
        <time>2020-03-08T10:29:04.000Z</time>
      </trkpt>
      <trkpt lat="47.84283" lon="7.08827">
        <ele>459</ele>
        <time>2020-03-08T10:29:11.000Z</time>
      </trkpt>
      <trkpt lat="47.84286" lon="7.08838">
        <ele>459.39999389648</ele>
        <time>2020-03-08T10:29:14.000Z</time>
      </trkpt>
      <trkpt lat="47.84287" lon="7.08841">
        <ele>460.39999389648</ele>
        <time>2020-03-08T10:29:15.000Z</time>
      </trkpt>
      <trkpt lat="47.84288" lon="7.08844">
        <ele>460.79998779297</ele>
        <time>2020-03-08T10:29:16.000Z</time>
      </trkpt>
      <trkpt lat="47.84291" lon="7.08847">
        <ele>461.20001220703</ele>
        <time>2020-03-08T10:29:17.000Z</time>
      </trkpt>
      <trkpt lat="47.84293" lon="7.08851">
        <ele>461.20001220703</ele>
        <time>2020-03-08T10:29:18.000Z</time>
      </trkpt>
      <trkpt lat="47.84299" lon="7.08861">
        <ele>461.60000610352</ele>
        <time>2020-03-08T10:29:21.000Z</time>
      </trkpt>
      <trkpt lat="47.84301" lon="7.08864">
        <ele>462</ele>
        <time>2020-03-08T10:29:22.000Z</time>
      </trkpt>
      <trkpt lat="47.84303" lon="7.08866">
        <ele>462.39999389648</ele>
        <time>2020-03-08T10:29:23.000Z</time>
      </trkpt>
      <trkpt lat="47.84305" lon="7.08868">
        <ele>462.79998779297</ele>
        <time>2020-03-08T10:29:24.000Z</time>
      </trkpt>
      <trkpt lat="47.84306" lon="7.08869">
        <ele>463.20001220703</ele>
        <time>2020-03-08T10:29:25.000Z</time>
      </trkpt>
      <trkpt lat="47.84315" lon="7.08882">
        <ele>463.20001220703</ele>
        <time>2020-03-08T10:29:30.000Z</time>
      </trkpt>
      <trkpt lat="47.84317" lon="7.08885">
        <ele>463.60000610352</ele>
        <time>2020-03-08T10:29:31.000Z</time>
      </trkpt>
      <trkpt lat="47.8432" lon="7.08888">
        <ele>464.20001220703</ele>
        <time>2020-03-08T10:29:32.000Z</time>
      </trkpt>
      <trkpt lat="47.84322" lon="7.0889">
        <ele>464.60000610352</ele>
        <time>2020-03-08T10:29:33.000Z</time>
      </trkpt>
      <trkpt lat="47.84324" lon="7.08893">
        <ele>465</ele>
        <time>2020-03-08T10:29:34.000Z</time>
      </trkpt>
      <trkpt lat="47.84325" lon="7.08897">
        <ele>465.39999389648</ele>
        <time>2020-03-08T10:29:35.000Z</time>
      </trkpt>
      <trkpt lat="47.8433" lon="7.08915">
        <ele>465.39999389648</ele>
        <time>2020-03-08T10:29:40.000Z</time>
      </trkpt>
      <trkpt lat="47.8434" lon="7.08926">
        <ele>465.39999389648</ele>
        <time>2020-03-08T10:29:43.000Z</time>
      </trkpt>
      <trkpt lat="47.84342" lon="7.08929">
        <ele>465.39999389648</ele>
        <time>2020-03-08T10:29:44.000Z</time>
      </trkpt>
      <trkpt lat="47.84361" lon="7.0895">
        <ele>465.39999389648</ele>
        <time>2020-03-08T10:29:51.000Z</time>
      </trkpt>
      <trkpt lat="47.84362" lon="7.08963">
        <ele>465.39999389648</ele>
        <time>2020-03-08T10:29:53.000Z</time>
      </trkpt>
      <trkpt lat="47.84361" lon="7.0897">
        <ele>465.39999389648</ele>
        <time>2020-03-08T10:29:54.000Z</time>
      </trkpt>
      <trkpt lat="47.84357" lon="7.08982">
        <ele>465</ele>
        <time>2020-03-08T10:29:56.000Z</time>
      </trkpt>
      <trkpt lat="47.84354" lon="7.08986">
        <ele>464.60000610352</ele>
        <time>2020-03-08T10:29:57.000Z</time>
      </trkpt>
      <trkpt lat="47.8435" lon="7.0899">
        <ele>464.20001220703</ele>
        <time>2020-03-08T10:29:58.000Z</time>
      </trkpt>
      <trkpt lat="47.84344" lon="7.08991">
        <ele>463.79998779297</ele>
        <time>2020-03-08T10:29:59.000Z</time>
      </trkpt>
      <trkpt lat="47.84339" lon="7.08994">
        <ele>463.39999389648</ele>
        <time>2020-03-08T10:30:00.000Z</time>
      </trkpt>
      <trkpt lat="47.84333" lon="7.08995">
        <ele>463.39999389648</ele>
        <time>2020-03-08T10:30:01.000Z</time>
      </trkpt>
      <trkpt lat="47.84328" lon="7.08998">
        <ele>463.39999389648</ele>
        <time>2020-03-08T10:30:02.000Z</time>
      </trkpt>
      <trkpt lat="47.84322" lon="7.08999">
        <ele>463</ele>
        <time>2020-03-08T10:30:03.000Z</time>
      </trkpt>
      <trkpt lat="47.84317" lon="7.08999">
        <ele>462.39999389648</ele>
        <time>2020-03-08T10:30:04.000Z</time>
      </trkpt>
      <trkpt lat="47.84311" lon="7.09">
        <ele>461.39999389648</ele>
        <time>2020-03-08T10:30:05.000Z</time>
      </trkpt>
      <trkpt lat="47.84305" lon="7.09002">
        <ele>461</ele>
        <time>2020-03-08T10:30:06.000Z</time>
      </trkpt>
      <trkpt lat="47.84293" lon="7.0901">
        <ele>460.60000610352</ele>
        <time>2020-03-08T10:30:08.000Z</time>
      </trkpt>
      <trkpt lat="47.84288" lon="7.09017">
        <ele>460.20001220703</ele>
        <time>2020-03-08T10:30:09.000Z</time>
      </trkpt>
      <trkpt lat="47.84285" lon="7.09026">
        <ele>459.60000610352</ele>
        <time>2020-03-08T10:30:10.000Z</time>
      </trkpt>
      <trkpt lat="47.84283" lon="7.09036">
        <ele>459.20001220703</ele>
        <time>2020-03-08T10:30:11.000Z</time>
      </trkpt>
      <trkpt lat="47.84281" lon="7.09046">
        <ele>458.79998779297</ele>
        <time>2020-03-08T10:30:12.000Z</time>
      </trkpt>
      <trkpt lat="47.84279" lon="7.09056">
        <ele>458.39999389648</ele>
        <time>2020-03-08T10:30:13.000Z</time>
      </trkpt>
      <trkpt lat="47.84277" lon="7.09066">
        <ele>457.79998779297</ele>
        <time>2020-03-08T10:30:14.000Z</time>
      </trkpt>
      <trkpt lat="47.84274" lon="7.09077">
        <ele>457.39999389648</ele>
        <time>2020-03-08T10:30:15.000Z</time>
      </trkpt>
      <trkpt lat="47.84272" lon="7.09088">
        <ele>457</ele>
        <time>2020-03-08T10:30:16.000Z</time>
      </trkpt>
      <trkpt lat="47.8427" lon="7.09098">
        <ele>456.60000610352</ele>
        <time>2020-03-08T10:30:17.000Z</time>
      </trkpt>
      <trkpt lat="47.84269" lon="7.09109">
        <ele>456.60000610352</ele>
        <time>2020-03-08T10:30:18.000Z</time>
      </trkpt>
      <trkpt lat="47.8427" lon="7.09121">
        <ele>456</ele>
        <time>2020-03-08T10:30:19.000Z</time>
      </trkpt>
      <trkpt lat="47.84271" lon="7.09132">
        <ele>455.60000610352</ele>
        <time>2020-03-08T10:30:20.000Z</time>
      </trkpt>
      <trkpt lat="47.84273" lon="7.09144">
        <ele>455.20001220703</ele>
        <time>2020-03-08T10:30:21.000Z</time>
      </trkpt>
      <trkpt lat="47.84277" lon="7.09154">
        <ele>454.60000610352</ele>
        <time>2020-03-08T10:30:22.000Z</time>
      </trkpt>
      <trkpt lat="47.84281" lon="7.09165">
        <ele>454</ele>
        <time>2020-03-08T10:30:23.000Z</time>
      </trkpt>
      <trkpt lat="47.84285" lon="7.09175">
        <ele>453.39999389648</ele>
        <time>2020-03-08T10:30:24.000Z</time>
      </trkpt>
      <trkpt lat="47.84288" lon="7.09185">
        <ele>452.79998779297</ele>
        <time>2020-03-08T10:30:25.000Z</time>
      </trkpt>
      <trkpt lat="47.84293" lon="7.09195">
        <ele>452.20001220703</ele>
        <time>2020-03-08T10:30:26.000Z</time>
      </trkpt>
      <trkpt lat="47.84297" lon="7.09205">
        <ele>451.60000610352</ele>
        <time>2020-03-08T10:30:27.000Z</time>
      </trkpt>
      <trkpt lat="47.84308" lon="7.09226">
        <ele>450.60000610352</ele>
        <time>2020-03-08T10:30:29.000Z</time>
      </trkpt>
      <trkpt lat="47.84313" lon="7.09235">
        <ele>450</ele>
        <time>2020-03-08T10:30:30.000Z</time>
      </trkpt>
      <trkpt lat="47.8432" lon="7.09244">
        <ele>449.39999389648</ele>
        <time>2020-03-08T10:30:31.000Z</time>
      </trkpt>
      <trkpt lat="47.84326" lon="7.09253">
        <ele>449</ele>
        <time>2020-03-08T10:30:32.000Z</time>
      </trkpt>
      <trkpt lat="47.84332" lon="7.09263">
        <ele>448.39999389648</ele>
        <time>2020-03-08T10:30:33.000Z</time>
      </trkpt>
      <trkpt lat="47.84337" lon="7.09273">
        <ele>447.79998779297</ele>
        <time>2020-03-08T10:30:34.000Z</time>
      </trkpt>
      <trkpt lat="47.84341" lon="7.09281">
        <ele>447.20001220703</ele>
        <time>2020-03-08T10:30:35.000Z</time>
      </trkpt>
      <trkpt lat="47.84345" lon="7.09291">
        <ele>446.79998779297</ele>
        <time>2020-03-08T10:30:36.000Z</time>
      </trkpt>
      <trkpt lat="47.84347" lon="7.09312">
        <ele>446.39999389648</ele>
        <time>2020-03-08T10:30:38.000Z</time>
      </trkpt>
      <trkpt lat="47.84346" lon="7.09322">
        <ele>446</ele>
        <time>2020-03-08T10:30:39.000Z</time>
      </trkpt>
      <trkpt lat="47.84343" lon="7.09332">
        <ele>445.39999389648</ele>
        <time>2020-03-08T10:30:40.000Z</time>
      </trkpt>
      <trkpt lat="47.8434" lon="7.09341">
        <ele>445</ele>
        <time>2020-03-08T10:30:41.000Z</time>
      </trkpt>
      <trkpt lat="47.84339" lon="7.09352">
        <ele>444.60000610352</ele>
        <time>2020-03-08T10:30:42.000Z</time>
      </trkpt>
      <trkpt lat="47.84334" lon="7.09368">
        <ele>444.60000610352</ele>
        <time>2020-03-08T10:30:44.000Z</time>
      </trkpt>
      <trkpt lat="47.84332" lon="7.09376">
        <ele>444.60000610352</ele>
        <time>2020-03-08T10:30:45.000Z</time>
      </trkpt>
      <trkpt lat="47.8433" lon="7.09386">
        <ele>444.20001220703</ele>
        <time>2020-03-08T10:30:46.000Z</time>
      </trkpt>
      <trkpt lat="47.8433" lon="7.09395">
        <ele>443.79998779297</ele>
        <time>2020-03-08T10:30:47.000Z</time>
      </trkpt>
      <trkpt lat="47.84329" lon="7.09405">
        <ele>443.39999389648</ele>
        <time>2020-03-08T10:30:48.000Z</time>
      </trkpt>
      <trkpt lat="47.84328" lon="7.09414">
        <ele>443</ele>
        <time>2020-03-08T10:30:49.000Z</time>
      </trkpt>
      <trkpt lat="47.84327" lon="7.09424">
        <ele>442.60000610352</ele>
        <time>2020-03-08T10:30:50.000Z</time>
      </trkpt>
      <trkpt lat="47.84329" lon="7.09456">
        <ele>442.60000610352</ele>
        <time>2020-03-08T10:30:54.000Z</time>
      </trkpt>
      <trkpt lat="47.84329" lon="7.09464">
        <ele>442.20001220703</ele>
        <time>2020-03-08T10:30:55.000Z</time>
      </trkpt>
      <trkpt lat="47.84329" lon="7.0947">
        <ele>441.79998779297</ele>
        <time>2020-03-08T10:30:56.000Z</time>
      </trkpt>
      <trkpt lat="47.8433" lon="7.09477">
        <ele>441.39999389648</ele>
        <time>2020-03-08T10:30:57.000Z</time>
      </trkpt>
      <trkpt lat="47.84331" lon="7.09483">
        <ele>441</ele>
        <time>2020-03-08T10:30:58.000Z</time>
      </trkpt>
      <trkpt lat="47.8433" lon="7.09489">
        <ele>440.60000610352</ele>
        <time>2020-03-08T10:30:59.000Z</time>
      </trkpt>
      <trkpt lat="47.84324" lon="7.09498">
        <ele>440.60000610352</ele>
        <time>2020-03-08T10:31:02.000Z</time>
      </trkpt>
      <trkpt lat="47.84315" lon="7.09493">
        <ele>440.60000610352</ele>
        <time>2020-03-08T10:31:05.000Z</time>
      </trkpt>
      <trkpt lat="47.84312" lon="7.09484">
        <ele>440.20001220703</ele>
        <time>2020-03-08T10:31:07.000Z</time>
      </trkpt>
      <trkpt lat="47.84311" lon="7.09479">
        <ele>439.79998779297</ele>
        <time>2020-03-08T10:31:08.000Z</time>
      </trkpt>
      <trkpt lat="47.8431" lon="7.09472">
        <ele>439.39999389648</ele>
        <time>2020-03-08T10:31:09.000Z</time>
      </trkpt>
      <trkpt lat="47.84309" lon="7.09466">
        <ele>438.79998779297</ele>
        <time>2020-03-08T10:31:10.000Z</time>
      </trkpt>
      <trkpt lat="47.84308" lon="7.0946">
        <ele>438.39999389648</ele>
        <time>2020-03-08T10:31:11.000Z</time>
      </trkpt>
      <trkpt lat="47.84304" lon="7.09442">
        <ele>438</ele>
        <time>2020-03-08T10:31:14.000Z</time>
      </trkpt>
      <trkpt lat="47.84302" lon="7.09436">
        <ele>437.60000610352</ele>
        <time>2020-03-08T10:31:15.000Z</time>
      </trkpt>
      <trkpt lat="47.84301" lon="7.09429">
        <ele>437.20001220703</ele>
        <time>2020-03-08T10:31:16.000Z</time>
      </trkpt>
      <trkpt lat="47.843" lon="7.09421">
        <ele>436.79998779297</ele>
        <time>2020-03-08T10:31:17.000Z</time>
      </trkpt>
      <trkpt lat="47.84298" lon="7.09414">
        <ele>436.39999389648</ele>
        <time>2020-03-08T10:31:18.000Z</time>
      </trkpt>
      <trkpt lat="47.84293" lon="7.0939">
        <ele>436</ele>
        <time>2020-03-08T10:31:21.000Z</time>
      </trkpt>
      <trkpt lat="47.84291" lon="7.09383">
        <ele>435.60000610352</ele>
        <time>2020-03-08T10:31:22.000Z</time>
      </trkpt>
      <trkpt lat="47.8429" lon="7.09375">
        <ele>435.20001220703</ele>
        <time>2020-03-08T10:31:23.000Z</time>
      </trkpt>
      <trkpt lat="47.84288" lon="7.09367">
        <ele>434.60000610352</ele>
        <time>2020-03-08T10:31:24.000Z</time>
      </trkpt>
      <trkpt lat="47.84287" lon="7.09359">
        <ele>434.20001220703</ele>
        <time>2020-03-08T10:31:25.000Z</time>
      </trkpt>
      <trkpt lat="47.84285" lon="7.09351">
        <ele>433.79998779297</ele>
        <time>2020-03-08T10:31:26.000Z</time>
      </trkpt>
      <trkpt lat="47.84283" lon="7.09343">
        <ele>433.39999389648</ele>
        <time>2020-03-08T10:31:27.000Z</time>
      </trkpt>
      <trkpt lat="47.8428" lon="7.09334">
        <ele>433</ele>
        <time>2020-03-08T10:31:28.000Z</time>
      </trkpt>
      <trkpt lat="47.84278" lon="7.09323">
        <ele>432.60000610352</ele>
        <time>2020-03-08T10:31:29.000Z</time>
      </trkpt>
      <trkpt lat="47.84275" lon="7.09315">
        <ele>432</ele>
        <time>2020-03-08T10:31:30.000Z</time>
      </trkpt>
      <trkpt lat="47.84271" lon="7.09308">
        <ele>431.60000610352</ele>
        <time>2020-03-08T10:31:31.000Z</time>
      </trkpt>
      <trkpt lat="47.84266" lon="7.09302">
        <ele>431</ele>
        <time>2020-03-08T10:31:32.000Z</time>
      </trkpt>
      <trkpt lat="47.84261" lon="7.09297">
        <ele>430.60000610352</ele>
        <time>2020-03-08T10:31:33.000Z</time>
      </trkpt>
      <trkpt lat="47.84255" lon="7.09292">
        <ele>430</ele>
        <time>2020-03-08T10:31:34.000Z</time>
      </trkpt>
      <trkpt lat="47.8425" lon="7.09288">
        <ele>429.39999389648</ele>
        <time>2020-03-08T10:31:35.000Z</time>
      </trkpt>
      <trkpt lat="47.84245" lon="7.09283">
        <ele>428.79998779297</ele>
        <time>2020-03-08T10:31:36.000Z</time>
      </trkpt>
      <trkpt lat="47.8424" lon="7.09278">
        <ele>428.20001220703</ele>
        <time>2020-03-08T10:31:37.000Z</time>
      </trkpt>
      <trkpt lat="47.84234" lon="7.09271">
        <ele>427.60000610352</ele>
        <time>2020-03-08T10:31:38.000Z</time>
      </trkpt>
      <trkpt lat="47.84229" lon="7.09264">
        <ele>427.20001220703</ele>
        <time>2020-03-08T10:31:39.000Z</time>
      </trkpt>
      <trkpt lat="47.84223" lon="7.09256">
        <ele>426.79998779297</ele>
        <time>2020-03-08T10:31:40.000Z</time>
      </trkpt>
      <trkpt lat="47.84218" lon="7.09249">
        <ele>426.20001220703</ele>
        <time>2020-03-08T10:31:41.000Z</time>
      </trkpt>
      <trkpt lat="47.84213" lon="7.0924">
        <ele>425.79998779297</ele>
        <time>2020-03-08T10:31:42.000Z</time>
      </trkpt>
      <trkpt lat="47.84209" lon="7.09232">
        <ele>425.39999389648</ele>
        <time>2020-03-08T10:31:43.000Z</time>
      </trkpt>
      <trkpt lat="47.84204" lon="7.09223">
        <ele>424.79998779297</ele>
        <time>2020-03-08T10:31:44.000Z</time>
      </trkpt>
      <trkpt lat="47.842" lon="7.09213">
        <ele>424.39999389648</ele>
        <time>2020-03-08T10:31:45.000Z</time>
      </trkpt>
      <trkpt lat="47.84196" lon="7.09204">
        <ele>423.79998779297</ele>
        <time>2020-03-08T10:31:46.000Z</time>
      </trkpt>
      <trkpt lat="47.84192" lon="7.09194">
        <ele>423.20001220703</ele>
        <time>2020-03-08T10:31:47.000Z</time>
      </trkpt>
      <trkpt lat="47.84188" lon="7.09185">
        <ele>422.79998779297</ele>
        <time>2020-03-08T10:31:48.000Z</time>
      </trkpt>
      <trkpt lat="47.84181" lon="7.09167">
        <ele>422.39999389648</ele>
        <time>2020-03-08T10:31:50.000Z</time>
      </trkpt>
      <trkpt lat="47.84178" lon="7.09158">
        <ele>421.79998779297</ele>
        <time>2020-03-08T10:31:51.000Z</time>
      </trkpt>
      <trkpt lat="47.84175" lon="7.09148">
        <ele>421.39999389648</ele>
        <time>2020-03-08T10:31:52.000Z</time>
      </trkpt>
      <trkpt lat="47.84173" lon="7.09139">
        <ele>421</ele>
        <time>2020-03-08T10:31:53.000Z</time>
      </trkpt>
      <trkpt lat="47.8417" lon="7.0913">
        <ele>420.60000610352</ele>
        <time>2020-03-08T10:31:54.000Z</time>
      </trkpt>
      <trkpt lat="47.84164" lon="7.09111">
        <ele>420.20001220703</ele>
        <time>2020-03-08T10:31:56.000Z</time>
      </trkpt>
      <trkpt lat="47.84161" lon="7.09102">
        <ele>419.79998779297</ele>
        <time>2020-03-08T10:31:57.000Z</time>
      </trkpt>
      <trkpt lat="47.84158" lon="7.09093">
        <ele>419.20001220703</ele>
        <time>2020-03-08T10:31:58.000Z</time>
      </trkpt>
      <trkpt lat="47.84155" lon="7.09083">
        <ele>418.79998779297</ele>
        <time>2020-03-08T10:31:59.000Z</time>
      </trkpt>
      <trkpt lat="47.84152" lon="7.09074">
        <ele>418.39999389648</ele>
        <time>2020-03-08T10:32:00.000Z</time>
      </trkpt>
      <trkpt lat="47.84149" lon="7.09064">
        <ele>418</ele>
        <time>2020-03-08T10:32:01.000Z</time>
      </trkpt>
      <trkpt lat="47.84147" lon="7.09055">
        <ele>417.60000610352</ele>
        <time>2020-03-08T10:32:02.000Z</time>
      </trkpt>
      <trkpt lat="47.84144" lon="7.09046">
        <ele>417.20001220703</ele>
        <time>2020-03-08T10:32:03.000Z</time>
      </trkpt>
      <trkpt lat="47.84141" lon="7.09037">
        <ele>416.79998779297</ele>
        <time>2020-03-08T10:32:04.000Z</time>
      </trkpt>
      <trkpt lat="47.84138" lon="7.09027">
        <ele>416.39999389648</ele>
        <time>2020-03-08T10:32:05.000Z</time>
      </trkpt>
      <trkpt lat="47.84133" lon="7.09008">
        <ele>416</ele>
        <time>2020-03-08T10:32:07.000Z</time>
      </trkpt>
      <trkpt lat="47.8413" lon="7.08998">
        <ele>415.20001220703</ele>
        <time>2020-03-08T10:32:08.000Z</time>
      </trkpt>
      <trkpt lat="47.84128" lon="7.08988">
        <ele>414.79998779297</ele>
        <time>2020-03-08T10:32:09.000Z</time>
      </trkpt>
      <trkpt lat="47.84126" lon="7.08979">
        <ele>414.20001220703</ele>
        <time>2020-03-08T10:32:10.000Z</time>
      </trkpt>
      <trkpt lat="47.8412" lon="7.08961">
        <ele>413.79998779297</ele>
        <time>2020-03-08T10:32:12.000Z</time>
      </trkpt>
      <trkpt lat="47.84118" lon="7.08951">
        <ele>413.39999389648</ele>
        <time>2020-03-08T10:32:13.000Z</time>
      </trkpt>
      <trkpt lat="47.84116" lon="7.0894">
        <ele>412.79998779297</ele>
        <time>2020-03-08T10:32:14.000Z</time>
      </trkpt>
      <trkpt lat="47.84114" lon="7.08928">
        <ele>412.39999389648</ele>
        <time>2020-03-08T10:32:15.000Z</time>
      </trkpt>
      <trkpt lat="47.84112" lon="7.08917">
        <ele>411.79998779297</ele>
        <time>2020-03-08T10:32:16.000Z</time>
      </trkpt>
      <trkpt lat="47.84109" lon="7.08907">
        <ele>411.39999389648</ele>
        <time>2020-03-08T10:32:17.000Z</time>
      </trkpt>
      <trkpt lat="47.84105" lon="7.08899">
        <ele>410.79998779297</ele>
        <time>2020-03-08T10:32:18.000Z</time>
      </trkpt>
      <trkpt lat="47.841" lon="7.08892">
        <ele>410.20001220703</ele>
        <time>2020-03-08T10:32:19.000Z</time>
      </trkpt>
      <trkpt lat="47.84095" lon="7.08884">
        <ele>409.79998779297</ele>
        <time>2020-03-08T10:32:20.000Z</time>
      </trkpt>
      <trkpt lat="47.84089" lon="7.08877">
        <ele>409.20001220703</ele>
        <time>2020-03-08T10:32:21.000Z</time>
      </trkpt>
      <trkpt lat="47.84082" lon="7.08869">
        <ele>408.79998779297</ele>
        <time>2020-03-08T10:32:22.000Z</time>
      </trkpt>
      <trkpt lat="47.84075" lon="7.08861">
        <ele>408.20001220703</ele>
        <time>2020-03-08T10:32:23.000Z</time>
      </trkpt>
      <trkpt lat="47.84068" lon="7.08853">
        <ele>407.60000610352</ele>
        <time>2020-03-08T10:32:24.000Z</time>
      </trkpt>
      <trkpt lat="47.84062" lon="7.08845">
        <ele>407</ele>
        <time>2020-03-08T10:32:25.000Z</time>
      </trkpt>
      <trkpt lat="47.84057" lon="7.08835">
        <ele>406.20001220703</ele>
        <time>2020-03-08T10:32:26.000Z</time>
      </trkpt>
      <trkpt lat="47.84053" lon="7.08824">
        <ele>405.60000610352</ele>
        <time>2020-03-08T10:32:27.000Z</time>
      </trkpt>
      <trkpt lat="47.84049" lon="7.08812">
        <ele>404.79998779297</ele>
        <time>2020-03-08T10:32:28.000Z</time>
      </trkpt>
      <trkpt lat="47.84044" lon="7.08789">
        <ele>404.39999389648</ele>
        <time>2020-03-08T10:32:30.000Z</time>
      </trkpt>
      <trkpt lat="47.84041" lon="7.08777">
        <ele>404</ele>
        <time>2020-03-08T10:32:31.000Z</time>
      </trkpt>
      <trkpt lat="47.84039" lon="7.08764">
        <ele>403.20001220703</ele>
        <time>2020-03-08T10:32:32.000Z</time>
      </trkpt>
      <trkpt lat="47.84037" lon="7.08753">
        <ele>402.79998779297</ele>
        <time>2020-03-08T10:32:33.000Z</time>
      </trkpt>
      <trkpt lat="47.84036" lon="7.08741">
        <ele>402.20001220703</ele>
        <time>2020-03-08T10:32:34.000Z</time>
      </trkpt>
      <trkpt lat="47.84034" lon="7.08729">
        <ele>401.79998779297</ele>
        <time>2020-03-08T10:32:35.000Z</time>
      </trkpt>
      <trkpt lat="47.84032" lon="7.08717">
        <ele>401.39999389648</ele>
        <time>2020-03-08T10:32:36.000Z</time>
      </trkpt>
      <trkpt lat="47.8403" lon="7.08706">
        <ele>400.79998779297</ele>
        <time>2020-03-08T10:32:37.000Z</time>
      </trkpt>
      <trkpt lat="47.84028" lon="7.08694">
        <ele>400.39999389648</ele>
        <time>2020-03-08T10:32:38.000Z</time>
      </trkpt>
      <trkpt lat="47.84026" lon="7.08683">
        <ele>399.79998779297</ele>
        <time>2020-03-08T10:32:39.000Z</time>
      </trkpt>
      <trkpt lat="47.84023" lon="7.08672">
        <ele>399.39999389648</ele>
        <time>2020-03-08T10:32:40.000Z</time>
      </trkpt>
      <trkpt lat="47.84022" lon="7.08661">
        <ele>399</ele>
        <time>2020-03-08T10:32:41.000Z</time>
      </trkpt>
      <trkpt lat="47.8402" lon="7.0865">
        <ele>398.39999389648</ele>
        <time>2020-03-08T10:32:42.000Z</time>
      </trkpt>
      <trkpt lat="47.84017" lon="7.08639">
        <ele>398</ele>
        <time>2020-03-08T10:32:43.000Z</time>
      </trkpt>
      <trkpt lat="47.84016" lon="7.08628">
        <ele>397.39999389648</ele>
        <time>2020-03-08T10:32:44.000Z</time>
      </trkpt>
      <trkpt lat="47.84014" lon="7.08616">
        <ele>397</ele>
        <time>2020-03-08T10:32:45.000Z</time>
      </trkpt>
      <trkpt lat="47.84013" lon="7.08603">
        <ele>396.60000610352</ele>
        <time>2020-03-08T10:32:46.000Z</time>
      </trkpt>
      <trkpt lat="47.84011" lon="7.08591">
        <ele>396</ele>
        <time>2020-03-08T10:32:47.000Z</time>
      </trkpt>
      <trkpt lat="47.84006" lon="7.08567">
        <ele>396</ele>
        <time>2020-03-08T10:32:49.000Z</time>
      </trkpt>
      <trkpt lat="47.84002" lon="7.08554">
        <ele>395.60000610352</ele>
        <time>2020-03-08T10:32:50.000Z</time>
      </trkpt>
      <trkpt lat="47.83998" lon="7.08542">
        <ele>395</ele>
        <time>2020-03-08T10:32:51.000Z</time>
      </trkpt>
      <trkpt lat="47.83994" lon="7.08531">
        <ele>394.60000610352</ele>
        <time>2020-03-08T10:32:52.000Z</time>
      </trkpt>
      <trkpt lat="47.8399" lon="7.08521">
        <ele>394</ele>
        <time>2020-03-08T10:32:53.000Z</time>
      </trkpt>
      <trkpt lat="47.83986" lon="7.08512">
        <ele>393.39999389648</ele>
        <time>2020-03-08T10:32:54.000Z</time>
      </trkpt>
      <trkpt lat="47.83982" lon="7.08504">
        <ele>393</ele>
        <time>2020-03-08T10:32:55.000Z</time>
      </trkpt>
      <trkpt lat="47.83976" lon="7.08497">
        <ele>392.20001220703</ele>
        <time>2020-03-08T10:32:56.000Z</time>
      </trkpt>
      <trkpt lat="47.83971" lon="7.0849">
        <ele>391.79998779297</ele>
        <time>2020-03-08T10:32:57.000Z</time>
      </trkpt>
      <trkpt lat="47.83966" lon="7.08483">
        <ele>391.39999389648</ele>
        <time>2020-03-08T10:32:58.000Z</time>
      </trkpt>
      <trkpt lat="47.83961" lon="7.08475">
        <ele>391.39999389648</ele>
        <time>2020-03-08T10:32:59.000Z</time>
      </trkpt>
      <trkpt lat="47.83939" lon="7.08435">
        <ele>391</ele>
        <time>2020-03-08T10:33:03.000Z</time>
      </trkpt>
      <trkpt lat="47.83934" lon="7.08427">
        <ele>390.60000610352</ele>
        <time>2020-03-08T10:33:04.000Z</time>
      </trkpt>
      <trkpt lat="47.83931" lon="7.08419">
        <ele>390.20001220703</ele>
        <time>2020-03-08T10:33:05.000Z</time>
      </trkpt>
      <trkpt lat="47.83928" lon="7.08412">
        <ele>389.60000610352</ele>
        <time>2020-03-08T10:33:06.000Z</time>
      </trkpt>
      <trkpt lat="47.83927" lon="7.08406">
        <ele>389.20001220703</ele>
        <time>2020-03-08T10:33:07.000Z</time>
      </trkpt>
      <trkpt lat="47.83925" lon="7.08401">
        <ele>389.20001220703</ele>
        <time>2020-03-08T10:33:08.000Z</time>
      </trkpt>
      <trkpt lat="47.83916" lon="7.08395">
        <ele>389.20001220703</ele>
        <time>2020-03-08T10:33:12.000Z</time>
      </trkpt>
      <trkpt lat="47.83909" lon="7.08402">
        <ele>389.20001220703</ele>
        <time>2020-03-08T10:33:16.000Z</time>
      </trkpt>
      <trkpt lat="47.83908" lon="7.08404">
        <ele>389.20001220703</ele>
        <time>2020-03-08T10:33:17.000Z</time>
      </trkpt>
      <trkpt lat="47.83905" lon="7.08406">
        <ele>389.20001220703</ele>
        <time>2020-03-08T10:33:21.000Z</time>
      </trkpt>
      <trkpt lat="47.83909" lon="7.08402">
        <ele>389.20001220703</ele>
        <time>2020-03-08T10:33:26.000Z</time>
      </trkpt>
      <trkpt lat="47.83918" lon="7.08395">
        <ele>389.20001220703</ele>
        <time>2020-03-08T10:33:31.000Z</time>
      </trkpt>
      <trkpt lat="47.8392" lon="7.08394">
        <ele>389.20001220703</ele>
        <time>2020-03-08T10:33:33.000Z</time>
      </trkpt>
      <trkpt lat="47.83922" lon="7.08391">
        <ele>389.20001220703</ele>
        <time>2020-03-08T10:33:36.000Z</time>
      </trkpt>
      <trkpt lat="47.83924" lon="7.08388">
        <ele>389.20001220703</ele>
        <time>2020-03-08T10:33:39.000Z</time>
      </trkpt>
      <trkpt lat="47.83926" lon="7.08382">
        <ele>389.20001220703</ele>
        <time>2020-03-08T10:33:41.000Z</time>
      </trkpt>
      <trkpt lat="47.83926" lon="7.0837">
        <ele>389.20001220703</ele>
        <time>2020-03-08T10:33:44.000Z</time>
      </trkpt>
      <trkpt lat="47.83927" lon="7.08367">
        <ele>389.20001220703</ele>
        <time>2020-03-08T10:33:45.000Z</time>
      </trkpt>
      <trkpt lat="47.83926" lon="7.08343">
        <ele>389.20001220703</ele>
        <time>2020-03-08T10:33:51.000Z</time>
      </trkpt>
      <trkpt lat="47.83923" lon="7.08319">
        <ele>389.20001220703</ele>
        <time>2020-03-08T10:33:56.000Z</time>
      </trkpt>
      <trkpt lat="47.83917" lon="7.08295">
        <ele>389.20001220703</ele>
        <time>2020-03-08T10:34:00.000Z</time>
      </trkpt>
      <trkpt lat="47.83911" lon="7.08268">
        <ele>389.20001220703</ele>
        <time>2020-03-08T10:34:05.000Z</time>
      </trkpt>
      <trkpt lat="47.83898" lon="7.08252">
        <ele>389.20001220703</ele>
        <time>2020-03-08T10:34:09.000Z</time>
      </trkpt>
      <trkpt lat="47.8389" lon="7.08244">
        <ele>388.79998779297</ele>
        <time>2020-03-08T10:34:11.000Z</time>
      </trkpt>
      <trkpt lat="47.83886" lon="7.0824">
        <ele>388.39999389648</ele>
        <time>2020-03-08T10:34:12.000Z</time>
      </trkpt>
      <trkpt lat="47.83882" lon="7.08235">
        <ele>388</ele>
        <time>2020-03-08T10:34:13.000Z</time>
      </trkpt>
      <trkpt lat="47.83877" lon="7.0823">
        <ele>387.60000610352</ele>
        <time>2020-03-08T10:34:14.000Z</time>
      </trkpt>
      <trkpt lat="47.83873" lon="7.08226">
        <ele>387.20001220703</ele>
        <time>2020-03-08T10:34:15.000Z</time>
      </trkpt>
      <trkpt lat="47.83861" lon="7.08217">
        <ele>386.79998779297</ele>
        <time>2020-03-08T10:34:17.000Z</time>
      </trkpt>
      <trkpt lat="47.83855" lon="7.08215">
        <ele>386.39999389648</ele>
        <time>2020-03-08T10:34:18.000Z</time>
      </trkpt>
      <trkpt lat="47.83849" lon="7.08214">
        <ele>386</ele>
        <time>2020-03-08T10:34:19.000Z</time>
      </trkpt>
      <trkpt lat="47.83844" lon="7.08213">
        <ele>385.60000610352</ele>
        <time>2020-03-08T10:34:20.000Z</time>
      </trkpt>
      <trkpt lat="47.83838" lon="7.08212">
        <ele>385.20001220703</ele>
        <time>2020-03-08T10:34:21.000Z</time>
      </trkpt>
      <trkpt lat="47.83818" lon="7.0821">
        <ele>385.20001220703</ele>
        <time>2020-03-08T10:34:25.000Z</time>
      </trkpt>
      <trkpt lat="47.83792" lon="7.08207">
        <ele>385.20001220703</ele>
        <time>2020-03-08T10:34:31.000Z</time>
      </trkpt>
      <trkpt lat="47.83775" lon="7.08205">
        <ele>384.79998779297</ele>
        <time>2020-03-08T10:34:34.000Z</time>
      </trkpt>
      <trkpt lat="47.83769" lon="7.08204">
        <ele>384.39999389648</ele>
        <time>2020-03-08T10:34:35.000Z</time>
      </trkpt>
      <trkpt lat="47.83763" lon="7.08204">
        <ele>384</ele>
        <time>2020-03-08T10:34:36.000Z</time>
      </trkpt>
      <trkpt lat="47.83757" lon="7.08204">
        <ele>383.60000610352</ele>
        <time>2020-03-08T10:34:37.000Z</time>
      </trkpt>
      <trkpt lat="47.8375" lon="7.08204">
        <ele>383.20001220703</ele>
        <time>2020-03-08T10:34:38.000Z</time>
      </trkpt>
      <trkpt lat="47.83737" lon="7.08203">
        <ele>382.60000610352</ele>
        <time>2020-03-08T10:34:40.000Z</time>
      </trkpt>
      <trkpt lat="47.83732" lon="7.08203">
        <ele>382.20001220703</ele>
        <time>2020-03-08T10:34:41.000Z</time>
      </trkpt>
      <trkpt lat="47.83728" lon="7.08202">
        <ele>381.79998779297</ele>
        <time>2020-03-08T10:34:42.000Z</time>
      </trkpt>
      <trkpt lat="47.83725" lon="7.08201">
        <ele>381.39999389648</ele>
        <time>2020-03-08T10:34:43.000Z</time>
      </trkpt>
      <trkpt lat="47.83722" lon="7.08201">
        <ele>381</ele>
        <time>2020-03-08T10:34:44.000Z</time>
      </trkpt>
      <trkpt lat="47.83715" lon="7.08199">
        <ele>381</ele>
        <time>2020-03-08T10:34:47.000Z</time>
      </trkpt>
      <trkpt lat="47.83708" lon="7.08196">
        <ele>381</ele>
        <time>2020-03-08T10:34:53.000Z</time>
      </trkpt>
      <trkpt lat="47.83704" lon="7.08192">
        <ele>381</ele>
        <time>2020-03-08T10:35:13.000Z</time>
      </trkpt>
      <trkpt lat="47.8369" lon="7.08178">
        <ele>381</ele>
        <time>2020-03-08T10:35:16.000Z</time>
      </trkpt>
      <trkpt lat="47.83674" lon="7.08175">
        <ele>380.20001220703</ele>
        <time>2020-03-08T10:35:24.000Z</time>
      </trkpt>
      <trkpt lat="47.8367" lon="7.08175">
        <ele>379.79998779297</ele>
        <time>2020-03-08T10:35:25.000Z</time>
      </trkpt>
      <trkpt lat="47.83666" lon="7.08176">
        <ele>379.39999389648</ele>
        <time>2020-03-08T10:35:26.000Z</time>
      </trkpt>
      <trkpt lat="47.83662" lon="7.08176">
        <ele>379</ele>
        <time>2020-03-08T10:35:27.000Z</time>
      </trkpt>
      <trkpt lat="47.83649" lon="7.08178">
        <ele>379</ele>
        <time>2020-03-08T10:35:30.000Z</time>
      </trkpt>
      <trkpt lat="47.83614" lon="7.0818">
        <ele>379</ele>
        <time>2020-03-08T10:35:37.000Z</time>
      </trkpt>
      <trkpt lat="47.83609" lon="7.08178">
        <ele>378.60000610352</ele>
        <time>2020-03-08T10:35:38.000Z</time>
      </trkpt>
      <trkpt lat="47.83604" lon="7.08176">
        <ele>378.20001220703</ele>
        <time>2020-03-08T10:35:39.000Z</time>
      </trkpt>
      <trkpt lat="47.83598" lon="7.08174">
        <ele>377.79998779297</ele>
        <time>2020-03-08T10:35:40.000Z</time>
      </trkpt>
      <trkpt lat="47.83593" lon="7.08171">
        <ele>377.39999389648</ele>
        <time>2020-03-08T10:35:41.000Z</time>
      </trkpt>
      <trkpt lat="47.83588" lon="7.0817">
        <ele>377</ele>
        <time>2020-03-08T10:35:42.000Z</time>
      </trkpt>
      <trkpt lat="47.83579" lon="7.08167">
        <ele>377</ele>
        <time>2020-03-08T10:35:44.000Z</time>
      </trkpt>
      <trkpt lat="47.83562" lon="7.08166">
        <ele>377</ele>
        <time>2020-03-08T10:35:49.000Z</time>
      </trkpt>
      <trkpt lat="47.83559" lon="7.08166">
        <ele>377</ele>
        <time>2020-03-08T10:35:52.000Z</time>
      </trkpt>
      <trkpt lat="47.83557" lon="7.08168">
        <ele>377</ele>
        <time>2020-03-08T10:35:54.000Z</time>
      </trkpt>
      <trkpt lat="47.83556" lon="7.08175">
        <ele>377</ele>
        <time>2020-03-08T10:35:59.000Z</time>
      </trkpt>
      <trkpt lat="47.83558" lon="7.08171">
        <ele>377</ele>
        <time>2020-03-08T10:36:03.000Z</time>
      </trkpt>
      <trkpt lat="47.83553" lon="7.0817">
        <ele>377</ele>
        <time>2020-03-08T10:36:07.000Z</time>
      </trkpt>
      <trkpt lat="47.83555" lon="7.08176">
        <ele>377</ele>
        <time>2020-03-08T10:36:10.000Z</time>
      </trkpt>
      <trkpt lat="47.8356" lon="7.08182">
        <ele>377</ele>
        <time>2020-03-08T10:36:14.000Z</time>
      </trkpt>
      <trkpt lat="47.83562" lon="7.08185">
        <ele>377</ele>
        <time>2020-03-08T10:36:16.000Z</time>
      </trkpt>
      <trkpt lat="47.83567" lon="7.08197">
        <ele>377.39999389648</ele>
        <time>2020-03-08T10:36:21.000Z</time>
      </trkpt>
      <trkpt lat="47.83568" lon="7.08199">
        <ele>377.79998779297</ele>
        <time>2020-03-08T10:36:22.000Z</time>
      </trkpt>
      <trkpt lat="47.83569" lon="7.08202">
        <ele>378.20001220703</ele>
        <time>2020-03-08T10:36:23.000Z</time>
      </trkpt>
      <trkpt lat="47.8357" lon="7.08204">
        <ele>378.60000610352</ele>
        <time>2020-03-08T10:36:24.000Z</time>
      </trkpt>
      <trkpt lat="47.83571" lon="7.08206">
        <ele>379</ele>
        <time>2020-03-08T10:36:25.000Z</time>
      </trkpt>
      <trkpt lat="47.83572" lon="7.08208">
        <ele>379</ele>
        <time>2020-03-08T10:36:26.000Z</time>
      </trkpt>
      <trkpt lat="47.83573" lon="7.08211">
        <ele>379.39999389648</ele>
        <time>2020-03-08T10:36:27.000Z</time>
      </trkpt>
      <trkpt lat="47.83572" lon="7.08213">
        <ele>379.79998779297</ele>
        <time>2020-03-08T10:36:28.000Z</time>
      </trkpt>
      <trkpt lat="47.83573" lon="7.08215">
        <ele>380.20001220703</ele>
        <time>2020-03-08T10:36:29.000Z</time>
      </trkpt>
      <trkpt lat="47.83574" lon="7.08218">
        <ele>380.60000610352</ele>
        <time>2020-03-08T10:36:30.000Z</time>
      </trkpt>
      <trkpt lat="47.83575" lon="7.0822">
        <ele>381.20001220703</ele>
        <time>2020-03-08T10:36:31.000Z</time>
      </trkpt>
      <trkpt lat="47.83576" lon="7.08223">
        <ele>381.60000610352</ele>
        <time>2020-03-08T10:36:33.000Z</time>
      </trkpt>
      <trkpt lat="47.83577" lon="7.08225">
        <ele>382</ele>
        <time>2020-03-08T10:36:34.000Z</time>
      </trkpt>
      <trkpt lat="47.83578" lon="7.08227">
        <ele>382.39999389648</ele>
        <time>2020-03-08T10:36:35.000Z</time>
      </trkpt>
      <trkpt lat="47.83579" lon="7.08228">
        <ele>382.79998779297</ele>
        <time>2020-03-08T10:36:36.000Z</time>
      </trkpt>
      <trkpt lat="47.8358" lon="7.0823">
        <ele>383.60000610352</ele>
        <time>2020-03-08T10:36:37.000Z</time>
      </trkpt>
      <trkpt lat="47.83581" lon="7.08232">
        <ele>384</ele>
        <time>2020-03-08T10:36:38.000Z</time>
      </trkpt>
      <trkpt lat="47.83582" lon="7.08234">
        <ele>384.39999389648</ele>
        <time>2020-03-08T10:36:39.000Z</time>
      </trkpt>
      <trkpt lat="47.83582" lon="7.08235">
        <ele>384.79998779297</ele>
        <time>2020-03-08T10:36:40.000Z</time>
      </trkpt>
      <trkpt lat="47.83583" lon="7.08237">
        <ele>385.20001220703</ele>
        <time>2020-03-08T10:36:41.000Z</time>
      </trkpt>
      <trkpt lat="47.83584" lon="7.08239">
        <ele>385.60000610352</ele>
        <time>2020-03-08T10:36:43.000Z</time>
      </trkpt>
      <trkpt lat="47.83585" lon="7.0824">
        <ele>386</ele>
        <time>2020-03-08T10:36:44.000Z</time>
      </trkpt>
      <trkpt lat="47.83586" lon="7.08242">
        <ele>386.39999389648</ele>
        <time>2020-03-08T10:36:45.000Z</time>
      </trkpt>
      <trkpt lat="47.83586" lon="7.08244">
        <ele>386.79998779297</ele>
        <time>2020-03-08T10:36:46.000Z</time>
      </trkpt>
      <trkpt lat="47.83587" lon="7.08246">
        <ele>387.20001220703</ele>
        <time>2020-03-08T10:36:47.000Z</time>
      </trkpt>
      <trkpt lat="47.83588" lon="7.0825">
        <ele>387.79998779297</ele>
        <time>2020-03-08T10:36:49.000Z</time>
      </trkpt>
      <trkpt lat="47.83589" lon="7.08252">
        <ele>388.20001220703</ele>
        <time>2020-03-08T10:36:50.000Z</time>
      </trkpt>
      <trkpt lat="47.8359" lon="7.08254">
        <ele>388.60000610352</ele>
        <time>2020-03-08T10:36:51.000Z</time>
      </trkpt>
      <trkpt lat="47.8359" lon="7.08256">
        <ele>389</ele>
        <time>2020-03-08T10:36:52.000Z</time>
      </trkpt>
      <trkpt lat="47.83591" lon="7.08258">
        <ele>389.39999389648</ele>
        <time>2020-03-08T10:36:53.000Z</time>
      </trkpt>
      <trkpt lat="47.83592" lon="7.08262">
        <ele>389.79998779297</ele>
        <time>2020-03-08T10:36:55.000Z</time>
      </trkpt>
      <trkpt lat="47.83593" lon="7.08264">
        <ele>390.39999389648</ele>
        <time>2020-03-08T10:36:56.000Z</time>
      </trkpt>
      <trkpt lat="47.83593" lon="7.08267">
        <ele>390.79998779297</ele>
        <time>2020-03-08T10:36:57.000Z</time>
      </trkpt>
      <trkpt lat="47.83593" lon="7.08268">
        <ele>391.20001220703</ele>
        <time>2020-03-08T10:36:58.000Z</time>
      </trkpt>
      <trkpt lat="47.83594" lon="7.0827">
        <ele>391.60000610352</ele>
        <time>2020-03-08T10:36:59.000Z</time>
      </trkpt>
      <trkpt lat="47.83595" lon="7.08272">
        <ele>392</ele>
        <time>2020-03-08T10:37:00.000Z</time>
      </trkpt>
      <trkpt lat="47.83595" lon="7.08274">
        <ele>392.79998779297</ele>
        <time>2020-03-08T10:37:01.000Z</time>
      </trkpt>
      <trkpt lat="47.83596" lon="7.08276">
        <ele>393.20001220703</ele>
        <time>2020-03-08T10:37:02.000Z</time>
      </trkpt>
      <trkpt lat="47.83596" lon="7.08278">
        <ele>393.60000610352</ele>
        <time>2020-03-08T10:37:03.000Z</time>
      </trkpt>
      <trkpt lat="47.83597" lon="7.08279">
        <ele>393.60000610352</ele>
        <time>2020-03-08T10:37:04.000Z</time>
      </trkpt>
      <trkpt lat="47.83597" lon="7.0828">
        <ele>394</ele>
        <time>2020-03-08T10:37:05.000Z</time>
      </trkpt>
      <trkpt lat="47.83597" lon="7.08282">
        <ele>394.39999389648</ele>
        <time>2020-03-08T10:37:06.000Z</time>
      </trkpt>
      <trkpt lat="47.83597" lon="7.08283">
        <ele>394.79998779297</ele>
        <time>2020-03-08T10:37:07.000Z</time>
      </trkpt>
      <trkpt lat="47.83597" lon="7.08284">
        <ele>395.20001220703</ele>
        <time>2020-03-08T10:37:08.000Z</time>
      </trkpt>
      <trkpt lat="47.83597" lon="7.08284">
        <ele>395.79998779297</ele>
        <time>2020-03-08T10:37:09.000Z</time>
      </trkpt>
      <trkpt lat="47.83597" lon="7.08288">
        <ele>396.20001220703</ele>
        <time>2020-03-08T10:37:11.000Z</time>
      </trkpt>
      <trkpt lat="47.83597" lon="7.08289">
        <ele>396.60000610352</ele>
        <time>2020-03-08T10:37:12.000Z</time>
      </trkpt>
      <trkpt lat="47.83597" lon="7.08289">
        <ele>397</ele>
        <time>2020-03-08T10:37:13.000Z</time>
      </trkpt>
      <trkpt lat="47.83608" lon="7.08335">
        <ele>404.20001220703</ele>
        <time>2020-03-08T10:37:35.000Z</time>
      </trkpt>
      <trkpt lat="47.83611" lon="7.0834">
        <ele>404.20001220703</ele>
        <time>2020-03-08T10:37:38.000Z</time>
      </trkpt>
      <trkpt lat="47.83611" lon="7.08342">
        <ele>404.20001220703</ele>
        <time>2020-03-08T10:37:39.000Z</time>
      </trkpt>
      <trkpt lat="47.83613" lon="7.08346">
        <ele>404.60000610352</ele>
        <time>2020-03-08T10:37:42.000Z</time>
      </trkpt>
      <trkpt lat="47.83614" lon="7.08347">
        <ele>405</ele>
        <time>2020-03-08T10:37:43.000Z</time>
      </trkpt>
      <trkpt lat="47.83614" lon="7.08348">
        <ele>405.39999389648</ele>
        <time>2020-03-08T10:37:44.000Z</time>
      </trkpt>
      <trkpt lat="47.83614" lon="7.08351">
        <ele>406</ele>
        <time>2020-03-08T10:37:45.000Z</time>
      </trkpt>
      <trkpt lat="47.83614" lon="7.08352">
        <ele>406.39999389648</ele>
        <time>2020-03-08T10:37:46.000Z</time>
      </trkpt>
      <trkpt lat="47.83615" lon="7.08354">
        <ele>406.39999389648</ele>
        <time>2020-03-08T10:37:47.000Z</time>
      </trkpt>
      <trkpt lat="47.83615" lon="7.08361">
        <ele>406.39999389648</ele>
        <time>2020-03-08T10:37:50.000Z</time>
      </trkpt>
      <trkpt lat="47.83616" lon="7.08363">
        <ele>407.20001220703</ele>
        <time>2020-03-08T10:37:51.000Z</time>
      </trkpt>
      <trkpt lat="47.83616" lon="7.08365">
        <ele>407.60000610352</ele>
        <time>2020-03-08T10:37:52.000Z</time>
      </trkpt>
      <trkpt lat="47.83616" lon="7.08368">
        <ele>408.20001220703</ele>
        <time>2020-03-08T10:37:53.000Z</time>
      </trkpt>
      <trkpt lat="47.83617" lon="7.0837">
        <ele>408.60000610352</ele>
        <time>2020-03-08T10:37:54.000Z</time>
      </trkpt>
      <trkpt lat="47.83619" lon="7.08379">
        <ele>408.60000610352</ele>
        <time>2020-03-08T10:37:58.000Z</time>
      </trkpt>
      <trkpt lat="47.8362" lon="7.0838">
        <ele>409</ele>
        <time>2020-03-08T10:37:59.000Z</time>
      </trkpt>
      <trkpt lat="47.8362" lon="7.08382">
        <ele>409.39999389648</ele>
        <time>2020-03-08T10:38:00.000Z</time>
      </trkpt>
      <trkpt lat="47.8362" lon="7.08384">
        <ele>409.79998779297</ele>
        <time>2020-03-08T10:38:01.000Z</time>
      </trkpt>
      <trkpt lat="47.83621" lon="7.08386">
        <ele>410.20001220703</ele>
        <time>2020-03-08T10:38:02.000Z</time>
      </trkpt>
      <trkpt lat="47.83621" lon="7.08388">
        <ele>410.60000610352</ele>
        <time>2020-03-08T10:38:03.000Z</time>
      </trkpt>
      <trkpt lat="47.83622" lon="7.08393">
        <ele>410.60000610352</ele>
        <time>2020-03-08T10:38:05.000Z</time>
      </trkpt>
      <trkpt lat="47.83624" lon="7.08404">
        <ele>411</ele>
        <time>2020-03-08T10:38:10.000Z</time>
      </trkpt>
      <trkpt lat="47.83625" lon="7.08406">
        <ele>411.39999389648</ele>
        <time>2020-03-08T10:38:11.000Z</time>
      </trkpt>
      <trkpt lat="47.83626" lon="7.08408">
        <ele>411.79998779297</ele>
        <time>2020-03-08T10:38:12.000Z</time>
      </trkpt>
      <trkpt lat="47.83626" lon="7.0841">
        <ele>412.20001220703</ele>
        <time>2020-03-08T10:38:13.000Z</time>
      </trkpt>
      <trkpt lat="47.83627" lon="7.08413">
        <ele>412.60000610352</ele>
        <time>2020-03-08T10:38:14.000Z</time>
      </trkpt>
      <trkpt lat="47.83628" lon="7.08419">
        <ele>413</ele>
        <time>2020-03-08T10:38:17.000Z</time>
      </trkpt>
      <trkpt lat="47.83629" lon="7.08422">
        <ele>413.39999389648</ele>
        <time>2020-03-08T10:38:18.000Z</time>
      </trkpt>
      <trkpt lat="47.8363" lon="7.08424">
        <ele>413.79998779297</ele>
        <time>2020-03-08T10:38:19.000Z</time>
      </trkpt>
      <trkpt lat="47.8363" lon="7.08427">
        <ele>414.20001220703</ele>
        <time>2020-03-08T10:38:20.000Z</time>
      </trkpt>
      <trkpt lat="47.8363" lon="7.08429">
        <ele>414.60000610352</ele>
        <time>2020-03-08T10:38:21.000Z</time>
      </trkpt>
      <trkpt lat="47.8363" lon="7.08438">
        <ele>414.60000610352</ele>
        <time>2020-03-08T10:38:25.000Z</time>
      </trkpt>
      <trkpt lat="47.83631" lon="7.08443">
        <ele>415.20001220703</ele>
        <time>2020-03-08T10:38:28.000Z</time>
      </trkpt>
      <trkpt lat="47.83631" lon="7.08446">
        <ele>415.60000610352</ele>
        <time>2020-03-08T10:38:29.000Z</time>
      </trkpt>
      <trkpt lat="47.83631" lon="7.08447">
        <ele>416</ele>
        <time>2020-03-08T10:38:30.000Z</time>
      </trkpt>
      <trkpt lat="47.83632" lon="7.0845">
        <ele>416.39999389648</ele>
        <time>2020-03-08T10:38:31.000Z</time>
      </trkpt>
      <trkpt lat="47.83632" lon="7.08451">
        <ele>416.79998779297</ele>
        <time>2020-03-08T10:38:32.000Z</time>
      </trkpt>
      <trkpt lat="47.83632" lon="7.08461">
        <ele>417.20001220703</ele>
        <time>2020-03-08T10:38:37.000Z</time>
      </trkpt>
      <trkpt lat="47.83632" lon="7.08463">
        <ele>417.60000610352</ele>
        <time>2020-03-08T10:38:38.000Z</time>
      </trkpt>
      <trkpt lat="47.83633" lon="7.08465">
        <ele>418</ele>
        <time>2020-03-08T10:38:39.000Z</time>
      </trkpt>
      <trkpt lat="47.83633" lon="7.08467">
        <ele>418.39999389648</ele>
        <time>2020-03-08T10:38:40.000Z</time>
      </trkpt>
      <trkpt lat="47.83633" lon="7.08468">
        <ele>418.79998779297</ele>
        <time>2020-03-08T10:38:41.000Z</time>
      </trkpt>
      <trkpt lat="47.83634" lon="7.08476">
        <ele>419.20001220703</ele>
        <time>2020-03-08T10:38:45.000Z</time>
      </trkpt>
      <trkpt lat="47.83634" lon="7.08478">
        <ele>419.60000610352</ele>
        <time>2020-03-08T10:38:46.000Z</time>
      </trkpt>
      <trkpt lat="47.83634" lon="7.08479">
        <ele>420</ele>
        <time>2020-03-08T10:38:47.000Z</time>
      </trkpt>
      <trkpt lat="47.83634" lon="7.08481">
        <ele>420.39999389648</ele>
        <time>2020-03-08T10:38:48.000Z</time>
      </trkpt>
      <trkpt lat="47.83634" lon="7.08483">
        <ele>421</ele>
        <time>2020-03-08T10:38:49.000Z</time>
      </trkpt>
      <trkpt lat="47.83635" lon="7.08493">
        <ele>421</ele>
        <time>2020-03-08T10:38:54.000Z</time>
      </trkpt>
      <trkpt lat="47.83635" lon="7.08494">
        <ele>421.39999389648</ele>
        <time>2020-03-08T10:38:55.000Z</time>
      </trkpt>
      <trkpt lat="47.83635" lon="7.08496">
        <ele>421.79998779297</ele>
        <time>2020-03-08T10:38:56.000Z</time>
      </trkpt>
      <trkpt lat="47.83635" lon="7.08497">
        <ele>422.20001220703</ele>
        <time>2020-03-08T10:38:57.000Z</time>
      </trkpt>
      <trkpt lat="47.83635" lon="7.08499">
        <ele>422.60000610352</ele>
        <time>2020-03-08T10:38:58.000Z</time>
      </trkpt>
      <trkpt lat="47.83635" lon="7.085">
        <ele>423.20001220703</ele>
        <time>2020-03-08T10:38:59.000Z</time>
      </trkpt>
      <trkpt lat="47.83636" lon="7.08502">
        <ele>423.20001220703</ele>
        <time>2020-03-08T10:39:00.000Z</time>
      </trkpt>
      <trkpt lat="47.83635" lon="7.08508">
        <ele>423.20001220703</ele>
        <time>2020-03-08T10:39:04.000Z</time>
      </trkpt>
      <trkpt lat="47.83635" lon="7.0851">
        <ele>423.60000610352</ele>
        <time>2020-03-08T10:39:05.000Z</time>
      </trkpt>
      <trkpt lat="47.83635" lon="7.08512">
        <ele>424.39999389648</ele>
        <time>2020-03-08T10:39:06.000Z</time>
      </trkpt>
      <trkpt lat="47.83635" lon="7.08514">
        <ele>424.79998779297</ele>
        <time>2020-03-08T10:39:07.000Z</time>
      </trkpt>
      <trkpt lat="47.83635" lon="7.08515">
        <ele>425.20001220703</ele>
        <time>2020-03-08T10:39:08.000Z</time>
      </trkpt>
      <trkpt lat="47.83634" lon="7.08518">
        <ele>425.20001220703</ele>
        <time>2020-03-08T10:39:09.000Z</time>
      </trkpt>
      <trkpt lat="47.83633" lon="7.08528">
        <ele>425.20001220703</ele>
        <time>2020-03-08T10:39:14.000Z</time>
      </trkpt>
      <trkpt lat="47.83632" lon="7.08533">
        <ele>425.60000610352</ele>
        <time>2020-03-08T10:39:16.000Z</time>
      </trkpt>
      <trkpt lat="47.83632" lon="7.08535">
        <ele>426</ele>
        <time>2020-03-08T10:39:17.000Z</time>
      </trkpt>
      <trkpt lat="47.83632" lon="7.08538">
        <ele>426.39999389648</ele>
        <time>2020-03-08T10:39:18.000Z</time>
      </trkpt>
      <trkpt lat="47.83632" lon="7.0854">
        <ele>426.79998779297</ele>
        <time>2020-03-08T10:39:19.000Z</time>
      </trkpt>
      <trkpt lat="47.83632" lon="7.08542">
        <ele>427.20001220703</ele>
        <time>2020-03-08T10:39:20.000Z</time>
      </trkpt>
      <trkpt lat="47.83631" lon="7.08557">
        <ele>427.79998779297</ele>
        <time>2020-03-08T10:39:26.000Z</time>
      </trkpt>
      <trkpt lat="47.83632" lon="7.0856">
        <ele>428.20001220703</ele>
        <time>2020-03-08T10:39:27.000Z</time>
      </trkpt>
      <trkpt lat="47.83632" lon="7.08562">
        <ele>428.60000610352</ele>
        <time>2020-03-08T10:39:28.000Z</time>
      </trkpt>
      <trkpt lat="47.83632" lon="7.08563">
        <ele>429</ele>
        <time>2020-03-08T10:39:29.000Z</time>
      </trkpt>
      <trkpt lat="47.83632" lon="7.08564">
        <ele>429.39999389648</ele>
        <time>2020-03-08T10:39:30.000Z</time>
      </trkpt>
      <trkpt lat="47.83634" lon="7.08568">
        <ele>429.39999389648</ele>
        <time>2020-03-08T10:40:17.000Z</time>
      </trkpt>
      <trkpt lat="47.83637" lon="7.08577">
        <ele>429.39999389648</ele>
        <time>2020-03-08T10:40:21.000Z</time>
      </trkpt>
      <trkpt lat="47.83636" lon="7.08578">
        <ele>429.39999389648</ele>
        <time>2020-03-08T10:40:22.000Z</time>
      </trkpt>
      <trkpt lat="47.83638" lon="7.08604">
        <ele>433.60000610352</ele>
        <time>2020-03-08T10:41:05.000Z</time>
      </trkpt>
      <trkpt lat="47.83638" lon="7.08607">
        <ele>434</ele>
        <time>2020-03-08T10:41:06.000Z</time>
      </trkpt>
      <trkpt lat="47.83638" lon="7.08609">
        <ele>434.39999389648</ele>
        <time>2020-03-08T10:41:07.000Z</time>
      </trkpt>
      <trkpt lat="47.83638" lon="7.08611">
        <ele>434.79998779297</ele>
        <time>2020-03-08T10:41:08.000Z</time>
      </trkpt>
      <trkpt lat="47.83638" lon="7.08613">
        <ele>435.60000610352</ele>
        <time>2020-03-08T10:41:09.000Z</time>
      </trkpt>
      <trkpt lat="47.83638" lon="7.08623">
        <ele>436</ele>
        <time>2020-03-08T10:41:14.000Z</time>
      </trkpt>
      <trkpt lat="47.83638" lon="7.08624">
        <ele>436.60000610352</ele>
        <time>2020-03-08T10:41:15.000Z</time>
      </trkpt>
      <trkpt lat="47.83639" lon="7.08626">
        <ele>437</ele>
        <time>2020-03-08T10:41:16.000Z</time>
      </trkpt>
      <trkpt lat="47.83639" lon="7.08628">
        <ele>437.39999389648</ele>
        <time>2020-03-08T10:41:17.000Z</time>
      </trkpt>
      <trkpt lat="47.83639" lon="7.0863">
        <ele>437.79998779297</ele>
        <time>2020-03-08T10:41:18.000Z</time>
      </trkpt>
      <trkpt lat="47.83639" lon="7.08632">
        <ele>437.79998779297</ele>
        <time>2020-03-08T10:41:19.000Z</time>
      </trkpt>
      <trkpt lat="47.8364" lon="7.08636">
        <ele>437.79998779297</ele>
        <time>2020-03-08T10:41:21.000Z</time>
      </trkpt>
      <trkpt lat="47.8364" lon="7.0864">
        <ele>438.20001220703</ele>
        <time>2020-03-08T10:41:23.000Z</time>
      </trkpt>
      <trkpt lat="47.8364" lon="7.08642">
        <ele>438.60000610352</ele>
        <time>2020-03-08T10:41:24.000Z</time>
      </trkpt>
      <trkpt lat="47.83639" lon="7.08642">
        <ele>439</ele>
        <time>2020-03-08T10:41:25.000Z</time>
      </trkpt>
      <trkpt lat="47.83645" lon="7.08642">
        <ele>442</ele>
        <time>2020-03-08T10:42:35.000Z</time>
      </trkpt>
      <trkpt lat="47.83645" lon="7.08635">
        <ele>441.60000610352</ele>
        <time>2020-03-08T10:42:37.000Z</time>
      </trkpt>
      <trkpt lat="47.83645" lon="7.08631">
        <ele>441</ele>
        <time>2020-03-08T10:42:38.000Z</time>
      </trkpt>
      <trkpt lat="47.83646" lon="7.08627">
        <ele>440.60000610352</ele>
        <time>2020-03-08T10:42:39.000Z</time>
      </trkpt>
      <trkpt lat="47.83645" lon="7.08622">
        <ele>440.20001220703</ele>
        <time>2020-03-08T10:42:40.000Z</time>
      </trkpt>
      <trkpt lat="47.83645" lon="7.08616">
        <ele>439.79998779297</ele>
        <time>2020-03-08T10:42:41.000Z</time>
      </trkpt>
      <trkpt lat="47.83644" lon="7.08609">
        <ele>439.39999389648</ele>
        <time>2020-03-08T10:42:42.000Z</time>
      </trkpt>
      <trkpt lat="47.83644" lon="7.08603">
        <ele>438.79998779297</ele>
        <time>2020-03-08T10:42:43.000Z</time>
      </trkpt>
      <trkpt lat="47.83643" lon="7.08599">
        <ele>438.39999389648</ele>
        <time>2020-03-08T10:42:44.000Z</time>
      </trkpt>
      <trkpt lat="47.83642" lon="7.08596">
        <ele>437.79998779297</ele>
        <time>2020-03-08T10:42:45.000Z</time>
      </trkpt>
      <trkpt lat="47.83641" lon="7.08592">
        <ele>437.20001220703</ele>
        <time>2020-03-08T10:42:46.000Z</time>
      </trkpt>
      <trkpt lat="47.8364" lon="7.08588">
        <ele>436.60000610352</ele>
        <time>2020-03-08T10:42:47.000Z</time>
      </trkpt>
      <trkpt lat="47.83639" lon="7.08584">
        <ele>435.20001220703</ele>
        <time>2020-03-08T10:42:48.000Z</time>
      </trkpt>
      <trkpt lat="47.83637" lon="7.0858">
        <ele>434.79998779297</ele>
        <time>2020-03-08T10:42:49.000Z</time>
      </trkpt>
      <trkpt lat="47.83636" lon="7.08577">
        <ele>434.39999389648</ele>
        <time>2020-03-08T10:42:50.000Z</time>
      </trkpt>
      <trkpt lat="47.83634" lon="7.08571">
        <ele>433.79998779297</ele>
        <time>2020-03-08T10:42:51.000Z</time>
      </trkpt>
      <trkpt lat="47.83632" lon="7.08566">
        <ele>433.39999389648</ele>
        <time>2020-03-08T10:42:52.000Z</time>
      </trkpt>
      <trkpt lat="47.83631" lon="7.0856">
        <ele>432.79998779297</ele>
        <time>2020-03-08T10:42:53.000Z</time>
      </trkpt>
      <trkpt lat="47.8363" lon="7.08556">
        <ele>432.39999389648</ele>
        <time>2020-03-08T10:42:54.000Z</time>
      </trkpt>
      <trkpt lat="47.8363" lon="7.08552">
        <ele>431.79998779297</ele>
        <time>2020-03-08T10:42:55.000Z</time>
      </trkpt>
      <trkpt lat="47.8363" lon="7.08548">
        <ele>431.20001220703</ele>
        <time>2020-03-08T10:42:56.000Z</time>
      </trkpt>
      <trkpt lat="47.83631" lon="7.08542">
        <ele>430.60000610352</ele>
        <time>2020-03-08T10:42:57.000Z</time>
      </trkpt>
      <trkpt lat="47.83631" lon="7.08536">
        <ele>430</ele>
        <time>2020-03-08T10:42:58.000Z</time>
      </trkpt>
      <trkpt lat="47.83632" lon="7.08528">
        <ele>429.39999389648</ele>
        <time>2020-03-08T10:42:59.000Z</time>
      </trkpt>
      <trkpt lat="47.83633" lon="7.08522">
        <ele>428.79998779297</ele>
        <time>2020-03-08T10:43:00.000Z</time>
      </trkpt>
      <trkpt lat="47.83634" lon="7.08515">
        <ele>428.20001220703</ele>
        <time>2020-03-08T10:43:01.000Z</time>
      </trkpt>
      <trkpt lat="47.83634" lon="7.0851">
        <ele>427.60000610352</ele>
        <time>2020-03-08T10:43:02.000Z</time>
      </trkpt>
      <trkpt lat="47.83634" lon="7.08506">
        <ele>426.79998779297</ele>
        <time>2020-03-08T10:43:03.000Z</time>
      </trkpt>
      <trkpt lat="47.83633" lon="7.08502">
        <ele>426.20001220703</ele>
        <time>2020-03-08T10:43:04.000Z</time>
      </trkpt>
      <trkpt lat="47.83633" lon="7.08497">
        <ele>426.20001220703</ele>
        <time>2020-03-08T10:43:05.000Z</time>
      </trkpt>
      <trkpt lat="47.83633" lon="7.08491">
        <ele>425.79998779297</ele>
        <time>2020-03-08T10:43:06.000Z</time>
      </trkpt>
      <trkpt lat="47.83633" lon="7.08484">
        <ele>425.20001220703</ele>
        <time>2020-03-08T10:43:07.000Z</time>
      </trkpt>
      <trkpt lat="47.83633" lon="7.08478">
        <ele>424.79998779297</ele>
        <time>2020-03-08T10:43:08.000Z</time>
      </trkpt>
      <trkpt lat="47.83633" lon="7.08473">
        <ele>424.39999389648</ele>
        <time>2020-03-08T10:43:09.000Z</time>
      </trkpt>
      <trkpt lat="47.83632" lon="7.08468">
        <ele>423.79998779297</ele>
        <time>2020-03-08T10:43:10.000Z</time>
      </trkpt>
      <trkpt lat="47.83632" lon="7.08463">
        <ele>423.20001220703</ele>
        <time>2020-03-08T10:43:11.000Z</time>
      </trkpt>
      <trkpt lat="47.83631" lon="7.08458">
        <ele>422</ele>
        <time>2020-03-08T10:43:12.000Z</time>
      </trkpt>
      <trkpt lat="47.83631" lon="7.08453">
        <ele>421.20001220703</ele>
        <time>2020-03-08T10:43:13.000Z</time>
      </trkpt>
      <trkpt lat="47.8363" lon="7.08446">
        <ele>420.60000610352</ele>
        <time>2020-03-08T10:43:14.000Z</time>
      </trkpt>
      <trkpt lat="47.8363" lon="7.08439">
        <ele>419.79998779297</ele>
        <time>2020-03-08T10:43:15.000Z</time>
      </trkpt>
      <trkpt lat="47.83629" lon="7.08432">
        <ele>419.20001220703</ele>
        <time>2020-03-08T10:43:16.000Z</time>
      </trkpt>
      <trkpt lat="47.83628" lon="7.08425">
        <ele>418.60000610352</ele>
        <time>2020-03-08T10:43:17.000Z</time>
      </trkpt>
      <trkpt lat="47.83627" lon="7.08417">
        <ele>418</ele>
        <time>2020-03-08T10:43:18.000Z</time>
      </trkpt>
      <trkpt lat="47.83625" lon="7.08409">
        <ele>417.39999389648</ele>
        <time>2020-03-08T10:43:19.000Z</time>
      </trkpt>
      <trkpt lat="47.83624" lon="7.08401">
        <ele>416.60000610352</ele>
        <time>2020-03-08T10:43:20.000Z</time>
      </trkpt>
      <trkpt lat="47.83622" lon="7.08394">
        <ele>416</ele>
        <time>2020-03-08T10:43:21.000Z</time>
      </trkpt>
      <trkpt lat="47.83621" lon="7.08387">
        <ele>415.20001220703</ele>
        <time>2020-03-08T10:43:22.000Z</time>
      </trkpt>
      <trkpt lat="47.8362" lon="7.08381">
        <ele>414.60000610352</ele>
        <time>2020-03-08T10:43:23.000Z</time>
      </trkpt>
      <trkpt lat="47.83618" lon="7.08374">
        <ele>413.79998779297</ele>
        <time>2020-03-08T10:43:24.000Z</time>
      </trkpt>
      <trkpt lat="47.83617" lon="7.08368">
        <ele>413</ele>
        <time>2020-03-08T10:43:25.000Z</time>
      </trkpt>
      <trkpt lat="47.83616" lon="7.08363">
        <ele>412.39999389648</ele>
        <time>2020-03-08T10:43:26.000Z</time>
      </trkpt>
      <trkpt lat="47.83615" lon="7.08359">
        <ele>411.60000610352</ele>
        <time>2020-03-08T10:43:27.000Z</time>
      </trkpt>
      <trkpt lat="47.83613" lon="7.08356">
        <ele>410.79998779297</ele>
        <time>2020-03-08T10:43:28.000Z</time>
      </trkpt>
      <trkpt lat="47.83612" lon="7.08353">
        <ele>410.20001220703</ele>
        <time>2020-03-08T10:43:29.000Z</time>
      </trkpt>
      <trkpt lat="47.83611" lon="7.08351">
        <ele>409.39999389648</ele>
        <time>2020-03-08T10:43:30.000Z</time>
      </trkpt>
      <trkpt lat="47.8361" lon="7.08348">
        <ele>408.60000610352</ele>
        <time>2020-03-08T10:43:31.000Z</time>
      </trkpt>
      <trkpt lat="47.83609" lon="7.08346">
        <ele>408</ele>
        <time>2020-03-08T10:43:32.000Z</time>
      </trkpt>
      <trkpt lat="47.83607" lon="7.08344">
        <ele>407.60000610352</ele>
        <time>2020-03-08T10:43:33.000Z</time>
      </trkpt>
      <trkpt lat="47.83606" lon="7.08343">
        <ele>407</ele>
        <time>2020-03-08T10:43:34.000Z</time>
      </trkpt>
      <trkpt lat="47.83605" lon="7.08341">
        <ele>406.39999389648</ele>
        <time>2020-03-08T10:43:35.000Z</time>
      </trkpt>
      <trkpt lat="47.83605" lon="7.08339">
        <ele>405.79998779297</ele>
        <time>2020-03-08T10:43:36.000Z</time>
      </trkpt>
      <trkpt lat="47.83604" lon="7.08337">
        <ele>405</ele>
        <time>2020-03-08T10:43:37.000Z</time>
      </trkpt>
      <trkpt lat="47.83605" lon="7.08334">
        <ele>404.39999389648</ele>
        <time>2020-03-08T10:43:38.000Z</time>
      </trkpt>
      <trkpt lat="47.83606" lon="7.08331">
        <ele>404</ele>
        <time>2020-03-08T10:43:39.000Z</time>
      </trkpt>
      <trkpt lat="47.83607" lon="7.08328">
        <ele>403.39999389648</ele>
        <time>2020-03-08T10:43:40.000Z</time>
      </trkpt>
      <trkpt lat="47.83608" lon="7.08324">
        <ele>402.79998779297</ele>
        <time>2020-03-08T10:43:41.000Z</time>
      </trkpt>
      <trkpt lat="47.83608" lon="7.0832">
        <ele>402</ele>
        <time>2020-03-08T10:43:42.000Z</time>
      </trkpt>
      <trkpt lat="47.83607" lon="7.08312">
        <ele>401.20001220703</ele>
        <time>2020-03-08T10:43:43.000Z</time>
      </trkpt>
      <trkpt lat="47.83605" lon="7.08303">
        <ele>400</ele>
        <time>2020-03-08T10:43:44.000Z</time>
      </trkpt>
      <trkpt lat="47.83602" lon="7.08294">
        <ele>399</ele>
        <time>2020-03-08T10:43:45.000Z</time>
      </trkpt>
      <trkpt lat="47.836" lon="7.08286">
        <ele>398</ele>
        <time>2020-03-08T10:43:46.000Z</time>
      </trkpt>
      <trkpt lat="47.83597" lon="7.08277">
        <ele>396.79998779297</ele>
        <time>2020-03-08T10:43:47.000Z</time>
      </trkpt>
      <trkpt lat="47.83594" lon="7.08269">
        <ele>395.60000610352</ele>
        <time>2020-03-08T10:43:48.000Z</time>
      </trkpt>
      <trkpt lat="47.8359" lon="7.08261">
        <ele>394.39999389648</ele>
        <time>2020-03-08T10:43:49.000Z</time>
      </trkpt>
      <trkpt lat="47.83587" lon="7.08251">
        <ele>393.20001220703</ele>
        <time>2020-03-08T10:43:50.000Z</time>
      </trkpt>
      <trkpt lat="47.83583" lon="7.08241">
        <ele>392</ele>
        <time>2020-03-08T10:43:51.000Z</time>
      </trkpt>
      <trkpt lat="47.83579" lon="7.08228">
        <ele>390.79998779297</ele>
        <time>2020-03-08T10:43:52.000Z</time>
      </trkpt>
      <trkpt lat="47.83575" lon="7.08217">
        <ele>389.39999389648</ele>
        <time>2020-03-08T10:43:53.000Z</time>
      </trkpt>
      <trkpt lat="47.83571" lon="7.08207">
        <ele>388</ele>
        <time>2020-03-08T10:43:54.000Z</time>
      </trkpt>
      <trkpt lat="47.83568" lon="7.08198">
        <ele>386.39999389648</ele>
        <time>2020-03-08T10:43:55.000Z</time>
      </trkpt>
      <trkpt lat="47.83565" lon="7.08191">
        <ele>385</ele>
        <time>2020-03-08T10:43:56.000Z</time>
      </trkpt>
      <trkpt lat="47.83561" lon="7.08185">
        <ele>383.60000610352</ele>
        <time>2020-03-08T10:43:57.000Z</time>
      </trkpt>
      <trkpt lat="47.83558" lon="7.08181">
        <ele>382.39999389648</ele>
        <time>2020-03-08T10:43:58.000Z</time>
      </trkpt>
      <trkpt lat="47.83554" lon="7.08177">
        <ele>381.20001220703</ele>
        <time>2020-03-08T10:43:59.000Z</time>
      </trkpt>
      <trkpt lat="47.83551" lon="7.08173">
        <ele>380</ele>
        <time>2020-03-08T10:44:00.000Z</time>
      </trkpt>
      <trkpt lat="47.83546" lon="7.0817">
        <ele>378.60000610352</ele>
        <time>2020-03-08T10:44:01.000Z</time>
      </trkpt>
      <trkpt lat="47.83542" lon="7.08167">
        <ele>377</ele>
        <time>2020-03-08T10:44:02.000Z</time>
      </trkpt>
      <trkpt lat="47.83538" lon="7.08166">
        <ele>376.60000610352</ele>
        <time>2020-03-08T10:44:03.000Z</time>
      </trkpt>
      <trkpt lat="47.83534" lon="7.08165">
        <ele>376</ele>
        <time>2020-03-08T10:44:04.000Z</time>
      </trkpt>
      <trkpt lat="47.8353" lon="7.08163">
        <ele>375.60000610352</ele>
        <time>2020-03-08T10:44:05.000Z</time>
      </trkpt>
      <trkpt lat="47.83526" lon="7.08162">
        <ele>375.20001220703</ele>
        <time>2020-03-08T10:44:06.000Z</time>
      </trkpt>
      <trkpt lat="47.83511" lon="7.08156">
        <ele>375.20001220703</ele>
        <time>2020-03-08T10:44:10.000Z</time>
      </trkpt>
      <trkpt lat="47.83489" lon="7.08145">
        <ele>375.20001220703</ele>
        <time>2020-03-08T10:44:16.000Z</time>
      </trkpt>
      <trkpt lat="47.83465" lon="7.08134">
        <ele>375.20001220703</ele>
        <time>2020-03-08T10:44:22.000Z</time>
      </trkpt>
      <trkpt lat="47.8346" lon="7.08133">
        <ele>375.20001220703</ele>
        <time>2020-03-08T10:44:23.000Z</time>
      </trkpt>
      <trkpt lat="47.83428" lon="7.08119">
        <ele>375.20001220703</ele>
        <time>2020-03-08T10:44:30.000Z</time>
      </trkpt>
      <trkpt lat="47.83423" lon="7.08117">
        <ele>374.79998779297</ele>
        <time>2020-03-08T10:44:31.000Z</time>
      </trkpt>
      <trkpt lat="47.83418" lon="7.08115">
        <ele>374.39999389648</ele>
        <time>2020-03-08T10:44:32.000Z</time>
      </trkpt>
      <trkpt lat="47.83413" lon="7.08113">
        <ele>374</ele>
        <time>2020-03-08T10:44:33.000Z</time>
      </trkpt>
      <trkpt lat="47.83408" lon="7.08111">
        <ele>373.60000610352</ele>
        <time>2020-03-08T10:44:34.000Z</time>
      </trkpt>
      <trkpt lat="47.83404" lon="7.0811">
        <ele>373</ele>
        <time>2020-03-08T10:44:35.000Z</time>
      </trkpt>
      <trkpt lat="47.83399" lon="7.08108">
        <ele>373</ele>
        <time>2020-03-08T10:44:36.000Z</time>
      </trkpt>
      <trkpt lat="47.83394" lon="7.08106">
        <ele>373</ele>
        <time>2020-03-08T10:44:37.000Z</time>
      </trkpt>
      <trkpt lat="47.83375" lon="7.08098">
        <ele>373</ele>
        <time>2020-03-08T10:44:41.000Z</time>
      </trkpt>
      <trkpt lat="47.8336" lon="7.08092">
        <ele>373</ele>
        <time>2020-03-08T10:44:44.000Z</time>
      </trkpt>
      <trkpt lat="47.83355" lon="7.0809">
        <ele>372.60000610352</ele>
        <time>2020-03-08T10:44:45.000Z</time>
      </trkpt>
      <trkpt lat="47.8335" lon="7.08089">
        <ele>372.20001220703</ele>
        <time>2020-03-08T10:44:46.000Z</time>
      </trkpt>
      <trkpt lat="47.83344" lon="7.08088">
        <ele>371.79998779297</ele>
        <time>2020-03-08T10:44:47.000Z</time>
      </trkpt>
      <trkpt lat="47.83339" lon="7.08088">
        <ele>371.39999389648</ele>
        <time>2020-03-08T10:44:48.000Z</time>
      </trkpt>
      <trkpt lat="47.83333" lon="7.08087">
        <ele>371</ele>
        <time>2020-03-08T10:44:49.000Z</time>
      </trkpt>
      <trkpt lat="47.83303" lon="7.08089">
        <ele>371</ele>
        <time>2020-03-08T10:44:54.000Z</time>
      </trkpt>
      <trkpt lat="47.83298" lon="7.0809">
        <ele>371</ele>
        <time>2020-03-08T10:44:55.000Z</time>
      </trkpt>
      <trkpt lat="47.83288" lon="7.08094">
        <ele>371</ele>
        <time>2020-03-08T10:44:57.000Z</time>
      </trkpt>
      <trkpt lat="47.83274" lon="7.08106">
        <ele>371</ele>
        <time>2020-03-08T10:45:00.000Z</time>
      </trkpt>
      <trkpt lat="47.83243" lon="7.08141">
        <ele>371</ele>
        <time>2020-03-08T10:45:07.000Z</time>
      </trkpt>
      <trkpt lat="47.83221" lon="7.08171">
        <ele>371</ele>
        <time>2020-03-08T10:45:13.000Z</time>
      </trkpt>
      <trkpt lat="47.83193" lon="7.0821">
        <ele>371</ele>
        <time>2020-03-08T10:45:21.000Z</time>
      </trkpt>
      <trkpt lat="47.83165" lon="7.08237">
        <ele>371</ele>
        <time>2020-03-08T10:45:28.000Z</time>
      </trkpt>
      <trkpt lat="47.83146" lon="7.08245">
        <ele>370.60000610352</ele>
        <time>2020-03-08T10:45:32.000Z</time>
      </trkpt>
      <trkpt lat="47.83141" lon="7.08246">
        <ele>370.20001220703</ele>
        <time>2020-03-08T10:45:33.000Z</time>
      </trkpt>
      <trkpt lat="47.83136" lon="7.08247">
        <ele>369.79998779297</ele>
        <time>2020-03-08T10:45:34.000Z</time>
      </trkpt>
      <trkpt lat="47.83131" lon="7.08247">
        <ele>369.39999389648</ele>
        <time>2020-03-08T10:45:35.000Z</time>
      </trkpt>
      <trkpt lat="47.83126" lon="7.08248">
        <ele>369</ele>
        <time>2020-03-08T10:45:36.000Z</time>
      </trkpt>
      <trkpt lat="47.83106" lon="7.08249">
        <ele>369</ele>
        <time>2020-03-08T10:45:40.000Z</time>
      </trkpt>
      <trkpt lat="47.83076" lon="7.08256">
        <ele>369</ele>
        <time>2020-03-08T10:45:47.000Z</time>
      </trkpt>
      <trkpt lat="47.83072" lon="7.08258">
        <ele>369</ele>
        <time>2020-03-08T10:45:48.000Z</time>
      </trkpt>
      <trkpt lat="47.83063" lon="7.0826">
        <ele>369</ele>
        <time>2020-03-08T10:45:50.000Z</time>
      </trkpt>
      <trkpt lat="47.83055" lon="7.08263">
        <ele>369</ele>
        <time>2020-03-08T10:45:52.000Z</time>
      </trkpt>
      <trkpt lat="47.83031" lon="7.08276">
        <ele>369</ele>
        <time>2020-03-08T10:45:59.000Z</time>
      </trkpt>
      <trkpt lat="47.83011" lon="7.08288">
        <ele>369</ele>
        <time>2020-03-08T10:46:04.000Z</time>
      </trkpt>
      <trkpt lat="47.82995" lon="7.08305">
        <ele>369</ele>
        <time>2020-03-08T10:46:09.000Z</time>
      </trkpt>
      <trkpt lat="47.8298" lon="7.08332">
        <ele>369</ele>
        <time>2020-03-08T10:46:15.000Z</time>
      </trkpt>
      <trkpt lat="47.82964" lon="7.08359">
        <ele>369</ele>
        <time>2020-03-08T10:46:22.000Z</time>
      </trkpt>
      <trkpt lat="47.82948" lon="7.08374">
        <ele>369</ele>
        <time>2020-03-08T10:46:27.000Z</time>
      </trkpt>
      <trkpt lat="47.82941" lon="7.0838">
        <ele>369</ele>
        <time>2020-03-08T10:46:29.000Z</time>
      </trkpt>
      <trkpt lat="47.82926" lon="7.08392">
        <ele>369</ele>
        <time>2020-03-08T10:46:33.000Z</time>
      </trkpt>
      <trkpt lat="47.82905" lon="7.08405">
        <ele>369</ele>
        <time>2020-03-08T10:46:39.000Z</time>
      </trkpt>
      <trkpt lat="47.82889" lon="7.08415">
        <ele>369.39999389648</ele>
        <time>2020-03-08T10:46:44.000Z</time>
      </trkpt>
      <trkpt lat="47.82885" lon="7.08417">
        <ele>369.79998779297</ele>
        <time>2020-03-08T10:46:45.000Z</time>
      </trkpt>
      <trkpt lat="47.82882" lon="7.08419">
        <ele>370.39999389648</ele>
        <time>2020-03-08T10:46:46.000Z</time>
      </trkpt>
      <trkpt lat="47.82878" lon="7.08421">
        <ele>370.79998779297</ele>
        <time>2020-03-08T10:46:47.000Z</time>
      </trkpt>
      <trkpt lat="47.82874" lon="7.08424">
        <ele>371.20001220703</ele>
        <time>2020-03-08T10:46:48.000Z</time>
      </trkpt>
      <trkpt lat="47.82862" lon="7.08432">
        <ele>371.20001220703</ele>
        <time>2020-03-08T10:46:51.000Z</time>
      </trkpt>
      <trkpt lat="47.82859" lon="7.08434">
        <ele>371.60000610352</ele>
        <time>2020-03-08T10:46:52.000Z</time>
      </trkpt>
      <trkpt lat="47.82855" lon="7.08437">
        <ele>372.39999389648</ele>
        <time>2020-03-08T10:46:53.000Z</time>
      </trkpt>
      <trkpt lat="47.82851" lon="7.0844">
        <ele>373</ele>
        <time>2020-03-08T10:46:54.000Z</time>
      </trkpt>
      <trkpt lat="47.82848" lon="7.08442">
        <ele>373.39999389648</ele>
        <time>2020-03-08T10:46:55.000Z</time>
      </trkpt>
      <trkpt lat="47.82838" lon="7.08453">
        <ele>373.39999389648</ele>
        <time>2020-03-08T10:46:58.000Z</time>
      </trkpt>
      <trkpt lat="47.82825" lon="7.0847">
        <ele>373.39999389648</ele>
        <time>2020-03-08T10:47:02.000Z</time>
      </trkpt>
      <trkpt lat="47.82815" lon="7.08481">
        <ele>373.39999389648</ele>
        <time>2020-03-08T10:47:05.000Z</time>
      </trkpt>
      <trkpt lat="47.82789" lon="7.08493">
        <ele>373.39999389648</ele>
        <time>2020-03-08T10:47:11.000Z</time>
      </trkpt>
      <trkpt lat="47.8277" lon="7.08486">
        <ele>373.39999389648</ele>
        <time>2020-03-08T10:47:14.000Z</time>
      </trkpt>
      <trkpt lat="47.82764" lon="7.08487">
        <ele>373</ele>
        <time>2020-03-08T10:47:15.000Z</time>
      </trkpt>
      <trkpt lat="47.82756" lon="7.08488">
        <ele>372.39999389648</ele>
        <time>2020-03-08T10:47:16.000Z</time>
      </trkpt>
      <trkpt lat="47.82748" lon="7.0849">
        <ele>372</ele>
        <time>2020-03-08T10:47:17.000Z</time>
      </trkpt>
      <trkpt lat="47.8274" lon="7.08492">
        <ele>371.20001220703</ele>
        <time>2020-03-08T10:47:18.000Z</time>
      </trkpt>
      <trkpt lat="47.82725" lon="7.08497">
        <ele>370.79998779297</ele>
        <time>2020-03-08T10:47:20.000Z</time>
      </trkpt>
      <trkpt lat="47.82717" lon="7.08499">
        <ele>370.39999389648</ele>
        <time>2020-03-08T10:47:21.000Z</time>
      </trkpt>
      <trkpt lat="47.8271" lon="7.08501">
        <ele>370</ele>
        <time>2020-03-08T10:47:22.000Z</time>
      </trkpt>
      <trkpt lat="47.82702" lon="7.08504">
        <ele>369.60000610352</ele>
        <time>2020-03-08T10:47:23.000Z</time>
      </trkpt>
      <trkpt lat="47.82694" lon="7.08506">
        <ele>369.20001220703</ele>
        <time>2020-03-08T10:47:24.000Z</time>
      </trkpt>
      <trkpt lat="47.8268" lon="7.08509">
        <ele>369.20001220703</ele>
        <time>2020-03-08T10:47:26.000Z</time>
      </trkpt>
      <trkpt lat="47.8264" lon="7.08516">
        <ele>369.20001220703</ele>
        <time>2020-03-08T10:47:32.000Z</time>
      </trkpt>
      <trkpt lat="47.82622" lon="7.08517">
        <ele>369.20001220703</ele>
        <time>2020-03-08T10:47:35.000Z</time>
      </trkpt>
      <trkpt lat="47.8261" lon="7.08514">
        <ele>369.20001220703</ele>
        <time>2020-03-08T10:47:37.000Z</time>
      </trkpt>
      <trkpt lat="47.82598" lon="7.08515">
        <ele>369.20001220703</ele>
        <time>2020-03-08T10:47:39.000Z</time>
      </trkpt>
      <trkpt lat="47.82588" lon="7.08516">
        <ele>368.79998779297</ele>
        <time>2020-03-08T10:47:41.000Z</time>
      </trkpt>
      <trkpt lat="47.82582" lon="7.08516">
        <ele>368</ele>
        <time>2020-03-08T10:47:42.000Z</time>
      </trkpt>
      <trkpt lat="47.82578" lon="7.08515">
        <ele>367.60000610352</ele>
        <time>2020-03-08T10:47:43.000Z</time>
      </trkpt>
      <trkpt lat="47.82573" lon="7.08516">
        <ele>367.20001220703</ele>
        <time>2020-03-08T10:47:44.000Z</time>
      </trkpt>
      <trkpt lat="47.82559" lon="7.08517">
        <ele>367.20001220703</ele>
        <time>2020-03-08T10:47:47.000Z</time>
      </trkpt>
      <trkpt lat="47.82548" lon="7.08518">
        <ele>367.20001220703</ele>
        <time>2020-03-08T10:47:49.000Z</time>
      </trkpt>
      <trkpt lat="47.82532" lon="7.08522">
        <ele>367.20001220703</ele>
        <time>2020-03-08T10:47:52.000Z</time>
      </trkpt>
      <trkpt lat="47.82527" lon="7.08525">
        <ele>367.20001220703</ele>
        <time>2020-03-08T10:47:53.000Z</time>
      </trkpt>
      <trkpt lat="47.82516" lon="7.08532">
        <ele>366.60000610352</ele>
        <time>2020-03-08T10:47:55.000Z</time>
      </trkpt>
      <trkpt lat="47.82511" lon="7.08535">
        <ele>366.20001220703</ele>
        <time>2020-03-08T10:47:56.000Z</time>
      </trkpt>
      <trkpt lat="47.82505" lon="7.08538">
        <ele>365.79998779297</ele>
        <time>2020-03-08T10:47:57.000Z</time>
      </trkpt>
      <trkpt lat="47.82499" lon="7.08541">
        <ele>365.39999389648</ele>
        <time>2020-03-08T10:47:58.000Z</time>
      </trkpt>
      <trkpt lat="47.82494" lon="7.08543">
        <ele>365</ele>
        <time>2020-03-08T10:47:59.000Z</time>
      </trkpt>
      <trkpt lat="47.82476" lon="7.08552">
        <ele>365</ele>
        <time>2020-03-08T10:48:02.000Z</time>
      </trkpt>
      <trkpt lat="47.82464" lon="7.08556">
        <ele>365</ele>
        <time>2020-03-08T10:48:04.000Z</time>
      </trkpt>
      <trkpt lat="47.82429" lon="7.08561">
        <ele>365</ele>
        <time>2020-03-08T10:48:10.000Z</time>
      </trkpt>
      <trkpt lat="47.82404" lon="7.08562">
        <ele>364.60000610352</ele>
        <time>2020-03-08T10:48:15.000Z</time>
      </trkpt>
      <trkpt lat="47.82399" lon="7.08562">
        <ele>364.20001220703</ele>
        <time>2020-03-08T10:48:16.000Z</time>
      </trkpt>
      <trkpt lat="47.82395" lon="7.08561">
        <ele>363.79998779297</ele>
        <time>2020-03-08T10:48:17.000Z</time>
      </trkpt>
      <trkpt lat="47.8239" lon="7.08561">
        <ele>363.39999389648</ele>
        <time>2020-03-08T10:48:18.000Z</time>
      </trkpt>
      <trkpt lat="47.82386" lon="7.0856">
        <ele>362.79998779297</ele>
        <time>2020-03-08T10:48:19.000Z</time>
      </trkpt>
      <trkpt lat="47.82376" lon="7.08558">
        <ele>362.79998779297</ele>
        <time>2020-03-08T10:48:21.000Z</time>
      </trkpt>
      <trkpt lat="47.82372" lon="7.08556">
        <ele>362.79998779297</ele>
        <time>2020-03-08T10:48:22.000Z</time>
      </trkpt>
      <trkpt lat="47.82354" lon="7.08548">
        <ele>362.79998779297</ele>
        <time>2020-03-08T10:48:26.000Z</time>
      </trkpt>
      <trkpt lat="47.82322" lon="7.08522">
        <ele>362.79998779297</ele>
        <time>2020-03-08T10:48:33.000Z</time>
      </trkpt>
      <trkpt lat="47.82318" lon="7.08518">
        <ele>362.79998779297</ele>
        <time>2020-03-08T10:48:34.000Z</time>
      </trkpt>
      <trkpt lat="47.82308" lon="7.0851">
        <ele>362.79998779297</ele>
        <time>2020-03-08T10:48:37.000Z</time>
      </trkpt>
      <trkpt lat="47.82301" lon="7.08505">
        <ele>362.39999389648</ele>
        <time>2020-03-08T10:48:39.000Z</time>
      </trkpt>
      <trkpt lat="47.82297" lon="7.08501">
        <ele>362</ele>
        <time>2020-03-08T10:48:40.000Z</time>
      </trkpt>
      <trkpt lat="47.82292" lon="7.08497">
        <ele>361.60000610352</ele>
        <time>2020-03-08T10:48:41.000Z</time>
      </trkpt>
      <trkpt lat="47.82288" lon="7.08493">
        <ele>361.20001220703</ele>
        <time>2020-03-08T10:48:42.000Z</time>
      </trkpt>
      <trkpt lat="47.82283" lon="7.08488">
        <ele>360.79998779297</ele>
        <time>2020-03-08T10:48:43.000Z</time>
      </trkpt>
      <trkpt lat="47.82265" lon="7.08476">
        <ele>360.79998779297</ele>
        <time>2020-03-08T10:48:47.000Z</time>
      </trkpt>
      <trkpt lat="47.8226" lon="7.08476">
        <ele>360.79998779297</ele>
        <time>2020-03-08T10:48:48.000Z</time>
      </trkpt>
      <trkpt lat="47.82245" lon="7.08476">
        <ele>360.79998779297</ele>
        <time>2020-03-08T10:48:51.000Z</time>
      </trkpt>
      <trkpt lat="47.82227" lon="7.0848">
        <ele>360.79998779297</ele>
        <time>2020-03-08T10:48:54.000Z</time>
      </trkpt>
      <trkpt lat="47.82203" lon="7.08482">
        <ele>360.79998779297</ele>
        <time>2020-03-08T10:48:58.000Z</time>
      </trkpt>
      <trkpt lat="47.82192" lon="7.08482">
        <ele>360.79998779297</ele>
        <time>2020-03-08T10:49:00.000Z</time>
      </trkpt>
      <trkpt lat="47.82156" lon="7.08473">
        <ele>360.79998779297</ele>
        <time>2020-03-08T10:49:06.000Z</time>
      </trkpt>
      <trkpt lat="47.82119" lon="7.08455">
        <ele>360.79998779297</ele>
        <time>2020-03-08T10:49:12.000Z</time>
      </trkpt>
      <trkpt lat="47.82085" lon="7.08446">
        <ele>360.79998779297</ele>
        <time>2020-03-08T10:49:18.000Z</time>
      </trkpt>
      <trkpt lat="47.82058" lon="7.08444">
        <ele>360.79998779297</ele>
        <time>2020-03-08T10:49:23.000Z</time>
      </trkpt>
      <trkpt lat="47.82048" lon="7.08445">
        <ele>360.79998779297</ele>
        <time>2020-03-08T10:49:25.000Z</time>
      </trkpt>
      <trkpt lat="47.82034" lon="7.0845">
        <ele>360.79998779297</ele>
        <time>2020-03-08T10:49:28.000Z</time>
      </trkpt>
      <trkpt lat="47.8203" lon="7.08455">
        <ele>360.79998779297</ele>
        <time>2020-03-08T10:49:29.000Z</time>
      </trkpt>
      <trkpt lat="47.82015" lon="7.08481">
        <ele>360.79998779297</ele>
        <time>2020-03-08T10:49:33.000Z</time>
      </trkpt>
      <trkpt lat="47.82008" lon="7.08496">
        <ele>360.79998779297</ele>
        <time>2020-03-08T10:49:35.000Z</time>
      </trkpt>
      <trkpt lat="47.81997" lon="7.08526">
        <ele>360.79998779297</ele>
        <time>2020-03-08T10:49:39.000Z</time>
      </trkpt>
      <trkpt lat="47.81982" lon="7.08562">
        <ele>360.79998779297</ele>
        <time>2020-03-08T10:49:44.000Z</time>
      </trkpt>
      <trkpt lat="47.81978" lon="7.08569">
        <ele>360.79998779297</ele>
        <time>2020-03-08T10:49:45.000Z</time>
      </trkpt>
      <trkpt lat="47.8196" lon="7.0861">
        <ele>360.79998779297</ele>
        <time>2020-03-08T10:49:51.000Z</time>
      </trkpt>
      <trkpt lat="47.81957" lon="7.08616">
        <ele>360.79998779297</ele>
        <time>2020-03-08T10:49:52.000Z</time>
      </trkpt>
      <trkpt lat="47.81936" lon="7.08651">
        <ele>360.79998779297</ele>
        <time>2020-03-08T10:49:58.000Z</time>
      </trkpt>
      <trkpt lat="47.81912" lon="7.08694">
        <ele>360.79998779297</ele>
        <time>2020-03-08T10:50:05.000Z</time>
      </trkpt>
      <trkpt lat="47.81899" lon="7.08717">
        <ele>360.39999389648</ele>
        <time>2020-03-08T10:50:09.000Z</time>
      </trkpt>
      <trkpt lat="47.81896" lon="7.08723">
        <ele>360</ele>
        <time>2020-03-08T10:50:10.000Z</time>
      </trkpt>
      <trkpt lat="47.81893" lon="7.08729">
        <ele>359.60000610352</ele>
        <time>2020-03-08T10:50:11.000Z</time>
      </trkpt>
      <trkpt lat="47.81889" lon="7.08735">
        <ele>358.79998779297</ele>
        <time>2020-03-08T10:50:12.000Z</time>
      </trkpt>
      <trkpt lat="47.81876" lon="7.08763">
        <ele>358.79998779297</ele>
        <time>2020-03-08T10:50:16.000Z</time>
      </trkpt>
      <trkpt lat="47.8186" lon="7.08806">
        <ele>358.79998779297</ele>
        <time>2020-03-08T10:50:22.000Z</time>
      </trkpt>
      <trkpt lat="47.81847" lon="7.08848">
        <ele>358.79998779297</ele>
        <time>2020-03-08T10:50:28.000Z</time>
      </trkpt>
      <trkpt lat="47.81844" lon="7.08863">
        <ele>358.79998779297</ele>
        <time>2020-03-08T10:50:30.000Z</time>
      </trkpt>
      <trkpt lat="47.81839" lon="7.08883">
        <ele>358.79998779297</ele>
        <time>2020-03-08T10:50:33.000Z</time>
      </trkpt>
      <trkpt lat="47.81834" lon="7.08894">
        <ele>358.79998779297</ele>
        <time>2020-03-08T10:50:35.000Z</time>
      </trkpt>
      <trkpt lat="47.81831" lon="7.08899">
        <ele>358.79998779297</ele>
        <time>2020-03-08T10:50:36.000Z</time>
      </trkpt>
      <trkpt lat="47.81824" lon="7.08908">
        <ele>358.79998779297</ele>
        <time>2020-03-08T10:50:38.000Z</time>
      </trkpt>
      <trkpt lat="47.81817" lon="7.08915">
        <ele>358.79998779297</ele>
        <time>2020-03-08T10:50:40.000Z</time>
      </trkpt>
      <trkpt lat="47.81803" lon="7.08924">
        <ele>358.79998779297</ele>
        <time>2020-03-08T10:50:44.000Z</time>
      </trkpt>
      <trkpt lat="47.81778" lon="7.08935">
        <ele>359.20001220703</ele>
        <time>2020-03-08T10:50:50.000Z</time>
      </trkpt>
      <trkpt lat="47.81774" lon="7.08937">
        <ele>359.60000610352</ele>
        <time>2020-03-08T10:50:51.000Z</time>
      </trkpt>
      <trkpt lat="47.81769" lon="7.08939">
        <ele>360</ele>
        <time>2020-03-08T10:50:52.000Z</time>
      </trkpt>
      <trkpt lat="47.81765" lon="7.08941">
        <ele>360.60000610352</ele>
        <time>2020-03-08T10:50:53.000Z</time>
      </trkpt>
      <trkpt lat="47.8176" lon="7.08943">
        <ele>361</ele>
        <time>2020-03-08T10:50:54.000Z</time>
      </trkpt>
      <trkpt lat="47.81748" lon="7.08948">
        <ele>361</ele>
        <time>2020-03-08T10:50:57.000Z</time>
      </trkpt>
      <trkpt lat="47.81736" lon="7.08953">
        <ele>361</ele>
        <time>2020-03-08T10:51:00.000Z</time>
      </trkpt>
      <trkpt lat="47.81732" lon="7.08955">
        <ele>361.39999389648</ele>
        <time>2020-03-08T10:51:01.000Z</time>
      </trkpt>
      <trkpt lat="47.81728" lon="7.08957">
        <ele>361.79998779297</ele>
        <time>2020-03-08T10:51:02.000Z</time>
      </trkpt>
      <trkpt lat="47.81724" lon="7.08959">
        <ele>362.20001220703</ele>
        <time>2020-03-08T10:51:03.000Z</time>
      </trkpt>
      <trkpt lat="47.81721" lon="7.08962">
        <ele>362.79998779297</ele>
        <time>2020-03-08T10:51:04.000Z</time>
      </trkpt>
      <trkpt lat="47.81717" lon="7.08965">
        <ele>363.20001220703</ele>
        <time>2020-03-08T10:51:05.000Z</time>
      </trkpt>
      <trkpt lat="47.81707" lon="7.08977">
        <ele>363.20001220703</ele>
        <time>2020-03-08T10:51:08.000Z</time>
      </trkpt>
      <trkpt lat="47.81687" lon="7.09005">
        <ele>363.20001220703</ele>
        <time>2020-03-08T10:51:13.000Z</time>
      </trkpt>
      <trkpt lat="47.81672" lon="7.09026">
        <ele>362.79998779297</ele>
        <time>2020-03-08T10:51:16.000Z</time>
      </trkpt>
      <trkpt lat="47.81667" lon="7.09034">
        <ele>362.20001220703</ele>
        <time>2020-03-08T10:51:17.000Z</time>
      </trkpt>
      <trkpt lat="47.81662" lon="7.09043">
        <ele>361.79998779297</ele>
        <time>2020-03-08T10:51:18.000Z</time>
      </trkpt>
      <trkpt lat="47.81658" lon="7.09051">
        <ele>361.39999389648</ele>
        <time>2020-03-08T10:51:19.000Z</time>
      </trkpt>
      <trkpt lat="47.81653" lon="7.0906">
        <ele>361</ele>
        <time>2020-03-08T10:51:20.000Z</time>
      </trkpt>
      <trkpt lat="47.81646" lon="7.09079">
        <ele>360.60000610352</ele>
        <time>2020-03-08T10:51:22.000Z</time>
      </trkpt>
      <trkpt lat="47.81642" lon="7.09089">
        <ele>360.20001220703</ele>
        <time>2020-03-08T10:51:23.000Z</time>
      </trkpt>
      <trkpt lat="47.81639" lon="7.09098">
        <ele>359.60000610352</ele>
        <time>2020-03-08T10:51:24.000Z</time>
      </trkpt>
      <trkpt lat="47.81635" lon="7.09107">
        <ele>359.20001220703</ele>
        <time>2020-03-08T10:51:25.000Z</time>
      </trkpt>
      <trkpt lat="47.81631" lon="7.09116">
        <ele>358.79998779297</ele>
        <time>2020-03-08T10:51:26.000Z</time>
      </trkpt>
      <trkpt lat="47.81618" lon="7.0915">
        <ele>358.79998779297</ele>
        <time>2020-03-08T10:51:30.000Z</time>
      </trkpt>
      <trkpt lat="47.81612" lon="7.09178">
        <ele>358.39999389648</ele>
        <time>2020-03-08T10:51:33.000Z</time>
      </trkpt>
      <trkpt lat="47.8161" lon="7.09188">
        <ele>358</ele>
        <time>2020-03-08T10:51:34.000Z</time>
      </trkpt>
      <trkpt lat="47.81608" lon="7.09198">
        <ele>357.60000610352</ele>
        <time>2020-03-08T10:51:35.000Z</time>
      </trkpt>
      <trkpt lat="47.81607" lon="7.09207">
        <ele>357.20001220703</ele>
        <time>2020-03-08T10:51:36.000Z</time>
      </trkpt>
      <trkpt lat="47.81605" lon="7.09216">
        <ele>356.79998779297</ele>
        <time>2020-03-08T10:51:37.000Z</time>
      </trkpt>
      <trkpt lat="47.81604" lon="7.09226">
        <ele>356.79998779297</ele>
        <time>2020-03-08T10:51:38.000Z</time>
      </trkpt>
      <trkpt lat="47.81598" lon="7.09253">
        <ele>356.79998779297</ele>
        <time>2020-03-08T10:51:41.000Z</time>
      </trkpt>
      <trkpt lat="47.81583" lon="7.09301">
        <ele>356.79998779297</ele>
        <time>2020-03-08T10:51:47.000Z</time>
      </trkpt>
      <trkpt lat="47.81575" lon="7.0933">
        <ele>356.79998779297</ele>
        <time>2020-03-08T10:51:51.000Z</time>
      </trkpt>
      <trkpt lat="47.81573" lon="7.09345">
        <ele>356.79998779297</ele>
        <time>2020-03-08T10:51:53.000Z</time>
      </trkpt>
      <trkpt lat="47.8157" lon="7.09405">
        <ele>356.79998779297</ele>
        <time>2020-03-08T10:52:00.000Z</time>
      </trkpt>
      <trkpt lat="47.81566" lon="7.09458">
        <ele>356.79998779297</ele>
        <time>2020-03-08T10:52:06.000Z</time>
      </trkpt>
      <trkpt lat="47.81556" lon="7.0951">
        <ele>356.79998779297</ele>
        <time>2020-03-08T10:52:12.000Z</time>
      </trkpt>
      <trkpt lat="47.81549" lon="7.09536">
        <ele>356</ele>
        <time>2020-03-08T10:52:15.000Z</time>
      </trkpt>
      <trkpt lat="47.81547" lon="7.09545">
        <ele>355.60000610352</ele>
        <time>2020-03-08T10:52:16.000Z</time>
      </trkpt>
      <trkpt lat="47.81545" lon="7.09553">
        <ele>355.20001220703</ele>
        <time>2020-03-08T10:52:17.000Z</time>
      </trkpt>
      <trkpt lat="47.81543" lon="7.09562">
        <ele>354.79998779297</ele>
        <time>2020-03-08T10:52:18.000Z</time>
      </trkpt>
      <trkpt lat="47.81538" lon="7.09614">
        <ele>354.79998779297</ele>
        <time>2020-03-08T10:52:24.000Z</time>
      </trkpt>
      <trkpt lat="47.81536" lon="7.09647">
        <ele>354.79998779297</ele>
        <time>2020-03-08T10:52:28.000Z</time>
      </trkpt>
      <trkpt lat="47.81534" lon="7.09664">
        <ele>354.79998779297</ele>
        <time>2020-03-08T10:52:30.000Z</time>
      </trkpt>
      <trkpt lat="47.81527" lon="7.09709">
        <ele>354.79998779297</ele>
        <time>2020-03-08T10:52:36.000Z</time>
      </trkpt>
      <trkpt lat="47.81519" lon="7.09751">
        <ele>354.79998779297</ele>
        <time>2020-03-08T10:52:42.000Z</time>
      </trkpt>
      <trkpt lat="47.81507" lon="7.09795">
        <ele>354.79998779297</ele>
        <time>2020-03-08T10:52:49.000Z</time>
      </trkpt>
      <trkpt lat="47.81501" lon="7.09804">
        <ele>354.79998779297</ele>
        <time>2020-03-08T10:52:51.000Z</time>
      </trkpt>
      <trkpt lat="47.81488" lon="7.09821">
        <ele>354.79998779297</ele>
        <time>2020-03-08T10:52:55.000Z</time>
      </trkpt>
      <trkpt lat="47.81473" lon="7.09834">
        <ele>354.79998779297</ele>
        <time>2020-03-08T10:52:59.000Z</time>
      </trkpt>
      <trkpt lat="47.81465" lon="7.09841">
        <ele>354.79998779297</ele>
        <time>2020-03-08T10:53:01.000Z</time>
      </trkpt>
      <trkpt lat="47.8146" lon="7.09845">
        <ele>354.79998779297</ele>
        <time>2020-03-08T10:53:02.000Z</time>
      </trkpt>
      <trkpt lat="47.81441" lon="7.09859">
        <ele>354.79998779297</ele>
        <time>2020-03-08T10:53:06.000Z</time>
      </trkpt>
      <trkpt lat="47.81436" lon="7.09861">
        <ele>354.79998779297</ele>
        <time>2020-03-08T10:53:07.000Z</time>
      </trkpt>
      <trkpt lat="47.8141" lon="7.09878">
        <ele>354.39999389648</ele>
        <time>2020-03-08T10:53:12.000Z</time>
      </trkpt>
      <trkpt lat="47.81405" lon="7.09882">
        <ele>354</ele>
        <time>2020-03-08T10:53:13.000Z</time>
      </trkpt>
      <trkpt lat="47.814" lon="7.09887">
        <ele>353.60000610352</ele>
        <time>2020-03-08T10:53:14.000Z</time>
      </trkpt>
      <trkpt lat="47.81396" lon="7.09892">
        <ele>353.20001220703</ele>
        <time>2020-03-08T10:53:15.000Z</time>
      </trkpt>
      <trkpt lat="47.81392" lon="7.09898">
        <ele>352.79998779297</ele>
        <time>2020-03-08T10:53:16.000Z</time>
      </trkpt>
      <trkpt lat="47.81385" lon="7.09912">
        <ele>352.79998779297</ele>
        <time>2020-03-08T10:53:18.000Z</time>
      </trkpt>
      <trkpt lat="47.81382" lon="7.09918">
        <ele>352.79998779297</ele>
        <time>2020-03-08T10:53:19.000Z</time>
      </trkpt>
      <trkpt lat="47.81375" lon="7.09938">
        <ele>352.79998779297</ele>
        <time>2020-03-08T10:53:22.000Z</time>
      </trkpt>
      <trkpt lat="47.81371" lon="7.09953">
        <ele>352.79998779297</ele>
        <time>2020-03-08T10:53:24.000Z</time>
      </trkpt>
      <trkpt lat="47.81368" lon="7.09968">
        <ele>352.79998779297</ele>
        <time>2020-03-08T10:53:26.000Z</time>
      </trkpt>
      <trkpt lat="47.8136" lon="7.09989">
        <ele>352.79998779297</ele>
        <time>2020-03-08T10:53:29.000Z</time>
      </trkpt>
      <trkpt lat="47.81347" lon="7.10014">
        <ele>352.79998779297</ele>
        <time>2020-03-08T10:53:33.000Z</time>
      </trkpt>
      <trkpt lat="47.81343" lon="7.10019">
        <ele>352.79998779297</ele>
        <time>2020-03-08T10:53:34.000Z</time>
      </trkpt>
      <trkpt lat="47.81337" lon="7.10031">
        <ele>352.79998779297</ele>
        <time>2020-03-08T10:53:36.000Z</time>
      </trkpt>
      <trkpt lat="47.81329" lon="7.10048">
        <ele>352.79998779297</ele>
        <time>2020-03-08T10:53:39.000Z</time>
      </trkpt>
      <trkpt lat="47.81326" lon="7.10053">
        <ele>352.79998779297</ele>
        <time>2020-03-08T10:53:40.000Z</time>
      </trkpt>
      <trkpt lat="47.81318" lon="7.10071">
        <ele>352.79998779297</ele>
        <time>2020-03-08T10:53:43.000Z</time>
      </trkpt>
      <trkpt lat="47.81304" lon="7.10092">
        <ele>352.79998779297</ele>
        <time>2020-03-08T10:53:47.000Z</time>
      </trkpt>
      <trkpt lat="47.81293" lon="7.1011">
        <ele>352.39999389648</ele>
        <time>2020-03-08T10:53:50.000Z</time>
      </trkpt>
      <trkpt lat="47.8129" lon="7.10117">
        <ele>351.79998779297</ele>
        <time>2020-03-08T10:53:51.000Z</time>
      </trkpt>
      <trkpt lat="47.81287" lon="7.10124">
        <ele>351.39999389648</ele>
        <time>2020-03-08T10:53:52.000Z</time>
      </trkpt>
      <trkpt lat="47.81284" lon="7.10131">
        <ele>351</ele>
        <time>2020-03-08T10:53:53.000Z</time>
      </trkpt>
      <trkpt lat="47.81281" lon="7.10138">
        <ele>350.60000610352</ele>
        <time>2020-03-08T10:53:54.000Z</time>
      </trkpt>
      <trkpt lat="47.81276" lon="7.1015">
        <ele>350.60000610352</ele>
        <time>2020-03-08T10:53:56.000Z</time>
      </trkpt>
      <trkpt lat="47.81271" lon="7.10162">
        <ele>350.60000610352</ele>
        <time>2020-03-08T10:53:58.000Z</time>
      </trkpt>
      <trkpt lat="47.81269" lon="7.10175">
        <ele>350.60000610352</ele>
        <time>2020-03-08T10:54:00.000Z</time>
      </trkpt>
      <trkpt lat="47.81268" lon="7.10187">
        <ele>350.60000610352</ele>
        <time>2020-03-08T10:54:02.000Z</time>
      </trkpt>
      <trkpt lat="47.81267" lon="7.10209">
        <ele>350.60000610352</ele>
        <time>2020-03-08T10:54:06.000Z</time>
      </trkpt>
      <trkpt lat="47.81271" lon="7.10236">
        <ele>350.60000610352</ele>
        <time>2020-03-08T10:54:11.000Z</time>
      </trkpt>
      <trkpt lat="47.81273" lon="7.10247">
        <ele>350.60000610352</ele>
        <time>2020-03-08T10:54:13.000Z</time>
      </trkpt>
      <trkpt lat="47.81277" lon="7.10259">
        <ele>350.60000610352</ele>
        <time>2020-03-08T10:54:15.000Z</time>
      </trkpt>
      <trkpt lat="47.81285" lon="7.1028">
        <ele>351</ele>
        <time>2020-03-08T10:54:19.000Z</time>
      </trkpt>
      <trkpt lat="47.81287" lon="7.10285">
        <ele>351.39999389648</ele>
        <time>2020-03-08T10:54:20.000Z</time>
      </trkpt>
      <trkpt lat="47.81289" lon="7.10289">
        <ele>351.79998779297</ele>
        <time>2020-03-08T10:54:21.000Z</time>
      </trkpt>
      <trkpt lat="47.81291" lon="7.10294">
        <ele>352.20001220703</ele>
        <time>2020-03-08T10:54:22.000Z</time>
      </trkpt>
      <trkpt lat="47.81294" lon="7.10297">
        <ele>352.79998779297</ele>
        <time>2020-03-08T10:54:23.000Z</time>
      </trkpt>
      <trkpt lat="47.81297" lon="7.10304">
        <ele>352.79998779297</ele>
        <time>2020-03-08T10:54:25.000Z</time>
      </trkpt>
      <trkpt lat="47.81291" lon="7.10318">
        <ele>352.79998779297</ele>
        <time>2020-03-08T10:54:28.000Z</time>
      </trkpt>
      <trkpt lat="47.81279" lon="7.10338">
        <ele>352.79998779297</ele>
        <time>2020-03-08T10:54:32.000Z</time>
      </trkpt>
      <trkpt lat="47.81276" lon="7.10339">
        <ele>352.79998779297</ele>
        <time>2020-03-08T10:54:33.000Z</time>
      </trkpt>
      <trkpt lat="47.81263" lon="7.10337">
        <ele>352.20001220703</ele>
        <time>2020-03-08T10:54:36.000Z</time>
      </trkpt>
      <trkpt lat="47.81257" lon="7.10337">
        <ele>351.79998779297</ele>
        <time>2020-03-08T10:54:37.000Z</time>
      </trkpt>
      <trkpt lat="47.81252" lon="7.10341">
        <ele>351.20001220703</ele>
        <time>2020-03-08T10:54:38.000Z</time>
      </trkpt>
      <trkpt lat="47.81247" lon="7.10346">
        <ele>350.79998779297</ele>
        <time>2020-03-08T10:54:39.000Z</time>
      </trkpt>
      <trkpt lat="47.81243" lon="7.10351">
        <ele>350.20001220703</ele>
        <time>2020-03-08T10:54:40.000Z</time>
      </trkpt>
      <trkpt lat="47.8124" lon="7.10373">
        <ele>350.20001220703</ele>
        <time>2020-03-08T10:54:43.000Z</time>
      </trkpt>
      <trkpt lat="47.8124" lon="7.10402">
        <ele>350.20001220703</ele>
        <time>2020-03-08T10:54:47.000Z</time>
      </trkpt>
      <trkpt lat="47.81239" lon="7.10415">
        <ele>350.20001220703</ele>
        <time>2020-03-08T10:54:49.000Z</time>
      </trkpt>
      <trkpt lat="47.81235" lon="7.1045">
        <ele>350.20001220703</ele>
        <time>2020-03-08T10:54:55.000Z</time>
      </trkpt>
      <trkpt lat="47.81232" lon="7.10455">
        <ele>350.20001220703</ele>
        <time>2020-03-08T10:54:56.000Z</time>
      </trkpt>
      <trkpt lat="47.81222" lon="7.10467">
        <ele>350.20001220703</ele>
        <time>2020-03-08T10:55:00.000Z</time>
      </trkpt>
      <trkpt lat="47.81214" lon="7.10475">
        <ele>350.20001220703</ele>
        <time>2020-03-08T10:55:05.000Z</time>
      </trkpt>
      <trkpt lat="47.81208" lon="7.10471">
        <ele>350.20001220703</ele>
        <time>2020-03-08T10:55:09.000Z</time>
      </trkpt>
      <trkpt lat="47.81206" lon="7.1047">
        <ele>350.20001220703</ele>
        <time>2020-03-08T10:55:10.000Z</time>
      </trkpt>
      <trkpt lat="47.81192" lon="7.10467">
        <ele>350.20001220703</ele>
        <time>2020-03-08T10:55:15.000Z</time>
      </trkpt>
      <trkpt lat="47.81181" lon="7.10464">
        <ele>350.20001220703</ele>
        <time>2020-03-08T10:55:21.000Z</time>
      </trkpt>
      <trkpt lat="47.81169" lon="7.10463">
        <ele>350.20001220703</ele>
        <time>2020-03-08T10:55:28.000Z</time>
      </trkpt>
      <trkpt lat="47.81168" lon="7.10463">
        <ele>350.20001220703</ele>
        <time>2020-03-08T10:55:29.000Z</time>
      </trkpt>
      <trkpt lat="47.81165" lon="7.10465">
        <ele>350.20001220703</ele>
        <time>2020-03-08T10:55:32.000Z</time>
      </trkpt>
      <trkpt lat="47.81165" lon="7.10465">
        <ele>350.20001220703</ele>
        <time>2020-03-08T10:55:33.000Z</time>
      </trkpt>
      <trkpt lat="47.81163" lon="7.10466">
        <ele>350.20001220703</ele>
        <time>2020-03-08T10:55:39.000Z</time>
      </trkpt>
      <trkpt lat="47.81162" lon="7.10466">
        <ele>350.20001220703</ele>
        <time>2020-03-08T10:55:40.000Z</time>
      </trkpt>
      <trkpt lat="47.81159" lon="7.10467">
        <ele>350.20001220703</ele>
        <time>2020-03-08T10:55:41.000Z</time>
      </trkpt>
      <trkpt lat="47.81144" lon="7.10472">
        <ele>350.20001220703</ele>
        <time>2020-03-08T10:55:46.000Z</time>
      </trkpt>
      <trkpt lat="47.8114" lon="7.1048">
        <ele>349.79998779297</ele>
        <time>2020-03-08T10:55:48.000Z</time>
      </trkpt>
      <trkpt lat="47.81139" lon="7.10484">
        <ele>349.39999389648</ele>
        <time>2020-03-08T10:55:49.000Z</time>
      </trkpt>
      <trkpt lat="47.81136" lon="7.10488">
        <ele>349</ele>
        <time>2020-03-08T10:55:50.000Z</time>
      </trkpt>
      <trkpt lat="47.81134" lon="7.10491">
        <ele>348.60000610352</ele>
        <time>2020-03-08T10:55:51.000Z</time>
      </trkpt>
      <trkpt lat="47.81131" lon="7.10493">
        <ele>348.20001220703</ele>
        <time>2020-03-08T10:55:52.000Z</time>
      </trkpt>
      <trkpt lat="47.81125" lon="7.10495">
        <ele>348.20001220703</ele>
        <time>2020-03-08T10:55:54.000Z</time>
      </trkpt>
      <trkpt lat="47.81115" lon="7.10497">
        <ele>348.20001220703</ele>
        <time>2020-03-08T10:55:58.000Z</time>
      </trkpt>
      <trkpt lat="47.81113" lon="7.10497">
        <ele>348.20001220703</ele>
        <time>2020-03-08T10:55:59.000Z</time>
      </trkpt>
      <trkpt lat="47.81109" lon="7.10498">
        <ele>348.20001220703</ele>
        <time>2020-03-08T10:56:02.000Z</time>
      </trkpt>
      <trkpt lat="47.81108" lon="7.10499">
        <ele>348.20001220703</ele>
        <time>2020-03-08T10:56:04.000Z</time>
      </trkpt>
    </trkseg>
  </trk>
</gpx>